<?xml version="1.0" encoding="UTF-8" standalone="no" ?>
<gpx xmlns="http://www.topografix.com/GPX/1/1" xmlns:xsi="http://www.w3.org/2001/XMLSchema-instance" xsi:schemaLocation="http://www.topografix.com/GPX/1/1 http://www.topografix.com/GPX/1/1/gpx.xsd" version="1.1" creator="VisuGPX - https://www.visugpx.com">
  <metadata>
    <name>tour du glacier de bellecote</name>
    <desc><![CDATA[foyer de ski fond de peisey,lac de la plagne,col plan séry,champagny le haut,le tovet,col de la chiaupe,peisey]]></desc>
  </metadata>
  <trk>
    <name><![CDATA[Move]]></name>
    <trkseg>
      <trkpt lat="45.5296" lon="6.78292">
        <ele>1466</ele>
        <time>2013-06-29T04:12:41.000Z</time>
      </trkpt>
      <trkpt lat="45.52958" lon="6.78296">
        <ele>1466</ele>
        <time>2013-06-29T04:12:42.870Z</time>
      </trkpt>
      <trkpt lat="45.52952" lon="6.78304">
        <ele>1466</ele>
        <time>2013-06-29T04:12:47.870Z</time>
      </trkpt>
      <trkpt lat="45.52944" lon="6.78313">
        <ele>1466.7037821849</ele>
        <time>2013-06-29T04:12:53.870Z</time>
      </trkpt>
      <trkpt lat="45.52936" lon="6.78324">
        <ele>1467.7542023529</ele>
        <time>2013-06-29T04:12:58.870Z</time>
      </trkpt>
      <trkpt lat="45.52928" lon="6.78335">
        <ele>1468.38</ele>
        <time>2013-06-29T04:13:03.840Z</time>
      </trkpt>
      <trkpt lat="45.5292" lon="6.78344">
        <ele>1468.88</ele>
        <time>2013-06-29T04:13:08.840Z</time>
      </trkpt>
      <trkpt lat="45.52913" lon="6.78353">
        <ele>1469.38300032</ele>
        <time>2013-06-29T04:13:13.870Z</time>
      </trkpt>
      <trkpt lat="45.52907" lon="6.78363">
        <ele>1469.89299968</ele>
        <time>2013-06-29T04:13:18.970Z</time>
      </trkpt>
      <trkpt lat="45.52901" lon="6.7837">
        <ele>1470.29299968</ele>
        <time>2013-06-29T04:13:22.970Z</time>
      </trkpt>
      <trkpt lat="45.52894" lon="6.7838">
        <ele>1470.79299968</ele>
        <time>2013-06-29T04:13:27.970Z</time>
      </trkpt>
      <trkpt lat="45.52888" lon="6.78388">
        <ele>1471.19299968</ele>
        <time>2013-06-29T04:13:31.970Z</time>
      </trkpt>
      <trkpt lat="45.52881" lon="6.78398">
        <ele>1471.69299968</ele>
        <time>2013-06-29T04:13:36.970Z</time>
      </trkpt>
      <trkpt lat="45.52874" lon="6.78407">
        <ele>1472.3852286561</ele>
        <time>2013-06-29T04:13:41.970Z</time>
      </trkpt>
      <trkpt lat="45.52868" lon="6.78416">
        <ele>1473.3832320107</ele>
        <time>2013-06-29T04:13:46.970Z</time>
      </trkpt>
      <trkpt lat="45.5286" lon="6.78424">
        <ele>1474.3607191091</ele>
        <time>2013-06-29T04:13:51.860Z</time>
      </trkpt>
      <trkpt lat="45.52853" lon="6.78434">
        <ele>1475.5631246898</ele>
        <time>2013-06-29T04:13:57.860Z</time>
      </trkpt>
      <trkpt lat="45.52844" lon="6.78445">
        <ele>1476.76199936</ele>
        <time>2013-06-29T04:14:03.850Z</time>
      </trkpt>
      <trkpt lat="45.52834" lon="6.78459">
        <ele>1478.08300032</ele>
        <time>2013-06-29T04:14:10.870Z</time>
      </trkpt>
      <trkpt lat="45.52823" lon="6.78472">
        <ele>1478.78300032</ele>
        <time>2013-06-29T04:14:17.870Z</time>
      </trkpt>
      <trkpt lat="45.52813" lon="6.78486">
        <ele>1479.59299968</ele>
        <time>2013-06-29T04:14:25.970Z</time>
      </trkpt>
      <trkpt lat="45.5281" lon="6.78508">
        <ele>1480.78599936</ele>
        <time>2013-06-29T04:14:33.970Z</time>
      </trkpt>
      <trkpt lat="45.52804" lon="6.78526">
        <ele>1482.1691549195</ele>
        <time>2013-06-29T04:14:41.740Z</time>
      </trkpt>
      <trkpt lat="45.52793" lon="6.78541">
        <ele>1483.1567851556</ele>
        <time>2013-06-29T04:14:50.870Z</time>
      </trkpt>
      <trkpt lat="45.52785" lon="6.78551">
        <ele>1484.161809958</ele>
        <time>2013-06-29T04:14:55.870Z</time>
      </trkpt>
      <trkpt lat="45.52778" lon="6.7856">
        <ele>1485.344</ele>
        <time>2013-06-29T04:15:01.760Z</time>
      </trkpt>
      <trkpt lat="45.52771" lon="6.7857">
        <ele>1486.544</ele>
        <time>2013-06-29T04:15:07.760Z</time>
      </trkpt>
      <trkpt lat="45.52763" lon="6.78582">
        <ele>1487.39299968</ele>
        <time>2013-06-29T04:15:13.970Z</time>
      </trkpt>
      <trkpt lat="45.52754" lon="6.78595">
        <ele>1488.1651748188</ele>
        <time>2013-06-29T04:15:20.870Z</time>
      </trkpt>
      <trkpt lat="45.52743" lon="6.786">
        <ele>1489.3592050497</ele>
        <time>2013-06-29T04:15:26.870Z</time>
      </trkpt>
      <trkpt lat="45.52736" lon="6.78602">
        <ele>1490</ele>
        <time>2013-06-29T04:15:30.740Z</time>
      </trkpt>
      <trkpt lat="45.52724" lon="6.78608">
        <ele>1490</ele>
        <time>2013-06-29T04:15:37.740Z</time>
      </trkpt>
      <trkpt lat="45.5271" lon="6.7862">
        <ele>1490.5778442617</ele>
        <time>2013-06-29T04:15:45.830Z</time>
      </trkpt>
      <trkpt lat="45.52701" lon="6.78634">
        <ele>1491.5430845968</ele>
        <time>2013-06-29T04:15:52.770Z</time>
      </trkpt>
      <trkpt lat="45.52693" lon="6.78654">
        <ele>1493.176</ele>
        <time>2013-06-29T04:16:01.800Z</time>
      </trkpt>
      <trkpt lat="45.52683" lon="6.78672">
        <ele>1494.08099968</ele>
        <time>2013-06-29T04:16:10.850Z</time>
      </trkpt>
      <trkpt lat="45.52675" lon="6.78687">
        <ele>1494.88</ele>
        <time>2013-06-29T04:16:18.840Z</time>
      </trkpt>
      <trkpt lat="45.52668" lon="6.78701">
        <ele>1496.18599936</ele>
        <time>2013-06-29T04:16:25.970Z</time>
      </trkpt>
      <trkpt lat="45.52659" lon="6.78715">
        <ele>1497.58599936</ele>
        <time>2013-06-29T04:16:32.970Z</time>
      </trkpt>
      <trkpt lat="45.52651" lon="6.78727">
        <ele>1498.78599936</ele>
        <time>2013-06-29T04:16:38.970Z</time>
      </trkpt>
      <trkpt lat="45.52644" lon="6.78741">
        <ele>1499.4905471015</ele>
        <time>2013-06-29T04:16:44.970Z</time>
      </trkpt>
      <trkpt lat="45.52637" lon="6.78755">
        <ele>1500.3376883336</ele>
        <time>2013-06-29T04:16:51.770Z</time>
      </trkpt>
      <trkpt lat="45.5263" lon="6.78772">
        <ele>1501.7427136506</ele>
        <time>2013-06-29T04:16:58.760Z</time>
      </trkpt>
      <trkpt lat="45.52623" lon="6.78789">
        <ele>1502.59299968</ele>
        <time>2013-06-29T04:17:05.970Z</time>
      </trkpt>
      <trkpt lat="45.52618" lon="6.78806">
        <ele>1503.56</ele>
        <time>2013-06-29T04:17:12.840Z</time>
      </trkpt>
      <trkpt lat="45.52613" lon="6.78826">
        <ele>1505.16600064</ele>
        <time>2013-06-29T04:17:20.870Z</time>
      </trkpt>
      <trkpt lat="45.52606" lon="6.78842">
        <ele>1506.56600064</ele>
        <time>2013-06-29T04:17:27.870Z</time>
      </trkpt>
      <trkpt lat="45.52599" lon="6.78858">
        <ele>1507.464</ele>
        <time>2013-06-29T04:17:34.680Z</time>
      </trkpt>
      <trkpt lat="45.52592" lon="6.78872">
        <ele>1508.1651748188</ele>
        <time>2013-06-29T04:17:40.870Z</time>
      </trkpt>
      <trkpt lat="45.52585" lon="6.78889">
        <ele>1509.7572151267</ele>
        <time>2013-06-29T04:17:48.870Z</time>
      </trkpt>
      <trkpt lat="45.52577" lon="6.78905">
        <ele>1510.577889583</ele>
        <time>2013-06-29T04:17:55.840Z</time>
      </trkpt>
      <trkpt lat="45.5257" lon="6.78918">
        <ele>1511.72799744</ele>
        <time>2013-06-29T04:18:01.860Z</time>
      </trkpt>
      <trkpt lat="45.52565" lon="6.78926">
        <ele>1513.33200128</ele>
        <time>2013-06-29T04:18:05.870Z</time>
      </trkpt>
      <trkpt lat="45.52555" lon="6.78939">
        <ele>1515</ele>
        <time>2013-06-29T04:18:12.970Z</time>
      </trkpt>
      <trkpt lat="45.52546" lon="6.78953">
        <ele>1515</ele>
        <time>2013-06-29T04:18:20.870Z</time>
      </trkpt>
      <trkpt lat="45.52535" lon="6.78967">
        <ele>1515</ele>
        <time>2013-06-29T04:18:27.870Z</time>
      </trkpt>
      <trkpt lat="45.52523" lon="6.78981">
        <ele>1516.16600064</ele>
        <time>2013-06-29T04:18:35.870Z</time>
      </trkpt>
      <trkpt lat="45.52514" lon="6.78993">
        <ele>1518.0865662365</ele>
        <time>2013-06-29T04:18:42.770Z</time>
      </trkpt>
      <trkpt lat="45.52503" lon="6.79004">
        <ele>1520.8726367754</ele>
        <time>2013-06-29T04:18:49.770Z</time>
      </trkpt>
      <trkpt lat="45.52495" lon="6.79014">
        <ele>1521</ele>
        <time>2013-06-29T04:18:54.840Z</time>
      </trkpt>
      <trkpt lat="45.52486" lon="6.79024">
        <ele>1521.1549314093</ele>
        <time>2013-06-29T04:19:00.870Z</time>
      </trkpt>
      <trkpt lat="45.52477" lon="6.79034">
        <ele>1522.1609669788</ele>
        <time>2013-06-29T04:19:05.870Z</time>
      </trkpt>
      <trkpt lat="45.52468" lon="6.79045">
        <ele>1523.34000128</ele>
        <time>2013-06-29T04:19:11.740Z</time>
      </trkpt>
      <trkpt lat="45.52459" lon="6.79058">
        <ele>1524.54000128</ele>
        <time>2013-06-29T04:19:17.740Z</time>
      </trkpt>
      <trkpt lat="45.5245" lon="6.7907">
        <ele>1525</ele>
        <time>2013-06-29T04:19:23.870Z</time>
      </trkpt>
      <trkpt lat="45.52442" lon="6.79081">
        <ele>1525</ele>
        <time>2013-06-29T04:19:28.970Z</time>
      </trkpt>
      <trkpt lat="45.52435" lon="6.79093">
        <ele>1525.39299968</ele>
        <time>2013-06-29T04:19:33.970Z</time>
      </trkpt>
      <trkpt lat="45.5243" lon="6.79106">
        <ele>1525.89299968</ele>
        <time>2013-06-29T04:19:38.970Z</time>
      </trkpt>
      <trkpt lat="45.52425" lon="6.79121">
        <ele>1526.9580832204</ele>
        <time>2013-06-29T04:19:44.840Z</time>
      </trkpt>
      <trkpt lat="45.52419" lon="6.79137">
        <ele>1528</ele>
        <time>2013-06-29T04:19:50.700Z</time>
      </trkpt>
      <trkpt lat="45.52414" lon="6.79151">
        <ele>1528</ele>
        <time>2013-06-29T04:19:55.700Z</time>
      </trkpt>
      <trkpt lat="45.52408" lon="6.79167">
        <ele>1528.172</ele>
        <time>2013-06-29T04:20:01.760Z</time>
      </trkpt>
      <trkpt lat="45.52403" lon="6.79183">
        <ele>1528.77299968</ele>
        <time>2013-06-29T04:20:07.770Z</time>
      </trkpt>
      <trkpt lat="45.52397" lon="6.79197">
        <ele>1529</ele>
        <time>2013-06-29T04:20:13.070Z</time>
      </trkpt>
      <trkpt lat="45.52392" lon="6.79211">
        <ele>1529</ele>
        <time>2013-06-29T04:20:17.870Z</time>
      </trkpt>
      <trkpt lat="45.52387" lon="6.79225">
        <ele>1529</ele>
        <time>2013-06-29T04:20:22.970Z</time>
      </trkpt>
      <trkpt lat="45.52381" lon="6.79239">
        <ele>1529</ele>
        <time>2013-06-29T04:20:27.970Z</time>
      </trkpt>
      <trkpt lat="45.52376" lon="6.79253">
        <ele>1529.29299968</ele>
        <time>2013-06-29T04:20:32.970Z</time>
      </trkpt>
      <trkpt lat="45.5237" lon="6.79267">
        <ele>1529.79299968</ele>
        <time>2013-06-29T04:20:37.970Z</time>
      </trkpt>
      <trkpt lat="45.52365" lon="6.79281">
        <ele>1530</ele>
        <time>2013-06-29T04:20:42.900Z</time>
      </trkpt>
      <trkpt lat="45.52359" lon="6.79298">
        <ele>1530</ele>
        <time>2013-06-29T04:20:48.700Z</time>
      </trkpt>
      <trkpt lat="45.52352" lon="6.79315">
        <ele>1530</ele>
        <time>2013-06-29T04:20:54.670Z</time>
      </trkpt>
      <trkpt lat="45.52346" lon="6.79333">
        <ele>1530</ele>
        <time>2013-06-29T04:21:00.760Z</time>
      </trkpt>
      <trkpt lat="45.52341" lon="6.79349">
        <ele>1530</ele>
        <time>2013-06-29T04:21:05.770Z</time>
      </trkpt>
      <trkpt lat="45.52335" lon="6.79363">
        <ele>1530.0753771818</ele>
        <time>2013-06-29T04:21:10.840Z</time>
      </trkpt>
      <trkpt lat="45.5233" lon="6.79377">
        <ele>1530.577889583</ele>
        <time>2013-06-29T04:21:15.840Z</time>
      </trkpt>
      <trkpt lat="45.52324" lon="6.79395">
        <ele>1531</ele>
        <time>2013-06-29T04:21:21.670Z</time>
      </trkpt>
      <trkpt lat="45.52318" lon="6.79412">
        <ele>1531</ele>
        <time>2013-06-29T04:21:27.670Z</time>
      </trkpt>
      <trkpt lat="45.52312" lon="6.79429">
        <ele>1530.61699968</ele>
        <time>2013-06-29T04:21:33.870Z</time>
      </trkpt>
      <trkpt lat="45.52306" lon="6.79446">
        <ele>1530.01699968</ele>
        <time>2013-06-29T04:21:39.870Z</time>
      </trkpt>
      <trkpt lat="45.52301" lon="6.79463">
        <ele>1530</ele>
        <time>2013-06-29T04:21:45.870Z</time>
      </trkpt>
      <trkpt lat="45.52296" lon="6.79481">
        <ele>1530.1723793548</ele>
        <time>2013-06-29T04:21:51.970Z</time>
      </trkpt>
      <trkpt lat="45.52291" lon="6.79496">
        <ele>1530.6764116129</ele>
        <time>2013-06-29T04:21:56.970Z</time>
      </trkpt>
      <trkpt lat="45.52284" lon="6.79513">
        <ele>1531</ele>
        <time>2013-06-29T04:22:02.870Z</time>
      </trkpt>
      <trkpt lat="45.52276" lon="6.79532">
        <ele>1531</ele>
        <time>2013-06-29T04:22:09.870Z</time>
      </trkpt>
      <trkpt lat="45.5227" lon="6.79548">
        <ele>1531</ele>
        <time>2013-06-29T04:22:15.870Z</time>
      </trkpt>
      <trkpt lat="45.52261" lon="6.79563">
        <ele>1531.17299968</ele>
        <time>2013-06-29T04:22:21.770Z</time>
      </trkpt>
      <trkpt lat="45.52251" lon="6.79574">
        <ele>1531.77299968</ele>
        <time>2013-06-29T04:22:27.770Z</time>
      </trkpt>
      <trkpt lat="45.5224" lon="6.79585">
        <ele>1532</ele>
        <time>2013-06-29T04:22:33.770Z</time>
      </trkpt>
      <trkpt lat="45.52231" lon="6.79596">
        <ele>1532</ele>
        <time>2013-06-29T04:22:38.770Z</time>
      </trkpt>
      <trkpt lat="45.5222" lon="6.79607">
        <ele>1532</ele>
        <time>2013-06-29T04:22:44.740Z</time>
      </trkpt>
      <trkpt lat="45.52211" lon="6.79616">
        <ele>1532</ele>
        <time>2013-06-29T04:22:49.740Z</time>
      </trkpt>
      <trkpt lat="45.522" lon="6.79625">
        <ele>1533.1321912792</ele>
        <time>2013-06-29T04:22:55.740Z</time>
      </trkpt>
      <trkpt lat="45.52189" lon="6.79636">
        <ele>1533.828</ele>
        <time>2013-06-29T04:23:01.760Z</time>
      </trkpt>
      <trkpt lat="45.52178" lon="6.79646">
        <ele>1533.22700032</ele>
        <time>2013-06-29T04:23:07.770Z</time>
      </trkpt>
      <trkpt lat="45.52168" lon="6.79654">
        <ele>1533</ele>
        <time>2013-06-29T04:23:13.740Z</time>
      </trkpt>
      <trkpt lat="45.52157" lon="6.79664">
        <ele>1533</ele>
        <time>2013-06-29T04:23:19.740Z</time>
      </trkpt>
      <trkpt lat="45.52147" lon="6.79673">
        <ele>1533.96600064</ele>
        <time>2013-06-29T04:23:24.870Z</time>
      </trkpt>
      <trkpt lat="45.52138" lon="6.79682">
        <ele>1534.96600064</ele>
        <time>2013-06-29T04:23:29.870Z</time>
      </trkpt>
      <trkpt lat="45.52127" lon="6.79689">
        <ele>1535.4825179565</ele>
        <time>2013-06-29T04:23:34.870Z</time>
      </trkpt>
      <trkpt lat="45.52117" lon="6.79697">
        <ele>1535.9820186156</ele>
        <time>2013-06-29T04:23:39.870Z</time>
      </trkpt>
      <trkpt lat="45.52105" lon="6.79706">
        <ele>1536.5796819123</ele>
        <time>2013-06-29T04:23:45.870Z</time>
      </trkpt>
      <trkpt lat="45.52096" lon="6.79712">
        <ele>1537</ele>
        <time>2013-06-29T04:23:50.770Z</time>
      </trkpt>
      <trkpt lat="45.52087" lon="6.79718">
        <ele>1537</ele>
        <time>2013-06-29T04:23:55.770Z</time>
      </trkpt>
      <trkpt lat="45.52078" lon="6.79727">
        <ele>1537</ele>
        <time>2013-06-29T04:24:00.770Z</time>
      </trkpt>
      <trkpt lat="45.52067" lon="6.79735">
        <ele>1537</ele>
        <time>2013-06-29T04:24:05.770Z</time>
      </trkpt>
      <trkpt lat="45.52056" lon="6.79743">
        <ele>1537</ele>
        <time>2013-06-29T04:24:10.870Z</time>
      </trkpt>
      <trkpt lat="45.52048" lon="6.79749">
        <ele>1537</ele>
        <time>2013-06-29T04:24:14.970Z</time>
      </trkpt>
      <trkpt lat="45.52039" lon="6.79755">
        <ele>1537</ele>
        <time>2013-06-29T04:24:18.970Z</time>
      </trkpt>
      <trkpt lat="45.52031" lon="6.79761">
        <ele>1537</ele>
        <time>2013-06-29T04:24:22.970Z</time>
      </trkpt>
      <trkpt lat="45.52021" lon="6.79769">
        <ele>1537</ele>
        <time>2013-06-29T04:24:27.970Z</time>
      </trkpt>
      <trkpt lat="45.52012" lon="6.79776">
        <ele>1537</ele>
        <time>2013-06-29T04:24:31.970Z</time>
      </trkpt>
      <trkpt lat="45.52003" lon="6.79782">
        <ele>1537</ele>
        <time>2013-06-29T04:24:35.970Z</time>
      </trkpt>
      <trkpt lat="45.51995" lon="6.7979">
        <ele>1537</ele>
        <time>2013-06-29T04:24:39.970Z</time>
      </trkpt>
      <trkpt lat="45.51986" lon="6.79796">
        <ele>1537.371717412</ele>
        <time>2013-06-29T04:24:43.870Z</time>
      </trkpt>
      <trkpt lat="45.51978" lon="6.79805">
        <ele>1537.7767678557</ele>
        <time>2013-06-29T04:24:47.880Z</time>
      </trkpt>
      <trkpt lat="45.51968" lon="6.79815">
        <ele>1538.2763821423</ele>
        <time>2013-06-29T04:24:52.840Z</time>
      </trkpt>
      <trkpt lat="45.51959" lon="6.79826">
        <ele>1538.7798992467</ele>
        <time>2013-06-29T04:24:57.850Z</time>
      </trkpt>
      <trkpt lat="45.51953" lon="6.79836">
        <ele>1538.82</ele>
        <time>2013-06-29T04:25:01.840Z</time>
      </trkpt>
      <trkpt lat="45.51946" lon="6.79847">
        <ele>1538.42</ele>
        <time>2013-06-29T04:25:05.840Z</time>
      </trkpt>
      <trkpt lat="45.51937" lon="6.7986">
        <ele>1538</ele>
        <time>2013-06-29T04:25:10.870Z</time>
      </trkpt>
      <trkpt lat="45.5193" lon="6.79878">
        <ele>1538</ele>
        <time>2013-06-29T04:25:16.870Z</time>
      </trkpt>
      <trkpt lat="45.51923" lon="6.79895">
        <ele>1538</ele>
        <time>2013-06-29T04:25:22.870Z</time>
      </trkpt>
      <trkpt lat="45.51916" lon="6.7991">
        <ele>1538</ele>
        <time>2013-06-29T04:25:27.870Z</time>
      </trkpt>
      <trkpt lat="45.5191" lon="6.79924">
        <ele>1538</ele>
        <time>2013-06-29T04:25:32.870Z</time>
      </trkpt>
      <trkpt lat="45.51903" lon="6.7994">
        <ele>1538</ele>
        <time>2013-06-29T04:25:37.870Z</time>
      </trkpt>
      <trkpt lat="45.51898" lon="6.79955">
        <ele>1538</ele>
        <time>2013-06-29T04:25:42.970Z</time>
      </trkpt>
      <trkpt lat="45.51894" lon="6.7997">
        <ele>1538</ele>
        <time>2013-06-29T04:25:47.970Z</time>
      </trkpt>
      <trkpt lat="45.5189" lon="6.79985">
        <ele>1538.5326625021</ele>
        <time>2013-06-29T04:25:52.740Z</time>
      </trkpt>
      <trkpt lat="45.51885" lon="6.79999">
        <ele>1539.5376898773</ele>
        <time>2013-06-29T04:25:57.740Z</time>
      </trkpt>
      <trkpt lat="45.5188" lon="6.80014">
        <ele>1540</ele>
        <time>2013-06-29T04:26:02.760Z</time>
      </trkpt>
      <trkpt lat="45.51876" lon="6.80028">
        <ele>1540</ele>
        <time>2013-06-29T04:26:07.760Z</time>
      </trkpt>
      <trkpt lat="45.51872" lon="6.80041">
        <ele>1540.19299968</ele>
        <time>2013-06-29T04:26:11.970Z</time>
      </trkpt>
      <trkpt lat="45.51868" lon="6.80052">
        <ele>1540.59299968</ele>
        <time>2013-06-29T04:26:15.970Z</time>
      </trkpt>
      <trkpt lat="45.51865" lon="6.80069">
        <ele>1541.19299968</ele>
        <time>2013-06-29T04:26:21.970Z</time>
      </trkpt>
      <trkpt lat="45.51862" lon="6.80086">
        <ele>1541.79299968</ele>
        <time>2013-06-29T04:26:27.970Z</time>
      </trkpt>
      <trkpt lat="45.51861" lon="6.80105">
        <ele>1542.3849165555</ele>
        <time>2013-06-29T04:26:33.970Z</time>
      </trkpt>
      <trkpt lat="45.51861" lon="6.80123">
        <ele>1542.9725758974</ele>
        <time>2013-06-29T04:26:39.970Z</time>
      </trkpt>
      <trkpt lat="45.51861" lon="6.80143">
        <ele>1543</ele>
        <time>2013-06-29T04:26:45.870Z</time>
      </trkpt>
      <trkpt lat="45.5186" lon="6.80161">
        <ele>1543.1772407419</ele>
        <time>2013-06-29T04:26:51.870Z</time>
      </trkpt>
      <trkpt lat="45.51858" lon="6.8018">
        <ele>1543.7814705439</ele>
        <time>2013-06-29T04:26:57.870Z</time>
      </trkpt>
      <trkpt lat="45.51859" lon="6.80196">
        <ele>1544.56</ele>
        <time>2013-06-29T04:27:02.840Z</time>
      </trkpt>
      <trkpt lat="45.51859" lon="6.80212">
        <ele>1545.56</ele>
        <time>2013-06-29T04:27:07.840Z</time>
      </trkpt>
      <trkpt lat="45.51859" lon="6.80227">
        <ele>1546.29299968</ele>
        <time>2013-06-29T04:27:12.970Z</time>
      </trkpt>
      <trkpt lat="45.5186" lon="6.80246">
        <ele>1546.89299968</ele>
        <time>2013-06-29T04:27:18.970Z</time>
      </trkpt>
      <trkpt lat="45.51861" lon="6.80265">
        <ele>1547</ele>
        <time>2013-06-29T04:27:24.970Z</time>
      </trkpt>
      <trkpt lat="45.51861" lon="6.80282">
        <ele>1547.08</ele>
        <time>2013-06-29T04:27:30.840Z</time>
      </trkpt>
      <trkpt lat="45.51862" lon="6.80301">
        <ele>1547.68</ele>
        <time>2013-06-29T04:27:36.840Z</time>
      </trkpt>
      <trkpt lat="45.51863" lon="6.80323">
        <ele>1548.4616916893</ele>
        <time>2013-06-29T04:27:44.680Z</time>
      </trkpt>
      <trkpt lat="45.51862" lon="6.80344">
        <ele>1549</ele>
        <time>2013-06-29T04:27:51.870Z</time>
      </trkpt>
      <trkpt lat="45.51862" lon="6.80363">
        <ele>1549</ele>
        <time>2013-06-29T04:27:57.870Z</time>
      </trkpt>
      <trkpt lat="45.51862" lon="6.80381">
        <ele>1549.7632357285</ele>
        <time>2013-06-29T04:28:03.860Z</time>
      </trkpt>
      <trkpt lat="45.51862" lon="6.80398">
        <ele>1551.004005284</ele>
        <time>2013-06-29T04:28:10.070Z</time>
      </trkpt>
      <trkpt lat="45.51863" lon="6.80414">
        <ele>1552.1651660732</ele>
        <time>2013-06-29T04:28:15.870Z</time>
      </trkpt>
      <trkpt lat="45.5186" lon="6.80436">
        <ele>1553</ele>
        <time>2013-06-29T04:28:23.740Z</time>
      </trkpt>
      <trkpt lat="45.5186" lon="6.80455">
        <ele>1553</ele>
        <time>2013-06-29T04:28:30.740Z</time>
      </trkpt>
      <trkpt lat="45.51859" lon="6.80474">
        <ele>1553</ele>
        <time>2013-06-29T04:28:37.740Z</time>
      </trkpt>
      <trkpt lat="45.51857" lon="6.80491">
        <ele>1553</ele>
        <time>2013-06-29T04:28:43.840Z</time>
      </trkpt>
      <trkpt lat="45.51855" lon="6.80506">
        <ele>1553.1342666993</ele>
        <time>2013-06-29T04:28:50.730Z</time>
      </trkpt>
      <trkpt lat="45.51849" lon="6.80524">
        <ele>1554.7374741403</ele>
        <time>2013-06-29T04:28:58.730Z</time>
      </trkpt>
      <trkpt lat="45.51841" lon="6.80541">
        <ele>1555.68</ele>
        <time>2013-06-29T04:29:06.840Z</time>
      </trkpt>
      <trkpt lat="45.51833" lon="6.80554">
        <ele>1556.29299968</ele>
        <time>2013-06-29T04:29:12.970Z</time>
      </trkpt>
      <trkpt lat="45.51827" lon="6.80567">
        <ele>1556.89299968</ele>
        <time>2013-06-29T04:29:18.970Z</time>
      </trkpt>
      <trkpt lat="45.51817" lon="6.80577">
        <ele>1557</ele>
        <time>2013-06-29T04:29:24.970Z</time>
      </trkpt>
      <trkpt lat="45.5181" lon="6.80591">
        <ele>1557.3274151179</ele>
        <time>2013-06-29T04:29:31.700Z</time>
      </trkpt>
      <trkpt lat="45.51805" lon="6.80606">
        <ele>1558.9250505247</ele>
        <time>2013-06-29T04:29:39.800Z</time>
      </trkpt>
      <trkpt lat="45.51798" lon="6.8062">
        <ele>1559.7729570057</ele>
        <time>2013-06-29T04:29:47.840Z</time>
      </trkpt>
      <trkpt lat="45.51789" lon="6.80632">
        <ele>1561.4020086345</ele>
        <time>2013-06-29T04:29:54.740Z</time>
      </trkpt>
      <trkpt lat="45.51783" lon="6.80647">
        <ele>1563.552</ele>
        <time>2013-06-29T04:30:02.800Z</time>
      </trkpt>
      <trkpt lat="45.5178" lon="6.80662">
        <ele>1565.13999872</ele>
        <time>2013-06-29T04:30:10.740Z</time>
      </trkpt>
      <trkpt lat="45.51777" lon="6.8068">
        <ele>1566.94000128</ele>
        <time>2013-06-29T04:30:19.740Z</time>
      </trkpt>
      <trkpt lat="45.51774" lon="6.80698">
        <ele>1568.58599936</ele>
        <time>2013-06-29T04:30:27.970Z</time>
      </trkpt>
      <trkpt lat="45.51767" lon="6.80714">
        <ele>1570.16</ele>
        <time>2013-06-29T04:30:35.840Z</time>
      </trkpt>
      <trkpt lat="45.51762" lon="6.80733">
        <ele>1571</ele>
        <time>2013-06-29T04:30:43.740Z</time>
      </trkpt>
      <trkpt lat="45.51762" lon="6.80752">
        <ele>1571.1713418333</ele>
        <time>2013-06-29T04:30:51.770Z</time>
      </trkpt>
      <trkpt lat="45.51762" lon="6.80759">
        <ele>1571.4719432285</ele>
        <time>2013-06-29T04:30:54.770Z</time>
      </trkpt>
      <trkpt lat="45.51756" lon="6.80771">
        <ele>1572.32600064</ele>
        <time>2013-06-29T04:31:01.670Z</time>
      </trkpt>
      <trkpt lat="45.51753" lon="6.80787">
        <ele>1573.928</ele>
        <time>2013-06-29T04:31:09.680Z</time>
      </trkpt>
      <trkpt lat="45.51748" lon="6.80801">
        <ele>1575.36600064</ele>
        <time>2013-06-29T04:31:16.870Z</time>
      </trkpt>
      <trkpt lat="45.51741" lon="6.80813">
        <ele>1576.76600064</ele>
        <time>2013-06-29T04:31:23.870Z</time>
      </trkpt>
      <trkpt lat="45.51732" lon="6.80825">
        <ele>1578.69599744</ele>
        <time>2013-06-29T04:31:31.780Z</time>
      </trkpt>
      <trkpt lat="45.51723" lon="6.80838">
        <ele>1582.1373128397</ele>
        <time>2013-06-29T04:31:40.730Z</time>
      </trkpt>
      <trkpt lat="45.51715" lon="6.80854">
        <ele>1584.0749254186</ele>
        <time>2013-06-29T04:31:50.840Z</time>
      </trkpt>
      <trkpt lat="45.51711" lon="6.80874">
        <ele>1584.9740266051</ele>
        <time>2013-06-29T04:31:59.840Z</time>
      </trkpt>
      <trkpt lat="45.51704" lon="6.8089">
        <ele>1586.5835006303</ele>
        <time>2013-06-29T04:32:07.970Z</time>
      </trkpt>
      <trkpt lat="45.51697" lon="6.80904">
        <ele>1587.78599936</ele>
        <time>2013-06-29T04:32:13.970Z</time>
      </trkpt>
      <trkpt lat="45.51692" lon="6.80921">
        <ele>1589.3300188183</ele>
        <time>2013-06-29T04:32:21.700Z</time>
      </trkpt>
      <trkpt lat="45.51684" lon="6.80934">
        <ele>1590.9204770866</ele>
        <time>2013-06-29T04:32:29.700Z</time>
      </trkpt>
      <trkpt lat="45.51677" lon="6.80949">
        <ele>1592.5372249257</ele>
        <time>2013-06-29T04:32:37.740Z</time>
      </trkpt>
      <trkpt lat="45.51668" lon="6.80965">
        <ele>1597.4427858922</ele>
        <time>2013-06-29T04:32:48.970Z</time>
      </trkpt>
      <trkpt lat="45.51664" lon="6.80979">
        <ele>1600.8391998909</ele>
        <time>2013-06-29T04:32:55.740Z</time>
      </trkpt>
      <trkpt lat="45.5166" lon="6.8099">
        <ele>1603.55599872</ele>
        <time>2013-06-29T04:33:02.820Z</time>
      </trkpt>
      <trkpt lat="45.51654" lon="6.81">
        <ele>1605.57299968</ele>
        <time>2013-06-29T04:33:15.770Z</time>
      </trkpt>
      <trkpt lat="45.51652" lon="6.81012">
        <ele>1606.68</ele>
        <time>2013-06-29T04:33:26.840Z</time>
      </trkpt>
      <trkpt lat="45.51651" lon="6.81027">
        <ele>1607.86999936</ele>
        <time>2013-06-29T04:33:38.740Z</time>
      </trkpt>
      <trkpt lat="45.51646" lon="6.81036">
        <ele>1608.9611949727</ele>
        <time>2013-06-29T04:33:44.870Z</time>
      </trkpt>
      <trkpt lat="45.51639" lon="6.81055">
        <ele>1612.2794001111</ele>
        <time>2013-06-29T04:33:53.870Z</time>
      </trkpt>
      <trkpt lat="45.51637" lon="6.81076">
        <ele>1616.79800192</ele>
        <time>2013-06-29T04:34:02.700Z</time>
      </trkpt>
      <trkpt lat="45.51631" lon="6.81095">
        <ele>1619.29299968</ele>
        <time>2013-06-29T04:34:12.970Z</time>
      </trkpt>
      <trkpt lat="45.51626" lon="6.81105">
        <ele>1619.88300032</ele>
        <time>2013-06-29T04:34:18.870Z</time>
      </trkpt>
      <trkpt lat="45.51624" lon="6.81116">
        <ele>1620.484</ele>
        <time>2013-06-29T04:34:24.880Z</time>
      </trkpt>
      <trkpt lat="45.5162" lon="6.81128">
        <ele>1622.03799808</ele>
        <time>2013-06-29T04:34:31.770Z</time>
      </trkpt>
      <trkpt lat="45.51617" lon="6.81137">
        <ele>1625.03799808</ele>
        <time>2013-06-29T04:34:36.770Z</time>
      </trkpt>
      <trkpt lat="45.51614" lon="6.81148">
        <ele>1627.5572141078</ele>
        <time>2013-06-29T04:34:42.840Z</time>
      </trkpt>
      <trkpt lat="45.51611" lon="6.81158">
        <ele>1628.7512443387</ele>
        <time>2013-06-29T04:34:48.840Z</time>
      </trkpt>
      <trkpt lat="45.51608" lon="6.81165">
        <ele>1629.3668350177</ele>
        <time>2013-06-29T04:34:53.740Z</time>
      </trkpt>
      <trkpt lat="45.51603" lon="6.81174">
        <ele>1629.8693461325</ele>
        <time>2013-06-29T04:34:58.740Z</time>
      </trkpt>
      <trkpt lat="45.51598" lon="6.81181">
        <ele>1632.8670666667</ele>
        <time>2013-06-29T04:35:05.820Z</time>
      </trkpt>
      <trkpt lat="45.51598" lon="6.81191">
        <ele>1634.8511936508</ele>
        <time>2013-06-29T04:35:09.820Z</time>
      </trkpt>
      <trkpt lat="45.51598" lon="6.81207">
        <ele>1635.8876629529</ele>
        <time>2013-06-29T04:35:18.970Z</time>
      </trkpt>
      <trkpt lat="45.51594" lon="6.81221">
        <ele>1637.869344846</ele>
        <time>2013-06-29T04:35:24.740Z</time>
      </trkpt>
      <trkpt lat="45.51594" lon="6.81232">
        <ele>1640.0794438675</ele>
        <time>2013-06-29T04:35:30.840Z</time>
      </trkpt>
      <trkpt lat="45.51594" lon="6.81249">
        <ele>1640.9731873769</ele>
        <time>2013-06-29T04:35:39.840Z</time>
      </trkpt>
      <trkpt lat="45.5159" lon="6.81257">
        <ele>1642.374749098</ele>
        <time>2013-06-29T04:35:46.970Z</time>
      </trkpt>
      <trkpt lat="45.51589" lon="6.81266">
        <ele>1643.9949803433</ele>
        <time>2013-06-29T04:35:51.740Z</time>
      </trkpt>
      <trkpt lat="45.51584" lon="6.81271">
        <ele>1647.613069632</ele>
        <time>2013-06-29T04:35:57.740Z</time>
      </trkpt>
      <trkpt lat="45.51579" lon="6.81284">
        <ele>1650.992</ele>
        <time>2013-06-29T04:36:06.680Z</time>
      </trkpt>
      <trkpt lat="45.51576" lon="6.81293">
        <ele>1652.18300032</ele>
        <time>2013-06-29T04:36:11.870Z</time>
      </trkpt>
      <trkpt lat="45.51571" lon="6.81302">
        <ele>1652.98300032</ele>
        <time>2013-06-29T04:36:19.870Z</time>
      </trkpt>
      <trkpt lat="45.51568" lon="6.81315">
        <ele>1656.9150016</ele>
        <time>2013-06-29T04:36:27.870Z</time>
      </trkpt>
      <trkpt lat="45.51564" lon="6.81328">
        <ele>1659.53799936</ele>
        <time>2013-06-29T04:36:37.730Z</time>
      </trkpt>
      <trkpt lat="45.51561" lon="6.81343">
        <ele>1662.6666649685</ele>
        <time>2013-06-29T04:36:46.740Z</time>
      </trkpt>
      <trkpt lat="45.51557" lon="6.81357">
        <ele>1664</ele>
        <time>2013-06-29T04:36:55.870Z</time>
      </trkpt>
      <trkpt lat="45.51559" lon="6.81372">
        <ele>1664</ele>
        <time>2013-06-29T04:37:02.670Z</time>
      </trkpt>
      <trkpt lat="45.51552" lon="6.81382">
        <ele>1664.58599936</ele>
        <time>2013-06-29T04:37:12.970Z</time>
      </trkpt>
      <trkpt lat="45.51554" lon="6.81398">
        <ele>1666.8500032</ele>
        <time>2013-06-29T04:37:21.740Z</time>
      </trkpt>
      <trkpt lat="45.51551" lon="6.81416">
        <ele>1671.81899904</ele>
        <time>2013-06-29T04:37:32.770Z</time>
      </trkpt>
      <trkpt lat="45.51547" lon="6.81429">
        <ele>1674.2815924479</ele>
        <time>2013-06-29T04:37:42.870Z</time>
      </trkpt>
      <trkpt lat="45.5155" lon="6.81448">
        <ele>1675.1688441668</ele>
        <time>2013-06-29T04:37:51.770Z</time>
      </trkpt>
      <trkpt lat="45.51553" lon="6.81467">
        <ele>1675.8814077165</ele>
        <time>2013-06-29T04:37:58.860Z</time>
      </trkpt>
      <trkpt lat="45.51548" lon="6.81482">
        <ele>1677.7408500919</ele>
        <time>2013-06-29T04:38:08.840Z</time>
      </trkpt>
      <trkpt lat="45.51539" lon="6.81489">
        <ele>1679.7573305585</ele>
        <time>2013-06-29T04:38:18.840Z</time>
      </trkpt>
      <trkpt lat="45.5153" lon="6.81495">
        <ele>1685.87574146</ele>
        <time>2013-06-29T04:38:29.970Z</time>
      </trkpt>
      <trkpt lat="45.51522" lon="6.81511">
        <ele>1689.5462697859</ele>
        <time>2013-06-29T04:38:41.870Z</time>
      </trkpt>
      <trkpt lat="45.51516" lon="6.81524">
        <ele>1692.2793975383</ele>
        <time>2013-06-29T04:38:52.870Z</time>
      </trkpt>
      <trkpt lat="45.51513" lon="6.8154">
        <ele>1693.68000256</ele>
        <time>2013-06-29T04:39:01.740Z</time>
      </trkpt>
      <trkpt lat="45.51507" lon="6.81553">
        <ele>1697.27899904</ele>
        <time>2013-06-29T04:39:10.970Z</time>
      </trkpt>
      <trkpt lat="45.51506" lon="6.8157">
        <ele>1699.37899904</ele>
        <time>2013-06-29T04:39:17.970Z</time>
      </trkpt>
      <trkpt lat="45.515" lon="6.81589">
        <ele>1702.64</ele>
        <time>2013-06-29T04:39:28.840Z</time>
      </trkpt>
      <trkpt lat="45.51494" lon="6.81607">
        <ele>1704.9741556893</ele>
        <time>2013-06-29T04:39:39.970Z</time>
      </trkpt>
      <trkpt lat="45.51486" lon="6.81623">
        <ele>1706.3236173432</ele>
        <time>2013-06-29T04:39:51.700Z</time>
      </trkpt>
      <trkpt lat="45.51477" lon="6.81632">
        <ele>1708.8500032</ele>
        <time>2013-06-29T04:40:01.740Z</time>
      </trkpt>
      <trkpt lat="45.51467" lon="6.81635">
        <ele>1714.43700096</ele>
        <time>2013-06-29T04:40:14.830Z</time>
      </trkpt>
      <trkpt lat="45.51457" lon="6.8164">
        <ele>1716.47299968</ele>
        <time>2013-06-29T04:40:24.770Z</time>
      </trkpt>
      <trkpt lat="45.51447" lon="6.81644">
        <ele>1720.3499968</ele>
        <time>2013-06-29T04:40:36.740Z</time>
      </trkpt>
      <trkpt lat="45.51437" lon="6.8165">
        <ele>1724.3122529644</ele>
        <time>2013-06-29T04:40:47.840Z</time>
      </trkpt>
      <trkpt lat="45.51434" lon="6.81665">
        <ele>1725.5626879238</ele>
        <time>2013-06-29T04:40:55.770Z</time>
      </trkpt>
      <trkpt lat="45.51431" lon="6.81683">
        <ele>1727.0850860188</ele>
        <time>2013-06-29T04:41:02.840Z</time>
      </trkpt>
      <trkpt lat="45.51424" lon="6.817">
        <ele>1729.8878879238</ele>
        <time>2013-06-29T04:41:09.840Z</time>
      </trkpt>
      <trkpt lat="45.51417" lon="6.81718">
        <ele>1730.9859853498</ele>
        <time>2013-06-29T04:41:19.970Z</time>
      </trkpt>
      <trkpt lat="45.51416" lon="6.81736">
        <ele>1734.9718013202</ele>
        <time>2013-06-29T04:41:29.970Z</time>
      </trkpt>
      <trkpt lat="45.51411" lon="6.81726">
        <ele>1737.9524281316</ele>
        <time>2013-06-29T04:41:39.970Z</time>
      </trkpt>
      <trkpt lat="45.51402" lon="6.81724">
        <ele>1738.8875502008</ele>
        <time>2013-06-29T04:41:48.970Z</time>
      </trkpt>
      <trkpt lat="45.51396" lon="6.81739">
        <ele>1740.7587940474</ele>
        <time>2013-06-29T04:41:58.840Z</time>
      </trkpt>
      <trkpt lat="45.51387" lon="6.81756">
        <ele>1744.57199872</ele>
        <time>2013-06-29T04:42:08.970Z</time>
      </trkpt>
      <trkpt lat="45.5138" lon="6.81772">
        <ele>1746.47899904</ele>
        <time>2013-06-29T04:42:14.970Z</time>
      </trkpt>
      <trkpt lat="45.51372" lon="6.81789">
        <ele>1748</ele>
        <time>2013-06-29T04:42:20.640Z</time>
      </trkpt>
      <trkpt lat="45.51373" lon="6.81811">
        <ele>1748</ele>
        <time>2013-06-29T04:42:27.640Z</time>
      </trkpt>
      <trkpt lat="45.51377" lon="6.81829">
        <ele>1747.51699968</ele>
        <time>2013-06-29T04:42:34.870Z</time>
      </trkpt>
      <trkpt lat="45.51373" lon="6.81842">
        <ele>1747.7562191463</ele>
        <time>2013-06-29T04:42:43.840Z</time>
      </trkpt>
      <trkpt lat="45.51371" lon="6.81859">
        <ele>1750.3969876914</ele>
        <time>2013-06-29T04:42:52.870Z</time>
      </trkpt>
      <trkpt lat="45.51367" lon="6.81874">
        <ele>1755.12800256</ele>
        <time>2013-06-29T04:43:02.860Z</time>
      </trkpt>
      <trkpt lat="45.51366" lon="6.81889">
        <ele>1757.13200128</ele>
        <time>2013-06-29T04:43:07.870Z</time>
      </trkpt>
      <trkpt lat="45.51361" lon="6.81913">
        <ele>1758.59299968</ele>
        <time>2013-06-29T04:43:15.970Z</time>
      </trkpt>
      <trkpt lat="45.51359" lon="6.81933">
        <ele>1759.58300032</ele>
        <time>2013-06-29T04:43:25.870Z</time>
      </trkpt>
      <trkpt lat="45.5136" lon="6.81952">
        <ele>1760.291542063</ele>
        <time>2013-06-29T04:43:32.970Z</time>
      </trkpt>
      <trkpt lat="45.5136" lon="6.8197">
        <ele>1760.9781100826</ele>
        <time>2013-06-29T04:43:39.870Z</time>
      </trkpt>
      <trkpt lat="45.51358" lon="6.81986">
        <ele>1761.7754695864</ele>
        <time>2013-06-29T04:43:47.930Z</time>
      </trkpt>
      <trkpt lat="45.51357" lon="6.82002">
        <ele>1763.1524396748</ele>
        <time>2013-06-29T04:43:55.870Z</time>
      </trkpt>
      <trkpt lat="45.51358" lon="6.8202">
        <ele>1765.58599936</ele>
        <time>2013-06-29T04:44:07.970Z</time>
      </trkpt>
      <trkpt lat="45.51355" lon="6.82038">
        <ele>1769.9649984</ele>
        <time>2013-06-29T04:44:17.970Z</time>
      </trkpt>
      <trkpt lat="45.51347" lon="6.82053">
        <ele>1771</ele>
        <time>2013-06-29T04:44:25.970Z</time>
      </trkpt>
      <trkpt lat="45.51355" lon="6.82069">
        <ele>1772.18599936</ele>
        <time>2013-06-29T04:44:35.970Z</time>
      </trkpt>
      <trkpt lat="45.51351" lon="6.82087">
        <ele>1777.3015087271</ele>
        <time>2013-06-29T04:44:50.840Z</time>
      </trkpt>
      <trkpt lat="45.51347" lon="6.821">
        <ele>1782.14599808</ele>
        <time>2013-06-29T04:45:03.860Z</time>
      </trkpt>
      <trkpt lat="45.51351" lon="6.82118">
        <ele>1785.092</ele>
        <time>2013-06-29T04:45:13.680Z</time>
      </trkpt>
      <trkpt lat="45.51351" lon="6.8213">
        <ele>1787.27299968</ele>
        <time>2013-06-29T04:45:22.770Z</time>
      </trkpt>
      <trkpt lat="45.5135" lon="6.82145">
        <ele>1788.56600064</ele>
        <time>2013-06-29T04:45:32.870Z</time>
      </trkpt>
      <trkpt lat="45.51347" lon="6.8216">
        <ele>1793.4730516739</ele>
        <time>2013-06-29T04:45:45.840Z</time>
      </trkpt>
      <trkpt lat="45.51348" lon="6.82179">
        <ele>1799.5310631061</ele>
        <time>2013-06-29T04:45:58.870Z</time>
      </trkpt>
      <trkpt lat="45.5135" lon="6.82198">
        <ele>1802.29199872</ele>
        <time>2013-06-29T04:46:10.770Z</time>
      </trkpt>
      <trkpt lat="45.5135" lon="6.82216">
        <ele>1807.14</ele>
        <time>2013-06-29T04:46:23.840Z</time>
      </trkpt>
      <trkpt lat="45.51351" lon="6.82236">
        <ele>1809.1926143281</ele>
        <time>2013-06-29T04:46:31.970Z</time>
      </trkpt>
      <trkpt lat="45.51354" lon="6.82253">
        <ele>1810</ele>
        <time>2013-06-29T04:46:40.740Z</time>
      </trkpt>
      <trkpt lat="45.51353" lon="6.82268">
        <ele>1810.8994988062</ele>
        <time>2013-06-29T04:46:51.880Z</time>
      </trkpt>
      <trkpt lat="45.51354" lon="6.82284">
        <ele>1817.26399744</ele>
        <time>2013-06-29T04:47:05.700Z</time>
      </trkpt>
      <trkpt lat="45.51357" lon="6.82301">
        <ele>1819.96600064</ele>
        <time>2013-06-29T04:47:14.870Z</time>
      </trkpt>
      <trkpt lat="45.51359" lon="6.82318">
        <ele>1821.48</ele>
        <time>2013-06-29T04:47:24.840Z</time>
      </trkpt>
      <trkpt lat="45.5136" lon="6.82332">
        <ele>1822.53999872</ele>
        <time>2013-06-29T04:47:32.740Z</time>
      </trkpt>
      <trkpt lat="45.51358" lon="6.82352">
        <ele>1828.0898196632</ele>
        <time>2013-06-29T04:47:46.870Z</time>
      </trkpt>
      <trkpt lat="45.51355" lon="6.82371">
        <ele>1832.66399744</ele>
        <time>2013-06-29T04:48:01.700Z</time>
      </trkpt>
      <trkpt lat="45.51351" lon="6.82389">
        <ele>1836.58300032</ele>
        <time>2013-06-29T04:48:15.870Z</time>
      </trkpt>
      <trkpt lat="45.51355" lon="6.82404">
        <ele>1837.76600064</ele>
        <time>2013-06-29T04:48:23.870Z</time>
      </trkpt>
      <trkpt lat="45.5135" lon="6.82413">
        <ele>1840.8569972252</ele>
        <time>2013-06-29T04:48:33.780Z</time>
      </trkpt>
      <trkpt lat="45.51354" lon="6.82426">
        <ele>1843.8361422566</ele>
        <time>2013-06-29T04:48:39.780Z</time>
      </trkpt>
      <trkpt lat="45.51357" lon="6.82442">
        <ele>1844.4869736189</ele>
        <time>2013-06-29T04:48:44.970Z</time>
      </trkpt>
      <trkpt lat="45.51355" lon="6.82456">
        <ele>1845.3276387288</ele>
        <time>2013-06-29T04:48:51.720Z</time>
      </trkpt>
      <trkpt lat="45.51357" lon="6.82482">
        <ele>1847.27299968</ele>
        <time>2013-06-29T04:49:02.770Z</time>
      </trkpt>
      <trkpt lat="45.51357" lon="6.82509">
        <ele>1856.4901198419</ele>
        <time>2013-06-29T04:49:28.870Z</time>
      </trkpt>
      <trkpt lat="45.51358" lon="6.82533">
        <ele>1857.9758794047</ele>
        <time>2013-06-29T04:49:39.870Z</time>
      </trkpt>
      <trkpt lat="45.51364" lon="6.82559">
        <ele>1859.3623620699</ele>
        <time>2013-06-29T04:49:51.870Z</time>
      </trkpt>
      <trkpt lat="45.51366" lon="6.82581">
        <ele>1860.9439438901</ele>
        <time>2013-06-29T04:49:59.770Z</time>
      </trkpt>
      <trkpt lat="45.51362" lon="6.82596">
        <ele>1862.5655663454</ele>
        <time>2013-06-29T04:50:07.870Z</time>
      </trkpt>
      <trkpt lat="45.5136" lon="6.82602">
        <ele>1863.37900032</ele>
        <time>2013-06-29T04:50:13.830Z</time>
      </trkpt>
      <trkpt lat="45.51358" lon="6.82609">
        <ele>1863.97900032</ele>
        <time>2013-06-29T04:50:19.830Z</time>
      </trkpt>
      <trkpt lat="45.51356" lon="6.82621">
        <ele>1865.76600064</ele>
        <time>2013-06-29T04:50:28.870Z</time>
      </trkpt>
      <trkpt lat="45.51354" lon="6.82629">
        <ele>1868.4</ele>
        <time>2013-06-29T04:50:34.840Z</time>
      </trkpt>
      <trkpt lat="45.5135" lon="6.82635">
        <ele>1871.2477622281</ele>
        <time>2013-06-29T04:50:40.870Z</time>
      </trkpt>
      <trkpt lat="45.51349" lon="6.82649">
        <ele>1873.63582269</ele>
        <time>2013-06-29T04:50:48.870Z</time>
      </trkpt>
      <trkpt lat="45.51356" lon="6.82654">
        <ele>1874.5326625021</ele>
        <time>2013-06-29T04:50:52.740Z</time>
      </trkpt>
      <trkpt lat="45.51363" lon="6.82654">
        <ele>1875.336682344</ele>
        <time>2013-06-29T04:50:56.740Z</time>
      </trkpt>
      <trkpt lat="45.51368" lon="6.82655">
        <ele>1875.7407042442</ele>
        <time>2013-06-29T04:50:58.750Z</time>
      </trkpt>
      <trkpt lat="45.51372" lon="6.82658">
        <ele>1876.08</ele>
        <time>2013-06-29T04:51:00.840Z</time>
      </trkpt>
      <trkpt lat="45.51382" lon="6.82667">
        <ele>1876.68</ele>
        <time>2013-06-29T04:51:06.840Z</time>
      </trkpt>
      <trkpt lat="45.51389" lon="6.8268">
        <ele>1877.59299968</ele>
        <time>2013-06-29T04:51:15.970Z</time>
      </trkpt>
      <trkpt lat="45.51399" lon="6.82686">
        <ele>1880.9</ele>
        <time>2013-06-29T04:51:25.840Z</time>
      </trkpt>
      <trkpt lat="45.51406" lon="6.82692">
        <ele>1883.76600064</ele>
        <time>2013-06-29T04:51:33.870Z</time>
      </trkpt>
      <trkpt lat="45.51411" lon="6.82698">
        <ele>1885.6766196781</ele>
        <time>2013-06-29T04:51:41.740Z</time>
      </trkpt>
      <trkpt lat="45.51417" lon="6.82708">
        <ele>1889.7809052363</ele>
        <time>2013-06-29T04:51:52.680Z</time>
      </trkpt>
      <trkpt lat="45.51427" lon="6.82713">
        <ele>1892.76</ele>
        <time>2013-06-29T04:52:03.840Z</time>
      </trkpt>
      <trkpt lat="45.51431" lon="6.82727">
        <ele>1896</ele>
        <time>2013-06-29T04:52:22.700Z</time>
      </trkpt>
      <trkpt lat="45.51433" lon="6.82736">
        <ele>1896.76</ele>
        <time>2013-06-29T04:52:33.840Z</time>
      </trkpt>
      <trkpt lat="45.51433" lon="6.82749">
        <ele>1899.816</ele>
        <time>2013-06-29T04:53:02.760Z</time>
      </trkpt>
      <trkpt lat="45.51429" lon="6.82765">
        <ele>1903.38599936</ele>
        <time>2013-06-29T04:53:16.970Z</time>
      </trkpt>
      <trkpt lat="45.51424" lon="6.8278">
        <ele>1905.96600064</ele>
        <time>2013-06-29T04:53:29.870Z</time>
      </trkpt>
      <trkpt lat="45.51423" lon="6.82796">
        <ele>1908.289811659</ele>
        <time>2013-06-29T04:53:42.970Z</time>
      </trkpt>
      <trkpt lat="45.51427" lon="6.82812">
        <ele>1910.8968648402</ele>
        <time>2013-06-29T04:53:54.840Z</time>
      </trkpt>
      <trkpt lat="45.5143" lon="6.82825">
        <ele>1913.38199936</ele>
        <time>2013-06-29T04:54:03.860Z</time>
      </trkpt>
      <trkpt lat="45.51432" lon="6.82837">
        <ele>1914.38599936</ele>
        <time>2013-06-29T04:54:11.970Z</time>
      </trkpt>
      <trkpt lat="45.51427" lon="6.82851">
        <ele>1916</ele>
        <time>2013-06-29T04:54:20.870Z</time>
      </trkpt>
      <trkpt lat="45.5142" lon="6.82863">
        <ele>1916</ele>
        <time>2013-06-29T04:54:26.870Z</time>
      </trkpt>
      <trkpt lat="45.5141" lon="6.82877">
        <ele>1916.74000128</ele>
        <time>2013-06-29T04:54:33.740Z</time>
      </trkpt>
      <trkpt lat="45.51397" lon="6.82895">
        <ele>1918</ele>
        <time>2013-06-29T04:54:42.970Z</time>
      </trkpt>
      <trkpt lat="45.51387" lon="6.82914">
        <ele>1918</ele>
        <time>2013-06-29T04:54:49.770Z</time>
      </trkpt>
      <trkpt lat="45.51377" lon="6.82934">
        <ele>1917.2222223659</ele>
        <time>2013-06-29T04:54:57.840Z</time>
      </trkpt>
      <trkpt lat="45.51365" lon="6.8295">
        <ele>1917.766170035</ele>
        <time>2013-06-29T04:55:07.740Z</time>
      </trkpt>
      <trkpt lat="45.51363" lon="6.82968">
        <ele>1918.6783920632</ele>
        <time>2013-06-29T04:55:16.840Z</time>
      </trkpt>
      <trkpt lat="45.51355" lon="6.82982">
        <ele>1919.89299968</ele>
        <time>2013-06-29T04:55:28.970Z</time>
      </trkpt>
      <trkpt lat="45.51363" lon="6.82993">
        <ele>1921.18599936</ele>
        <time>2013-06-29T04:55:35.970Z</time>
      </trkpt>
      <trkpt lat="45.51359" lon="6.83011">
        <ele>1923.8706448145</ele>
        <time>2013-06-29T04:55:44.740Z</time>
      </trkpt>
      <trkpt lat="45.51352" lon="6.83024">
        <ele>1926.266331251</ele>
        <time>2013-06-29T04:55:52.740Z</time>
      </trkpt>
      <trkpt lat="45.51344" lon="6.83036">
        <ele>1926.8693461325</ele>
        <time>2013-06-29T04:55:58.740Z</time>
      </trkpt>
      <trkpt lat="45.51333" lon="6.83041">
        <ele>1927.38</ele>
        <time>2013-06-29T04:56:03.840Z</time>
      </trkpt>
      <trkpt lat="45.51321" lon="6.83047">
        <ele>1928.60999936</ele>
        <time>2013-06-29T04:56:13.090Z</time>
      </trkpt>
      <trkpt lat="45.5131" lon="6.83051">
        <ele>1929.95800064</ele>
        <time>2013-06-29T04:56:19.830Z</time>
      </trkpt>
      <trkpt lat="45.51298" lon="6.83057">
        <ele>1931.56600064</ele>
        <time>2013-06-29T04:56:27.870Z</time>
      </trkpt>
      <trkpt lat="45.51288" lon="6.83069">
        <ele>1932.57000064</ele>
        <time>2013-06-29T04:56:35.740Z</time>
      </trkpt>
      <trkpt lat="45.51279" lon="6.83079">
        <ele>1933.291542063</ele>
        <time>2013-06-29T04:56:42.970Z</time>
      </trkpt>
      <trkpt lat="45.51271" lon="6.83089">
        <ele>1933.8885571784</ele>
        <time>2013-06-29T04:56:48.970Z</time>
      </trkpt>
      <trkpt lat="45.51265" lon="6.83104">
        <ele>1934.668341172</ele>
        <time>2013-06-29T04:56:56.740Z</time>
      </trkpt>
      <trkpt lat="45.51259" lon="6.83119">
        <ele>1937.4</ele>
        <time>2013-06-29T04:57:04.840Z</time>
      </trkpt>
      <trkpt lat="45.51251" lon="6.83133">
        <ele>1940.32600064</ele>
        <time>2013-06-29T04:57:11.670Z</time>
      </trkpt>
      <trkpt lat="45.51243" lon="6.83147">
        <ele>1942.08099968</ele>
        <time>2013-06-29T04:57:20.850Z</time>
      </trkpt>
      <trkpt lat="45.51238" lon="6.83161">
        <ele>1942.68</ele>
        <time>2013-06-29T04:57:26.840Z</time>
      </trkpt>
      <trkpt lat="45.51229" lon="6.83165">
        <ele>1943</ele>
        <time>2013-06-29T04:57:32.740Z</time>
      </trkpt>
      <trkpt lat="45.5122" lon="6.83169">
        <ele>1943.1096715901</ele>
        <time>2013-06-29T04:57:40.590Z</time>
      </trkpt>
      <trkpt lat="45.51211" lon="6.83178">
        <ele>1945.9009006123</ele>
        <time>2013-06-29T04:57:51.870Z</time>
      </trkpt>
      <trkpt lat="45.51197" lon="6.83181">
        <ele>1951.142281454</ele>
        <time>2013-06-29T04:58:03.860Z</time>
      </trkpt>
      <trkpt lat="45.5119" lon="6.83193">
        <ele>1953.48300032</ele>
        <time>2013-06-29T04:58:14.870Z</time>
      </trkpt>
      <trkpt lat="45.51184" lon="6.83213">
        <ele>1954.29299968</ele>
        <time>2013-06-29T04:58:22.970Z</time>
      </trkpt>
      <trkpt lat="45.51175" lon="6.83222">
        <ele>1955.16</ele>
        <time>2013-06-29T04:58:30.840Z</time>
      </trkpt>
      <trkpt lat="45.51166" lon="6.83232">
        <ele>1956.36</ele>
        <time>2013-06-29T04:58:36.840Z</time>
      </trkpt>
      <trkpt lat="45.51155" lon="6.83239">
        <ele>1957.3747536882</ele>
        <time>2013-06-29T04:58:43.840Z</time>
      </trkpt>
      <trkpt lat="45.51144" lon="6.83245">
        <ele>1957.966470038</ele>
        <time>2013-06-29T04:58:49.840Z</time>
      </trkpt>
      <trkpt lat="45.51135" lon="6.83249">
        <ele>1959.3529409474</ele>
        <time>2013-06-29T04:58:56.850Z</time>
      </trkpt>
      <trkpt lat="45.51126" lon="6.83257">
        <ele>1960.46999936</ele>
        <time>2013-06-29T04:59:04.740Z</time>
      </trkpt>
      <trkpt lat="45.51117" lon="6.83265">
        <ele>1961.16</ele>
        <time>2013-06-29T04:59:10.840Z</time>
      </trkpt>
      <trkpt lat="45.51108" lon="6.83272">
        <ele>1962.16</ele>
        <time>2013-06-29T04:59:15.840Z</time>
      </trkpt>
      <trkpt lat="45.51101" lon="6.83281">
        <ele>1963.76600064</ele>
        <time>2013-06-29T04:59:23.870Z</time>
      </trkpt>
      <trkpt lat="45.51092" lon="6.83287">
        <ele>1965.07299968</ele>
        <time>2013-06-29T04:59:30.770Z</time>
      </trkpt>
      <trkpt lat="45.51082" lon="6.83293">
        <ele>1966.9412931952</ele>
        <time>2013-06-29T04:59:44.770Z</time>
      </trkpt>
      <trkpt lat="45.5108" lon="6.83299">
        <ele>1970.8522584596</ele>
        <time>2013-06-29T04:59:54.820Z</time>
      </trkpt>
      <trkpt lat="45.51067" lon="6.83297">
        <ele>1977.8704809639</ele>
        <time>2013-06-29T05:00:12.970Z</time>
      </trkpt>
      <trkpt lat="45.51059" lon="6.833">
        <ele>1981.416</ele>
        <time>2013-06-29T05:00:24.760Z</time>
      </trkpt>
      <trkpt lat="45.51049" lon="6.83303">
        <ele>1984.8424216745</ele>
        <time>2013-06-29T05:00:41.740Z</time>
      </trkpt>
      <trkpt lat="45.51043" lon="6.83307">
        <ele>1989</ele>
        <time>2013-06-29T05:00:50.760Z</time>
      </trkpt>
      <trkpt lat="45.51036" lon="6.83309">
        <ele>1989.4649984</ele>
        <time>2013-06-29T05:01:00.970Z</time>
      </trkpt>
      <trkpt lat="45.51028" lon="6.83314">
        <ele>1994.28300032</ele>
        <time>2013-06-29T05:01:12.870Z</time>
      </trkpt>
      <trkpt lat="45.51017" lon="6.83323">
        <ele>1996.76</ele>
        <time>2013-06-29T05:01:28.840Z</time>
      </trkpt>
      <trkpt lat="45.51011" lon="6.83331">
        <ele>2000.97800192</ele>
        <time>2013-06-29T05:01:36.670Z</time>
      </trkpt>
      <trkpt lat="45.51002" lon="6.83341">
        <ele>2003.9552241848</ele>
        <time>2013-06-29T05:01:44.840Z</time>
      </trkpt>
      <trkpt lat="45.50993" lon="6.83355">
        <ele>2005</ele>
        <time>2013-06-29T05:01:54.840Z</time>
      </trkpt>
      <trkpt lat="45.50982" lon="6.83369">
        <ele>2005.9684417947</ele>
        <time>2013-06-29T05:02:09.860Z</time>
      </trkpt>
      <trkpt lat="45.5097" lon="6.83374">
        <ele>2007.1744420774</ele>
        <time>2013-06-29T05:02:15.970Z</time>
      </trkpt>
      <trkpt lat="45.50959" lon="6.8338">
        <ele>2008.96</ele>
        <time>2013-06-29T05:02:24.840Z</time>
      </trkpt>
      <trkpt lat="45.50947" lon="6.83387">
        <ele>2011.57800192</ele>
        <time>2013-06-29T05:02:32.670Z</time>
      </trkpt>
      <trkpt lat="45.50939" lon="6.83401">
        <ele>2016.3822356042</ele>
        <time>2013-06-29T05:02:43.870Z</time>
      </trkpt>
      <trkpt lat="45.50927" lon="6.8341">
        <ele>2017.0711413683</ele>
        <time>2013-06-29T05:02:50.770Z</time>
      </trkpt>
      <trkpt lat="45.50914" lon="6.83418">
        <ele>2017.8717434047</ele>
        <time>2013-06-29T05:02:58.760Z</time>
      </trkpt>
      <trkpt lat="45.50903" lon="6.83416">
        <ele>2019.14000128</ele>
        <time>2013-06-29T05:03:05.740Z</time>
      </trkpt>
      <trkpt lat="45.50891" lon="6.83413">
        <ele>2020.77000064</ele>
        <time>2013-06-29T05:03:17.740Z</time>
      </trkpt>
      <trkpt lat="45.50875" lon="6.8342">
        <ele>2022.76600064</ele>
        <time>2013-06-29T05:03:28.870Z</time>
      </trkpt>
      <trkpt lat="45.50862" lon="6.8343">
        <ele>2023</ele>
        <time>2013-06-29T05:03:37.740Z</time>
      </trkpt>
      <trkpt lat="45.50851" lon="6.83441">
        <ele>2024.75600128</ele>
        <time>2013-06-29T05:03:48.870Z</time>
      </trkpt>
      <trkpt lat="45.50836" lon="6.83446">
        <ele>2026.336682344</ele>
        <time>2013-06-29T05:03:56.740Z</time>
      </trkpt>
      <trkpt lat="45.50819" lon="6.83446">
        <ele>2029.9099968</ele>
        <time>2013-06-29T05:04:05.860Z</time>
      </trkpt>
      <trkpt lat="45.50802" lon="6.83453">
        <ele>2032</ele>
        <time>2013-06-29T05:04:14.930Z</time>
      </trkpt>
      <trkpt lat="45.50786" lon="6.83462">
        <ele>2032.56600064</ele>
        <time>2013-06-29T05:04:22.870Z</time>
      </trkpt>
      <trkpt lat="45.50769" lon="6.83456">
        <ele>2034</ele>
        <time>2013-06-29T05:04:31.840Z</time>
      </trkpt>
      <trkpt lat="45.5075" lon="6.83461">
        <ele>2034.5648705374</ele>
        <time>2013-06-29T05:04:42.870Z</time>
      </trkpt>
      <trkpt lat="45.50736" lon="6.83459">
        <ele>2036.7294568205</ele>
        <time>2013-06-29T05:04:53.700Z</time>
      </trkpt>
      <trkpt lat="45.50729" lon="6.83463">
        <ele>2038.33199872</ele>
        <time>2013-06-29T05:05:01.700Z</time>
      </trkpt>
      <trkpt lat="45.50716" lon="6.83476">
        <ele>2040</ele>
        <time>2013-06-29T05:05:15.870Z</time>
      </trkpt>
      <trkpt lat="45.50702" lon="6.83477">
        <ele>2041.3593595646</ele>
        <time>2013-06-29T05:05:26.840Z</time>
      </trkpt>
      <trkpt lat="45.50691" lon="6.83488">
        <ele>2045.12</ele>
        <time>2013-06-29T05:05:37.840Z</time>
      </trkpt>
      <trkpt lat="45.50679" lon="6.83485">
        <ele>2049.8724039177</ele>
        <time>2013-06-29T05:05:47.870Z</time>
      </trkpt>
      <trkpt lat="45.50663" lon="6.83483">
        <ele>2052.3387251248</ele>
        <time>2013-06-29T05:05:56.770Z</time>
      </trkpt>
      <trkpt lat="45.50652" lon="6.83476">
        <ele>2053</ele>
        <time>2013-06-29T05:06:02.740Z</time>
      </trkpt>
      <trkpt lat="45.50642" lon="6.83484">
        <ele>2053</ele>
        <time>2013-06-29T05:06:09.740Z</time>
      </trkpt>
      <trkpt lat="45.50634" lon="6.8349">
        <ele>2054.56600064</ele>
        <time>2013-06-29T05:06:17.870Z</time>
      </trkpt>
      <trkpt lat="45.50625" lon="6.83496">
        <ele>2055.9791863561</ele>
        <time>2013-06-29T05:06:24.980Z</time>
      </trkpt>
      <trkpt lat="45.50613" lon="6.83501">
        <ele>2057.3511616222</ele>
        <time>2013-06-29T05:06:31.870Z</time>
      </trkpt>
      <trkpt lat="45.50606" lon="6.83508">
        <ele>2059.3601984829</ele>
        <time>2013-06-29T05:06:41.850Z</time>
      </trkpt>
      <trkpt lat="45.506" lon="6.8352">
        <ele>2061.3517593241</ele>
        <time>2013-06-29T05:06:51.840Z</time>
      </trkpt>
      <trkpt lat="45.50587" lon="6.83518">
        <ele>2063.16600064</ele>
        <time>2013-06-29T05:07:00.870Z</time>
      </trkpt>
      <trkpt lat="45.50578" lon="6.83512">
        <ele>2064.16600064</ele>
        <time>2013-06-29T05:07:05.870Z</time>
      </trkpt>
      <trkpt lat="45.50569" lon="6.8351">
        <ele>2065.34200064</ele>
        <time>2013-06-29T05:07:11.750Z</time>
      </trkpt>
      <trkpt lat="45.50567" lon="6.83496">
        <ele>2067.72600064</ele>
        <time>2013-06-29T05:07:23.670Z</time>
      </trkpt>
      <trkpt lat="45.50563" lon="6.83482">
        <ele>2069.56</ele>
        <time>2013-06-29T05:07:32.840Z</time>
      </trkpt>
      <trkpt lat="45.50555" lon="6.83473">
        <ele>2071.4743083004</ele>
        <time>2013-06-29T05:07:40.840Z</time>
      </trkpt>
      <trkpt lat="45.50545" lon="6.83468">
        <ele>2077.3653842915</ele>
        <time>2013-06-29T05:07:53.770Z</time>
      </trkpt>
      <trkpt lat="45.50534" lon="6.83462">
        <ele>2080.016</ele>
        <time>2013-06-29T05:08:06.760Z</time>
      </trkpt>
      <trkpt lat="45.50526" lon="6.83452">
        <ele>2082.36600064</ele>
        <time>2013-06-29T05:08:16.870Z</time>
      </trkpt>
      <trkpt lat="45.50512" lon="6.83449">
        <ele>2085.56</ele>
        <time>2013-06-29T05:08:32.840Z</time>
      </trkpt>
      <trkpt lat="45.505" lon="6.8344">
        <ele>2090.4540035754</ele>
        <time>2013-06-29T05:08:48.770Z</time>
      </trkpt>
      <trkpt lat="45.50491" lon="6.83438">
        <ele>2091.6663288708</ele>
        <time>2013-06-29T05:08:56.740Z</time>
      </trkpt>
      <trkpt lat="45.50483" lon="6.83442">
        <ele>2094.4</ele>
        <time>2013-06-29T05:09:04.840Z</time>
      </trkpt>
      <trkpt lat="45.50474" lon="6.83445">
        <ele>2097.1920395437</ele>
        <time>2013-06-29T05:09:11.970Z</time>
      </trkpt>
      <trkpt lat="45.50464" lon="6.8345">
        <ele>2097.7791050441</ele>
        <time>2013-06-29T05:09:17.870Z</time>
      </trkpt>
      <trkpt lat="45.50456" lon="6.8346">
        <ele>2098.7748744443</ele>
        <time>2013-06-29T05:09:27.800Z</time>
      </trkpt>
      <trkpt lat="45.50442" lon="6.83471">
        <ele>2101.3641798572</ele>
        <time>2013-06-29T05:09:41.870Z</time>
      </trkpt>
      <trkpt lat="45.5043" lon="6.83477">
        <ele>2102.7572151267</ele>
        <time>2013-06-29T05:09:48.870Z</time>
      </trkpt>
      <trkpt lat="45.50418" lon="6.83477">
        <ele>2103</ele>
        <time>2013-06-29T05:09:53.740Z</time>
      </trkpt>
      <trkpt lat="45.50408" lon="6.83486">
        <ele>2103</ele>
        <time>2013-06-29T05:09:59.840Z</time>
      </trkpt>
      <trkpt lat="45.50396" lon="6.83505">
        <ele>2103</ele>
        <time>2013-06-29T05:10:08.980Z</time>
      </trkpt>
      <trkpt lat="45.50381" lon="6.83522">
        <ele>2100.62100096</ele>
        <time>2013-06-29T05:10:17.970Z</time>
      </trkpt>
      <trkpt lat="45.50365" lon="6.83536">
        <ele>2100</ele>
        <time>2013-06-29T05:10:31.970Z</time>
      </trkpt>
      <trkpt lat="45.50352" lon="6.83553">
        <ele>2100</ele>
        <time>2013-06-29T05:10:40.800Z</time>
      </trkpt>
      <trkpt lat="45.50346" lon="6.83577">
        <ele>2100.0680897561</ele>
        <time>2013-06-29T05:10:50.870Z</time>
      </trkpt>
      <trkpt lat="45.50333" lon="6.83596">
        <ele>2100.82</ele>
        <time>2013-06-29T05:11:01.840Z</time>
      </trkpt>
      <trkpt lat="45.50326" lon="6.83597">
        <ele>2100.52</ele>
        <time>2013-06-29T05:11:04.840Z</time>
      </trkpt>
      <trkpt lat="45.5032" lon="6.836">
        <ele>2100.22</ele>
        <time>2013-06-29T05:11:07.840Z</time>
      </trkpt>
      <trkpt lat="45.50315" lon="6.83603">
        <ele>2099.6268514517</ele>
        <time>2013-06-29T05:11:11.930Z</time>
      </trkpt>
      <trkpt lat="45.50309" lon="6.83604">
        <ele>2099.0345511659</ele>
        <time>2013-06-29T05:11:14.930Z</time>
      </trkpt>
      <trkpt lat="45.50304" lon="6.83605">
        <ele>2098.4422508801</ele>
        <time>2013-06-29T05:11:17.930Z</time>
      </trkpt>
      <trkpt lat="45.50299" lon="6.83606">
        <ele>2097.9290773888</ele>
        <time>2013-06-29T05:11:20.870Z</time>
      </trkpt>
      <trkpt lat="45.50294" lon="6.83608">
        <ele>2097.42249194</ele>
        <time>2013-06-29T05:11:25.870Z</time>
      </trkpt>
      <trkpt lat="45.5029" lon="6.83611">
        <ele>2097.1185406708</ele>
        <time>2013-06-29T05:11:28.870Z</time>
      </trkpt>
      <trkpt lat="45.50271" lon="6.83617">
        <ele>2095.23399936</ele>
        <time>2013-06-29T05:11:38.870Z</time>
      </trkpt>
      <trkpt lat="45.50253" lon="6.83624">
        <ele>2096.2637807874</ele>
        <time>2013-06-29T05:11:50.760Z</time>
      </trkpt>
      <trkpt lat="45.50236" lon="6.83635">
        <ele>2099.4133870866</ele>
        <time>2013-06-29T05:11:58.760Z</time>
      </trkpt>
      <trkpt lat="45.50221" lon="6.83645">
        <ele>2100</ele>
        <time>2013-06-29T05:12:09.970Z</time>
      </trkpt>
      <trkpt lat="45.50205" lon="6.83657">
        <ele>2104.46999936</ele>
        <time>2013-06-29T05:12:24.740Z</time>
      </trkpt>
      <trkpt lat="45.50187" lon="6.83654">
        <ele>2105</ele>
        <time>2013-06-29T05:12:34.870Z</time>
      </trkpt>
      <trkpt lat="45.50171" lon="6.83645">
        <ele>2104.2614762402</ele>
        <time>2013-06-29T05:12:43.740Z</time>
      </trkpt>
      <trkpt lat="45.50152" lon="6.8365">
        <ele>2099.7043248436</ele>
        <time>2013-06-29T05:12:56.770Z</time>
      </trkpt>
      <trkpt lat="45.50133" lon="6.83649">
        <ele>2098</ele>
        <time>2013-06-29T05:13:08.970Z</time>
      </trkpt>
      <trkpt lat="45.50115" lon="6.83659">
        <ele>2097.00700032</ele>
        <time>2013-06-29T05:13:19.970Z</time>
      </trkpt>
      <trkpt lat="45.501" lon="6.83665">
        <ele>2096.10700032</ele>
        <time>2013-06-29T05:13:28.970Z</time>
      </trkpt>
      <trkpt lat="45.50081" lon="6.83667">
        <ele>2095.33699968</ele>
        <time>2013-06-29T05:13:36.670Z</time>
      </trkpt>
      <trkpt lat="45.50062" lon="6.83667">
        <ele>2095</ele>
        <time>2013-06-29T05:13:46.840Z</time>
      </trkpt>
      <trkpt lat="45.50042" lon="6.83666">
        <ele>2095</ele>
        <time>2013-06-29T05:13:56.770Z</time>
      </trkpt>
      <trkpt lat="45.50023" lon="6.83663">
        <ele>2095</ele>
        <time>2013-06-29T05:14:05.740Z</time>
      </trkpt>
      <trkpt lat="45.50004" lon="6.83655">
        <ele>2095.5872210387</ele>
        <time>2013-06-29T05:14:15.970Z</time>
      </trkpt>
      <trkpt lat="45.49985" lon="6.83654">
        <ele>2096</ele>
        <time>2013-06-29T05:14:24.840Z</time>
      </trkpt>
      <trkpt lat="45.49966" lon="6.83659">
        <ele>2096.57000064</ele>
        <time>2013-06-29T05:14:35.740Z</time>
      </trkpt>
      <trkpt lat="45.49948" lon="6.83666">
        <ele>2097</ele>
        <time>2013-06-29T05:14:45.740Z</time>
      </trkpt>
      <trkpt lat="45.49931" lon="6.83676">
        <ele>2097</ele>
        <time>2013-06-29T05:14:53.840Z</time>
      </trkpt>
      <trkpt lat="45.49912" lon="6.83684">
        <ele>2096.7294593856</ele>
        <time>2013-06-29T05:15:02.760Z</time>
      </trkpt>
      <trkpt lat="45.49896" lon="6.83698">
        <ele>2096</ele>
        <time>2013-06-29T05:15:13.740Z</time>
      </trkpt>
      <trkpt lat="45.49879" lon="6.83704">
        <ele>2096</ele>
        <time>2013-06-29T05:15:22.870Z</time>
      </trkpt>
      <trkpt lat="45.4986" lon="6.83698">
        <ele>2095.70700032</ele>
        <time>2013-06-29T05:15:32.970Z</time>
      </trkpt>
      <trkpt lat="45.49844" lon="6.8371">
        <ele>2095</ele>
        <time>2013-06-29T05:15:40.740Z</time>
      </trkpt>
      <trkpt lat="45.49829" lon="6.83719">
        <ele>2095</ele>
        <time>2013-06-29T05:15:49.740Z</time>
      </trkpt>
      <trkpt lat="45.49816" lon="6.83734">
        <ele>2094.0259733949</ele>
        <time>2013-06-29T05:15:59.840Z</time>
      </trkpt>
      <trkpt lat="45.49802" lon="6.83751">
        <ele>2095</ele>
        <time>2013-06-29T05:16:10.860Z</time>
      </trkpt>
      <trkpt lat="45.49783" lon="6.83754">
        <ele>2095.3428009134</ele>
        <time>2013-06-29T05:16:21.870Z</time>
      </trkpt>
      <trkpt lat="45.49764" lon="6.8375">
        <ele>2097.09299968</ele>
        <time>2013-06-29T05:16:30.970Z</time>
      </trkpt>
      <trkpt lat="45.49745" lon="6.83749">
        <ele>2097.89299968</ele>
        <time>2013-06-29T05:16:38.970Z</time>
      </trkpt>
      <trkpt lat="45.49726" lon="6.83754">
        <ele>2098.7890546592</ele>
        <time>2013-06-29T05:16:47.970Z</time>
      </trkpt>
      <trkpt lat="45.49708" lon="6.83756">
        <ele>2099</ele>
        <time>2013-06-29T05:16:55.770Z</time>
      </trkpt>
      <trkpt lat="45.49691" lon="6.83763">
        <ele>2098.61800064</ele>
        <time>2013-06-29T05:17:03.860Z</time>
      </trkpt>
      <trkpt lat="45.49672" lon="6.8377">
        <ele>2098</ele>
        <time>2013-06-29T05:17:12.870Z</time>
      </trkpt>
      <trkpt lat="45.49653" lon="6.83773">
        <ele>2098</ele>
        <time>2013-06-29T05:17:21.870Z</time>
      </trkpt>
      <trkpt lat="45.49634" lon="6.83778">
        <ele>2098</ele>
        <time>2013-06-29T05:17:29.870Z</time>
      </trkpt>
      <trkpt lat="45.49619" lon="6.83791">
        <ele>2097.0258443107</ele>
        <time>2013-06-29T05:17:39.840Z</time>
      </trkpt>
      <trkpt lat="45.49603" lon="6.83804">
        <ele>2096.3387096774</ele>
        <time>2013-06-29T05:17:51.860Z</time>
      </trkpt>
      <trkpt lat="45.49587" lon="6.83807">
        <ele>2097.9516129032</ele>
        <time>2013-06-29T05:17:59.860Z</time>
      </trkpt>
      <trkpt lat="45.49581" lon="6.83809">
        <ele>2098.2887325304</ele>
        <time>2013-06-29T05:18:02.970Z</time>
      </trkpt>
      <trkpt lat="45.49573" lon="6.83811">
        <ele>2098.6911467582</ele>
        <time>2013-06-29T05:18:06.970Z</time>
      </trkpt>
      <trkpt lat="45.4956" lon="6.83819">
        <ele>2099.58300032</ele>
        <time>2013-06-29T05:18:15.870Z</time>
      </trkpt>
      <trkpt lat="45.49541" lon="6.83816">
        <ele>2100</ele>
        <time>2013-06-29T05:18:25.770Z</time>
      </trkpt>
      <trkpt lat="45.49529" lon="6.83814">
        <ele>2100.36600064</ele>
        <time>2013-06-29T05:18:31.870Z</time>
      </trkpt>
      <trkpt lat="45.49512" lon="6.83816">
        <ele>2102</ele>
        <time>2013-06-29T05:18:40.760Z</time>
      </trkpt>
      <trkpt lat="45.49496" lon="6.83813">
        <ele>2101.9291491498</ele>
        <time>2013-06-29T05:18:50.860Z</time>
      </trkpt>
      <trkpt lat="45.49481" lon="6.8381">
        <ele>2100.9192112176</ele>
        <time>2013-06-29T05:19:00.860Z</time>
      </trkpt>
      <trkpt lat="45.49466" lon="6.83808">
        <ele>2100.0690355554</ele>
        <time>2013-06-29T05:19:10.870Z</time>
      </trkpt>
      <trkpt lat="45.49451" lon="6.83823">
        <ele>2101</ele>
        <time>2013-06-29T05:19:20.760Z</time>
      </trkpt>
      <trkpt lat="45.49437" lon="6.8384">
        <ele>2101</ele>
        <time>2013-06-29T05:19:29.760Z</time>
      </trkpt>
      <trkpt lat="45.49419" lon="6.83851">
        <ele>2101.7827831727</ele>
        <time>2013-06-29T05:19:37.870Z</time>
      </trkpt>
      <trkpt lat="45.49401" lon="6.83858">
        <ele>2104.3084584465</ele>
        <time>2013-06-29T05:19:45.840Z</time>
      </trkpt>
      <trkpt lat="45.49383" lon="6.83864">
        <ele>2106.4793977956</ele>
        <time>2013-06-29T05:19:54.860Z</time>
      </trkpt>
      <trkpt lat="45.49366" lon="6.83851">
        <ele>2108.11000192</ele>
        <time>2013-06-29T05:20:03.740Z</time>
      </trkpt>
      <trkpt lat="45.49348" lon="6.83842">
        <ele>2110</ele>
        <time>2013-06-29T05:20:12.760Z</time>
      </trkpt>
      <trkpt lat="45.49331" lon="6.83841">
        <ele>2110</ele>
        <time>2013-06-29T05:20:18.760Z</time>
      </trkpt>
      <trkpt lat="45.49314" lon="6.83852">
        <ele>2110</ele>
        <time>2013-06-29T05:20:28.970Z</time>
      </trkpt>
      <trkpt lat="45.49299" lon="6.8387">
        <ele>2110</ele>
        <time>2013-06-29T05:20:37.740Z</time>
      </trkpt>
      <trkpt lat="45.49285" lon="6.8389">
        <ele>2110</ele>
        <time>2013-06-29T05:20:46.800Z</time>
      </trkpt>
      <trkpt lat="45.49268" lon="6.83905">
        <ele>2110.770854345</ele>
        <time>2013-06-29T05:20:57.760Z</time>
      </trkpt>
      <trkpt lat="45.49258" lon="6.83915">
        <ele>2111.96</ele>
        <time>2013-06-29T05:21:04.840Z</time>
      </trkpt>
      <trkpt lat="45.49245" lon="6.83922">
        <ele>2113.56600064</ele>
        <time>2013-06-29T05:21:12.870Z</time>
      </trkpt>
      <trkpt lat="45.49236" lon="6.83924">
        <ele>2114.58599936</ele>
        <time>2013-06-29T05:21:17.970Z</time>
      </trkpt>
      <trkpt lat="45.49225" lon="6.83927">
        <ele>2115.5813485714</ele>
        <time>2013-06-29T05:21:22.970Z</time>
      </trkpt>
      <trkpt lat="45.49214" lon="6.8393">
        <ele>2116.9702374603</ele>
        <time>2013-06-29T05:21:29.970Z</time>
      </trkpt>
      <trkpt lat="45.49204" lon="6.83932">
        <ele>2117</ele>
        <time>2013-06-29T05:21:34.970Z</time>
      </trkpt>
      <trkpt lat="45.49195" lon="6.83934">
        <ele>2117</ele>
        <time>2013-06-29T05:21:38.970Z</time>
      </trkpt>
      <trkpt lat="45.49186" lon="6.83935">
        <ele>2117.9526639543</ele>
        <time>2013-06-29T05:21:44.870Z</time>
      </trkpt>
      <trkpt lat="45.49181" lon="6.83937">
        <ele>2118.9585804867</ele>
        <time>2013-06-29T05:21:49.970Z</time>
      </trkpt>
      <trkpt lat="45.49171" lon="6.83941">
        <ele>2119</ele>
        <time>2013-06-29T05:21:56.840Z</time>
      </trkpt>
      <trkpt lat="45.49164" lon="6.83943">
        <ele>2118.53200128</ele>
        <time>2013-06-29T05:22:12.700Z</time>
      </trkpt>
      <trkpt lat="45.49153" lon="6.83944">
        <ele>2121</ele>
        <time>2013-06-29T05:23:04.870Z</time>
      </trkpt>
      <trkpt lat="45.49143" lon="6.83947">
        <ele>2121</ele>
        <time>2013-06-29T05:23:09.970Z</time>
      </trkpt>
      <trkpt lat="45.49134" lon="6.83946">
        <ele>2120.60700032</ele>
        <time>2013-06-29T05:23:13.970Z</time>
      </trkpt>
      <trkpt lat="45.49117" lon="6.83946">
        <ele>2119.8326765354</ele>
        <time>2013-06-29T05:23:21.740Z</time>
      </trkpt>
      <trkpt lat="45.49098" lon="6.83944">
        <ele>2119.0792676423</ele>
        <time>2013-06-29T05:23:30.980Z</time>
      </trkpt>
      <trkpt lat="45.49079" lon="6.83939">
        <ele>2119.8912598374</ele>
        <time>2013-06-29T05:23:38.970Z</time>
      </trkpt>
      <trkpt lat="45.49059" lon="6.83932">
        <ele>2120</ele>
        <time>2013-06-29T05:23:47.970Z</time>
      </trkpt>
      <trkpt lat="45.49041" lon="6.83925">
        <ele>2120</ele>
        <time>2013-06-29T05:23:54.830Z</time>
      </trkpt>
      <trkpt lat="45.49024" lon="6.83913">
        <ele>2119.828</ele>
        <time>2013-06-29T05:24:01.760Z</time>
      </trkpt>
      <trkpt lat="45.49014" lon="6.83893">
        <ele>2119.228</ele>
        <time>2013-06-29T05:24:07.760Z</time>
      </trkpt>
      <trkpt lat="45.49002" lon="6.83872">
        <ele>2119</ele>
        <time>2013-06-29T05:24:15.870Z</time>
      </trkpt>
      <trkpt lat="45.48983" lon="6.83879">
        <ele>2119</ele>
        <time>2013-06-29T05:24:26.830Z</time>
      </trkpt>
      <trkpt lat="45.48965" lon="6.83886">
        <ele>2119.88</ele>
        <time>2013-06-29T05:24:38.840Z</time>
      </trkpt>
      <trkpt lat="45.48945" lon="6.83887">
        <ele>2120</ele>
        <time>2013-06-29T05:24:48.970Z</time>
      </trkpt>
      <trkpt lat="45.48927" lon="6.83895">
        <ele>2120</ele>
        <time>2013-06-29T05:24:58.740Z</time>
      </trkpt>
      <trkpt lat="45.48909" lon="6.83901">
        <ele>2120</ele>
        <time>2013-06-29T05:25:06.770Z</time>
      </trkpt>
      <trkpt lat="45.4889" lon="6.83901">
        <ele>2123.17199872</ele>
        <time>2013-06-29T05:25:17.970Z</time>
      </trkpt>
      <trkpt lat="45.4887" lon="6.83913">
        <ele>2124</ele>
        <time>2013-06-29T05:25:25.970Z</time>
      </trkpt>
      <trkpt lat="45.48852" lon="6.83916">
        <ele>2124.4744749631</ele>
        <time>2013-06-29T05:25:34.790Z</time>
      </trkpt>
      <trkpt lat="45.48846" lon="6.83921">
        <ele>2124.8658665495</ele>
        <time>2013-06-29T05:25:38.700Z</time>
      </trkpt>
      <trkpt lat="45.48833" lon="6.83926">
        <ele>2130.5399143857</ele>
        <time>2013-06-29T05:25:47.970Z</time>
      </trkpt>
      <trkpt lat="45.48821" lon="6.83937">
        <ele>2133.7394775083</ele>
        <time>2013-06-29T05:25:58.740Z</time>
      </trkpt>
      <trkpt lat="45.48804" lon="6.83933">
        <ele>2134</ele>
        <time>2013-06-29T05:26:09.770Z</time>
      </trkpt>
      <trkpt lat="45.48798" lon="6.8393">
        <ele>2135.3753755755</ele>
        <time>2013-06-29T05:26:16.970Z</time>
      </trkpt>
      <trkpt lat="45.48787" lon="6.83934">
        <ele>2140</ele>
        <time>2013-06-29T05:26:35.630Z</time>
      </trkpt>
      <trkpt lat="45.48773" lon="6.83946">
        <ele>2141.9542282043</ele>
        <time>2013-06-29T05:26:49.860Z</time>
      </trkpt>
      <trkpt lat="45.48759" lon="6.83962">
        <ele>2142.8693461325</ele>
        <time>2013-06-29T05:26:58.740Z</time>
      </trkpt>
      <trkpt lat="45.48747" lon="6.83975">
        <ele>2144.77899904</ele>
        <time>2013-06-29T05:27:05.970Z</time>
      </trkpt>
      <trkpt lat="45.48733" lon="6.8399">
        <ele>2146</ele>
        <time>2013-06-29T05:27:14.870Z</time>
      </trkpt>
      <trkpt lat="45.48715" lon="6.83999">
        <ele>2146.28</ele>
        <time>2013-06-29T05:27:22.840Z</time>
      </trkpt>
      <trkpt lat="45.48699" lon="6.84002">
        <ele>2147.36399872</ele>
        <time>2013-06-29T05:27:31.860Z</time>
      </trkpt>
      <trkpt lat="45.48683" lon="6.84001">
        <ele>2151.0298513926</ele>
        <time>2013-06-29T05:27:46.840Z</time>
      </trkpt>
      <trkpt lat="45.48665" lon="6.83991">
        <ele>2153.51799936</ele>
        <time>2013-06-29T05:28:04.860Z</time>
      </trkpt>
      <trkpt lat="45.48645" lon="6.83992">
        <ele>2153.29299968</ele>
        <time>2013-06-29T05:28:12.970Z</time>
      </trkpt>
      <trkpt lat="45.48629" lon="6.84001">
        <ele>2153.98300032</ele>
        <time>2013-06-29T05:28:19.870Z</time>
      </trkpt>
      <trkpt lat="45.48615" lon="6.84003">
        <ele>2154.99299968</ele>
        <time>2013-06-29T05:28:29.970Z</time>
      </trkpt>
      <trkpt lat="45.48598" lon="6.84">
        <ele>2156.5243798685</ele>
        <time>2013-06-29T05:28:43.870Z</time>
      </trkpt>
      <trkpt lat="45.48582" lon="6.84">
        <ele>2159.2783928351</ele>
        <time>2013-06-29T05:28:52.860Z</time>
      </trkpt>
      <trkpt lat="45.48563" lon="6.84003">
        <ele>2160.0815927026</ele>
        <time>2013-06-29T05:29:00.860Z</time>
      </trkpt>
      <trkpt lat="45.48545" lon="6.83997">
        <ele>2160.9671644871</ele>
        <time>2013-06-29T05:29:09.760Z</time>
      </trkpt>
      <trkpt lat="45.48527" lon="6.84004">
        <ele>2161</ele>
        <time>2013-06-29T05:29:18.840Z</time>
      </trkpt>
      <trkpt lat="45.48508" lon="6.84006">
        <ele>2157.5550016</ele>
        <time>2013-06-29T05:29:26.930Z</time>
      </trkpt>
      <trkpt lat="45.48489" lon="6.84005">
        <ele>2156</ele>
        <time>2013-06-29T05:29:33.740Z</time>
      </trkpt>
      <trkpt lat="45.48476" lon="6.84006">
        <ele>2156</ele>
        <time>2013-06-29T05:29:38.740Z</time>
      </trkpt>
      <trkpt lat="45.48457" lon="6.84008">
        <ele>2156</ele>
        <time>2013-06-29T05:29:45.970Z</time>
      </trkpt>
      <trkpt lat="45.4844" lon="6.84002">
        <ele>2155.4753751235</ele>
        <time>2013-06-29T05:29:52.700Z</time>
      </trkpt>
      <trkpt lat="45.4843" lon="6.84007">
        <ele>2153.256</ele>
        <time>2013-06-29T05:30:03.760Z</time>
      </trkpt>
      <trkpt lat="45.4842" lon="6.84009">
        <ele>2152</ele>
        <time>2013-06-29T05:30:10.870Z</time>
      </trkpt>
      <trkpt lat="45.48408" lon="6.84009">
        <ele>2152</ele>
        <time>2013-06-29T05:30:16.870Z</time>
      </trkpt>
      <trkpt lat="45.48399" lon="6.84003">
        <ele>2152</ele>
        <time>2013-06-29T05:30:24.670Z</time>
      </trkpt>
      <trkpt lat="45.48392" lon="6.84002">
        <ele>2151.43399936</ele>
        <time>2013-06-29T05:30:32.870Z</time>
      </trkpt>
      <trkpt lat="45.48385" lon="6.83996">
        <ele>2150.23399936</ele>
        <time>2013-06-29T05:30:38.870Z</time>
      </trkpt>
      <trkpt lat="45.48377" lon="6.83991">
        <ele>2150.3788632889</ele>
        <time>2013-06-29T05:30:43.840Z</time>
      </trkpt>
      <trkpt lat="45.48368" lon="6.83982">
        <ele>2150.9670990334</ele>
        <time>2013-06-29T05:30:49.740Z</time>
      </trkpt>
      <trkpt lat="45.4836" lon="6.83979">
        <ele>2153.1761127126</ele>
        <time>2013-06-29T05:31:05.970Z</time>
      </trkpt>
      <trkpt lat="45.48352" lon="6.83975">
        <ele>2153.8601410942</ele>
        <time>2013-06-29T05:31:10.740Z</time>
      </trkpt>
      <trkpt lat="45.48342" lon="6.83969">
        <ele>2152.8371637442</ele>
        <time>2013-06-29T05:31:15.860Z</time>
      </trkpt>
      <trkpt lat="45.48331" lon="6.83965">
        <ele>2151.9379373172</ele>
        <time>2013-06-29T05:31:20.670Z</time>
      </trkpt>
      <trkpt lat="45.48313" lon="6.83963">
        <ele>2151.5816009237</ele>
        <time>2013-06-29T05:31:32.980Z</time>
      </trkpt>
      <trkpt lat="45.48294" lon="6.83963">
        <ele>2153</ele>
        <time>2013-06-29T05:31:42.870Z</time>
      </trkpt>
      <trkpt lat="45.48282" lon="6.83956">
        <ele>2152.9276995048</ele>
        <time>2013-06-29T05:31:50.980Z</time>
      </trkpt>
      <trkpt lat="45.48264" lon="6.83968">
        <ele>2152.2158860877</ele>
        <time>2013-06-29T05:31:57.970Z</time>
      </trkpt>
      <trkpt lat="45.48244" lon="6.83968">
        <ele>2152.4653268051</ele>
        <time>2013-06-29T05:32:04.720Z</time>
      </trkpt>
      <trkpt lat="45.48225" lon="6.8396">
        <ele>2153.5825047046</ele>
        <time>2013-06-29T05:32:12.970Z</time>
      </trkpt>
      <trkpt lat="45.48208" lon="6.8395">
        <ele>2154.9741556893</ele>
        <time>2013-06-29T05:32:19.970Z</time>
      </trkpt>
      <trkpt lat="45.48198" lon="6.83933">
        <ele>2155</ele>
        <time>2013-06-29T05:32:26.870Z</time>
      </trkpt>
      <trkpt lat="45.48188" lon="6.83915">
        <ele>2155.48300032</ele>
        <time>2013-06-29T05:32:34.870Z</time>
      </trkpt>
      <trkpt lat="45.48171" lon="6.83899">
        <ele>2156.7438177665</ele>
        <time>2013-06-29T05:32:43.800Z</time>
      </trkpt>
      <trkpt lat="45.48161" lon="6.83881">
        <ele>2158.0616781595</ele>
        <time>2013-06-29T05:32:50.760Z</time>
      </trkpt>
      <trkpt lat="45.48146" lon="6.83866">
        <ele>2158.8705762979</ele>
        <time>2013-06-29T05:32:58.760Z</time>
      </trkpt>
      <trkpt lat="45.48133" lon="6.83854">
        <ele>2161</ele>
        <time>2013-06-29T05:33:10.860Z</time>
      </trkpt>
      <trkpt lat="45.48118" lon="6.83843">
        <ele>2161.08200064</ele>
        <time>2013-06-29T05:33:20.860Z</time>
      </trkpt>
      <trkpt lat="45.48102" lon="6.83844">
        <ele>2162</ele>
        <time>2013-06-29T05:33:31.840Z</time>
      </trkpt>
      <trkpt lat="45.48089" lon="6.83842">
        <ele>2162.1796406038</ele>
        <time>2013-06-29T05:33:41.840Z</time>
      </trkpt>
      <trkpt lat="45.48075" lon="6.83837">
        <ele>2163.0701396843</ele>
        <time>2013-06-29T05:33:50.760Z</time>
      </trkpt>
      <trkpt lat="45.48063" lon="6.83827">
        <ele>2163.7715429397</ele>
        <time>2013-06-29T05:33:57.760Z</time>
      </trkpt>
      <trkpt lat="45.48052" lon="6.83828">
        <ele>2164.872</ele>
        <time>2013-06-29T05:34:08.760Z</time>
      </trkpt>
      <trkpt lat="45.48044" lon="6.83828">
        <ele>2166.96600064</ele>
        <time>2013-06-29T05:34:19.870Z</time>
      </trkpt>
      <trkpt lat="45.48035" lon="6.83824">
        <ele>2170.0661405145</ele>
        <time>2013-06-29T05:34:31.840Z</time>
      </trkpt>
      <trkpt lat="45.48029" lon="6.83815">
        <ele>2174.804542801</ele>
        <time>2013-06-29T05:34:39.840Z</time>
      </trkpt>
      <trkpt lat="45.48023" lon="6.83808">
        <ele>2176.7670682731</ele>
        <time>2013-06-29T05:34:48.970Z</time>
      </trkpt>
      <trkpt lat="45.48022" lon="6.83796">
        <ele>2179.3400588206</ele>
        <time>2013-06-29T05:34:57.860Z</time>
      </trkpt>
      <trkpt lat="45.48023" lon="6.83784">
        <ele>2180.66999936</ele>
        <time>2013-06-29T05:35:06.740Z</time>
      </trkpt>
      <trkpt lat="45.48022" lon="6.83775">
        <ele>2181.9649984</ele>
        <time>2013-06-29T05:35:11.970Z</time>
      </trkpt>
      <trkpt lat="45.48018" lon="6.83766">
        <ele>2185.4649984</ele>
        <time>2013-06-29T05:35:18.970Z</time>
      </trkpt>
      <trkpt lat="45.48011" lon="6.83756">
        <ele>2188.37899904</ele>
        <time>2013-06-29T05:35:27.970Z</time>
      </trkpt>
      <trkpt lat="45.48008" lon="6.83745">
        <ele>2190.16600064</ele>
        <time>2013-06-29T05:35:35.870Z</time>
      </trkpt>
      <trkpt lat="45.48007" lon="6.83736">
        <ele>2192.0537307236</ele>
        <time>2013-06-29T05:35:43.570Z</time>
      </trkpt>
      <trkpt lat="45.48009" lon="6.83724">
        <ele>2194.7577880578</ele>
        <time>2013-06-29T05:35:53.860Z</time>
      </trkpt>
      <trkpt lat="45.48006" lon="6.83713">
        <ele>2196.48200064</ele>
        <time>2013-06-29T05:36:04.860Z</time>
      </trkpt>
      <trkpt lat="45.48005" lon="6.837">
        <ele>2198.328</ele>
        <time>2013-06-29T05:36:16.680Z</time>
      </trkpt>
      <trkpt lat="45.48003" lon="6.83688">
        <ele>2200.16600064</ele>
        <time>2013-06-29T05:36:25.870Z</time>
      </trkpt>
      <trkpt lat="45.47997" lon="6.83676">
        <ele>2202.18599936</ele>
        <time>2013-06-29T05:36:35.970Z</time>
      </trkpt>
      <trkpt lat="45.47995" lon="6.83663">
        <ele>2203.9381218758</ele>
        <time>2013-06-29T05:36:44.740Z</time>
      </trkpt>
      <trkpt lat="45.47995" lon="6.83649">
        <ele>2207.2845629079</ele>
        <time>2013-06-29T05:36:53.860Z</time>
      </trkpt>
      <trkpt lat="45.47989" lon="6.83637">
        <ele>2212.18199936</ele>
        <time>2013-06-29T05:37:11.860Z</time>
      </trkpt>
      <trkpt lat="45.47989" lon="6.83624">
        <ele>2213.58599936</ele>
        <time>2013-06-29T05:37:22.970Z</time>
      </trkpt>
      <trkpt lat="45.4799" lon="6.8361">
        <ele>2215.736319916</ele>
        <time>2013-06-29T05:37:33.740Z</time>
      </trkpt>
      <trkpt lat="45.47986" lon="6.83599">
        <ele>2217.53400064</ele>
        <time>2013-06-29T05:37:42.760Z</time>
      </trkpt>
      <trkpt lat="45.47988" lon="6.83588">
        <ele>2220.6703570105</ele>
        <time>2013-06-29T05:37:52.860Z</time>
      </trkpt>
      <trkpt lat="45.47988" lon="6.83575">
        <ele>2225.52600064</ele>
        <time>2013-06-29T05:38:02.670Z</time>
      </trkpt>
      <trkpt lat="45.47989" lon="6.83566">
        <ele>2226.72600064</ele>
        <time>2013-06-29T05:38:08.670Z</time>
      </trkpt>
      <trkpt lat="45.47987" lon="6.83557">
        <ele>2227.88300032</ele>
        <time>2013-06-29T05:38:18.870Z</time>
      </trkpt>
      <trkpt lat="45.47978" lon="6.83549">
        <ele>2228.67000064</ele>
        <time>2013-06-29T05:39:01.690Z</time>
      </trkpt>
      <trkpt lat="45.47972" lon="6.83541">
        <ele>2227.3399209486</ele>
        <time>2013-06-29T05:39:11.760Z</time>
      </trkpt>
      <trkpt lat="45.47964" lon="6.83533">
        <ele>2231.86032583</ele>
        <time>2013-06-29T05:39:24.870Z</time>
      </trkpt>
      <trkpt lat="45.47959" lon="6.83519">
        <ele>2236.47899904</ele>
        <time>2013-06-29T05:39:34.970Z</time>
      </trkpt>
      <trkpt lat="45.47952" lon="6.83512">
        <ele>2240.3601984829</ele>
        <time>2013-06-29T05:39:45.970Z</time>
      </trkpt>
      <trkpt lat="45.47947" lon="6.83501">
        <ele>2242</ele>
        <time>2013-06-29T05:39:55.760Z</time>
      </trkpt>
      <trkpt lat="45.47938" lon="6.83493">
        <ele>2242.872</ele>
        <time>2013-06-29T05:40:08.760Z</time>
      </trkpt>
      <trkpt lat="45.47934" lon="6.83477">
        <ele>2245.71600128</ele>
        <time>2013-06-29T05:40:16.830Z</time>
      </trkpt>
      <trkpt lat="45.47927" lon="6.8346">
        <ele>2247</ele>
        <time>2013-06-29T05:40:22.870Z</time>
      </trkpt>
      <trkpt lat="45.47922" lon="6.83448">
        <ele>2247</ele>
        <time>2013-06-29T05:40:27.970Z</time>
      </trkpt>
      <trkpt lat="45.47914" lon="6.83435">
        <ele>2247</ele>
        <time>2013-06-29T05:40:37.740Z</time>
      </trkpt>
      <trkpt lat="45.47906" lon="6.83423">
        <ele>2249.8942097283</ele>
        <time>2013-06-29T05:40:45.840Z</time>
      </trkpt>
      <trkpt lat="45.47897" lon="6.83414">
        <ele>2252</ele>
        <time>2013-06-29T05:40:53.700Z</time>
      </trkpt>
      <trkpt lat="45.47892" lon="6.83404">
        <ele>2252.1501507427</ele>
        <time>2013-06-29T05:41:00.800Z</time>
      </trkpt>
      <trkpt lat="45.47886" lon="6.83394">
        <ele>2254.36399872</ele>
        <time>2013-06-29T05:41:11.860Z</time>
      </trkpt>
      <trkpt lat="45.4788" lon="6.83386">
        <ele>2255.76400128</ele>
        <time>2013-06-29T05:41:18.860Z</time>
      </trkpt>
      <trkpt lat="45.47872" lon="6.83377">
        <ele>2259.4649984</ele>
        <time>2013-06-29T05:41:26.970Z</time>
      </trkpt>
      <trkpt lat="45.4786" lon="6.83371">
        <ele>2262.71000192</ele>
        <time>2013-06-29T05:41:35.740Z</time>
      </trkpt>
      <trkpt lat="45.47852" lon="6.83363">
        <ele>2264</ele>
        <time>2013-06-29T05:41:42.840Z</time>
      </trkpt>
      <trkpt lat="45.47843" lon="6.83354">
        <ele>2264.7236178577</ele>
        <time>2013-06-29T05:41:53.690Z</time>
      </trkpt>
      <trkpt lat="45.47838" lon="6.83337">
        <ele>2267.088</ele>
        <time>2013-06-29T05:42:02.760Z</time>
      </trkpt>
      <trkpt lat="45.47829" lon="6.83318">
        <ele>2270.08300032</ele>
        <time>2013-06-29T05:42:10.870Z</time>
      </trkpt>
      <trkpt lat="45.47822" lon="6.83301">
        <ele>2270.89299968</ele>
        <time>2013-06-29T05:42:18.970Z</time>
      </trkpt>
      <trkpt lat="45.47821" lon="6.8328">
        <ele>2271.79299968</ele>
        <time>2013-06-29T05:42:27.970Z</time>
      </trkpt>
      <trkpt lat="45.47819" lon="6.83261">
        <ele>2272</ele>
        <time>2013-06-29T05:42:34.720Z</time>
      </trkpt>
      <trkpt lat="45.47811" lon="6.83245">
        <ele>2272</ele>
        <time>2013-06-29T05:42:40.840Z</time>
      </trkpt>
      <trkpt lat="45.47806" lon="6.83227">
        <ele>2272</ele>
        <time>2013-06-29T05:42:46.840Z</time>
      </trkpt>
      <trkpt lat="45.47803" lon="6.83212">
        <ele>2272.2639026941</ele>
        <time>2013-06-29T05:42:52.760Z</time>
      </trkpt>
      <trkpt lat="45.47803" lon="6.832">
        <ele>2272.9716885652</ele>
        <time>2013-06-29T05:42:59.760Z</time>
      </trkpt>
      <trkpt lat="45.47796" lon="6.83187">
        <ele>2276.072927962</ele>
        <time>2013-06-29T05:43:20.860Z</time>
      </trkpt>
      <trkpt lat="45.47792" lon="6.83176">
        <ele>2276.9720267201</ele>
        <time>2013-06-29T05:43:29.860Z</time>
      </trkpt>
      <trkpt lat="45.47789" lon="6.83165">
        <ele>2280.3744932794</ele>
        <time>2013-06-29T05:43:53.860Z</time>
      </trkpt>
      <trkpt lat="45.47784" lon="6.83153">
        <ele>2283.29199616</ele>
        <time>2013-06-29T05:44:03.860Z</time>
      </trkpt>
      <trkpt lat="45.47776" lon="6.8315">
        <ele>2288.78599936</ele>
        <time>2013-06-29T05:44:18.970Z</time>
      </trkpt>
      <trkpt lat="45.47768" lon="6.83159">
        <ele>2293</ele>
        <time>2013-06-29T05:44:32.860Z</time>
      </trkpt>
      <trkpt lat="45.47757" lon="6.83166">
        <ele>2297.3512946259</ele>
        <time>2013-06-29T05:44:48.760Z</time>
      </trkpt>
      <trkpt lat="45.4775" lon="6.83159">
        <ele>2302.78599936</ele>
        <time>2013-06-29T05:45:03.970Z</time>
      </trkpt>
      <trkpt lat="45.47743" lon="6.83155">
        <ele>2306.37199872</ele>
        <time>2013-06-29T05:45:15.970Z</time>
      </trkpt>
      <trkpt lat="45.47737" lon="6.83146">
        <ele>2309.144</ele>
        <time>2013-06-29T05:45:25.760Z</time>
      </trkpt>
      <trkpt lat="45.47732" lon="6.83142">
        <ele>2310.9</ele>
        <time>2013-06-29T05:45:31.840Z</time>
      </trkpt>
      <trkpt lat="45.47727" lon="6.83136">
        <ele>2314.4</ele>
        <time>2013-06-29T05:45:38.840Z</time>
      </trkpt>
      <trkpt lat="45.47725" lon="6.83129">
        <ele>2315</ele>
        <time>2013-06-29T05:45:45.870Z</time>
      </trkpt>
      <trkpt lat="45.47723" lon="6.8312">
        <ele>2315.5527642845</ele>
        <time>2013-06-29T05:45:52.840Z</time>
      </trkpt>
      <trkpt lat="45.47721" lon="6.83111">
        <ele>2316.7587940474</ele>
        <time>2013-06-29T05:45:58.840Z</time>
      </trkpt>
      <trkpt lat="45.47722" lon="6.83103">
        <ele>2318.4726398321</ele>
        <time>2013-06-29T05:46:03.740Z</time>
      </trkpt>
      <trkpt lat="45.47718" lon="6.83095">
        <ele>2320.8607002939</ele>
        <time>2013-06-29T05:46:09.740Z</time>
      </trkpt>
      <trkpt lat="45.47716" lon="6.83088">
        <ele>2322.4140727915</ele>
        <time>2013-06-29T05:46:14.780Z</time>
      </trkpt>
      <trkpt lat="45.47714" lon="6.83083">
        <ele>2323.3185912543</ele>
        <time>2013-06-29T05:46:17.780Z</time>
      </trkpt>
      <trkpt lat="45.47713" lon="6.83069">
        <ele>2324.1394409562</ele>
        <time>2013-06-29T05:46:30.740Z</time>
      </trkpt>
      <trkpt lat="45.47716" lon="6.83055">
        <ele>2325.9322721912</ele>
        <time>2013-06-29T05:46:39.740Z</time>
      </trkpt>
      <trkpt lat="45.47721" lon="6.8304">
        <ele>2330.0701396843</ele>
        <time>2013-06-29T05:46:50.760Z</time>
      </trkpt>
      <trkpt lat="45.47726" lon="6.83031">
        <ele>2331.36</ele>
        <time>2013-06-29T05:47:00.760Z</time>
      </trkpt>
      <trkpt lat="45.47727" lon="6.83023">
        <ele>2334.4100032</ele>
        <time>2013-06-29T05:47:06.860Z</time>
      </trkpt>
      <trkpt lat="45.47727" lon="6.83014">
        <ele>2336.57899904</ele>
        <time>2013-06-29T05:47:11.970Z</time>
      </trkpt>
      <trkpt lat="45.47727" lon="6.83005">
        <ele>2339.48200064</ele>
        <time>2013-06-29T05:47:34.860Z</time>
      </trkpt>
      <trkpt lat="45.47715" lon="6.8301">
        <ele>2342.5571133032</ele>
        <time>2013-06-29T05:47:52.840Z</time>
      </trkpt>
      <trkpt lat="45.47703" lon="6.83016">
        <ele>2346.4100032</ele>
        <time>2013-06-29T05:48:04.860Z</time>
      </trkpt>
      <trkpt lat="45.47694" lon="6.83019">
        <ele>2349.368</ele>
        <time>2013-06-29T05:48:13.720Z</time>
      </trkpt>
      <trkpt lat="45.47686" lon="6.83019">
        <ele>2351.3499968</ele>
        <time>2013-06-29T05:48:22.740Z</time>
      </trkpt>
      <trkpt lat="45.47689" lon="6.83007">
        <ele>2356.14</ele>
        <time>2013-06-29T05:48:33.840Z</time>
      </trkpt>
      <trkpt lat="45.47689" lon="6.82999">
        <ele>2359.1542292232</ele>
        <time>2013-06-29T05:48:45.840Z</time>
      </trkpt>
      <trkpt lat="45.47679" lon="6.82998">
        <ele>2362.66800128</ele>
        <time>2013-06-29T05:48:56.760Z</time>
      </trkpt>
      <trkpt lat="45.47669" lon="6.82999">
        <ele>2365.750753849</ele>
        <time>2013-06-29T05:49:08.800Z</time>
      </trkpt>
      <trkpt lat="45.47673" lon="6.82984">
        <ele>2369.96600064</ele>
        <time>2013-06-29T05:49:29.870Z</time>
      </trkpt>
      <trkpt lat="45.4768" lon="6.82972">
        <ele>2373.13200128</ele>
        <time>2013-06-29T05:49:37.870Z</time>
      </trkpt>
      <trkpt lat="45.47684" lon="6.8296">
        <ele>2374.5771146116</ele>
        <time>2013-06-29T05:49:45.840Z</time>
      </trkpt>
      <trkpt lat="45.47682" lon="6.82946">
        <ele>2376.3407037296</ele>
        <time>2013-06-29T05:49:56.760Z</time>
      </trkpt>
      <trkpt lat="45.47682" lon="6.8293">
        <ele>2379.3649984</ele>
        <time>2013-06-29T05:50:04.770Z</time>
      </trkpt>
      <trkpt lat="45.4768" lon="6.82918">
        <ele>2382.57899904</ele>
        <time>2013-06-29T05:50:11.970Z</time>
      </trkpt>
      <trkpt lat="45.47681" lon="6.82908">
        <ele>2384.37899904</ele>
        <time>2013-06-29T05:50:17.970Z</time>
      </trkpt>
      <trkpt lat="45.47679" lon="6.82896">
        <ele>2385.79299968</ele>
        <time>2013-06-29T05:50:27.970Z</time>
      </trkpt>
      <trkpt lat="45.47676" lon="6.82884">
        <ele>2387.32600064</ele>
        <time>2013-06-29T05:50:36.670Z</time>
      </trkpt>
      <trkpt lat="45.47674" lon="6.82875">
        <ele>2389.8905478657</ele>
        <time>2013-06-29T05:50:43.840Z</time>
      </trkpt>
      <trkpt lat="45.47672" lon="6.82861">
        <ele>2394</ele>
        <time>2013-06-29T05:51:07.860Z</time>
      </trkpt>
      <trkpt lat="45.4767" lon="6.82849">
        <ele>2395.78599936</ele>
        <time>2013-06-29T05:51:18.970Z</time>
      </trkpt>
      <trkpt lat="45.47669" lon="6.82835">
        <ele>2396</ele>
        <time>2013-06-29T05:51:32.670Z</time>
      </trkpt>
      <trkpt lat="45.47665" lon="6.8282">
        <ele>2396.9334641721</ele>
        <time>2013-06-29T05:51:44.740Z</time>
      </trkpt>
      <trkpt lat="45.4766" lon="6.82809">
        <ele>2400.8952629672</ele>
        <time>2013-06-29T05:51:55.860Z</time>
      </trkpt>
      <trkpt lat="45.47653" lon="6.82797">
        <ele>2403.93999872</ele>
        <time>2013-06-29T05:52:04.740Z</time>
      </trkpt>
      <trkpt lat="45.4765" lon="6.82785">
        <ele>2406.1033823322</ele>
        <time>2013-06-29T05:52:13.740Z</time>
      </trkpt>
      <trkpt lat="45.47648" lon="6.82776">
        <ele>2407.922467068</ele>
        <time>2013-06-29T05:52:19.840Z</time>
      </trkpt>
      <trkpt lat="45.47643" lon="6.82767">
        <ele>2408.7917503152</ele>
        <time>2013-06-29T05:52:27.970Z</time>
      </trkpt>
      <trkpt lat="45.47637" lon="6.82759">
        <ele>2410.14000128</ele>
        <time>2013-06-29T05:52:35.740Z</time>
      </trkpt>
      <trkpt lat="45.4763" lon="6.82751">
        <ele>2414.3333312106</ele>
        <time>2013-06-29T05:52:46.740Z</time>
      </trkpt>
      <trkpt lat="45.47626" lon="6.8274">
        <ele>2418.0412082682</ele>
        <time>2013-06-29T05:52:56.860Z</time>
      </trkpt>
      <trkpt lat="45.47622" lon="6.82731">
        <ele>2419</ele>
        <time>2013-06-29T05:53:05.760Z</time>
      </trkpt>
      <trkpt lat="45.47615" lon="6.82726">
        <ele>2420.53200128</ele>
        <time>2013-06-29T05:53:13.870Z</time>
      </trkpt>
      <trkpt lat="45.47613" lon="6.82717">
        <ele>2423</ele>
        <time>2013-06-29T05:53:21.760Z</time>
      </trkpt>
      <trkpt lat="45.47617" lon="6.82708">
        <ele>2423</ele>
        <time>2013-06-29T05:53:28.860Z</time>
      </trkpt>
      <trkpt lat="45.4762" lon="6.82699">
        <ele>2422.4305686092</ele>
        <time>2013-06-29T05:53:35.740Z</time>
      </trkpt>
      <trkpt lat="45.47616" lon="6.8269">
        <ele>2422.3786213352</ele>
        <time>2013-06-29T05:53:43.840Z</time>
      </trkpt>
      <trkpt lat="45.47611" lon="6.82681">
        <ele>2424.3226461388</ele>
        <time>2013-06-29T05:53:52.700Z</time>
      </trkpt>
      <trkpt lat="45.47606" lon="6.8267">
        <ele>2429.116</ele>
        <time>2013-06-29T05:54:03.760Z</time>
      </trkpt>
      <trkpt lat="45.476" lon="6.82662">
        <ele>2431</ele>
        <time>2013-06-29T05:54:11.840Z</time>
      </trkpt>
      <trkpt lat="45.47594" lon="6.82654">
        <ele>2431</ele>
        <time>2013-06-29T05:54:19.840Z</time>
      </trkpt>
      <trkpt lat="45.47591" lon="6.82642">
        <ele>2432.9702374603</ele>
        <time>2013-06-29T05:54:29.970Z</time>
      </trkpt>
      <trkpt lat="45.47585" lon="6.82633">
        <ele>2438.418740341</ele>
        <time>2013-06-29T05:54:40.760Z</time>
      </trkpt>
      <trkpt lat="45.47583" lon="6.82628">
        <ele>2441.409770123</ele>
        <time>2013-06-29T05:54:45.760Z</time>
      </trkpt>
      <trkpt lat="45.4758" lon="6.82622">
        <ele>2444</ele>
        <time>2013-06-29T05:54:51.800Z</time>
      </trkpt>
      <trkpt lat="45.47576" lon="6.82619">
        <ele>2444</ele>
        <time>2013-06-29T05:54:55.800Z</time>
      </trkpt>
      <trkpt lat="45.47573" lon="6.82614">
        <ele>2444.16400128</ele>
        <time>2013-06-29T05:55:00.860Z</time>
      </trkpt>
      <trkpt lat="45.47569" lon="6.82607">
        <ele>2445.56399872</ele>
        <time>2013-06-29T05:55:07.860Z</time>
      </trkpt>
      <trkpt lat="45.47566" lon="6.82599">
        <ele>2446.98599936</ele>
        <time>2013-06-29T05:55:14.970Z</time>
      </trkpt>
      <trkpt lat="45.47562" lon="6.82592">
        <ele>2449.09199872</ele>
        <time>2013-06-29T05:55:22.770Z</time>
      </trkpt>
      <trkpt lat="45.47556" lon="6.82588">
        <ele>2451.49199872</ele>
        <time>2013-06-29T05:55:28.770Z</time>
      </trkpt>
      <trkpt lat="45.47549" lon="6.8258">
        <ele>2453.54000128</ele>
        <time>2013-06-29T05:55:37.740Z</time>
      </trkpt>
      <trkpt lat="45.47544" lon="6.82574">
        <ele>2454.4747772978</ele>
        <time>2013-06-29T05:55:44.840Z</time>
      </trkpt>
      <trkpt lat="45.47538" lon="6.82569">
        <ele>2455.750251082</ele>
        <time>2013-06-29T05:55:53.860Z</time>
      </trkpt>
      <trkpt lat="45.4753" lon="6.82566">
        <ele>2457.18199936</ele>
        <time>2013-06-29T05:56:01.860Z</time>
      </trkpt>
      <trkpt lat="45.47524" lon="6.8256">
        <ele>2457.88200064</ele>
        <time>2013-06-29T05:56:08.860Z</time>
      </trkpt>
      <trkpt lat="45.47518" lon="6.82553">
        <ele>2461.4150016</ele>
        <time>2013-06-29T05:56:16.870Z</time>
      </trkpt>
      <trkpt lat="45.47515" lon="6.82542">
        <ele>2463.9762363715</ele>
        <time>2013-06-29T05:56:24.970Z</time>
      </trkpt>
      <trkpt lat="45.47517" lon="6.82534">
        <ele>2464.966334754</ele>
        <time>2013-06-29T05:56:29.970Z</time>
      </trkpt>
      <trkpt lat="45.47516" lon="6.82522">
        <ele>2465.8919187988</ele>
        <time>2013-06-29T05:56:38.970Z</time>
      </trkpt>
      <trkpt lat="45.47511" lon="6.82514">
        <ele>2468.8636382609</ele>
        <time>2013-06-29T05:56:44.870Z</time>
      </trkpt>
      <trkpt lat="45.47507" lon="6.82507">
        <ele>2472.5161923887</ele>
        <time>2013-06-29T05:56:51.860Z</time>
      </trkpt>
      <trkpt lat="45.47504" lon="6.82498">
        <ele>2475</ele>
        <time>2013-06-29T05:57:01.860Z</time>
      </trkpt>
      <trkpt lat="45.47499" lon="6.82494">
        <ele>2475.88300032</ele>
        <time>2013-06-29T05:59:18.870Z</time>
      </trkpt>
      <trkpt lat="45.47493" lon="6.82484">
        <ele>2475</ele>
        <time>2013-06-29T05:59:40.700Z</time>
      </trkpt>
      <trkpt lat="45.47483" lon="6.82477">
        <ele>2475</ele>
        <time>2013-06-29T05:59:47.700Z</time>
      </trkpt>
      <trkpt lat="45.47472" lon="6.82471">
        <ele>2475.7621931707</ele>
        <time>2013-06-29T05:59:53.970Z</time>
      </trkpt>
      <trkpt lat="45.47463" lon="6.82466">
        <ele>2476.9613814634</ele>
        <time>2013-06-29T05:59:59.870Z</time>
      </trkpt>
      <trkpt lat="45.47454" lon="6.82465">
        <ele>2477</ele>
        <time>2013-06-29T06:00:06.870Z</time>
      </trkpt>
      <trkpt lat="45.47447" lon="6.82471">
        <ele>2477</ele>
        <time>2013-06-29T06:00:15.870Z</time>
      </trkpt>
      <trkpt lat="45.47442" lon="6.82481">
        <ele>2479.16199936</ele>
        <time>2013-06-29T06:00:30.850Z</time>
      </trkpt>
      <trkpt lat="45.47432" lon="6.82485">
        <ele>2483.6606929069</ele>
        <time>2013-06-29T06:00:43.860Z</time>
      </trkpt>
      <trkpt lat="45.47425" lon="6.82485">
        <ele>2488</ele>
        <time>2013-06-29T06:00:52.760Z</time>
      </trkpt>
      <trkpt lat="45.47418" lon="6.82486">
        <ele>2489.14000128</ele>
        <time>2013-06-29T06:01:05.740Z</time>
      </trkpt>
      <trkpt lat="45.47409" lon="6.82487">
        <ele>2491.36399872</ele>
        <time>2013-06-29T06:01:21.860Z</time>
      </trkpt>
      <trkpt lat="45.474" lon="6.82489">
        <ele>2496.8900032</ele>
        <time>2013-06-29T06:01:37.820Z</time>
      </trkpt>
      <trkpt lat="45.47393" lon="6.82486">
        <ele>2499.148894552</ele>
        <time>2013-06-29T06:01:50.840Z</time>
      </trkpt>
      <trkpt lat="45.47387" lon="6.8248">
        <ele>2502.1148854713</ele>
        <time>2013-06-29T06:02:03.760Z</time>
      </trkpt>
      <trkpt lat="45.47378" lon="6.82478">
        <ele>2505.3593595646</ele>
        <time>2013-06-29T06:02:16.840Z</time>
      </trkpt>
      <trkpt lat="45.47371" lon="6.82479">
        <ele>2508.3499968</ele>
        <time>2013-06-29T06:02:24.740Z</time>
      </trkpt>
      <trkpt lat="45.47363" lon="6.82478">
        <ele>2511</ele>
        <time>2013-06-29T06:02:30.840Z</time>
      </trkpt>
      <trkpt lat="45.47355" lon="6.82482">
        <ele>2511</ele>
        <time>2013-06-29T06:02:37.840Z</time>
      </trkpt>
      <trkpt lat="45.47347" lon="6.82477">
        <ele>2511.736319916</ele>
        <time>2013-06-29T06:02:43.740Z</time>
      </trkpt>
      <trkpt lat="45.47341" lon="6.82468">
        <ele>2513.1778890684</ele>
        <time>2013-06-29T06:02:51.860Z</time>
      </trkpt>
      <trkpt lat="45.47335" lon="6.82461">
        <ele>2513.8814077165</ele>
        <time>2013-06-29T06:02:58.860Z</time>
      </trkpt>
      <trkpt lat="45.47329" lon="6.82454">
        <ele>2515.1203990035</ele>
        <time>2013-06-29T06:03:05.670Z</time>
      </trkpt>
      <trkpt lat="45.47324" lon="6.82449">
        <ele>2516.3517593241</ele>
        <time>2013-06-29T06:03:11.840Z</time>
      </trkpt>
      <trkpt lat="45.47318" lon="6.82442">
        <ele>2517.7587940474</ele>
        <time>2013-06-29T06:03:18.840Z</time>
      </trkpt>
      <trkpt lat="45.47311" lon="6.82436">
        <ele>2520.9620373105</ele>
        <time>2013-06-29T06:03:25.970Z</time>
      </trkpt>
      <trkpt lat="45.47304" lon="6.82432">
        <ele>2524.096094784</ele>
        <time>2013-06-29T06:03:33.700Z</time>
      </trkpt>
      <trkpt lat="45.47299" lon="6.82427">
        <ele>2525.5975996484</ele>
        <time>2013-06-29T06:03:38.700Z</time>
      </trkpt>
      <trkpt lat="45.47293" lon="6.8242">
        <ele>2526.5801000056</ele>
        <time>2013-06-29T06:03:45.870Z</time>
      </trkpt>
      <trkpt lat="45.47287" lon="6.82414">
        <ele>2527.9587955911</ele>
        <time>2013-06-29T06:03:54.860Z</time>
      </trkpt>
      <trkpt lat="45.47281" lon="6.82407">
        <ele>2530.58999808</ele>
        <time>2013-06-29T06:04:02.690Z</time>
      </trkpt>
      <trkpt lat="45.47275" lon="6.82399">
        <ele>2535.54900096</ele>
        <time>2013-06-29T06:04:11.870Z</time>
      </trkpt>
      <trkpt lat="45.4727" lon="6.8239">
        <ele>2537.94900096</ele>
        <time>2013-06-29T06:04:19.870Z</time>
      </trkpt>
      <trkpt lat="45.47271" lon="6.82379">
        <ele>2538.352</ele>
        <time>2013-06-29T06:04:31.800Z</time>
      </trkpt>
      <trkpt lat="45.4727" lon="6.82368">
        <ele>2541.5203959468</ele>
        <time>2013-06-29T06:04:43.860Z</time>
      </trkpt>
      <trkpt lat="45.47266" lon="6.8236">
        <ele>2544.5366838877</ele>
        <time>2013-06-29T06:04:52.760Z</time>
      </trkpt>
      <trkpt lat="45.47262" lon="6.82351">
        <ele>2547.07999744</ele>
        <time>2013-06-29T06:05:02.740Z</time>
      </trkpt>
      <trkpt lat="45.47259" lon="6.82342">
        <ele>2550.0805166317</ele>
        <time>2013-06-29T06:05:10.850Z</time>
      </trkpt>
      <trkpt lat="45.47258" lon="6.82332">
        <ele>2550.9741556893</ele>
        <time>2013-06-29T06:05:19.840Z</time>
      </trkpt>
      <trkpt lat="45.47255" lon="6.82321">
        <ele>2553.96400128</ele>
        <time>2013-06-29T06:05:34.860Z</time>
      </trkpt>
      <trkpt lat="45.47256" lon="6.82313">
        <ele>2557.2089597481</ele>
        <time>2013-06-29T06:05:43.740Z</time>
      </trkpt>
      <trkpt lat="45.47255" lon="6.82302">
        <ele>2563.280558737</ele>
        <time>2013-06-29T06:06:00.760Z</time>
      </trkpt>
      <trkpt lat="45.47249" lon="6.82294">
        <ele>2567.5357142857</ele>
        <time>2013-06-29T06:06:11.840Z</time>
      </trkpt>
      <trkpt lat="45.47243" lon="6.82286">
        <ele>2569.9166666667</ele>
        <time>2013-06-29T06:06:19.840Z</time>
      </trkpt>
      <trkpt lat="45.47237" lon="6.82277">
        <ele>2570.680443871</ele>
        <time>2013-06-29T06:06:26.870Z</time>
      </trkpt>
      <trkpt lat="45.47233" lon="6.8227">
        <ele>2571.18</ele>
        <time>2013-06-29T06:06:31.840Z</time>
      </trkpt>
      <trkpt lat="45.47228" lon="6.82261">
        <ele>2571.88</ele>
        <time>2013-06-29T06:06:38.840Z</time>
      </trkpt>
      <trkpt lat="45.47222" lon="6.82255">
        <ele>2572.7774471921</ele>
        <time>2013-06-29T06:06:43.970Z</time>
      </trkpt>
      <trkpt lat="45.47216" lon="6.8225">
        <ele>2573.7665665625</ele>
        <time>2013-06-29T06:06:48.970Z</time>
      </trkpt>
      <trkpt lat="45.47209" lon="6.82244">
        <ele>2574.4641043362</ele>
        <time>2013-06-29T06:06:54.740Z</time>
      </trkpt>
      <trkpt lat="45.47201" lon="6.82237">
        <ele>2575.216</ele>
        <time>2013-06-29T06:07:00.760Z</time>
      </trkpt>
      <trkpt lat="45.47192" lon="6.82228">
        <ele>2576.716</ele>
        <time>2013-06-29T06:07:05.760Z</time>
      </trkpt>
      <trkpt lat="45.47183" lon="6.82219">
        <ele>2578</ele>
        <time>2013-06-29T06:07:10.850Z</time>
      </trkpt>
      <trkpt lat="45.47172" lon="6.82214">
        <ele>2578</ele>
        <time>2013-06-29T06:07:15.840Z</time>
      </trkpt>
      <trkpt lat="45.47161" lon="6.82208">
        <ele>2578</ele>
        <time>2013-06-29T06:07:21.870Z</time>
      </trkpt>
      <trkpt lat="45.4715" lon="6.822">
        <ele>2578</ele>
        <time>2013-06-29T06:07:28.970Z</time>
      </trkpt>
      <trkpt lat="45.47138" lon="6.82192">
        <ele>2578.66999936</ele>
        <time>2013-06-29T06:07:36.740Z</time>
      </trkpt>
      <trkpt lat="45.47127" lon="6.82184">
        <ele>2579.7562191463</ele>
        <time>2013-06-29T06:07:43.840Z</time>
      </trkpt>
      <trkpt lat="45.47118" lon="6.82178">
        <ele>2581.1226149555</ele>
        <time>2013-06-29T06:07:50.700Z</time>
      </trkpt>
      <trkpt lat="45.47111" lon="6.82172">
        <ele>2582.3286447184</ele>
        <time>2013-06-29T06:07:56.700Z</time>
      </trkpt>
      <trkpt lat="45.47104" lon="6.82167">
        <ele>2583.272</ele>
        <time>2013-06-29T06:08:02.760Z</time>
      </trkpt>
      <trkpt lat="45.47097" lon="6.82161">
        <ele>2583.872</ele>
        <time>2013-06-29T06:08:08.760Z</time>
      </trkpt>
      <trkpt lat="45.47092" lon="6.82157">
        <ele>2584.76600064</ele>
        <time>2013-06-29T06:08:13.870Z</time>
      </trkpt>
      <trkpt lat="45.47085" lon="6.82151">
        <ele>2586.14800128</ele>
        <time>2013-06-29T06:08:20.780Z</time>
      </trkpt>
      <trkpt lat="45.47081" lon="6.82147">
        <ele>2587.168</ele>
        <time>2013-06-29T06:08:25.880Z</time>
      </trkpt>
      <trkpt lat="45.47071" lon="6.82138">
        <ele>2588.29299968</ele>
        <time>2013-06-29T06:08:32.970Z</time>
      </trkpt>
      <trkpt lat="45.47062" lon="6.82131">
        <ele>2588.88300032</ele>
        <time>2013-06-29T06:08:38.870Z</time>
      </trkpt>
      <trkpt lat="45.47052" lon="6.82123">
        <ele>2589.957384486</ele>
        <time>2013-06-29T06:08:44.870Z</time>
      </trkpt>
      <trkpt lat="45.47043" lon="6.82115">
        <ele>2590.9682854211</ele>
        <time>2013-06-29T06:08:49.970Z</time>
      </trkpt>
      <trkpt lat="45.47033" lon="6.82107">
        <ele>2592.1362263132</ele>
        <time>2013-06-29T06:08:55.760Z</time>
      </trkpt>
      <trkpt lat="45.47024" lon="6.82102">
        <ele>2593.18</ele>
        <time>2013-06-29T06:09:01.840Z</time>
      </trkpt>
      <trkpt lat="45.47016" lon="6.82097">
        <ele>2593.78</ele>
        <time>2013-06-29T06:09:07.840Z</time>
      </trkpt>
      <trkpt lat="45.47008" lon="6.82092">
        <ele>2595.57199872</ele>
        <time>2013-06-29T06:09:13.970Z</time>
      </trkpt>
      <trkpt lat="45.47002" lon="6.82087">
        <ele>2597.93200128</ele>
        <time>2013-06-29T06:09:19.870Z</time>
      </trkpt>
      <trkpt lat="45.46997" lon="6.82077">
        <ele>2598.68300032</ele>
        <time>2013-06-29T06:09:26.870Z</time>
      </trkpt>
      <trkpt lat="45.46989" lon="6.8207">
        <ele>2599.76</ele>
        <time>2013-06-29T06:09:33.840Z</time>
      </trkpt>
      <trkpt lat="45.46982" lon="6.82062">
        <ele>2601</ele>
        <time>2013-06-29T06:09:40.740Z</time>
      </trkpt>
      <trkpt lat="45.46975" lon="6.82054">
        <ele>2601</ele>
        <time>2013-06-29T06:09:47.840Z</time>
      </trkpt>
      <trkpt lat="45.46969" lon="6.82047">
        <ele>2601.7336700354</ele>
        <time>2013-06-29T06:09:53.740Z</time>
      </trkpt>
      <trkpt lat="45.46959" lon="6.82038">
        <ele>2603.1438561898</ele>
        <time>2013-06-29T06:10:00.760Z</time>
      </trkpt>
      <trkpt lat="45.4695" lon="6.82032">
        <ele>2604.5564446934</ele>
        <time>2013-06-29T06:10:07.830Z</time>
      </trkpt>
      <trkpt lat="45.46943" lon="6.82025">
        <ele>2606.1651660732</ele>
        <time>2013-06-29T06:10:15.870Z</time>
      </trkpt>
      <trkpt lat="45.46936" lon="6.8202">
        <ele>2607.72</ele>
        <time>2013-06-29T06:10:21.840Z</time>
      </trkpt>
      <trkpt lat="45.46931" lon="6.82013">
        <ele>2610.12</ele>
        <time>2013-06-29T06:10:27.840Z</time>
      </trkpt>
      <trkpt lat="45.46923" lon="6.82007">
        <ele>2611</ele>
        <time>2013-06-29T06:10:34.970Z</time>
      </trkpt>
      <trkpt lat="45.46916" lon="6.81998">
        <ele>2611.1621894248</ele>
        <time>2013-06-29T06:10:41.670Z</time>
      </trkpt>
      <trkpt lat="45.46908" lon="6.81987">
        <ele>2611.7592045402</ele>
        <time>2013-06-29T06:10:47.670Z</time>
      </trkpt>
      <trkpt lat="45.46899" lon="6.81976">
        <ele>2612.7577880578</ele>
        <time>2013-06-29T06:10:53.860Z</time>
      </trkpt>
      <trkpt lat="45.4689" lon="6.81963">
        <ele>2614.18599936</ele>
        <time>2013-06-29T06:11:00.970Z</time>
      </trkpt>
      <trkpt lat="45.46883" lon="6.81949">
        <ele>2615.38599936</ele>
        <time>2013-06-29T06:11:06.970Z</time>
      </trkpt>
      <trkpt lat="45.46877" lon="6.81936">
        <ele>2616</ele>
        <time>2013-06-29T06:11:12.920Z</time>
      </trkpt>
      <trkpt lat="45.46874" lon="6.81924">
        <ele>2616</ele>
        <time>2013-06-29T06:11:20.840Z</time>
      </trkpt>
      <trkpt lat="45.46869" lon="6.81927">
        <ele>2617.8393718595</ele>
        <time>2013-06-29T06:12:00.860Z</time>
      </trkpt>
      <trkpt lat="45.4687" lon="6.81917">
        <ele>2618</ele>
        <time>2013-06-29T06:14:36.760Z</time>
      </trkpt>
      <trkpt lat="45.46869" lon="6.81905">
        <ele>2617.449902114</ele>
        <time>2013-06-29T06:14:42.840Z</time>
      </trkpt>
      <trkpt lat="45.4687" lon="6.81888">
        <ele>2616.4675844605</ele>
        <time>2013-06-29T06:14:47.840Z</time>
      </trkpt>
      <trkpt lat="45.46868" lon="6.81876">
        <ele>2616</ele>
        <time>2013-06-29T06:14:50.830Z</time>
      </trkpt>
      <trkpt lat="45.46867" lon="6.81863">
        <ele>2616</ele>
        <time>2013-06-29T06:14:53.830Z</time>
      </trkpt>
      <trkpt lat="45.46866" lon="6.81852">
        <ele>2616</ele>
        <time>2013-06-29T06:14:56.830Z</time>
      </trkpt>
      <trkpt lat="45.46866" lon="6.81838">
        <ele>2615.85400064</ele>
        <time>2013-06-29T06:15:00.770Z</time>
      </trkpt>
      <trkpt lat="45.46864" lon="6.81822">
        <ele>2614.85400064</ele>
        <time>2013-06-29T06:15:05.770Z</time>
      </trkpt>
      <trkpt lat="45.4686" lon="6.81804">
        <ele>2613.90700032</ele>
        <time>2013-06-29T06:15:10.970Z</time>
      </trkpt>
      <trkpt lat="45.46858" lon="6.81789">
        <ele>2613.40700032</ele>
        <time>2013-06-29T06:15:15.970Z</time>
      </trkpt>
      <trkpt lat="45.46857" lon="6.81773">
        <ele>2612.40700032</ele>
        <time>2013-06-29T06:15:25.970Z</time>
      </trkpt>
      <trkpt lat="45.4685" lon="6.81761">
        <ele>2611.68700032</ele>
        <time>2013-06-29T06:15:33.170Z</time>
      </trkpt>
      <trkpt lat="45.46841" lon="6.81749">
        <ele>2611.10700032</ele>
        <time>2013-06-29T06:15:38.970Z</time>
      </trkpt>
      <trkpt lat="45.46833" lon="6.81735">
        <ele>2610.263680084</ele>
        <time>2013-06-29T06:15:43.740Z</time>
      </trkpt>
      <trkpt lat="45.46826" lon="6.81722">
        <ele>2609.46765993</ele>
        <time>2013-06-29T06:15:47.740Z</time>
      </trkpt>
      <trkpt lat="45.46818" lon="6.81709">
        <ele>2608.7236178577</ele>
        <time>2013-06-29T06:15:52.840Z</time>
      </trkpt>
      <trkpt lat="45.46811" lon="6.81695">
        <ele>2608.1206029763</ele>
        <time>2013-06-29T06:15:58.840Z</time>
      </trkpt>
      <trkpt lat="45.46802" lon="6.8168">
        <ele>2608.48</ele>
        <time>2013-06-29T06:16:04.840Z</time>
      </trkpt>
      <trkpt lat="45.46796" lon="6.81667">
        <ele>2608.98</ele>
        <time>2013-06-29T06:16:09.840Z</time>
      </trkpt>
      <trkpt lat="45.46789" lon="6.81652">
        <ele>2610.00600064</ele>
        <time>2013-06-29T06:16:15.070Z</time>
      </trkpt>
      <trkpt lat="45.46783" lon="6.81637">
        <ele>2610.96600064</ele>
        <time>2013-06-29T06:16:19.870Z</time>
      </trkpt>
      <trkpt lat="45.46777" lon="6.81622">
        <ele>2611</ele>
        <time>2013-06-29T06:16:24.870Z</time>
      </trkpt>
      <trkpt lat="45.46771" lon="6.81608">
        <ele>2611</ele>
        <time>2013-06-29T06:16:29.870Z</time>
      </trkpt>
      <trkpt lat="45.46766" lon="6.81594">
        <ele>2610.513972047</ele>
        <time>2013-06-29T06:16:34.970Z</time>
      </trkpt>
      <trkpt lat="45.46762" lon="6.8158">
        <ele>2610.0149703697</ele>
        <time>2013-06-29T06:16:39.970Z</time>
      </trkpt>
      <trkpt lat="45.46759" lon="6.81563">
        <ele>2606.0700621451</ele>
        <time>2013-06-29T06:16:45.970Z</time>
      </trkpt>
      <trkpt lat="45.46758" lon="6.81551">
        <ele>2603.3829236803</ele>
        <time>2013-06-29T06:16:49.970Z</time>
      </trkpt>
      <trkpt lat="45.4676" lon="6.81531">
        <ele>2595.26199424</ele>
        <time>2013-06-29T06:17:00.860Z</time>
      </trkpt>
      <trkpt lat="45.46764" lon="6.81512">
        <ele>2589.86199424</ele>
        <time>2013-06-29T06:17:06.860Z</time>
      </trkpt>
      <trkpt lat="45.46765" lon="6.81492">
        <ele>2585.2507476221</ele>
        <time>2013-06-29T06:17:12.970Z</time>
      </trkpt>
      <trkpt lat="45.46766" lon="6.81471">
        <ele>2581.6686569293</ele>
        <time>2013-06-29T06:17:18.970Z</time>
      </trkpt>
      <trkpt lat="45.46766" lon="6.8145">
        <ele>2577.2613103079</ele>
        <time>2013-06-29T06:17:24.740Z</time>
      </trkpt>
      <trkpt lat="45.46768" lon="6.81431">
        <ele>2572.46600192</ele>
        <time>2013-06-29T06:17:30.930Z</time>
      </trkpt>
      <trkpt lat="45.4677" lon="6.81413">
        <ele>2568.92599808</ele>
        <time>2013-06-29T06:17:36.830Z</time>
      </trkpt>
      <trkpt lat="45.46771" lon="6.81396">
        <ele>2565.6467657383</ele>
        <time>2013-06-29T06:17:42.760Z</time>
      </trkpt>
      <trkpt lat="45.46774" lon="6.81377">
        <ele>2562.1144294892</ele>
        <time>2013-06-29T06:17:49.860Z</time>
      </trkpt>
      <trkpt lat="45.4678" lon="6.8136">
        <ele>2556.6180854294</ele>
        <time>2013-06-29T06:17:57.740Z</time>
      </trkpt>
      <trkpt lat="45.46784" lon="6.81342">
        <ele>2550.24</ele>
        <time>2013-06-29T06:18:06.840Z</time>
      </trkpt>
      <trkpt lat="45.46788" lon="6.81325">
        <ele>2546.61999872</ele>
        <time>2013-06-29T06:18:16.940Z</time>
      </trkpt>
      <trkpt lat="45.46792" lon="6.81305">
        <ele>2537.116299398</ele>
        <time>2013-06-29T06:18:29.970Z</time>
      </trkpt>
      <trkpt lat="45.46788" lon="6.81288">
        <ele>2530.8562875169</ele>
        <time>2013-06-29T06:18:40.760Z</time>
      </trkpt>
      <trkpt lat="45.4679" lon="6.81275">
        <ele>2528.7034091886</ele>
        <time>2013-06-29T06:18:50.800Z</time>
      </trkpt>
      <trkpt lat="45.46788" lon="6.81257">
        <ele>2521.52</ele>
        <time>2013-06-29T06:19:05.840Z</time>
      </trkpt>
      <trkpt lat="45.46781" lon="6.81238">
        <ele>2516.45299712</ele>
        <time>2013-06-29T06:19:12.870Z</time>
      </trkpt>
      <trkpt lat="45.4679" lon="6.81219">
        <ele>2509.62</ele>
        <time>2013-06-29T06:19:20.800Z</time>
      </trkpt>
      <trkpt lat="45.46799" lon="6.81201">
        <ele>2506.1700032</ele>
        <time>2013-06-29T06:19:27.700Z</time>
      </trkpt>
      <trkpt lat="45.46809" lon="6.81184">
        <ele>2503.55099904</ele>
        <time>2013-06-29T06:19:34.870Z</time>
      </trkpt>
      <trkpt lat="45.46817" lon="6.81164">
        <ele>2502</ele>
        <time>2013-06-29T06:19:41.760Z</time>
      </trkpt>
      <trkpt lat="45.4682" lon="6.81143">
        <ele>2502</ele>
        <time>2013-06-29T06:19:48.760Z</time>
      </trkpt>
      <trkpt lat="45.46826" lon="6.81121">
        <ele>2500.8984928166</ele>
        <time>2013-06-29T06:19:55.570Z</time>
      </trkpt>
      <trkpt lat="45.46829" lon="6.81099">
        <ele>2499.6298506284</ele>
        <time>2013-06-29T06:20:03.760Z</time>
      </trkpt>
      <trkpt lat="45.46833" lon="6.81078">
        <ele>2499</ele>
        <time>2013-06-29T06:20:10.740Z</time>
      </trkpt>
      <trkpt lat="45.46832" lon="6.81057">
        <ele>2499</ele>
        <time>2013-06-29T06:20:16.740Z</time>
      </trkpt>
      <trkpt lat="45.46833" lon="6.81035">
        <ele>2497.30199808</ele>
        <time>2013-06-29T06:20:22.870Z</time>
      </trkpt>
      <trkpt lat="45.46834" lon="6.81014">
        <ele>2493.70199808</ele>
        <time>2013-06-29T06:20:28.870Z</time>
      </trkpt>
      <trkpt lat="45.46835" lon="6.80994">
        <ele>2492.03399936</ele>
        <time>2013-06-29T06:20:34.870Z</time>
      </trkpt>
      <trkpt lat="45.46838" lon="6.80974">
        <ele>2491</ele>
        <time>2013-06-29T06:20:40.840Z</time>
      </trkpt>
      <trkpt lat="45.4684" lon="6.80954">
        <ele>2491</ele>
        <time>2013-06-29T06:20:46.840Z</time>
      </trkpt>
      <trkpt lat="45.46843" lon="6.80934">
        <ele>2490.7236178577</ele>
        <time>2013-06-29T06:20:52.840Z</time>
      </trkpt>
      <trkpt lat="45.46844" lon="6.80918">
        <ele>2490.2211054565</ele>
        <time>2013-06-29T06:20:57.840Z</time>
      </trkpt>
      <trkpt lat="45.46844" lon="6.809">
        <ele>2489.44</ele>
        <time>2013-06-29T06:21:02.840Z</time>
      </trkpt>
      <trkpt lat="45.46846" lon="6.80882">
        <ele>2488.44</ele>
        <time>2013-06-29T06:21:07.840Z</time>
      </trkpt>
      <trkpt lat="45.46846" lon="6.8086">
        <ele>2488</ele>
        <time>2013-06-29T06:21:14.970Z</time>
      </trkpt>
      <trkpt lat="45.46847" lon="6.8084">
        <ele>2487.928</ele>
        <time>2013-06-29T06:21:20.760Z</time>
      </trkpt>
      <trkpt lat="45.46848" lon="6.80824">
        <ele>2487.428</ele>
        <time>2013-06-29T06:21:25.760Z</time>
      </trkpt>
      <trkpt lat="45.46848" lon="6.80814">
        <ele>2487.128</ele>
        <time>2013-06-29T06:21:28.760Z</time>
      </trkpt>
      <trkpt lat="45.46848" lon="6.80801">
        <ele>2486.71699968</ele>
        <time>2013-06-29T06:21:32.870Z</time>
      </trkpt>
      <trkpt lat="45.46847" lon="6.80788">
        <ele>2486.31699968</ele>
        <time>2013-06-29T06:21:36.870Z</time>
      </trkpt>
      <trkpt lat="45.46844" lon="6.80769">
        <ele>2486</ele>
        <time>2013-06-29T06:21:42.840Z</time>
      </trkpt>
      <trkpt lat="45.46842" lon="6.8075">
        <ele>2486</ele>
        <time>2013-06-29T06:21:48.840Z</time>
      </trkpt>
      <trkpt lat="45.46841" lon="6.80736">
        <ele>2486</ele>
        <time>2013-06-29T06:21:52.840Z</time>
      </trkpt>
      <trkpt lat="45.46839" lon="6.80724">
        <ele>2486</ele>
        <time>2013-06-29T06:21:56.840Z</time>
      </trkpt>
      <trkpt lat="45.46838" lon="6.80708">
        <ele>2485.81800064</ele>
        <time>2013-06-29T06:22:01.860Z</time>
      </trkpt>
      <trkpt lat="45.46837" lon="6.80698">
        <ele>2485.51799936</ele>
        <time>2013-06-29T06:22:04.860Z</time>
      </trkpt>
      <trkpt lat="45.46833" lon="6.80682">
        <ele>2485.028</ele>
        <time>2013-06-29T06:22:09.760Z</time>
      </trkpt>
      <trkpt lat="45.46831" lon="6.80669">
        <ele>2485</ele>
        <time>2013-06-29T06:22:13.870Z</time>
      </trkpt>
      <trkpt lat="45.46829" lon="6.80656">
        <ele>2485</ele>
        <time>2013-06-29T06:22:17.870Z</time>
      </trkpt>
      <trkpt lat="45.46827" lon="6.80644">
        <ele>2484.81699968</ele>
        <time>2013-06-29T06:22:21.870Z</time>
      </trkpt>
      <trkpt lat="45.46826" lon="6.80633">
        <ele>2484.41699968</ele>
        <time>2013-06-29T06:22:25.870Z</time>
      </trkpt>
      <trkpt lat="45.46825" lon="6.80623">
        <ele>2484.11699968</ele>
        <time>2013-06-29T06:22:28.870Z</time>
      </trkpt>
      <trkpt lat="45.46823" lon="6.80612">
        <ele>2483.43399936</ele>
        <time>2013-06-29T06:22:32.870Z</time>
      </trkpt>
      <trkpt lat="45.46821" lon="6.80594">
        <ele>2482.21400064</ele>
        <time>2013-06-29T06:22:38.970Z</time>
      </trkpt>
      <trkpt lat="45.4682" lon="6.80578">
        <ele>2482</ele>
        <time>2013-06-29T06:22:43.740Z</time>
      </trkpt>
      <trkpt lat="45.4682" lon="6.80569">
        <ele>2482</ele>
        <time>2013-06-29T06:22:46.840Z</time>
      </trkpt>
      <trkpt lat="45.46819" lon="6.80554">
        <ele>2482</ele>
        <time>2013-06-29T06:22:51.760Z</time>
      </trkpt>
      <trkpt lat="45.46818" lon="6.80544">
        <ele>2482</ele>
        <time>2013-06-29T06:22:54.760Z</time>
      </trkpt>
      <trkpt lat="45.46819" lon="6.80535">
        <ele>2482</ele>
        <time>2013-06-29T06:22:57.760Z</time>
      </trkpt>
      <trkpt lat="45.46819" lon="6.80523">
        <ele>2481.8341699428</ele>
        <time>2013-06-29T06:23:01.740Z</time>
      </trkpt>
      <trkpt lat="45.46823" lon="6.80514">
        <ele>2481.4321600218</ele>
        <time>2013-06-29T06:23:05.740Z</time>
      </trkpt>
      <trkpt lat="45.46827" lon="6.80504">
        <ele>2481.0825053408</ele>
        <time>2013-06-29T06:23:10.870Z</time>
      </trkpt>
      <trkpt lat="45.46835" lon="6.80492">
        <ele>2481.5795235496</ele>
        <time>2013-06-29T06:23:15.870Z</time>
      </trkpt>
      <trkpt lat="45.46836" lon="6.80479">
        <ele>2481.9870778447</ele>
        <time>2013-06-29T06:23:19.970Z</time>
      </trkpt>
      <trkpt lat="45.46839" lon="6.80469">
        <ele>2481.4231151202</ele>
        <time>2013-06-29T06:23:22.970Z</time>
      </trkpt>
      <trkpt lat="45.46842" lon="6.80461">
        <ele>2480.8201002388</ele>
        <time>2013-06-29T06:23:25.970Z</time>
      </trkpt>
      <trkpt lat="45.46845" lon="6.80447">
        <ele>2479.8108374981</ele>
        <time>2013-06-29T06:23:31.970Z</time>
      </trkpt>
      <trkpt lat="45.46846" lon="6.80437">
        <ele>2479.4167489524</ele>
        <time>2013-06-29T06:23:35.970Z</time>
      </trkpt>
      <trkpt lat="45.46851" lon="6.80428">
        <ele>2479.0226604067</ele>
        <time>2013-06-29T06:23:39.970Z</time>
      </trkpt>
      <trkpt lat="45.46854" lon="6.8042">
        <ele>2477.3801795366</ele>
        <time>2013-06-29T06:23:42.870Z</time>
      </trkpt>
      <trkpt lat="45.46856" lon="6.80411">
        <ele>2475.5601587252</ele>
        <time>2013-06-29T06:23:45.870Z</time>
      </trkpt>
      <trkpt lat="45.4686" lon="6.80401">
        <ele>2473.7401379139</ele>
        <time>2013-06-29T06:23:48.870Z</time>
      </trkpt>
      <trkpt lat="45.46868" lon="6.80385">
        <ele>2468.7939740964</ele>
        <time>2013-06-29T06:23:54.740Z</time>
      </trkpt>
      <trkpt lat="45.46877" lon="6.80369">
        <ele>2464</ele>
        <time>2013-06-29T06:24:00.760Z</time>
      </trkpt>
      <trkpt lat="45.46876" lon="6.80348">
        <ele>2464</ele>
        <time>2013-06-29T06:24:06.860Z</time>
      </trkpt>
      <trkpt lat="45.46875" lon="6.80336">
        <ele>2464</ele>
        <time>2013-06-29T06:24:09.860Z</time>
      </trkpt>
      <trkpt lat="45.46877" lon="6.80325">
        <ele>2464</ele>
        <time>2013-06-29T06:24:12.870Z</time>
      </trkpt>
      <trkpt lat="45.46878" lon="6.80314">
        <ele>2464</ele>
        <time>2013-06-29T06:24:15.870Z</time>
      </trkpt>
      <trkpt lat="45.46881" lon="6.80301">
        <ele>2464</ele>
        <time>2013-06-29T06:24:19.870Z</time>
      </trkpt>
      <trkpt lat="45.46884" lon="6.80291">
        <ele>2464.284</ele>
        <time>2013-06-29T06:24:22.880Z</time>
      </trkpt>
      <trkpt lat="45.46887" lon="6.8028">
        <ele>2464.58300032</ele>
        <time>2013-06-29T06:24:25.870Z</time>
      </trkpt>
      <trkpt lat="45.4689" lon="6.80271">
        <ele>2464.88300032</ele>
        <time>2013-06-29T06:24:28.870Z</time>
      </trkpt>
      <trkpt lat="45.4689" lon="6.80253">
        <ele>2464.40700032</ele>
        <time>2013-06-29T06:24:35.970Z</time>
      </trkpt>
      <trkpt lat="45.46883" lon="6.80241">
        <ele>2463.937991811</ele>
        <time>2013-06-29T06:24:40.670Z</time>
      </trkpt>
      <trkpt lat="45.4688" lon="6.80226">
        <ele>2463.2362204724</ele>
        <time>2013-06-29T06:24:47.800Z</time>
      </trkpt>
      <trkpt lat="45.46875" lon="6.80218">
        <ele>2462.9319102439</ele>
        <time>2013-06-29T06:24:50.870Z</time>
      </trkpt>
      <trkpt lat="45.46872" lon="6.8021">
        <ele>2462.6270321951</ele>
        <time>2013-06-29T06:24:53.870Z</time>
      </trkpt>
      <trkpt lat="45.46865" lon="6.80197">
        <ele>2462.0172760976</ele>
        <time>2013-06-29T06:24:59.870Z</time>
      </trkpt>
      <trkpt lat="45.46861" lon="6.80191">
        <ele>2461.44199936</ele>
        <time>2013-06-29T06:25:02.830Z</time>
      </trkpt>
      <trkpt lat="45.46855" lon="6.80184">
        <ele>2460.64199936</ele>
        <time>2013-06-29T06:25:06.830Z</time>
      </trkpt>
      <trkpt lat="45.46851" lon="6.80179">
        <ele>2460.02200064</ele>
        <time>2013-06-29T06:25:09.930Z</time>
      </trkpt>
      <trkpt lat="45.46847" lon="6.80173">
        <ele>2460</ele>
        <time>2013-06-29T06:25:12.970Z</time>
      </trkpt>
      <trkpt lat="45.46843" lon="6.80166">
        <ele>2460</ele>
        <time>2013-06-29T06:25:15.870Z</time>
      </trkpt>
      <trkpt lat="45.4684" lon="6.80159">
        <ele>2460</ele>
        <time>2013-06-29T06:25:18.870Z</time>
      </trkpt>
      <trkpt lat="45.46833" lon="6.80145">
        <ele>2457.10199808</ele>
        <time>2013-06-29T06:25:24.870Z</time>
      </trkpt>
      <trkpt lat="45.46825" lon="6.80132">
        <ele>2454</ele>
        <time>2013-06-29T06:25:31.870Z</time>
      </trkpt>
      <trkpt lat="45.46823" lon="6.80119">
        <ele>2453.6425025962</ele>
        <time>2013-06-29T06:25:40.760Z</time>
      </trkpt>
      <trkpt lat="45.46818" lon="6.80105">
        <ele>2448.7734128575</ele>
        <time>2013-06-29T06:25:50.860Z</time>
      </trkpt>
      <trkpt lat="45.4681" lon="6.80095">
        <ele>2446.6586124177</ele>
        <time>2013-06-29T06:25:57.860Z</time>
      </trkpt>
      <trkpt lat="45.46805" lon="6.8009">
        <ele>2444.85999872</ele>
        <time>2013-06-29T06:26:05.740Z</time>
      </trkpt>
      <trkpt lat="45.46801" lon="6.80086">
        <ele>2443.82999936</ele>
        <time>2013-06-29T06:26:11.740Z</time>
      </trkpt>
      <trkpt lat="45.46795" lon="6.80073">
        <ele>2441.368</ele>
        <time>2013-06-29T06:26:22.760Z</time>
      </trkpt>
      <trkpt lat="45.46784" lon="6.80064">
        <ele>2437.168</ele>
        <time>2013-06-29T06:26:29.760Z</time>
      </trkpt>
      <trkpt lat="45.46774" lon="6.80056">
        <ele>2433.64699776</ele>
        <time>2013-06-29T06:26:34.830Z</time>
      </trkpt>
      <trkpt lat="45.46766" lon="6.80049">
        <ele>2430.84699776</ele>
        <time>2013-06-29T06:26:38.830Z</time>
      </trkpt>
      <trkpt lat="45.46756" lon="6.80042">
        <ele>2429.1641788383</ele>
        <time>2013-06-29T06:26:42.840Z</time>
      </trkpt>
      <trkpt lat="45.46739" lon="6.80033">
        <ele>2426.7983944168</ele>
        <time>2013-06-29T06:26:50.760Z</time>
      </trkpt>
      <trkpt lat="45.46722" lon="6.8002">
        <ele>2424.0902726513</ele>
        <time>2013-06-29T06:26:59.760Z</time>
      </trkpt>
      <trkpt lat="45.46709" lon="6.80006">
        <ele>2423.2174346885</ele>
        <time>2013-06-29T06:27:07.870Z</time>
      </trkpt>
      <trkpt lat="45.46696" lon="6.79995">
        <ele>2422.61699968</ele>
        <time>2013-06-29T06:27:13.870Z</time>
      </trkpt>
      <trkpt lat="45.46687" lon="6.79983">
        <ele>2421.76600192</ele>
        <time>2013-06-29T06:27:20.820Z</time>
      </trkpt>
      <trkpt lat="45.46679" lon="6.79975">
        <ele>2419.66599808</ele>
        <time>2013-06-29T06:27:27.820Z</time>
      </trkpt>
      <trkpt lat="45.4667" lon="6.7997">
        <ele>2419</ele>
        <time>2013-06-29T06:27:34.970Z</time>
      </trkpt>
      <trkpt lat="45.4666" lon="6.79968">
        <ele>2418.8308450805</ele>
        <time>2013-06-29T06:27:41.740Z</time>
      </trkpt>
      <trkpt lat="45.46649" lon="6.79965">
        <ele>2418.1343287194</ele>
        <time>2013-06-29T06:27:48.740Z</time>
      </trkpt>
      <trkpt lat="45.46642" lon="6.79966">
        <ele>2416.6111085714</ele>
        <time>2013-06-29T06:27:51.840Z</time>
      </trkpt>
      <trkpt lat="45.4663" lon="6.79976">
        <ele>2410.2619022222</ele>
        <time>2013-06-29T06:27:59.840Z</time>
      </trkpt>
      <trkpt lat="45.46622" lon="6.79964">
        <ele>2405.1773065281</ele>
        <time>2013-06-29T06:28:06.970Z</time>
      </trkpt>
      <trkpt lat="45.4661" lon="6.79954">
        <ele>2401.82100096</ele>
        <time>2013-06-29T06:28:13.970Z</time>
      </trkpt>
      <trkpt lat="45.46595" lon="6.79952">
        <ele>2399.72100096</ele>
        <time>2013-06-29T06:28:20.970Z</time>
      </trkpt>
      <trkpt lat="45.4658" lon="6.79953">
        <ele>2397.92100096</ele>
        <time>2013-06-29T06:28:26.970Z</time>
      </trkpt>
      <trkpt lat="45.46566" lon="6.79949">
        <ele>2395.5422896851</ele>
        <time>2013-06-29T06:28:32.970Z</time>
      </trkpt>
      <trkpt lat="45.46554" lon="6.79951">
        <ele>2393.1044747795</ele>
        <time>2013-06-29T06:28:37.870Z</time>
      </trkpt>
      <trkpt lat="45.46546" lon="6.79954">
        <ele>2391.6944406349</ele>
        <time>2013-06-29T06:28:40.860Z</time>
      </trkpt>
      <trkpt lat="45.46537" lon="6.79956">
        <ele>2390.5039695238</ele>
        <time>2013-06-29T06:28:43.860Z</time>
      </trkpt>
      <trkpt lat="45.46529" lon="6.79956">
        <ele>2389.313488254</ele>
        <time>2013-06-29T06:28:46.860Z</time>
      </trkpt>
      <trkpt lat="45.46521" lon="6.79959">
        <ele>2388.1230171429</ele>
        <time>2013-06-29T06:28:49.860Z</time>
      </trkpt>
      <trkpt lat="45.46512" lon="6.7996">
        <ele>2387.5015186216</ele>
        <time>2013-06-29T06:28:52.630Z</time>
      </trkpt>
      <trkpt lat="45.46501" lon="6.7996">
        <ele>2386.6909819036</ele>
        <time>2013-06-29T06:28:56.630Z</time>
      </trkpt>
      <trkpt lat="45.46493" lon="6.79963">
        <ele>2386.0830793652</ele>
        <time>2013-06-29T06:28:59.630Z</time>
      </trkpt>
      <trkpt lat="45.46484" lon="6.79967">
        <ele>2385.61699968</ele>
        <time>2013-06-29T06:29:03.870Z</time>
      </trkpt>
      <trkpt lat="45.4647" lon="6.79965">
        <ele>2385.01699968</ele>
        <time>2013-06-29T06:29:09.870Z</time>
      </trkpt>
      <trkpt lat="45.46463" lon="6.7996">
        <ele>2384.43399936</ele>
        <time>2013-06-29T06:29:12.870Z</time>
      </trkpt>
      <trkpt lat="45.46451" lon="6.7996">
        <ele>2383.43399936</ele>
        <time>2013-06-29T06:29:17.870Z</time>
      </trkpt>
      <trkpt lat="45.46438" lon="6.79962">
        <ele>2382.23399936</ele>
        <time>2013-06-29T06:29:23.870Z</time>
      </trkpt>
      <trkpt lat="45.46424" lon="6.79957">
        <ele>2380.70800128</ele>
        <time>2013-06-29T06:29:30.770Z</time>
      </trkpt>
      <trkpt lat="45.46412" lon="6.79946">
        <ele>2378.66799872</ele>
        <time>2013-06-29T06:29:35.870Z</time>
      </trkpt>
      <trkpt lat="45.46399" lon="6.79933">
        <ele>2376.9301404039</ele>
        <time>2013-06-29T06:29:40.740Z</time>
      </trkpt>
      <trkpt lat="45.46387" lon="6.79926">
        <ele>2376.4311374492</ele>
        <time>2013-06-29T06:29:45.740Z</time>
      </trkpt>
      <trkpt lat="45.46375" lon="6.79915">
        <ele>2375.8196404455</ele>
        <time>2013-06-29T06:29:51.860Z</time>
      </trkpt>
      <trkpt lat="45.46364" lon="6.7991">
        <ele>2375.3186368376</ele>
        <time>2013-06-29T06:29:56.860Z</time>
      </trkpt>
      <trkpt lat="45.46351" lon="6.79904">
        <ele>2374.46</ele>
        <time>2013-06-29T06:30:01.840Z</time>
      </trkpt>
      <trkpt lat="45.46337" lon="6.79896">
        <ele>2372.66</ele>
        <time>2013-06-29T06:30:07.840Z</time>
      </trkpt>
      <trkpt lat="45.46322" lon="6.79889">
        <ele>2371.71100032</ele>
        <time>2013-06-29T06:30:12.930Z</time>
      </trkpt>
      <trkpt lat="45.46309" lon="6.79884">
        <ele>2371.21100032</ele>
        <time>2013-06-29T06:30:17.930Z</time>
      </trkpt>
      <trkpt lat="45.46298" lon="6.79878">
        <ele>2370.70700032</ele>
        <time>2013-06-29T06:30:22.970Z</time>
      </trkpt>
      <trkpt lat="45.46287" lon="6.79869">
        <ele>2370.21699968</ele>
        <time>2013-06-29T06:30:27.870Z</time>
      </trkpt>
      <trkpt lat="45.46276" lon="6.7986">
        <ele>2370</ele>
        <time>2013-06-29T06:30:32.870Z</time>
      </trkpt>
      <trkpt lat="45.46267" lon="6.79848">
        <ele>2370</ele>
        <time>2013-06-29T06:30:38.870Z</time>
      </trkpt>
      <trkpt lat="45.46257" lon="6.79837">
        <ele>2370</ele>
        <time>2013-06-29T06:30:44.760Z</time>
      </trkpt>
      <trkpt lat="45.46247" lon="6.79828">
        <ele>2369.925552724</ele>
        <time>2013-06-29T06:30:50.840Z</time>
      </trkpt>
      <trkpt lat="45.46237" lon="6.79818">
        <ele>2369.2213278253</ele>
        <time>2013-06-29T06:30:57.840Z</time>
      </trkpt>
      <trkpt lat="45.46229" lon="6.79815">
        <ele>2367.6500032</ele>
        <time>2013-06-29T06:31:02.740Z</time>
      </trkpt>
      <trkpt lat="45.46218" lon="6.79802">
        <ele>2363.68</ele>
        <time>2013-06-29T06:31:10.840Z</time>
      </trkpt>
      <trkpt lat="45.46221" lon="6.7978">
        <ele>2360.88</ele>
        <time>2013-06-29T06:31:17.840Z</time>
      </trkpt>
      <trkpt lat="45.46227" lon="6.79761">
        <ele>2359.31044786</ele>
        <time>2013-06-29T06:31:26.970Z</time>
      </trkpt>
      <trkpt lat="45.46224" lon="6.79751">
        <ele>2357.3532925488</ele>
        <time>2013-06-29T06:31:32.840Z</time>
      </trkpt>
      <trkpt lat="45.46217" lon="6.79739">
        <ele>2353.1556923556</ele>
        <time>2013-06-29T06:31:39.850Z</time>
      </trkpt>
      <trkpt lat="45.46216" lon="6.79727">
        <ele>2351.046234357</ele>
        <time>2013-06-29T06:31:44.970Z</time>
      </trkpt>
      <trkpt lat="45.4621" lon="6.79725">
        <ele>2347.4709428271</ele>
        <time>2013-06-29T06:31:57.690Z</time>
      </trkpt>
      <trkpt lat="45.46197" lon="6.79728">
        <ele>2344</ele>
        <time>2013-06-29T06:32:17.860Z</time>
      </trkpt>
      <trkpt lat="45.46181" lon="6.79729">
        <ele>2343.40700032</ele>
        <time>2013-06-29T06:32:25.970Z</time>
      </trkpt>
      <trkpt lat="45.46167" lon="6.79739">
        <ele>2342.21400064</ele>
        <time>2013-06-29T06:32:33.970Z</time>
      </trkpt>
      <trkpt lat="45.46152" lon="6.79733">
        <ele>2340.8567163723</ele>
        <time>2013-06-29T06:32:40.760Z</time>
      </trkpt>
      <trkpt lat="45.46141" lon="6.79721">
        <ele>2338.7162823469</ele>
        <time>2013-06-29T06:32:50.800Z</time>
      </trkpt>
      <trkpt lat="45.46128" lon="6.79706">
        <ele>2335.1238723273</ele>
        <time>2013-06-29T06:32:59.790Z</time>
      </trkpt>
      <trkpt lat="45.46125" lon="6.79683">
        <ele>2331.5129266086</ele>
        <time>2013-06-29T06:33:10.740Z</time>
      </trkpt>
      <trkpt lat="45.46134" lon="6.79664">
        <ele>2325.2504882707</ele>
        <time>2013-06-29T06:33:19.740Z</time>
      </trkpt>
      <trkpt lat="45.46139" lon="6.79645">
        <ele>2317.9416467177</ele>
        <time>2013-06-29T06:33:28.870Z</time>
      </trkpt>
      <trkpt lat="45.46145" lon="6.79626">
        <ele>2310.20999552</ele>
        <time>2013-06-29T06:33:39.740Z</time>
      </trkpt>
      <trkpt lat="45.46157" lon="6.79607">
        <ele>2306.7961584513</ele>
        <time>2013-06-29T06:33:52.860Z</time>
      </trkpt>
      <trkpt lat="45.46169" lon="6.79594">
        <ele>2299.63599872</ele>
        <time>2013-06-29T06:34:06.860Z</time>
      </trkpt>
      <trkpt lat="45.46186" lon="6.79584">
        <ele>2296.6538101195</ele>
        <time>2013-06-29T06:34:15.970Z</time>
      </trkpt>
      <trkpt lat="45.46202" lon="6.79574">
        <ele>2294.5116287196</ele>
        <time>2013-06-29T06:34:21.760Z</time>
      </trkpt>
      <trkpt lat="45.46216" lon="6.79572">
        <ele>2292.6916079083</ele>
        <time>2013-06-29T06:34:27.760Z</time>
      </trkpt>
      <trkpt lat="45.4623" lon="6.79554">
        <ele>2292</ele>
        <time>2013-06-29T06:34:38.870Z</time>
      </trkpt>
      <trkpt lat="45.46234" lon="6.79535">
        <ele>2291.4233430905</ele>
        <time>2013-06-29T06:34:45.870Z</time>
      </trkpt>
      <trkpt lat="45.46249" lon="6.7954">
        <ele>2289.4408507797</ele>
        <time>2013-06-29T06:34:57.860Z</time>
      </trkpt>
      <trkpt lat="45.46263" lon="6.79549">
        <ele>2280.64</ele>
        <time>2013-06-29T06:35:11.840Z</time>
      </trkpt>
      <trkpt lat="45.46279" lon="6.79546">
        <ele>2276.94900224</ele>
        <time>2013-06-29T06:35:22.970Z</time>
      </trkpt>
      <trkpt lat="45.46294" lon="6.7954">
        <ele>2265.5203972204</ele>
        <time>2013-06-29T06:35:44.860Z</time>
      </trkpt>
      <trkpt lat="45.46309" lon="6.79539">
        <ele>2256.30799616</ele>
        <time>2013-06-29T06:36:02.860Z</time>
      </trkpt>
      <trkpt lat="45.46326" lon="6.7954">
        <ele>2252</ele>
        <time>2013-06-29T06:36:14.740Z</time>
      </trkpt>
      <trkpt lat="45.46339" lon="6.79544">
        <ele>2245.8611384971</ele>
        <time>2013-06-29T06:36:33.840Z</time>
      </trkpt>
      <trkpt lat="45.46354" lon="6.79547">
        <ele>2240.6904485016</ele>
        <time>2013-06-29T06:36:50.860Z</time>
      </trkpt>
      <trkpt lat="45.4637" lon="6.79546">
        <ele>2231.3165805615</ele>
        <time>2013-06-29T06:37:11.790Z</time>
      </trkpt>
      <trkpt lat="45.46383" lon="6.79528">
        <ele>2224.57999616</ele>
        <time>2013-06-29T06:37:25.740Z</time>
      </trkpt>
      <trkpt lat="45.46396" lon="6.79508">
        <ele>2221.01200128</ele>
        <time>2013-06-29T06:37:34.980Z</time>
      </trkpt>
      <trkpt lat="45.4641" lon="6.79498">
        <ele>2218.1886223146</ele>
        <time>2013-06-29T06:37:43.670Z</time>
      </trkpt>
      <trkpt lat="45.46418" lon="6.79472">
        <ele>2213.4769580614</ele>
        <time>2013-06-29T06:37:53.860Z</time>
      </trkpt>
      <trkpt lat="45.46418" lon="6.79446">
        <ele>2210.5849984</ele>
        <time>2013-06-29T06:38:00.870Z</time>
      </trkpt>
      <trkpt lat="45.46423" lon="6.79421">
        <ele>2206.14</ele>
        <time>2013-06-29T06:38:09.760Z</time>
      </trkpt>
      <trkpt lat="45.46428" lon="6.79399">
        <ele>2202.1049984</ele>
        <time>2013-06-29T06:38:17.830Z</time>
      </trkpt>
      <trkpt lat="45.46427" lon="6.79375">
        <ele>2197.6534687344</ele>
        <time>2013-06-29T06:38:30.740Z</time>
      </trkpt>
      <trkpt lat="45.46436" lon="6.79353">
        <ele>2193.1485179257</ele>
        <time>2013-06-29T06:38:39.840Z</time>
      </trkpt>
      <trkpt lat="45.46426" lon="6.79333">
        <ele>2192.2130655322</ele>
        <time>2013-06-29T06:38:47.970Z</time>
      </trkpt>
      <trkpt lat="45.46411" lon="6.7932">
        <ele>2191.534535004</ele>
        <time>2013-06-29T06:38:54.740Z</time>
      </trkpt>
      <trkpt lat="45.46398" lon="6.79308">
        <ele>2191.0340333825</ele>
        <time>2013-06-29T06:38:59.740Z</time>
      </trkpt>
      <trkpt lat="45.46385" lon="6.79293">
        <ele>2190.5301204819</ele>
        <time>2013-06-29T06:39:04.760Z</time>
      </trkpt>
      <trkpt lat="45.46374" lon="6.79275">
        <ele>2190.0281124498</ele>
        <time>2013-06-29T06:39:09.760Z</time>
      </trkpt>
      <trkpt lat="45.46367" lon="6.79254">
        <ele>2188.83399936</ele>
        <time>2013-06-29T06:39:15.870Z</time>
      </trkpt>
      <trkpt lat="45.46361" lon="6.79235">
        <ele>2187.84</ele>
        <time>2013-06-29T06:39:20.840Z</time>
      </trkpt>
      <trkpt lat="45.4635" lon="6.79218">
        <ele>2186.44</ele>
        <time>2013-06-29T06:39:27.840Z</time>
      </trkpt>
      <trkpt lat="45.46334" lon="6.7921">
        <ele>2185.5617848518</ele>
        <time>2013-06-29T06:39:33.870Z</time>
      </trkpt>
      <trkpt lat="45.46325" lon="6.79209">
        <ele>2185.0011452623</ele>
        <time>2013-06-29T06:39:38.770Z</time>
      </trkpt>
      <trkpt lat="45.46297" lon="6.79194">
        <ele>2180</ele>
        <time>2013-06-29T06:51:50.190Z</time>
      </trkpt>
      <trkpt lat="45.46309" lon="6.79199">
        <ele>2180</ele>
        <time>2013-06-29T06:51:59.870Z</time>
      </trkpt>
      <trkpt lat="45.46305" lon="6.79175">
        <ele>2179.656</ele>
        <time>2013-06-29T06:52:11.760Z</time>
      </trkpt>
      <trkpt lat="45.46297" lon="6.79154">
        <ele>2178.256</ele>
        <time>2013-06-29T06:52:18.760Z</time>
      </trkpt>
      <trkpt lat="45.46284" lon="6.79141">
        <ele>2177.316</ele>
        <time>2013-06-29T06:52:26.880Z</time>
      </trkpt>
      <trkpt lat="45.46277" lon="6.7912">
        <ele>2175.5849984</ele>
        <time>2013-06-29T06:52:32.870Z</time>
      </trkpt>
      <trkpt lat="45.46268" lon="6.791">
        <ele>2172.0849984</ele>
        <time>2013-06-29T06:52:39.870Z</time>
      </trkpt>
      <trkpt lat="45.46256" lon="6.79085">
        <ele>2170.8397999888</ele>
        <time>2013-06-29T06:52:45.870Z</time>
      </trkpt>
      <trkpt lat="45.4624" lon="6.79081">
        <ele>2168.7969830603</ele>
        <time>2013-06-29T06:52:51.800Z</time>
      </trkpt>
      <trkpt lat="45.46223" lon="6.79079">
        <ele>2164.5758788902</ele>
        <time>2013-06-29T06:52:57.800Z</time>
      </trkpt>
      <trkpt lat="45.46207" lon="6.79076">
        <ele>2159.9682590476</ele>
        <time>2013-06-29T06:53:03.860Z</time>
      </trkpt>
      <trkpt lat="45.46191" lon="6.79074">
        <ele>2155.2063542857</ele>
        <time>2013-06-29T06:53:09.860Z</time>
      </trkpt>
      <trkpt lat="45.46172" lon="6.79067">
        <ele>2150.9536309677</ele>
        <time>2013-06-29T06:53:16.810Z</time>
      </trkpt>
      <trkpt lat="45.46161" lon="6.7905">
        <ele>2148.1350016</ele>
        <time>2013-06-29T06:53:21.770Z</time>
      </trkpt>
      <trkpt lat="45.46146" lon="6.79039">
        <ele>2144.1350016</ele>
        <time>2013-06-29T06:53:29.770Z</time>
      </trkpt>
      <trkpt lat="45.46132" lon="6.79034">
        <ele>2142.23399936</ele>
        <time>2013-06-29T06:53:38.870Z</time>
      </trkpt>
      <trkpt lat="45.46115" lon="6.79024">
        <ele>2138.5133243872</ele>
        <time>2013-06-29T06:53:48.870Z</time>
      </trkpt>
      <trkpt lat="45.46104" lon="6.79004">
        <ele>2136.5450852944</ele>
        <time>2013-06-29T06:53:53.760Z</time>
      </trkpt>
      <trkpt lat="45.46091" lon="6.78988">
        <ele>2133.352</ele>
        <time>2013-06-29T06:54:00.760Z</time>
      </trkpt>
      <trkpt lat="45.46076" lon="6.78984">
        <ele>2127.952</ele>
        <time>2013-06-29T06:54:06.760Z</time>
      </trkpt>
      <trkpt lat="45.4606" lon="6.7899">
        <ele>2122.9650333555</ele>
        <time>2013-06-29T06:54:16.830Z</time>
      </trkpt>
      <trkpt lat="45.46043" lon="6.78999">
        <ele>2121.2352341989</ele>
        <time>2013-06-29T06:54:23.870Z</time>
      </trkpt>
      <trkpt lat="45.46027" lon="6.79008">
        <ele>2119.64</ele>
        <time>2013-06-29T06:54:30.760Z</time>
      </trkpt>
      <trkpt lat="45.46011" lon="6.79008">
        <ele>2116.64</ele>
        <time>2013-06-29T06:54:36.760Z</time>
      </trkpt>
      <trkpt lat="45.45995" lon="6.79013">
        <ele>2113.8814216601</ele>
        <time>2013-06-29T06:54:42.870Z</time>
      </trkpt>
      <trkpt lat="45.45979" lon="6.79013">
        <ele>2111.5098801581</ele>
        <time>2013-06-29T06:54:48.870Z</time>
      </trkpt>
      <trkpt lat="45.4596" lon="6.79014">
        <ele>2108.9655851012</ele>
        <time>2013-06-29T06:54:56.860Z</time>
      </trkpt>
      <trkpt lat="45.45941" lon="6.79008">
        <ele>2106.24200192</ele>
        <time>2013-06-29T06:55:02.970Z</time>
      </trkpt>
      <trkpt lat="45.45926" lon="6.79001">
        <ele>2103.24200192</ele>
        <time>2013-06-29T06:55:07.970Z</time>
      </trkpt>
      <trkpt lat="45.45911" lon="6.79">
        <ele>2101.60700032</ele>
        <time>2013-06-29T06:55:13.970Z</time>
      </trkpt>
      <trkpt lat="45.45896" lon="6.78999">
        <ele>2101.10700032</ele>
        <time>2013-06-29T06:55:18.970Z</time>
      </trkpt>
      <trkpt lat="45.4588" lon="6.79">
        <ele>2097.54900224</ele>
        <time>2013-06-29T06:55:24.970Z</time>
      </trkpt>
      <trkpt lat="45.45868" lon="6.79012">
        <ele>2093.0483244486</ele>
        <time>2013-06-29T06:55:31.970Z</time>
      </trkpt>
      <trkpt lat="45.45852" lon="6.79019">
        <ele>2089.1035487833</ele>
        <time>2013-06-29T06:55:39.970Z</time>
      </trkpt>
      <trkpt lat="45.45841" lon="6.79023">
        <ele>2086.2914975981</ele>
        <time>2013-06-29T06:55:46.870Z</time>
      </trkpt>
      <trkpt lat="45.45828" lon="6.79028">
        <ele>2083.4784821415</ele>
        <time>2013-06-29T06:55:53.860Z</time>
      </trkpt>
      <trkpt lat="45.4582" lon="6.79045">
        <ele>2080.1561535436</ele>
        <time>2013-06-29T06:56:02.860Z</time>
      </trkpt>
      <trkpt lat="45.45813" lon="6.79051">
        <ele>2077.51799936</ele>
        <time>2013-06-29T06:56:14.860Z</time>
      </trkpt>
      <trkpt lat="45.45802" lon="6.79042">
        <ele>2076.61699968</ele>
        <time>2013-06-29T06:56:23.870Z</time>
      </trkpt>
      <trkpt lat="45.45793" lon="6.79034">
        <ele>2076.21699968</ele>
        <time>2013-06-29T06:56:27.870Z</time>
      </trkpt>
      <trkpt lat="45.45777" lon="6.79025">
        <ele>2075.6189050329</ele>
        <time>2013-06-29T06:56:33.870Z</time>
      </trkpt>
      <trkpt lat="45.45762" lon="6.79016">
        <ele>2073.94999808</ele>
        <time>2013-06-29T06:56:41.840Z</time>
      </trkpt>
      <trkpt lat="45.45746" lon="6.79015">
        <ele>2069.20999424</ele>
        <time>2013-06-29T06:56:49.740Z</time>
      </trkpt>
      <trkpt lat="45.45732" lon="6.7901">
        <ele>2067.4422109131</ele>
        <time>2013-06-29T06:56:57.840Z</time>
      </trkpt>
      <trkpt lat="45.45716" lon="6.79006">
        <ele>2065.85999872</ele>
        <time>2013-06-29T06:57:05.740Z</time>
      </trkpt>
      <trkpt lat="45.45698" lon="6.79003">
        <ele>2065</ele>
        <time>2013-06-29T06:57:13.800Z</time>
      </trkpt>
      <trkpt lat="45.45684" lon="6.78995">
        <ele>2065</ele>
        <time>2013-06-29T06:57:18.800Z</time>
      </trkpt>
      <trkpt lat="45.45674" lon="6.78984">
        <ele>2065</ele>
        <time>2013-06-29T06:57:23.970Z</time>
      </trkpt>
      <trkpt lat="45.45663" lon="6.78976">
        <ele>2065</ele>
        <time>2013-06-29T06:57:28.980Z</time>
      </trkpt>
      <trkpt lat="45.45651" lon="6.78969">
        <ele>2059.44900224</ele>
        <time>2013-06-29T06:57:37.970Z</time>
      </trkpt>
      <trkpt lat="45.4564" lon="6.78968">
        <ele>2055</ele>
        <time>2013-06-29T06:57:50.760Z</time>
      </trkpt>
      <trkpt lat="45.45631" lon="6.78968">
        <ele>2054.312</ele>
        <time>2013-06-29T06:58:01.760Z</time>
      </trkpt>
      <trkpt lat="45.45622" lon="6.78965">
        <ele>2051.912</ele>
        <time>2013-06-29T06:58:07.760Z</time>
      </trkpt>
      <trkpt lat="45.4561" lon="6.78956">
        <ele>2050.61699968</ele>
        <time>2013-06-29T06:58:13.870Z</time>
      </trkpt>
      <trkpt lat="45.45595" lon="6.78946">
        <ele>2050.01699968</ele>
        <time>2013-06-29T06:58:19.870Z</time>
      </trkpt>
      <trkpt lat="45.45587" lon="6.78941">
        <ele>2046.61899776</ele>
        <time>2013-06-29T06:58:24.870Z</time>
      </trkpt>
      <trkpt lat="45.45571" lon="6.78926">
        <ele>2035.05299712</ele>
        <time>2013-06-29T06:58:38.870Z</time>
      </trkpt>
      <trkpt lat="45.45562" lon="6.78925">
        <ele>2032.7950267208</ele>
        <time>2013-06-29T06:58:41.770Z</time>
      </trkpt>
      <trkpt lat="45.45552" lon="6.78923">
        <ele>2030.008956182</ele>
        <time>2013-06-29T06:58:45.770Z</time>
      </trkpt>
      <trkpt lat="45.45539" lon="6.78922">
        <ele>2026.5286411164</ele>
        <time>2013-06-29T06:58:50.760Z</time>
      </trkpt>
      <trkpt lat="45.45531" lon="6.78914">
        <ele>2022.3075369463</ele>
        <time>2013-06-29T06:58:56.760Z</time>
      </trkpt>
      <trkpt lat="45.45524" lon="6.78907">
        <ele>2019.6</ele>
        <time>2013-06-29T06:59:00.840Z</time>
      </trkpt>
      <trkpt lat="45.45515" lon="6.78908">
        <ele>2017.6</ele>
        <time>2013-06-29T06:59:04.840Z</time>
      </trkpt>
      <trkpt lat="45.45508" lon="6.78914">
        <ele>2015</ele>
        <time>2013-06-29T06:59:19.670Z</time>
      </trkpt>
      <trkpt lat="45.45492" lon="6.78924">
        <ele>2014.6633264374</ele>
        <time>2013-06-29T06:59:31.740Z</time>
      </trkpt>
      <trkpt lat="45.45476" lon="6.78916">
        <ele>2006.0746297551</ele>
        <time>2013-06-29T06:59:48.740Z</time>
      </trkpt>
      <trkpt lat="45.45461" lon="6.78925">
        <ele>2000.3145763008</ele>
        <time>2013-06-29T06:59:57.860Z</time>
      </trkpt>
      <trkpt lat="45.45444" lon="6.78924">
        <ele>1993.70799616</ele>
        <time>2013-06-29T07:00:08.860Z</time>
      </trkpt>
      <trkpt lat="45.45426" lon="6.78923">
        <ele>1990.62100096</ele>
        <time>2013-06-29T07:00:17.970Z</time>
      </trkpt>
      <trkpt lat="45.4541" lon="6.78926">
        <ele>1983.65600256</ele>
        <time>2013-06-29T07:00:27.970Z</time>
      </trkpt>
      <trkpt lat="45.4539" lon="6.78932">
        <ele>1980.03399936</ele>
        <time>2013-06-29T07:00:39.870Z</time>
      </trkpt>
      <trkpt lat="45.45374" lon="6.78938">
        <ele>1971.7889428619</ele>
        <time>2013-06-29T07:00:52.840Z</time>
      </trkpt>
      <trkpt lat="45.45356" lon="6.78937">
        <ele>1963.8121890309</ele>
        <time>2013-06-29T07:01:03.690Z</time>
      </trkpt>
      <trkpt lat="45.4534" lon="6.78925">
        <ele>1958.045043429</ele>
        <time>2013-06-29T07:01:12.840Z</time>
      </trkpt>
      <trkpt lat="45.45325" lon="6.78912">
        <ele>1953.1401400952</ele>
        <time>2013-06-29T07:01:19.840Z</time>
      </trkpt>
      <trkpt lat="45.45308" lon="6.789">
        <ele>1951</ele>
        <time>2013-06-29T07:01:34.860Z</time>
      </trkpt>
      <trkpt lat="45.45291" lon="6.78888">
        <ele>1946.7784515587</ele>
        <time>2013-06-29T07:01:44.740Z</time>
      </trkpt>
      <trkpt lat="45.45272" lon="6.78882">
        <ele>1940.8844607292</ele>
        <time>2013-06-29T07:01:52.860Z</time>
      </trkpt>
      <trkpt lat="45.45256" lon="6.78873">
        <ele>1938.1354557902</ele>
        <time>2013-06-29T07:01:59.760Z</time>
      </trkpt>
      <trkpt lat="45.45242" lon="6.78855">
        <ele>1927.14299648</ele>
        <time>2013-06-29T07:02:09.970Z</time>
      </trkpt>
      <trkpt lat="45.45225" lon="6.78846">
        <ele>1921.6726724572</ele>
        <time>2013-06-29T07:02:18.970Z</time>
      </trkpt>
      <trkpt lat="45.45206" lon="6.78837">
        <ele>1919.4623101227</ele>
        <time>2013-06-29T07:02:27.740Z</time>
      </trkpt>
      <trkpt lat="45.4519" lon="6.78822">
        <ele>1914.5300032</ele>
        <time>2013-06-29T07:02:38.980Z</time>
      </trkpt>
      <trkpt lat="45.45177" lon="6.78808">
        <ele>1910.93531986</ele>
        <time>2013-06-29T07:02:47.740Z</time>
      </trkpt>
      <trkpt lat="45.4517" lon="6.78792">
        <ele>1907.6030110221</ele>
        <time>2013-06-29T07:02:54.860Z</time>
      </trkpt>
      <trkpt lat="45.45162" lon="6.78776">
        <ele>1904.34399488</ele>
        <time>2013-06-29T07:03:00.860Z</time>
      </trkpt>
      <trkpt lat="45.45151" lon="6.78763">
        <ele>1897.94399488</ele>
        <time>2013-06-29T07:03:08.860Z</time>
      </trkpt>
      <trkpt lat="45.45145" lon="6.78748">
        <ele>1893.44200192</ele>
        <time>2013-06-29T07:03:15.970Z</time>
      </trkpt>
      <trkpt lat="45.45135" lon="6.78737">
        <ele>1890.90999936</ele>
        <time>2013-06-29T07:03:20.940Z</time>
      </trkpt>
      <trkpt lat="45.45121" lon="6.78728">
        <ele>1890.30999936</ele>
        <time>2013-06-29T07:03:26.940Z</time>
      </trkpt>
      <trkpt lat="45.45112" lon="6.78722">
        <ele>1889.1849984</ele>
        <time>2013-06-29T07:03:31.670Z</time>
      </trkpt>
      <trkpt lat="45.45101" lon="6.7872">
        <ele>1886.6849984</ele>
        <time>2013-06-29T07:03:36.670Z</time>
      </trkpt>
      <trkpt lat="45.45089" lon="6.78717">
        <ele>1883.8667984839</ele>
        <time>2013-06-29T07:03:43.840Z</time>
      </trkpt>
      <trkpt lat="45.45076" lon="6.7872">
        <ele>1880.9979847096</ele>
        <time>2013-06-29T07:03:51.760Z</time>
      </trkpt>
      <trkpt lat="45.45063" lon="6.78723">
        <ele>1876.7726353174</ele>
        <time>2013-06-29T07:03:58.760Z</time>
      </trkpt>
      <trkpt lat="45.45056" lon="6.78737">
        <ele>1869.856</ele>
        <time>2013-06-29T07:04:10.760Z</time>
      </trkpt>
      <trkpt lat="45.45044" lon="6.78736">
        <ele>1868.656</ele>
        <time>2013-06-29T07:04:16.760Z</time>
      </trkpt>
      <trkpt lat="45.45033" lon="6.78732">
        <ele>1867.28</ele>
        <time>2013-06-29T07:04:21.840Z</time>
      </trkpt>
      <trkpt lat="45.4503" lon="6.78721">
        <ele>1864.52000256</ele>
        <time>2013-06-29T07:04:28.740Z</time>
      </trkpt>
      <trkpt lat="45.4502" lon="6.7871">
        <ele>1863.41699968</ele>
        <time>2013-06-29T07:04:35.870Z</time>
      </trkpt>
      <trkpt lat="45.4501" lon="6.787">
        <ele>1860.4089543989</ele>
        <time>2013-06-29T07:04:43.760Z</time>
      </trkpt>
      <trkpt lat="45.45017" lon="6.78682">
        <ele>1849.0291453977</ele>
        <time>2013-06-29T07:04:58.760Z</time>
      </trkpt>
      <trkpt lat="45.45023" lon="6.78666">
        <ele>1840.8693461325</ele>
        <time>2013-06-29T07:05:13.840Z</time>
      </trkpt>
      <trkpt lat="45.45011" lon="6.78662">
        <ele>1838.67199744</ele>
        <time>2013-06-29T07:05:20.860Z</time>
      </trkpt>
      <trkpt lat="45.45001" lon="6.78663">
        <ele>1836.27199744</ele>
        <time>2013-06-29T07:05:26.860Z</time>
      </trkpt>
      <trkpt lat="45.44987" lon="6.7867">
        <ele>1830.68</ele>
        <time>2013-06-29T07:05:34.840Z</time>
      </trkpt>
      <trkpt lat="45.44975" lon="6.78675">
        <ele>1824.9980322213</ele>
        <time>2013-06-29T07:05:41.740Z</time>
      </trkpt>
      <trkpt lat="45.44963" lon="6.78677">
        <ele>1822.0510868048</ele>
        <time>2013-06-29T07:05:46.740Z</time>
      </trkpt>
      <trkpt lat="45.44952" lon="6.78666">
        <ele>1814.2260674386</ele>
        <time>2013-06-29T07:05:59.670Z</time>
      </trkpt>
      <trkpt lat="45.44939" lon="6.78669">
        <ele>1809.84200192</ele>
        <time>2013-06-29T07:06:06.970Z</time>
      </trkpt>
      <trkpt lat="45.44927" lon="6.7867">
        <ele>1806.64900224</ele>
        <time>2013-06-29T07:06:11.970Z</time>
      </trkpt>
      <trkpt lat="45.4493" lon="6.78648">
        <ele>1799.36200192</ele>
        <time>2013-06-29T07:06:22.770Z</time>
      </trkpt>
      <trkpt lat="45.44941" lon="6.78639">
        <ele>1795.76200192</ele>
        <time>2013-06-29T07:06:28.770Z</time>
      </trkpt>
      <trkpt lat="45.44951" lon="6.78629">
        <ele>1791.0849984</ele>
        <time>2013-06-29T07:06:37.870Z</time>
      </trkpt>
      <trkpt lat="45.44942" lon="6.78618">
        <ele>1787.6381910711</ele>
        <time>2013-06-29T07:06:50.690Z</time>
      </trkpt>
      <trkpt lat="45.44949" lon="6.78607">
        <ele>1783.417086901</ele>
        <time>2013-06-29T07:06:57.690Z</time>
      </trkpt>
      <trkpt lat="45.44938" lon="6.78597">
        <ele>1774.52</ele>
        <time>2013-06-29T07:07:06.840Z</time>
      </trkpt>
      <trkpt lat="45.44927" lon="6.78591">
        <ele>1769.59000192</ele>
        <time>2013-06-29T07:07:14.740Z</time>
      </trkpt>
      <trkpt lat="45.44934" lon="6.78576">
        <ele>1767.472</ele>
        <time>2013-06-29T07:07:21.800Z</time>
      </trkpt>
      <trkpt lat="45.44922" lon="6.78577">
        <ele>1763.82800128</ele>
        <time>2013-06-29T07:07:32.970Z</time>
      </trkpt>
      <trkpt lat="45.44909" lon="6.7858">
        <ele>1759.9890939906</ele>
        <time>2013-06-29T07:07:41.740Z</time>
      </trkpt>
      <trkpt lat="45.44899" lon="6.78581">
        <ele>1754.4118760167</ele>
        <time>2013-06-29T07:07:50.860Z</time>
      </trkpt>
      <trkpt lat="45.44903" lon="6.78562">
        <ele>1745.3767563138</ele>
        <time>2013-06-29T07:08:02.760Z</time>
      </trkpt>
      <trkpt lat="45.44909" lon="6.78545">
        <ele>1739.90199808</ele>
        <time>2013-06-29T07:08:11.870Z</time>
      </trkpt>
      <trkpt lat="45.4492" lon="6.78522">
        <ele>1733.64</ele>
        <time>2013-06-29T07:08:22.760Z</time>
      </trkpt>
      <trkpt lat="45.4493" lon="6.78503">
        <ele>1728.56</ele>
        <time>2013-06-29T07:08:34.840Z</time>
      </trkpt>
      <trkpt lat="45.44942" lon="6.7849">
        <ele>1722.6985095955</ele>
        <time>2013-06-29T07:08:43.970Z</time>
      </trkpt>
      <trkpt lat="45.44923" lon="6.78493">
        <ele>1715.1105546579</ele>
        <time>2013-06-29T07:08:51.860Z</time>
      </trkpt>
      <trkpt lat="45.4493" lon="6.7847">
        <ele>1709.64400128</ele>
        <time>2013-06-29T07:09:06.820Z</time>
      </trkpt>
      <trkpt lat="45.44944" lon="6.78454">
        <ele>1706.22199808</ele>
        <time>2013-06-29T07:09:14.670Z</time>
      </trkpt>
      <trkpt lat="45.44957" lon="6.78456">
        <ele>1703.22199808</ele>
        <time>2013-06-29T07:09:19.670Z</time>
      </trkpt>
      <trkpt lat="45.44944" lon="6.78446">
        <ele>1695.1699968</ele>
        <time>2013-06-29T07:09:27.870Z</time>
      </trkpt>
      <trkpt lat="45.44932" lon="6.78442">
        <ele>1689.50199808</ele>
        <time>2013-06-29T07:09:35.870Z</time>
      </trkpt>
      <trkpt lat="45.44919" lon="6.78437">
        <ele>1686.4368151043</ele>
        <time>2013-06-29T07:09:42.870Z</time>
      </trkpt>
      <trkpt lat="45.44904" lon="6.78437">
        <ele>1684.2261212539</ele>
        <time>2013-06-29T07:09:50.860Z</time>
      </trkpt>
      <trkpt lat="45.44914" lon="6.78415">
        <ele>1677.1909605014</ele>
        <time>2013-06-29T07:09:57.860Z</time>
      </trkpt>
      <trkpt lat="45.44902" lon="6.78418">
        <ele>1670.90799616</ele>
        <time>2013-06-29T07:10:06.860Z</time>
      </trkpt>
      <trkpt lat="45.4491" lon="6.78394">
        <ele>1664.30199808</ele>
        <time>2013-06-29T07:10:17.870Z</time>
      </trkpt>
      <trkpt lat="45.4492" lon="6.78376">
        <ele>1659.64699776</ele>
        <time>2013-06-29T07:10:24.830Z</time>
      </trkpt>
      <trkpt lat="45.44923" lon="6.78355">
        <ele>1653.94900224</ele>
        <time>2013-06-29T07:10:32.970Z</time>
      </trkpt>
      <trkpt lat="45.44928" lon="6.78334">
        <ele>1646.6583939119</ele>
        <time>2013-06-29T07:10:43.970Z</time>
      </trkpt>
      <trkpt lat="45.44932" lon="6.78317">
        <ele>1642.6727104685</ele>
        <time>2013-06-29T07:10:50.760Z</time>
      </trkpt>
      <trkpt lat="45.44937" lon="6.78297">
        <ele>1637.484</ele>
        <time>2013-06-29T07:11:01.760Z</time>
      </trkpt>
      <trkpt lat="45.44938" lon="6.7828">
        <ele>1630.264</ele>
        <time>2013-06-29T07:11:21.880Z</time>
      </trkpt>
      <trkpt lat="45.44937" lon="6.78256">
        <ele>1622.96200192</ele>
        <time>2013-06-29T07:11:36.770Z</time>
      </trkpt>
      <trkpt lat="45.44941" lon="6.78239">
        <ele>1617.8955213996</ele>
        <time>2013-06-29T07:11:47.840Z</time>
      </trkpt>
      <trkpt lat="45.4494" lon="6.78215">
        <ele>1610.42499712</ele>
        <time>2013-06-29T07:12:01.790Z</time>
      </trkpt>
      <trkpt lat="45.44939" lon="6.78198">
        <ele>1604.12499712</ele>
        <time>2013-06-29T07:12:08.790Z</time>
      </trkpt>
      <trkpt lat="45.44929" lon="6.78178">
        <ele>1598.14900224</ele>
        <time>2013-06-29T07:12:16.970Z</time>
      </trkpt>
      <trkpt lat="45.44918" lon="6.78159">
        <ele>1592.50199808</ele>
        <time>2013-06-29T07:12:25.870Z</time>
      </trkpt>
      <trkpt lat="45.44906" lon="6.78142">
        <ele>1586.50199808</ele>
        <time>2013-06-29T07:12:35.870Z</time>
      </trkpt>
      <trkpt lat="45.44903" lon="6.78128">
        <ele>1583.8344959252</ele>
        <time>2013-06-29T07:12:40.870Z</time>
      </trkpt>
      <trkpt lat="45.44891" lon="6.7812">
        <ele>1582.8374872702</ele>
        <time>2013-06-29T07:12:45.870Z</time>
      </trkpt>
      <trkpt lat="45.44879" lon="6.78119">
        <ele>1582.0398803462</ele>
        <time>2013-06-29T07:12:49.870Z</time>
      </trkpt>
      <trkpt lat="45.44868" lon="6.78115">
        <ele>1580.5275809918</ele>
        <time>2013-06-29T07:12:53.740Z</time>
      </trkpt>
      <trkpt lat="45.44857" lon="6.78106">
        <ele>1578.9227660334</ele>
        <time>2013-06-29T07:12:57.740Z</time>
      </trkpt>
      <trkpt lat="45.4485" lon="6.78097">
        <ele>1577.30800128</ele>
        <time>2013-06-29T07:13:01.770Z</time>
      </trkpt>
      <trkpt lat="45.44848" lon="6.78094">
        <ele>1573.0013656831</ele>
        <time>2013-06-29T07:14:07.470Z</time>
      </trkpt>
      <trkpt lat="45.44849" lon="6.78092">
        <ele>1573.9995478608</ele>
        <time>2013-06-29T07:14:29.580Z</time>
      </trkpt>
      <trkpt lat="45.44849" lon="6.78071">
        <ele>1574</ele>
        <time>2013-06-29T07:14:36.970Z</time>
      </trkpt>
      <trkpt lat="45.44856" lon="6.7805">
        <ele>1573.61699968</ele>
        <time>2013-06-29T07:14:42.870Z</time>
      </trkpt>
      <trkpt lat="45.4486" lon="6.78024">
        <ele>1572.9212598425</ele>
        <time>2013-06-29T07:14:49.840Z</time>
      </trkpt>
      <trkpt lat="45.44857" lon="6.78001">
        <ele>1572.3405505512</ele>
        <time>2013-06-29T07:14:55.740Z</time>
      </trkpt>
      <trkpt lat="45.44853" lon="6.77978">
        <ele>1570.8819390896</ele>
        <time>2013-06-29T07:15:01.970Z</time>
      </trkpt>
      <trkpt lat="45.44856" lon="6.7795">
        <ele>1568.0565111422</ele>
        <time>2013-06-29T07:15:08.970Z</time>
      </trkpt>
      <trkpt lat="45.44859" lon="6.77925">
        <ele>1568</ele>
        <time>2013-06-29T07:15:14.970Z</time>
      </trkpt>
      <trkpt lat="45.44863" lon="6.77899">
        <ele>1567.63599872</ele>
        <time>2013-06-29T07:15:20.860Z</time>
      </trkpt>
      <trkpt lat="45.44871" lon="6.77875">
        <ele>1566.456</ele>
        <time>2013-06-29T07:15:26.760Z</time>
      </trkpt>
      <trkpt lat="45.44884" lon="6.77858">
        <ele>1565.23399936</ele>
        <time>2013-06-29T07:15:32.870Z</time>
      </trkpt>
      <trkpt lat="45.44901" lon="6.77846">
        <ele>1564.03399936</ele>
        <time>2013-06-29T07:15:38.870Z</time>
      </trkpt>
      <trkpt lat="45.44919" lon="6.77832">
        <ele>1561.26799872</ele>
        <time>2013-06-29T07:15:45.870Z</time>
      </trkpt>
      <trkpt lat="45.44936" lon="6.77815">
        <ele>1560</ele>
        <time>2013-06-29T07:15:52.870Z</time>
      </trkpt>
      <trkpt lat="45.44948" lon="6.77799">
        <ele>1560</ele>
        <time>2013-06-29T07:15:58.870Z</time>
      </trkpt>
      <trkpt lat="45.44957" lon="6.77776">
        <ele>1560</ele>
        <time>2013-06-29T07:16:05.670Z</time>
      </trkpt>
      <trkpt lat="45.44967" lon="6.77753">
        <ele>1560</ele>
        <time>2013-06-29T07:16:12.840Z</time>
      </trkpt>
      <trkpt lat="45.44975" lon="6.77732">
        <ele>1560</ele>
        <time>2013-06-29T07:16:18.840Z</time>
      </trkpt>
      <trkpt lat="45.44982" lon="6.77712">
        <ele>1559.4159211673</ele>
        <time>2013-06-29T07:16:24.970Z</time>
      </trkpt>
      <trkpt lat="45.44989" lon="6.77688">
        <ele>1559</ele>
        <time>2013-06-29T07:16:31.840Z</time>
      </trkpt>
      <trkpt lat="45.44996" lon="6.77664">
        <ele>1559</ele>
        <time>2013-06-29T07:16:38.740Z</time>
      </trkpt>
      <trkpt lat="45.45003" lon="6.77639">
        <ele>1559</ele>
        <time>2013-06-29T07:16:45.880Z</time>
      </trkpt>
      <trkpt lat="45.45015" lon="6.77623">
        <ele>1559</ele>
        <time>2013-06-29T07:16:54.870Z</time>
      </trkpt>
      <trkpt lat="45.45027" lon="6.77601">
        <ele>1558.207545515</ele>
        <time>2013-06-29T07:17:01.750Z</time>
      </trkpt>
      <trkpt lat="45.4504" lon="6.77583">
        <ele>1556</ele>
        <time>2013-06-29T07:17:09.970Z</time>
      </trkpt>
      <trkpt lat="45.45054" lon="6.77563">
        <ele>1556</ele>
        <time>2013-06-29T07:17:17.970Z</time>
      </trkpt>
      <trkpt lat="45.45068" lon="6.77542">
        <ele>1556</ele>
        <time>2013-06-29T07:17:23.970Z</time>
      </trkpt>
      <trkpt lat="45.45074" lon="6.77517">
        <ele>1555.80700032</ele>
        <time>2013-06-29T07:17:30.970Z</time>
      </trkpt>
      <trkpt lat="45.45077" lon="6.77488">
        <ele>1555.10700032</ele>
        <time>2013-06-29T07:17:37.970Z</time>
      </trkpt>
      <trkpt lat="45.45081" lon="6.77461">
        <ele>1554.30700032</ele>
        <time>2013-06-29T07:17:45.970Z</time>
      </trkpt>
      <trkpt lat="45.45089" lon="6.77435">
        <ele>1554.3894943554</ele>
        <time>2013-06-29T07:17:52.970Z</time>
      </trkpt>
      <trkpt lat="45.45096" lon="6.77412">
        <ele>1554.8728550966</ele>
        <time>2013-06-29T07:17:59.760Z</time>
      </trkpt>
      <trkpt lat="45.4511" lon="6.77394">
        <ele>1553.2583248409</ele>
        <time>2013-06-29T07:18:07.760Z</time>
      </trkpt>
      <trkpt lat="45.45121" lon="6.77374">
        <ele>1553</ele>
        <time>2013-06-29T07:18:14.870Z</time>
      </trkpt>
      <trkpt lat="45.45133" lon="6.77351">
        <ele>1553.275861982</ele>
        <time>2013-06-29T07:18:21.840Z</time>
      </trkpt>
      <trkpt lat="45.4514" lon="6.77324">
        <ele>1553.965516937</ele>
        <time>2013-06-29T07:18:28.840Z</time>
      </trkpt>
      <trkpt lat="45.45147" lon="6.773">
        <ele>1554.6781728092</ele>
        <time>2013-06-29T07:18:35.870Z</time>
      </trkpt>
      <trkpt lat="45.4516" lon="6.77282">
        <ele>1555</ele>
        <time>2013-06-29T07:18:42.870Z</time>
      </trkpt>
      <trkpt lat="45.45174" lon="6.77263">
        <ele>1554.8817653751</ele>
        <time>2013-06-29T07:18:49.770Z</time>
      </trkpt>
      <trkpt lat="45.45187" lon="6.77241">
        <ele>1553.4789588643</ele>
        <time>2013-06-29T07:18:56.770Z</time>
      </trkpt>
      <trkpt lat="45.45199" lon="6.77221">
        <ele>1552.5409184569</ele>
        <time>2013-06-29T07:19:03.760Z</time>
      </trkpt>
      <trkpt lat="45.45207" lon="6.77197">
        <ele>1552.1811733521</ele>
        <time>2013-06-29T07:19:10.970Z</time>
      </trkpt>
      <trkpt lat="45.45222" lon="6.77177">
        <ele>1552.8896762943</ele>
        <time>2013-06-29T07:19:17.970Z</time>
      </trkpt>
      <trkpt lat="45.45233" lon="6.77153">
        <ele>1552.0621222848</ele>
        <time>2013-06-29T07:19:23.740Z</time>
      </trkpt>
      <trkpt lat="45.45245" lon="6.7713">
        <ele>1550.61400064</ele>
        <time>2013-06-29T07:19:30.970Z</time>
      </trkpt>
      <trkpt lat="45.4525" lon="6.77101">
        <ele>1549.21400064</ele>
        <time>2013-06-29T07:19:37.970Z</time>
      </trkpt>
      <trkpt lat="45.45252" lon="6.77079">
        <ele>1548.21400064</ele>
        <time>2013-06-29T07:19:42.970Z</time>
      </trkpt>
      <trkpt lat="45.45253" lon="6.77053">
        <ele>1547.01400064</ele>
        <time>2013-06-29T07:19:48.970Z</time>
      </trkpt>
      <trkpt lat="45.45253" lon="6.77032">
        <ele>1546.4099503793</ele>
        <time>2013-06-29T07:19:54.970Z</time>
      </trkpt>
      <trkpt lat="45.45249" lon="6.7701">
        <ele>1548.3969825457</ele>
        <time>2013-06-29T07:20:03.860Z</time>
      </trkpt>
      <trkpt lat="45.45246" lon="6.76988">
        <ele>1552.08000256</ele>
        <time>2013-06-29T07:20:11.740Z</time>
      </trkpt>
      <trkpt lat="45.45239" lon="6.76968">
        <ele>1554.87999744</ele>
        <time>2013-06-29T07:20:18.740Z</time>
      </trkpt>
      <trkpt lat="45.45237" lon="6.76945">
        <ele>1557.34900096</ele>
        <time>2013-06-29T07:20:26.870Z</time>
      </trkpt>
      <trkpt lat="45.45244" lon="6.76922">
        <ele>1558</ele>
        <time>2013-06-29T07:20:33.870Z</time>
      </trkpt>
      <trkpt lat="45.45252" lon="6.76902">
        <ele>1557.83399936</ele>
        <time>2013-06-29T07:20:39.870Z</time>
      </trkpt>
      <trkpt lat="45.4526" lon="6.7688">
        <ele>1556.83399936</ele>
        <time>2013-06-29T07:20:44.870Z</time>
      </trkpt>
      <trkpt lat="45.45266" lon="6.76859">
        <ele>1555.6696503625</ele>
        <time>2013-06-29T07:20:49.870Z</time>
      </trkpt>
      <trkpt lat="45.45269" lon="6.76835">
        <ele>1553.2417914402</ele>
        <time>2013-06-29T07:20:55.970Z</time>
      </trkpt>
      <trkpt lat="45.45271" lon="6.76813">
        <ele>1551.4869538978</ele>
        <time>2013-06-29T07:21:00.860Z</time>
      </trkpt>
      <trkpt lat="45.45273" lon="6.7679">
        <ele>1550.0376826937</ele>
        <time>2013-06-29T07:21:05.860Z</time>
      </trkpt>
      <trkpt lat="45.45276" lon="6.76769">
        <ele>1549.1489586667</ele>
        <time>2013-06-29T07:21:10.870Z</time>
      </trkpt>
      <trkpt lat="45.4528" lon="6.76748">
        <ele>1549.669792</ele>
        <time>2013-06-29T07:21:15.870Z</time>
      </trkpt>
      <trkpt lat="45.4529" lon="6.76729">
        <ele>1549.828</ele>
        <time>2013-06-29T07:21:20.760Z</time>
      </trkpt>
      <trkpt lat="45.45299" lon="6.76706">
        <ele>1549.228</ele>
        <time>2013-06-29T07:21:26.760Z</time>
      </trkpt>
      <trkpt lat="45.45306" lon="6.76682">
        <ele>1547.46799872</ele>
        <time>2013-06-29T07:21:32.870Z</time>
      </trkpt>
      <trkpt lat="45.45315" lon="6.76662">
        <ele>1545.06799872</ele>
        <time>2013-06-29T07:21:38.870Z</time>
      </trkpt>
      <trkpt lat="45.45326" lon="6.7664">
        <ele>1544.31699968</ele>
        <time>2013-06-29T07:21:45.870Z</time>
      </trkpt>
      <trkpt lat="45.45339" lon="6.76624">
        <ele>1542.9074604283</ele>
        <time>2013-06-29T07:21:50.870Z</time>
      </trkpt>
      <trkpt lat="45.45343" lon="6.76598">
        <ele>1538.72835462</ele>
        <time>2013-06-29T07:21:57.870Z</time>
      </trkpt>
      <trkpt lat="45.45344" lon="6.76574">
        <ele>1538.47699968</ele>
        <time>2013-06-29T07:22:03.860Z</time>
      </trkpt>
      <trkpt lat="45.45342" lon="6.76549">
        <ele>1538.8654612048</ele>
        <time>2013-06-29T07:22:09.760Z</time>
      </trkpt>
      <trkpt lat="45.45338" lon="6.76523">
        <ele>1537.4598387149</ele>
        <time>2013-06-29T07:22:16.760Z</time>
      </trkpt>
      <trkpt lat="45.45331" lon="6.76499">
        <ele>1536.0350340628</ele>
        <time>2013-06-29T07:22:23.870Z</time>
      </trkpt>
      <trkpt lat="45.45325" lon="6.76471">
        <ele>1535</ele>
        <time>2013-06-29T07:22:30.830Z</time>
      </trkpt>
      <trkpt lat="45.45319" lon="6.76443">
        <ele>1535</ele>
        <time>2013-06-29T07:22:38.830Z</time>
      </trkpt>
      <trkpt lat="45.45311" lon="6.76423">
        <ele>1531.61899776</ele>
        <time>2013-06-29T07:22:43.870Z</time>
      </trkpt>
      <trkpt lat="45.45307" lon="6.76401">
        <ele>1528.11899776</ele>
        <time>2013-06-29T07:22:48.870Z</time>
      </trkpt>
      <trkpt lat="45.4531" lon="6.76376">
        <ele>1526.5582075409</ele>
        <time>2013-06-29T07:22:53.870Z</time>
      </trkpt>
      <trkpt lat="45.45313" lon="6.76352">
        <ele>1525.0656697522</ele>
        <time>2013-06-29T07:22:58.870Z</time>
      </trkpt>
      <trkpt lat="45.45305" lon="6.76326">
        <ele>1524.422110417</ele>
        <time>2013-06-29T07:23:04.840Z</time>
      </trkpt>
      <trkpt lat="45.45298" lon="6.76302">
        <ele>1524</ele>
        <time>2013-06-29T07:23:10.700Z</time>
      </trkpt>
      <trkpt lat="45.45306" lon="6.76279">
        <ele>1524</ele>
        <time>2013-06-29T07:23:16.700Z</time>
      </trkpt>
      <trkpt lat="45.45303" lon="6.76257">
        <ele>1523.71699968</ele>
        <time>2013-06-29T07:23:21.870Z</time>
      </trkpt>
      <trkpt lat="45.45302" lon="6.76234">
        <ele>1523.21699968</ele>
        <time>2013-06-29T07:23:26.870Z</time>
      </trkpt>
      <trkpt lat="45.45305" lon="6.76211">
        <ele>1522.43399936</ele>
        <time>2013-06-29T07:23:31.870Z</time>
      </trkpt>
      <trkpt lat="45.45307" lon="6.76189">
        <ele>1521.43399936</ele>
        <time>2013-06-29T07:23:36.870Z</time>
      </trkpt>
      <trkpt lat="45.45308" lon="6.76167">
        <ele>1520.71699968</ele>
        <time>2013-06-29T07:23:41.870Z</time>
      </trkpt>
      <trkpt lat="45.45311" lon="6.76146">
        <ele>1520.20700032</ele>
        <time>2013-06-29T07:23:46.970Z</time>
      </trkpt>
      <trkpt lat="45.45323" lon="6.76129">
        <ele>1519.6120436287</ele>
        <time>2013-06-29T07:23:52.970Z</time>
      </trkpt>
      <trkpt lat="45.45337" lon="6.76114">
        <ele>1519.0197433429</ele>
        <time>2013-06-29T07:23:58.970Z</time>
      </trkpt>
      <trkpt lat="45.4535" lon="6.76101">
        <ele>1519</ele>
        <time>2013-06-29T07:24:04.840Z</time>
      </trkpt>
      <trkpt lat="45.45362" lon="6.76082">
        <ele>1519</ele>
        <time>2013-06-29T07:24:11.680Z</time>
      </trkpt>
      <trkpt lat="45.45375" lon="6.76068">
        <ele>1519</ele>
        <time>2013-06-29T07:24:16.680Z</time>
      </trkpt>
      <trkpt lat="45.45388" lon="6.76053">
        <ele>1518.43399936</ele>
        <time>2013-06-29T07:24:21.870Z</time>
      </trkpt>
      <trkpt lat="45.45402" lon="6.76035">
        <ele>1517.23399936</ele>
        <time>2013-06-29T07:24:27.870Z</time>
      </trkpt>
      <trkpt lat="45.45414" lon="6.76015">
        <ele>1516.41699968</ele>
        <time>2013-06-29T07:24:34.870Z</time>
      </trkpt>
      <trkpt lat="45.45429" lon="6.76003">
        <ele>1515.63399936</ele>
        <time>2013-06-29T07:24:40.870Z</time>
      </trkpt>
      <trkpt lat="45.45445" lon="6.75991">
        <ele>1514.41400064</ele>
        <time>2013-06-29T07:24:46.970Z</time>
      </trkpt>
      <trkpt lat="45.4546" lon="6.75974">
        <ele>1513.0665332857</ele>
        <time>2013-06-29T07:24:53.740Z</time>
      </trkpt>
      <trkpt lat="45.45473" lon="6.75954">
        <ele>1511.1691869226</ele>
        <time>2013-06-29T07:25:01.860Z</time>
      </trkpt>
      <trkpt lat="45.45485" lon="6.75933">
        <ele>1509</ele>
        <time>2013-06-29T07:25:10.830Z</time>
      </trkpt>
      <trkpt lat="45.45501" lon="6.75932">
        <ele>1508.828</ele>
        <time>2013-06-29T07:25:20.760Z</time>
      </trkpt>
      <trkpt lat="45.45514" lon="6.75924">
        <ele>1508</ele>
        <time>2013-06-29T07:25:31.840Z</time>
      </trkpt>
      <trkpt lat="45.45524" lon="6.75909">
        <ele>1508</ele>
        <time>2013-06-29T07:25:40.870Z</time>
      </trkpt>
      <trkpt lat="45.45527" lon="6.75886">
        <ele>1508</ele>
        <time>2013-06-29T07:25:46.870Z</time>
      </trkpt>
      <trkpt lat="45.45534" lon="6.75864">
        <ele>1507.7184075521</ele>
        <time>2013-06-29T07:25:51.870Z</time>
      </trkpt>
      <trkpt lat="45.45541" lon="6.75844">
        <ele>1507.2208949559</ele>
        <time>2013-06-29T07:25:56.870Z</time>
      </trkpt>
      <trkpt lat="45.45547" lon="6.75822">
        <ele>1506.164825354</ele>
        <time>2013-06-29T07:26:01.860Z</time>
      </trkpt>
      <trkpt lat="45.4555" lon="6.75799">
        <ele>1504.6572842911</ele>
        <time>2013-06-29T07:26:06.860Z</time>
      </trkpt>
      <trkpt lat="45.45553" lon="6.75777">
        <ele>1503.72999936</ele>
        <time>2013-06-29T07:26:11.740Z</time>
      </trkpt>
      <trkpt lat="45.45554" lon="6.75754">
        <ele>1503.23000064</ele>
        <time>2013-06-29T07:26:16.740Z</time>
      </trkpt>
      <trkpt lat="45.45556" lon="6.75727">
        <ele>1501.0849984</ele>
        <time>2013-06-29T07:26:22.870Z</time>
      </trkpt>
      <trkpt lat="45.45565" lon="6.75704">
        <ele>1498.0849984</ele>
        <time>2013-06-29T07:26:28.870Z</time>
      </trkpt>
      <trkpt lat="45.45574" lon="6.75686">
        <ele>1497.03399936</ele>
        <time>2013-06-29T07:26:33.870Z</time>
      </trkpt>
      <trkpt lat="45.45581" lon="6.75663">
        <ele>1496</ele>
        <time>2013-06-29T07:26:39.970Z</time>
      </trkpt>
      <trkpt lat="45.45588" lon="6.75642">
        <ele>1496</ele>
        <time>2013-06-29T07:26:44.970Z</time>
      </trkpt>
      <trkpt lat="45.45594" lon="6.75621">
        <ele>1495.9301390372</ele>
        <time>2013-06-29T07:26:49.740Z</time>
      </trkpt>
      <trkpt lat="45.45598" lon="6.756">
        <ele>1495.4311379999</ele>
        <time>2013-06-29T07:26:54.740Z</time>
      </trkpt>
      <trkpt lat="45.45606" lon="6.75574">
        <ele>1494.4529042386</ele>
        <time>2013-06-29T07:27:01.790Z</time>
      </trkpt>
      <trkpt lat="45.45613" lon="6.75552">
        <ele>1493.2505002001</ele>
        <time>2013-06-29T07:27:07.790Z</time>
      </trkpt>
      <trkpt lat="45.45625" lon="6.75534">
        <ele>1493</ele>
        <time>2013-06-29T07:27:13.970Z</time>
      </trkpt>
      <trkpt lat="45.45636" lon="6.75515">
        <ele>1492.91699968</ele>
        <time>2013-06-29T07:27:19.870Z</time>
      </trkpt>
      <trkpt lat="45.45645" lon="6.75493">
        <ele>1492.31699968</ele>
        <time>2013-06-29T07:27:25.870Z</time>
      </trkpt>
      <trkpt lat="45.4565" lon="6.75473">
        <ele>1492</ele>
        <time>2013-06-29T07:27:30.880Z</time>
      </trkpt>
      <trkpt lat="45.45656" lon="6.75451">
        <ele>1492</ele>
        <time>2013-06-29T07:27:36.870Z</time>
      </trkpt>
      <trkpt lat="45.45663" lon="6.75431">
        <ele>1492</ele>
        <time>2013-06-29T07:27:42.870Z</time>
      </trkpt>
      <trkpt lat="45.45672" lon="6.75412">
        <ele>1492</ele>
        <time>2013-06-29T07:27:48.870Z</time>
      </trkpt>
      <trkpt lat="45.45682" lon="6.75395">
        <ele>1492</ele>
        <time>2013-06-29T07:27:54.840Z</time>
      </trkpt>
      <trkpt lat="45.45692" lon="6.75377">
        <ele>1492.3417097193</ele>
        <time>2013-06-29T07:28:00.790Z</time>
      </trkpt>
      <trkpt lat="45.45697" lon="6.75355">
        <ele>1493.5477394821</ele>
        <time>2013-06-29T07:28:06.790Z</time>
      </trkpt>
      <trkpt lat="45.45705" lon="6.75335">
        <ele>1494</ele>
        <time>2013-06-29T07:28:12.970Z</time>
      </trkpt>
      <trkpt lat="45.45716" lon="6.75316">
        <ele>1494</ele>
        <time>2013-06-29T07:28:18.970Z</time>
      </trkpt>
      <trkpt lat="45.45727" lon="6.75297">
        <ele>1493.40700032</ele>
        <time>2013-06-29T07:28:24.970Z</time>
      </trkpt>
      <trkpt lat="45.45734" lon="6.75277">
        <ele>1493</ele>
        <time>2013-06-29T07:28:30.980Z</time>
      </trkpt>
      <trkpt lat="45.4574" lon="6.75256">
        <ele>1493</ele>
        <time>2013-06-29T07:28:36.970Z</time>
      </trkpt>
      <trkpt lat="45.45747" lon="6.75237">
        <ele>1493</ele>
        <time>2013-06-29T07:28:42.970Z</time>
      </trkpt>
      <trkpt lat="45.45755" lon="6.75218">
        <ele>1493</ele>
        <time>2013-06-29T07:28:48.970Z</time>
      </trkpt>
      <trkpt lat="45.45763" lon="6.75198">
        <ele>1492.4215284807</ele>
        <time>2013-06-29T07:28:54.870Z</time>
      </trkpt>
      <trkpt lat="45.45772" lon="6.75178">
        <ele>1492</ele>
        <time>2013-06-29T07:29:00.760Z</time>
      </trkpt>
      <trkpt lat="45.4578" lon="6.7516">
        <ele>1492</ele>
        <time>2013-06-29T07:29:06.760Z</time>
      </trkpt>
      <trkpt lat="45.45786" lon="6.75138">
        <ele>1492</ele>
        <time>2013-06-29T07:29:12.870Z</time>
      </trkpt>
      <trkpt lat="45.45789" lon="6.75117">
        <ele>1492</ele>
        <time>2013-06-29T07:29:17.870Z</time>
      </trkpt>
      <trkpt lat="45.45793" lon="6.75096">
        <ele>1491.23399936</ele>
        <time>2013-06-29T07:29:22.870Z</time>
      </trkpt>
      <trkpt lat="45.45799" lon="6.75077">
        <ele>1490.21400064</ele>
        <time>2013-06-29T07:29:27.970Z</time>
      </trkpt>
      <trkpt lat="45.45805" lon="6.75056">
        <ele>1489.60700032</ele>
        <time>2013-06-29T07:29:32.970Z</time>
      </trkpt>
      <trkpt lat="45.45811" lon="6.75035">
        <ele>1489.11699968</ele>
        <time>2013-06-29T07:29:37.870Z</time>
      </trkpt>
      <trkpt lat="45.45818" lon="6.75015">
        <ele>1488.61699968</ele>
        <time>2013-06-29T07:29:42.870Z</time>
      </trkpt>
      <trkpt lat="45.45824" lon="6.74994">
        <ele>1488.11699968</ele>
        <time>2013-06-29T07:29:47.870Z</time>
      </trkpt>
      <trkpt lat="45.45829" lon="6.74972">
        <ele>1486.4955244563</ele>
        <time>2013-06-29T07:29:52.820Z</time>
      </trkpt>
      <trkpt lat="45.45835" lon="6.74948">
        <ele>1484.1472624549</ele>
        <time>2013-06-29T07:29:58.720Z</time>
      </trkpt>
      <trkpt lat="45.45842" lon="6.74926">
        <ele>1483.422110417</ele>
        <time>2013-06-29T07:30:04.840Z</time>
      </trkpt>
      <trkpt lat="45.4585" lon="6.74909">
        <ele>1482.90700032</ele>
        <time>2013-06-29T07:30:09.970Z</time>
      </trkpt>
      <trkpt lat="45.45859" lon="6.74891">
        <ele>1482.20700032</ele>
        <time>2013-06-29T07:30:16.970Z</time>
      </trkpt>
      <trkpt lat="45.45868" lon="6.74875">
        <ele>1481.40700032</ele>
        <time>2013-06-29T07:30:24.970Z</time>
      </trkpt>
      <trkpt lat="45.45876" lon="6.7486">
        <ele>1481</ele>
        <time>2013-06-29T07:30:30.970Z</time>
      </trkpt>
      <trkpt lat="45.45887" lon="6.74843">
        <ele>1481</ele>
        <time>2013-06-29T07:30:36.970Z</time>
      </trkpt>
      <trkpt lat="45.45897" lon="6.74826">
        <ele>1480.6331662687</ele>
        <time>2013-06-29T07:30:42.740Z</time>
      </trkpt>
      <trkpt lat="45.45907" lon="6.74808">
        <ele>1480.1306525811</ele>
        <time>2013-06-29T07:30:47.740Z</time>
      </trkpt>
      <trkpt lat="45.45918" lon="6.7479">
        <ele>1480</ele>
        <time>2013-06-29T07:30:52.840Z</time>
      </trkpt>
      <trkpt lat="45.45926" lon="6.74772">
        <ele>1480</ele>
        <time>2013-06-29T07:30:57.740Z</time>
      </trkpt>
      <trkpt lat="45.45936" lon="6.74754">
        <ele>1478.8704809639</ele>
        <time>2013-06-29T07:31:02.840Z</time>
      </trkpt>
      <trkpt lat="45.45944" lon="6.74736">
        <ele>1477.3644568675</ele>
        <time>2013-06-29T07:31:07.840Z</time>
      </trkpt>
      <trkpt lat="45.45952" lon="6.74718">
        <ele>1477</ele>
        <time>2013-06-29T07:31:12.930Z</time>
      </trkpt>
      <trkpt lat="45.45963" lon="6.74699">
        <ele>1477</ele>
        <time>2013-06-29T07:31:18.930Z</time>
      </trkpt>
      <trkpt lat="45.45975" lon="6.7468">
        <ele>1477</ele>
        <time>2013-06-29T07:31:24.870Z</time>
      </trkpt>
      <trkpt lat="45.45985" lon="6.7466">
        <ele>1477.6520754316</ele>
        <time>2013-06-29T07:31:31.870Z</time>
      </trkpt>
      <trkpt lat="45.45986" lon="6.74658">
        <ele>1477.9976965865</ele>
        <time>2013-06-29T07:31:33.370Z</time>
      </trkpt>
      <trkpt lat="45.45986" lon="6.74651">
        <ele>1477.0000751696</ele>
        <time>2013-06-29T07:33:46.490Z</time>
      </trkpt>
      <trkpt lat="45.45988" lon="6.74647">
        <ele>1477</ele>
        <time>2013-06-29T07:33:50.870Z</time>
      </trkpt>
      <trkpt lat="45.45993" lon="6.74628">
        <ele>1476.51699968</ele>
        <time>2013-06-29T07:34:00.870Z</time>
      </trkpt>
      <trkpt lat="45.45997" lon="6.74613">
        <ele>1476</ele>
        <time>2013-06-29T07:34:08.760Z</time>
      </trkpt>
      <trkpt lat="45.46003" lon="6.74595">
        <ele>1476</ele>
        <time>2013-06-29T07:34:17.790Z</time>
      </trkpt>
      <trkpt lat="45.4601" lon="6.74579">
        <ele>1476</ele>
        <time>2013-06-29T07:34:23.790Z</time>
      </trkpt>
      <trkpt lat="45.46018" lon="6.74554">
        <ele>1476.69299968</ele>
        <time>2013-06-29T07:34:32.970Z</time>
      </trkpt>
      <trkpt lat="45.46028" lon="6.74534">
        <ele>1477</ele>
        <time>2013-06-29T07:34:39.740Z</time>
      </trkpt>
      <trkpt lat="45.46037" lon="6.74516">
        <ele>1477</ele>
        <time>2013-06-29T07:34:45.740Z</time>
      </trkpt>
      <trkpt lat="45.46049" lon="6.74496">
        <ele>1477</ele>
        <time>2013-06-29T07:34:52.880Z</time>
      </trkpt>
      <trkpt lat="45.46055" lon="6.74469">
        <ele>1476.04</ele>
        <time>2013-06-29T07:35:00.840Z</time>
      </trkpt>
      <trkpt lat="45.46056" lon="6.74448">
        <ele>1475</ele>
        <time>2013-06-29T07:35:06.870Z</time>
      </trkpt>
      <trkpt lat="45.46061" lon="6.74425">
        <ele>1475</ele>
        <time>2013-06-29T07:35:13.870Z</time>
      </trkpt>
      <trkpt lat="45.46063" lon="6.74413">
        <ele>1475</ele>
        <time>2013-06-29T07:35:17.970Z</time>
      </trkpt>
      <trkpt lat="45.46064" lon="6.74397">
        <ele>1475</ele>
        <time>2013-06-29T07:35:22.970Z</time>
      </trkpt>
      <trkpt lat="45.46065" lon="6.74378">
        <ele>1475.19299968</ele>
        <time>2013-06-29T07:35:27.970Z</time>
      </trkpt>
      <trkpt lat="45.46068" lon="6.7435">
        <ele>1475.726829183</ele>
        <time>2013-06-29T07:35:38.840Z</time>
      </trkpt>
      <trkpt lat="45.46071" lon="6.74329">
        <ele>1475.2390241527</ele>
        <time>2013-06-29T07:35:43.840Z</time>
      </trkpt>
      <trkpt lat="45.46074" lon="6.74304">
        <ele>1475</ele>
        <time>2013-06-29T07:35:49.970Z</time>
      </trkpt>
      <trkpt lat="45.46076" lon="6.74285">
        <ele>1475</ele>
        <time>2013-06-29T07:35:54.970Z</time>
      </trkpt>
      <trkpt lat="45.46077" lon="6.74262">
        <ele>1475</ele>
        <time>2013-06-29T07:36:00.870Z</time>
      </trkpt>
      <trkpt lat="45.46079" lon="6.74239">
        <ele>1475</ele>
        <time>2013-06-29T07:36:06.860Z</time>
      </trkpt>
      <trkpt lat="45.46079" lon="6.74218">
        <ele>1475</ele>
        <time>2013-06-29T07:36:12.760Z</time>
      </trkpt>
      <trkpt lat="45.4608" lon="6.74236">
        <ele>1474.3079237958</ele>
        <time>2013-06-29T07:36:23.070Z</time>
      </trkpt>
      <trkpt lat="45.46093" lon="6.74257">
        <ele>1474.6605592009</ele>
        <time>2013-06-29T07:36:32.990Z</time>
      </trkpt>
      <trkpt lat="45.46107" lon="6.74275">
        <ele>1475</ele>
        <time>2013-06-29T07:36:40.870Z</time>
      </trkpt>
      <trkpt lat="45.46124" lon="6.74288">
        <ele>1475.7599588936</ele>
        <time>2013-06-29T07:36:49.970Z</time>
      </trkpt>
      <trkpt lat="45.4614" lon="6.74299">
        <ele>1477.26999936</ele>
        <time>2013-06-29T07:36:58.740Z</time>
      </trkpt>
      <trkpt lat="45.46151" lon="6.74303">
        <ele>1477.4213716129</ele>
        <time>2013-06-29T07:37:21.860Z</time>
      </trkpt>
      <trkpt lat="45.46164" lon="6.74317">
        <ele>1477</ele>
        <time>2013-06-29T07:37:33.840Z</time>
      </trkpt>
      <trkpt lat="45.46178" lon="6.7433">
        <ele>1477.78599936</ele>
        <time>2013-06-29T07:37:39.970Z</time>
      </trkpt>
      <trkpt lat="45.46195" lon="6.74338">
        <ele>1479.1616364053</ele>
        <time>2013-06-29T07:37:46.870Z</time>
      </trkpt>
      <trkpt lat="45.46208" lon="6.74338">
        <ele>1480.3300878426</ele>
        <time>2013-06-29T07:37:52.870Z</time>
      </trkpt>
      <trkpt lat="45.46222" lon="6.74338">
        <ele>1481.5240533958</ele>
        <time>2013-06-29T07:37:58.870Z</time>
      </trkpt>
      <trkpt lat="45.46234" lon="6.74333">
        <ele>1482.9570118999</ele>
        <time>2013-06-29T07:38:05.870Z</time>
      </trkpt>
      <trkpt lat="45.46235" lon="6.74325">
        <ele>1483.97702265</ele>
        <time>2013-06-29T07:38:10.970Z</time>
      </trkpt>
      <trkpt lat="45.46236" lon="6.74318">
        <ele>1484.576423441</ele>
        <time>2013-06-29T07:38:13.970Z</time>
      </trkpt>
      <trkpt lat="45.46235" lon="6.74307">
        <ele>1485</ele>
        <time>2013-06-29T07:38:17.760Z</time>
      </trkpt>
      <trkpt lat="45.46236" lon="6.7429">
        <ele>1483.8526721767</ele>
        <time>2013-06-29T07:38:36.860Z</time>
      </trkpt>
      <trkpt lat="45.46233" lon="6.74284">
        <ele>1480</ele>
        <time>2013-06-29T07:39:11.970Z</time>
      </trkpt>
      <trkpt lat="45.46232" lon="6.74273">
        <ele>1480</ele>
        <time>2013-06-29T07:39:35.840Z</time>
      </trkpt>
      <trkpt lat="45.46234" lon="6.74259">
        <ele>1480</ele>
        <time>2013-06-29T07:39:44.970Z</time>
      </trkpt>
      <trkpt lat="45.46232" lon="6.7424">
        <ele>1480</ele>
        <time>2013-06-29T07:39:53.970Z</time>
      </trkpt>
      <trkpt lat="45.46231" lon="6.74222">
        <ele>1480</ele>
        <time>2013-06-29T07:40:01.970Z</time>
      </trkpt>
      <trkpt lat="45.46233" lon="6.74205">
        <ele>1480</ele>
        <time>2013-06-29T07:40:08.970Z</time>
      </trkpt>
      <trkpt lat="45.46238" lon="6.7419">
        <ele>1480.5326625021</ele>
        <time>2013-06-29T07:40:18.740Z</time>
      </trkpt>
      <trkpt lat="45.46238" lon="6.74175">
        <ele>1482.2385687402</ele>
        <time>2013-06-29T07:40:26.840Z</time>
      </trkpt>
      <trkpt lat="45.46239" lon="6.74158">
        <ele>1484.922467068</ele>
        <time>2013-06-29T07:40:35.840Z</time>
      </trkpt>
      <trkpt lat="45.46241" lon="6.74144">
        <ele>1486.5633812067</ele>
        <time>2013-06-29T07:40:43.870Z</time>
      </trkpt>
      <trkpt lat="45.46242" lon="6.74128">
        <ele>1489.9120904414</ele>
        <time>2013-06-29T07:40:51.870Z</time>
      </trkpt>
      <trkpt lat="45.46245" lon="6.74112">
        <ele>1493.7387391428</ele>
        <time>2013-06-29T07:41:01.840Z</time>
      </trkpt>
      <trkpt lat="45.46249" lon="6.74098">
        <ele>1495.4905471015</ele>
        <time>2013-06-29T07:41:10.970Z</time>
      </trkpt>
      <trkpt lat="45.46253" lon="6.74084">
        <ele>1496.73000192</ele>
        <time>2013-06-29T07:41:19.740Z</time>
      </trkpt>
      <trkpt lat="45.46256" lon="6.7407">
        <ele>1498.5427146797</ele>
        <time>2013-06-29T07:41:28.790Z</time>
      </trkpt>
      <trkpt lat="45.46259" lon="6.74057">
        <ele>1500.3618279837</ele>
        <time>2013-06-29T07:41:37.860Z</time>
      </trkpt>
      <trkpt lat="45.46261" lon="6.74045">
        <ele>1501.9522862519</ele>
        <time>2013-06-29T07:41:45.860Z</time>
      </trkpt>
      <trkpt lat="45.46263" lon="6.74035">
        <ele>1503.1810864025</ele>
        <time>2013-06-29T07:41:51.970Z</time>
      </trkpt>
      <trkpt lat="45.46266" lon="6.7402">
        <ele>1505.93200128</ele>
        <time>2013-06-29T07:42:00.870Z</time>
      </trkpt>
      <trkpt lat="45.46268" lon="6.74011">
        <ele>1508.1646831746</ele>
        <time>2013-06-29T07:42:06.870Z</time>
      </trkpt>
      <trkpt lat="45.46271" lon="6.73999">
        <ele>1509.9503974603</ele>
        <time>2013-06-29T07:42:15.870Z</time>
      </trkpt>
      <trkpt lat="45.46273" lon="6.73991">
        <ele>1511.1572567742</ele>
        <time>2013-06-29T07:42:21.860Z</time>
      </trkpt>
      <trkpt lat="45.46278" lon="6.73977">
        <ele>1514.3150016</ele>
        <time>2013-06-29T07:42:30.670Z</time>
      </trkpt>
      <trkpt lat="45.46283" lon="6.73965">
        <ele>1518.716</ele>
        <time>2013-06-29T07:42:41.760Z</time>
      </trkpt>
      <trkpt lat="45.46285" lon="6.73951">
        <ele>1520</ele>
        <time>2013-06-29T07:42:54.880Z</time>
      </trkpt>
      <trkpt lat="45.46289" lon="6.73936">
        <ele>1523.0716418139</ele>
        <time>2013-06-29T07:43:06.760Z</time>
      </trkpt>
      <trkpt lat="45.46293" lon="6.73922">
        <ele>1524.2783928351</ele>
        <time>2013-06-29T07:43:18.860Z</time>
      </trkpt>
      <trkpt lat="45.46298" lon="6.73905">
        <ele>1528.4100032</ele>
        <time>2013-06-29T07:43:32.860Z</time>
      </trkpt>
      <trkpt lat="45.46302" lon="6.73892">
        <ele>1532.34599808</ele>
        <time>2013-06-29T07:43:43.860Z</time>
      </trkpt>
      <trkpt lat="45.46304" lon="6.73884">
        <ele>1533.29299968</ele>
        <time>2013-06-29T07:43:48.970Z</time>
      </trkpt>
      <trkpt lat="45.46308" lon="6.73869">
        <ele>1535.3249984</ele>
        <time>2013-06-29T07:43:58.690Z</time>
      </trkpt>
      <trkpt lat="45.4631" lon="6.73853">
        <ele>1539.3795841838</ele>
        <time>2013-06-29T07:44:09.870Z</time>
      </trkpt>
      <trkpt lat="45.46315" lon="6.73838">
        <ele>1541.8405644914</ele>
        <time>2013-06-29T07:44:20.690Z</time>
      </trkpt>
      <trkpt lat="45.46318" lon="6.73824">
        <ele>1545.904</ele>
        <time>2013-06-29T07:44:30.800Z</time>
      </trkpt>
      <trkpt lat="45.46321" lon="6.73816">
        <ele>1548.16400128</ele>
        <time>2013-06-29T07:44:36.860Z</time>
      </trkpt>
      <trkpt lat="45.46327" lon="6.73801">
        <ele>1550.87899904</ele>
        <time>2013-06-29T07:44:48.970Z</time>
      </trkpt>
      <trkpt lat="45.46334" lon="6.73788">
        <ele>1553.38300032</ele>
        <time>2013-06-29T07:44:59.870Z</time>
      </trkpt>
      <trkpt lat="45.46339" lon="6.73775">
        <ele>1554.583084126</ele>
        <time>2013-06-29T07:45:08.970Z</time>
      </trkpt>
      <trkpt lat="45.46343" lon="6.73763">
        <ele>1556.6432158735</ele>
        <time>2013-06-29T07:45:17.690Z</time>
      </trkpt>
      <trkpt lat="45.46345" lon="6.73754">
        <ele>1559.0552753993</ele>
        <time>2013-06-29T07:45:23.690Z</time>
      </trkpt>
      <trkpt lat="45.4635" lon="6.73739">
        <ele>1562.316</ele>
        <time>2013-06-29T07:45:33.760Z</time>
      </trkpt>
      <trkpt lat="45.46353" lon="6.73724">
        <ele>1563.78300032</ele>
        <time>2013-06-29T07:45:43.870Z</time>
      </trkpt>
      <trkpt lat="45.46354" lon="6.73709">
        <ele>1565.56600064</ele>
        <time>2013-06-29T07:45:53.870Z</time>
      </trkpt>
      <trkpt lat="45.46358" lon="6.73692">
        <ele>1567.95800064</ele>
        <time>2013-06-29T07:46:05.830Z</time>
      </trkpt>
      <trkpt lat="45.46362" lon="6.73675">
        <ele>1570.1473278233</ele>
        <time>2013-06-29T07:46:16.860Z</time>
      </trkpt>
      <trkpt lat="45.46366" lon="6.7366">
        <ele>1572.17000064</ele>
        <time>2013-06-29T07:46:27.740Z</time>
      </trkpt>
      <trkpt lat="45.46371" lon="6.73644">
        <ele>1575.86</ele>
        <time>2013-06-29T07:46:41.760Z</time>
      </trkpt>
      <trkpt lat="45.46373" lon="6.73635">
        <ele>1578.84900096</ele>
        <time>2013-06-29T07:46:48.870Z</time>
      </trkpt>
      <trkpt lat="45.46373" lon="6.73621">
        <ele>1581.1926143281</ele>
        <time>2013-06-29T07:46:57.970Z</time>
      </trkpt>
      <trkpt lat="45.46375" lon="6.73606">
        <ele>1582.1391638261</ele>
        <time>2013-06-29T07:47:06.760Z</time>
      </trkpt>
      <trkpt lat="45.46377" lon="6.73591">
        <ele>1583.7296220944</ele>
        <time>2013-06-29T07:47:14.760Z</time>
      </trkpt>
      <trkpt lat="45.46378" lon="6.73576">
        <ele>1584.679436129</ele>
        <time>2013-06-29T07:47:22.860Z</time>
      </trkpt>
      <trkpt lat="45.46379" lon="6.73565">
        <ele>1585.76399872</ele>
        <time>2013-06-29T07:47:29.860Z</time>
      </trkpt>
      <trkpt lat="45.46378" lon="6.73553">
        <ele>1587.13999872</ele>
        <time>2013-06-29T07:47:36.740Z</time>
      </trkpt>
      <trkpt lat="45.46377" lon="6.73543">
        <ele>1588.33999872</ele>
        <time>2013-06-29T07:47:42.740Z</time>
      </trkpt>
      <trkpt lat="45.46377" lon="6.73534">
        <ele>1589.9150016</ele>
        <time>2013-06-29T07:47:47.870Z</time>
      </trkpt>
      <trkpt lat="45.4638" lon="6.73521">
        <ele>1595.088</ele>
        <time>2013-06-29T07:47:58.760Z</time>
      </trkpt>
      <trkpt lat="45.46382" lon="6.73513">
        <ele>1598.5316837819</ele>
        <time>2013-06-29T07:48:07.830Z</time>
      </trkpt>
      <trkpt lat="45.46387" lon="6.735">
        <ele>1601.7515130515</ele>
        <time>2013-06-29T07:48:19.860Z</time>
      </trkpt>
      <trkpt lat="45.46389" lon="6.73492">
        <ele>1603.27899904</ele>
        <time>2013-06-29T07:48:26.970Z</time>
      </trkpt>
      <trkpt lat="45.46393" lon="6.73477">
        <ele>1606.38199936</ele>
        <time>2013-06-29T07:48:39.860Z</time>
      </trkpt>
      <trkpt lat="45.46398" lon="6.73463">
        <ele>1609.8500032</ele>
        <time>2013-06-29T07:48:51.740Z</time>
      </trkpt>
      <trkpt lat="45.46401" lon="6.73454">
        <ele>1613.14900096</ele>
        <time>2013-06-29T07:48:59.870Z</time>
      </trkpt>
      <trkpt lat="45.46402" lon="6.73444">
        <ele>1615.5098814229</ele>
        <time>2013-06-29T07:49:07.760Z</time>
      </trkpt>
      <trkpt lat="45.46399" lon="6.73428">
        <ele>1618.27328</ele>
        <time>2013-06-29T07:49:18.860Z</time>
      </trkpt>
      <trkpt lat="45.464" lon="6.73418">
        <ele>1619.16400128</ele>
        <time>2013-06-29T07:49:26.860Z</time>
      </trkpt>
      <trkpt lat="45.46401" lon="6.73407">
        <ele>1620.56399872</ele>
        <time>2013-06-29T07:49:33.860Z</time>
      </trkpt>
      <trkpt lat="45.464" lon="6.73397">
        <ele>1623.8950016</ele>
        <time>2013-06-29T07:49:41.830Z</time>
      </trkpt>
      <trkpt lat="45.464" lon="6.73388">
        <ele>1626.8447773436</ele>
        <time>2013-06-29T07:49:48.870Z</time>
      </trkpt>
      <trkpt lat="45.46404" lon="6.73374">
        <ele>1630.1306538675</ele>
        <time>2013-06-29T07:49:59.840Z</time>
      </trkpt>
      <trkpt lat="45.46411" lon="6.73366">
        <ele>1632.808380801</ele>
        <time>2013-06-29T07:50:08.740Z</time>
      </trkpt>
      <trkpt lat="45.46418" lon="6.73357">
        <ele>1635.2780538897</ele>
        <time>2013-06-29T07:50:18.860Z</time>
      </trkpt>
      <trkpt lat="45.46423" lon="6.73348">
        <ele>1635.9731873429</ele>
        <time>2013-06-29T07:50:25.860Z</time>
      </trkpt>
      <trkpt lat="45.46418" lon="6.73324">
        <ele>1642.52999936</ele>
        <time>2013-06-29T07:50:43.690Z</time>
      </trkpt>
      <trkpt lat="45.46411" lon="6.73318">
        <ele>1643.39299968</ele>
        <time>2013-06-29T07:50:49.970Z</time>
      </trkpt>
      <trkpt lat="45.46407" lon="6.73308">
        <ele>1644.8500032</ele>
        <time>2013-06-29T07:50:57.740Z</time>
      </trkpt>
      <trkpt lat="45.46407" lon="6.733">
        <ele>1647.8500032</ele>
        <time>2013-06-29T07:51:03.740Z</time>
      </trkpt>
      <trkpt lat="45.46407" lon="6.73288">
        <ele>1651.5970138418</ele>
        <time>2013-06-29T07:51:14.740Z</time>
      </trkpt>
      <trkpt lat="45.46409" lon="6.73273">
        <ele>1655.20999808</ele>
        <time>2013-06-29T07:51:26.740Z</time>
      </trkpt>
      <trkpt lat="45.46409" lon="6.73258">
        <ele>1658.56600064</ele>
        <time>2013-06-29T07:51:38.870Z</time>
      </trkpt>
      <trkpt lat="45.46413" lon="6.73244">
        <ele>1660.94599936</ele>
        <time>2013-06-29T07:51:50.770Z</time>
      </trkpt>
      <trkpt lat="45.46417" lon="6.73229">
        <ele>1664.28000256</ele>
        <time>2013-06-29T07:52:01.740Z</time>
      </trkpt>
      <trkpt lat="45.46417" lon="6.7322">
        <ele>1666.3543307087</ele>
        <time>2013-06-29T07:52:07.840Z</time>
      </trkpt>
      <trkpt lat="45.46416" lon="6.73203">
        <ele>1668.3554210442</ele>
        <time>2013-06-29T07:52:17.970Z</time>
      </trkpt>
      <trkpt lat="45.46416" lon="6.73186">
        <ele>1670.2702432389</ele>
        <time>2013-06-29T07:52:28.830Z</time>
      </trkpt>
      <trkpt lat="45.46417" lon="6.73174">
        <ele>1671.6798418972</ele>
        <time>2013-06-29T07:52:37.760Z</time>
      </trkpt>
      <trkpt lat="45.46418" lon="6.73161">
        <ele>1678</ele>
        <time>2013-06-29T07:52:56.970Z</time>
      </trkpt>
      <trkpt lat="45.46422" lon="6.73149">
        <ele>1679.56400128</ele>
        <time>2013-06-29T07:53:28.860Z</time>
      </trkpt>
      <trkpt lat="45.46426" lon="6.73135">
        <ele>1682.54000128</ele>
        <time>2013-06-29T07:53:43.740Z</time>
      </trkpt>
      <trkpt lat="45.4643" lon="6.73121">
        <ele>1689.71899904</ele>
        <time>2013-06-29T07:54:01.770Z</time>
      </trkpt>
      <trkpt lat="45.46432" lon="6.73106">
        <ele>1694.1678394636</ele>
        <time>2013-06-29T07:54:17.760Z</time>
      </trkpt>
      <trkpt lat="45.46432" lon="6.73089">
        <ele>1695.92199936</ele>
        <time>2013-06-29T07:54:30.650Z</time>
      </trkpt>
      <trkpt lat="45.46434" lon="6.73074">
        <ele>1699.3249984</ele>
        <time>2013-06-29T07:54:40.690Z</time>
      </trkpt>
      <trkpt lat="45.46435" lon="6.73058">
        <ele>1702.38</ele>
        <time>2013-06-29T07:54:49.840Z</time>
      </trkpt>
      <trkpt lat="45.46438" lon="6.73044">
        <ele>1703.38599936</ele>
        <time>2013-06-29T07:54:57.970Z</time>
      </trkpt>
      <trkpt lat="45.46442" lon="6.73028">
        <ele>1706.1800992414</ele>
        <time>2013-06-29T07:55:11.970Z</time>
      </trkpt>
      <trkpt lat="45.46451" lon="6.73035">
        <ele>1713.9090880029</ele>
        <time>2013-06-29T07:55:57.860Z</time>
      </trkpt>
      <trkpt lat="45.46452" lon="6.73049">
        <ele>1718.2709163347</ele>
        <time>2013-06-29T07:56:08.770Z</time>
      </trkpt>
      <trkpt lat="45.46455" lon="6.73064">
        <ele>1719.5326625021</ele>
        <time>2013-06-29T07:56:18.740Z</time>
      </trkpt>
      <trkpt lat="45.46457" lon="6.73076">
        <ele>1723.22000384</ele>
        <time>2013-06-29T07:56:29.740Z</time>
      </trkpt>
      <trkpt lat="45.46462" lon="6.73084">
        <ele>1727.15000064</ele>
        <time>2013-06-29T07:56:36.790Z</time>
      </trkpt>
      <trkpt lat="45.46465" lon="6.73093">
        <ele>1728.52999936</ele>
        <time>2013-06-29T07:56:43.690Z</time>
      </trkpt>
      <trkpt lat="45.46468" lon="6.73104">
        <ele>1731.32</ele>
        <time>2013-06-29T07:56:51.840Z</time>
      </trkpt>
      <trkpt lat="45.46472" lon="6.73117">
        <ele>1734.77899904</ele>
        <time>2013-06-29T07:57:01.970Z</time>
      </trkpt>
      <trkpt lat="45.46474" lon="6.73127">
        <ele>1736</ele>
        <time>2013-06-29T07:57:08.740Z</time>
      </trkpt>
      <trkpt lat="45.4648" lon="6.73147">
        <ele>1737.3407037296</ele>
        <time>2013-06-29T07:57:22.760Z</time>
      </trkpt>
      <trkpt lat="45.46485" lon="6.73159">
        <ele>1740.32</ele>
        <time>2013-06-29T07:57:31.840Z</time>
      </trkpt>
      <trkpt lat="45.4649" lon="6.73168">
        <ele>1743.14599808</ele>
        <time>2013-06-29T07:57:39.860Z</time>
      </trkpt>
      <trkpt lat="45.46495" lon="6.73181">
        <ele>1745.68300032</ele>
        <time>2013-06-29T07:57:52.870Z</time>
      </trkpt>
      <trkpt lat="45.46497" lon="6.73194">
        <ele>1747.44900096</ele>
        <time>2013-06-29T07:58:00.870Z</time>
      </trkpt>
      <trkpt lat="45.46501" lon="6.73212">
        <ele>1749.9611949727</ele>
        <time>2013-06-29T07:58:10.870Z</time>
      </trkpt>
      <trkpt lat="45.46503" lon="6.7323">
        <ele>1752.15399936</ele>
        <time>2013-06-29T07:58:21.860Z</time>
      </trkpt>
      <trkpt lat="45.46502" lon="6.73243">
        <ele>1753.753769245</ele>
        <time>2013-06-29T07:58:29.840Z</time>
      </trkpt>
      <trkpt lat="45.46508" lon="6.73261">
        <ele>1756.76400128</ele>
        <time>2013-06-29T07:58:44.860Z</time>
      </trkpt>
      <trkpt lat="45.46513" lon="6.73273">
        <ele>1762.89800192</ele>
        <time>2013-06-29T07:58:55.870Z</time>
      </trkpt>
      <trkpt lat="45.46514" lon="6.73286">
        <ele>1765.9460558469</ele>
        <time>2013-06-29T07:59:05.870Z</time>
      </trkpt>
      <trkpt lat="45.46519" lon="6.73291">
        <ele>1766.679283506</ele>
        <time>2013-06-29T07:59:12.870Z</time>
      </trkpt>
      <trkpt lat="45.46526" lon="6.73295">
        <ele>1768.5376898773</ele>
        <time>2013-06-29T07:59:23.740Z</time>
      </trkpt>
      <trkpt lat="45.46531" lon="6.73296">
        <ele>1770.4500032</ele>
        <time>2013-06-29T07:59:28.940Z</time>
      </trkpt>
      <trkpt lat="45.4654" lon="6.73298">
        <ele>1775.16399872</ele>
        <time>2013-06-29T07:59:41.860Z</time>
      </trkpt>
      <trkpt lat="45.46555" lon="6.73297">
        <ele>1778.9649984</ele>
        <time>2013-06-29T07:59:59.970Z</time>
      </trkpt>
      <trkpt lat="45.46565" lon="6.73299">
        <ele>1783.3910471295</ele>
        <time>2013-06-29T08:00:10.700Z</time>
      </trkpt>
      <trkpt lat="45.46571" lon="6.733">
        <ele>1785.3557781368</ele>
        <time>2013-06-29T08:00:17.860Z</time>
      </trkpt>
      <trkpt lat="45.46577" lon="6.73302">
        <ele>1786.7628154331</ele>
        <time>2013-06-29T08:00:24.860Z</time>
      </trkpt>
      <trkpt lat="45.46583" lon="6.733">
        <ele>1787.66999936</ele>
        <time>2013-06-29T08:00:32.740Z</time>
      </trkpt>
      <trkpt lat="45.46595" lon="6.73297">
        <ele>1789.94000128</ele>
        <time>2013-06-29T08:00:45.740Z</time>
      </trkpt>
      <trkpt lat="45.46607" lon="6.73294">
        <ele>1793.032</ele>
        <time>2013-06-29T08:00:57.760Z</time>
      </trkpt>
      <trkpt lat="45.46619" lon="6.73299">
        <ele>1799.9273779227</ele>
        <time>2013-06-29T08:01:15.860Z</time>
      </trkpt>
      <trkpt lat="45.46629" lon="6.73295">
        <ele>1810.04</ele>
        <time>2013-06-29T08:01:52.840Z</time>
      </trkpt>
      <trkpt lat="45.46643" lon="6.73299">
        <ele>1815.9446093153</ele>
        <time>2013-06-29T08:02:15.870Z</time>
      </trkpt>
      <trkpt lat="45.4665" lon="6.73302">
        <ele>1817.35000064</ele>
        <time>2013-06-29T08:02:27.790Z</time>
      </trkpt>
      <trkpt lat="45.46653" lon="6.73291">
        <ele>1820.1348654977</ele>
        <time>2013-06-29T08:02:41.720Z</time>
      </trkpt>
      <trkpt lat="45.46661" lon="6.73291">
        <ele>1824.75799808</ele>
        <time>2013-06-29T08:02:58.970Z</time>
      </trkpt>
      <trkpt lat="45.46665" lon="6.73278">
        <ele>1830.9624499605</ele>
        <time>2013-06-29T08:03:15.970Z</time>
      </trkpt>
      <trkpt lat="45.46673" lon="6.73291">
        <ele>1835.36</ele>
        <time>2013-06-29T08:03:38.760Z</time>
      </trkpt>
      <trkpt lat="45.4668" lon="6.73282">
        <ele>1839</ele>
        <time>2013-06-29T08:03:52.970Z</time>
      </trkpt>
      <trkpt lat="45.46683" lon="6.73269">
        <ele>1844.2392823826</ele>
        <time>2013-06-29T08:04:06.860Z</time>
      </trkpt>
      <trkpt lat="45.46688" lon="6.7328">
        <ele>1847.5798989894</ele>
        <time>2013-06-29T08:04:21.860Z</time>
      </trkpt>
      <trkpt lat="45.46694" lon="6.73269">
        <ele>1852.9649984</ele>
        <time>2013-06-29T08:04:41.970Z</time>
      </trkpt>
      <trkpt lat="45.46696" lon="6.73256">
        <ele>1855</ele>
        <time>2013-06-29T08:04:53.970Z</time>
      </trkpt>
      <trkpt lat="45.46702" lon="6.73245">
        <ele>1860.4920153344</ele>
        <time>2013-06-29T08:05:10.970Z</time>
      </trkpt>
      <trkpt lat="45.46712" lon="6.73253">
        <ele>1865.69199872</ele>
        <time>2013-06-29T08:05:32.770Z</time>
      </trkpt>
      <trkpt lat="45.46721" lon="6.73251">
        <ele>1867.352</ele>
        <time>2013-06-29T08:05:47.800Z</time>
      </trkpt>
      <trkpt lat="45.46732" lon="6.7325">
        <ele>1874.7890546592</ele>
        <time>2013-06-29T08:06:13.970Z</time>
      </trkpt>
      <trkpt lat="45.46739" lon="6.73242">
        <ele>1876.9437186111</ele>
        <time>2013-06-29T08:06:25.760Z</time>
      </trkpt>
      <trkpt lat="45.46744" lon="6.73229">
        <ele>1882.544</ele>
        <time>2013-06-29T08:06:38.760Z</time>
      </trkpt>
      <trkpt lat="45.4675" lon="6.73218">
        <ele>1885.5582100882</ele>
        <time>2013-06-29T08:06:53.870Z</time>
      </trkpt>
      <trkpt lat="45.46756" lon="6.7322">
        <ele>1888.3621878964</ele>
        <time>2013-06-29T08:07:07.860Z</time>
      </trkpt>
      <trkpt lat="45.46761" lon="6.73218">
        <ele>1889.7552257131</ele>
        <time>2013-06-29T08:07:14.860Z</time>
      </trkpt>
      <trkpt lat="45.46765" lon="6.73209">
        <ele>1891.750753849</ele>
        <time>2013-06-29T08:07:24.800Z</time>
      </trkpt>
      <trkpt lat="45.46768" lon="6.73204">
        <ele>1893.18599936</ele>
        <time>2013-06-29T08:07:31.970Z</time>
      </trkpt>
      <trkpt lat="45.46769" lon="6.73197">
        <ele>1895.9649984</ele>
        <time>2013-06-29T08:07:39.970Z</time>
      </trkpt>
      <trkpt lat="45.46771" lon="6.73191">
        <ele>1899.13999872</ele>
        <time>2013-06-29T08:07:46.740Z</time>
      </trkpt>
      <trkpt lat="45.46772" lon="6.73183">
        <ele>1900.72199936</ele>
        <time>2013-06-29T08:07:54.650Z</time>
      </trkpt>
      <trkpt lat="45.46773" lon="6.73173">
        <ele>1903.67899904</ele>
        <time>2013-06-29T08:08:04.970Z</time>
      </trkpt>
      <trkpt lat="45.46774" lon="6.73166">
        <ele>1905.3333324842</ele>
        <time>2013-06-29T08:08:12.740Z</time>
      </trkpt>
      <trkpt lat="45.46776" lon="6.73157">
        <ele>1907.3226139264</ele>
        <time>2013-06-29T08:08:22.670Z</time>
      </trkpt>
      <trkpt lat="45.46776" lon="6.7315">
        <ele>1908.5566603939</ele>
        <time>2013-06-29T08:08:28.840Z</time>
      </trkpt>
      <trkpt lat="45.46778" lon="6.73143">
        <ele>1909.9483113787</ele>
        <time>2013-06-29T08:08:35.840Z</time>
      </trkpt>
      <trkpt lat="45.46778" lon="6.73135">
        <ele>1911.5835006303</ele>
        <time>2013-06-29T08:08:43.970Z</time>
      </trkpt>
      <trkpt lat="45.46777" lon="6.73127">
        <ele>1914.37199872</ele>
        <time>2013-06-29T08:08:51.970Z</time>
      </trkpt>
      <trkpt lat="45.46778" lon="6.73121">
        <ele>1916.3578531104</ele>
        <time>2013-06-29T08:08:57.840Z</time>
      </trkpt>
      <trkpt lat="45.46777" lon="6.73115">
        <ele>1917.9483113787</ele>
        <time>2013-06-29T08:09:05.840Z</time>
      </trkpt>
      <trkpt lat="45.46787" lon="6.73113">
        <ele>1922.3434332725</ele>
        <time>2013-06-29T08:09:22.760Z</time>
      </trkpt>
      <trkpt lat="45.46796" lon="6.73109">
        <ele>1925.94000128</ele>
        <time>2013-06-29T08:09:35.740Z</time>
      </trkpt>
      <trkpt lat="45.46806" lon="6.73119">
        <ele>1929.3597995225</ele>
        <time>2013-06-29T08:09:49.670Z</time>
      </trkpt>
      <trkpt lat="45.46813" lon="6.73129">
        <ele>1931.16</ele>
        <time>2013-06-29T08:10:01.840Z</time>
      </trkpt>
      <trkpt lat="45.46823" lon="6.73139">
        <ele>1933.9188928447</ele>
        <time>2013-06-29T08:10:15.740Z</time>
      </trkpt>
      <trkpt lat="45.4683" lon="6.73151">
        <ele>1939.46999936</ele>
        <time>2013-06-29T08:10:30.740Z</time>
      </trkpt>
      <trkpt lat="45.46838" lon="6.73161">
        <ele>1945.24299904</ele>
        <time>2013-06-29T08:10:46.850Z</time>
      </trkpt>
      <trkpt lat="45.46848" lon="6.73166">
        <ele>1948.76399872</ele>
        <time>2013-06-29T08:10:59.860Z</time>
      </trkpt>
      <trkpt lat="45.46854" lon="6.7317">
        <ele>1951</ele>
        <time>2013-06-29T08:11:30.740Z</time>
      </trkpt>
      <trkpt lat="45.46852" lon="6.73182">
        <ele>1951</ele>
        <time>2013-06-29T08:12:03.930Z</time>
      </trkpt>
      <trkpt lat="45.46861" lon="6.73195">
        <ele>1957.5263157895</ele>
        <time>2013-06-29T08:12:18.760Z</time>
      </trkpt>
      <trkpt lat="45.46869" lon="6.7321">
        <ele>1960.5489615671</ele>
        <time>2013-06-29T08:12:33.870Z</time>
      </trkpt>
      <trkpt lat="45.46878" lon="6.73224">
        <ele>1963.74599936</ele>
        <time>2013-06-29T08:12:49.770Z</time>
      </trkpt>
      <trkpt lat="45.46888" lon="6.73236">
        <ele>1969.2200994669</ele>
        <time>2013-06-29T08:13:06.840Z</time>
      </trkpt>
      <trkpt lat="45.46892" lon="6.73249">
        <ele>1972.6713424746</ele>
        <time>2013-06-29T08:13:22.760Z</time>
      </trkpt>
      <trkpt lat="45.46895" lon="6.73257">
        <ele>1973.76</ele>
        <time>2013-06-29T08:13:29.840Z</time>
      </trkpt>
      <trkpt lat="45.46899" lon="6.73263">
        <ele>1975.49200384</ele>
        <time>2013-06-29T08:13:36.860Z</time>
      </trkpt>
      <trkpt lat="45.46901" lon="6.73272">
        <ele>1980.29200384</ele>
        <time>2013-06-29T08:13:44.860Z</time>
      </trkpt>
      <trkpt lat="45.46906" lon="6.7328">
        <ele>1983.67899904</ele>
        <time>2013-06-29T08:13:54.970Z</time>
      </trkpt>
      <trkpt lat="45.4691" lon="6.73289">
        <ele>1984</ele>
        <time>2013-06-29T08:14:04.970Z</time>
      </trkpt>
      <trkpt lat="45.46916" lon="6.733">
        <ele>1986.8607004714</ele>
        <time>2013-06-29T08:14:17.820Z</time>
      </trkpt>
      <trkpt lat="45.4692" lon="6.73307">
        <ele>1990.840796172</ele>
        <time>2013-06-29T08:14:25.820Z</time>
      </trkpt>
      <trkpt lat="45.46924" lon="6.73312">
        <ele>1992.581817265</ele>
        <time>2013-06-29T08:14:33.970Z</time>
      </trkpt>
      <trkpt lat="45.46929" lon="6.73317">
        <ele>1993.59299968</ele>
        <time>2013-06-29T08:14:41.970Z</time>
      </trkpt>
      <trkpt lat="45.46931" lon="6.73326">
        <ele>1995.16600064</ele>
        <time>2013-06-29T08:14:51.870Z</time>
      </trkpt>
      <trkpt lat="45.46937" lon="6.73332">
        <ele>1998.9</ele>
        <time>2013-06-29T08:15:01.840Z</time>
      </trkpt>
      <trkpt lat="45.4694" lon="6.7334">
        <ele>2002.1044798741</ele>
        <time>2013-06-29T08:15:09.740Z</time>
      </trkpt>
      <trkpt lat="45.46947" lon="6.73346">
        <ele>2004.66800128</ele>
        <time>2013-06-29T08:15:17.760Z</time>
      </trkpt>
      <trkpt lat="45.46947" lon="6.73354">
        <ele>2008</ele>
        <time>2013-06-29T08:15:26.860Z</time>
      </trkpt>
      <trkpt lat="45.46944" lon="6.7336">
        <ele>2008</ele>
        <time>2013-06-29T08:15:32.860Z</time>
      </trkpt>
      <trkpt lat="45.46942" lon="6.73368">
        <ele>2008.56</ele>
        <time>2013-06-29T08:15:38.840Z</time>
      </trkpt>
      <trkpt lat="45.46941" lon="6.73381">
        <ele>2010.56400128</ele>
        <time>2013-06-29T08:15:48.860Z</time>
      </trkpt>
      <trkpt lat="45.46947" lon="6.73384">
        <ele>2012.36600064</ele>
        <time>2013-06-29T08:15:57.870Z</time>
      </trkpt>
      <trkpt lat="45.46952" lon="6.73384">
        <ele>2013.36600064</ele>
        <time>2013-06-29T08:16:02.870Z</time>
      </trkpt>
      <trkpt lat="45.46959" lon="6.73385">
        <ele>2015.5283586956</ele>
        <time>2013-06-29T08:16:09.880Z</time>
      </trkpt>
      <trkpt lat="45.46963" lon="6.73389">
        <ele>2018.0673369834</ele>
        <time>2013-06-29T08:16:16.760Z</time>
      </trkpt>
      <trkpt lat="45.46968" lon="6.73391">
        <ele>2018.5698493846</ele>
        <time>2013-06-29T08:16:21.760Z</time>
      </trkpt>
      <trkpt lat="45.46974" lon="6.7339">
        <ele>2019.36</ele>
        <time>2013-06-29T08:16:27.840Z</time>
      </trkpt>
      <trkpt lat="45.46979" lon="6.7339">
        <ele>2020.56</ele>
        <time>2013-06-29T08:16:33.840Z</time>
      </trkpt>
      <trkpt lat="45.46983" lon="6.73396">
        <ele>2024.3150016</ele>
        <time>2013-06-29T08:16:42.670Z</time>
      </trkpt>
      <trkpt lat="45.46988" lon="6.73397">
        <ele>2026.96600064</ele>
        <time>2013-06-29T08:16:50.870Z</time>
      </trkpt>
      <trkpt lat="45.46995" lon="6.73399">
        <ele>2028.28</ele>
        <time>2013-06-29T08:16:58.840Z</time>
      </trkpt>
      <trkpt lat="45.47" lon="6.73399">
        <ele>2029.3731360392</ele>
        <time>2013-06-29T08:17:06.790Z</time>
      </trkpt>
      <trkpt lat="45.46998" lon="6.73412">
        <ele>2034.7577880578</ele>
        <time>2013-06-29T08:17:19.860Z</time>
      </trkpt>
      <trkpt lat="45.46994" lon="6.73421">
        <ele>2036.18199936</ele>
        <time>2013-06-29T08:17:27.860Z</time>
      </trkpt>
      <trkpt lat="45.46991" lon="6.7343">
        <ele>2036.88200064</ele>
        <time>2013-06-29T08:17:34.860Z</time>
      </trkpt>
      <trkpt lat="45.46988" lon="6.73438">
        <ele>2038.38599936</ele>
        <time>2013-06-29T08:17:42.970Z</time>
      </trkpt>
      <trkpt lat="45.46985" lon="6.73446">
        <ele>2040.57199872</ele>
        <time>2013-06-29T08:17:49.970Z</time>
      </trkpt>
      <trkpt lat="45.46982" lon="6.73457">
        <ele>2043.37000064</ele>
        <time>2013-06-29T08:17:59.740Z</time>
      </trkpt>
      <trkpt lat="45.46979" lon="6.73467">
        <ele>2044.5762040751</ele>
        <time>2013-06-29T08:18:08.970Z</time>
      </trkpt>
      <trkpt lat="45.46975" lon="6.73475">
        <ele>2045.952802345</ele>
        <time>2013-06-29T08:18:15.970Z</time>
      </trkpt>
      <trkpt lat="45.46969" lon="6.73487">
        <ele>2048.536925166</ele>
        <time>2013-06-29T08:18:28.740Z</time>
      </trkpt>
      <trkpt lat="45.46967" lon="6.73496">
        <ele>2049.9341324173</ele>
        <time>2013-06-29T08:18:35.740Z</time>
      </trkpt>
      <trkpt lat="45.46974" lon="6.73496">
        <ele>2051.9658983241</ele>
        <time>2013-06-29T08:18:45.870Z</time>
      </trkpt>
      <trkpt lat="45.46975" lon="6.73509">
        <ele>2055.6845257143</ele>
        <time>2013-06-29T08:18:58.870Z</time>
      </trkpt>
      <trkpt lat="45.46975" lon="6.73523">
        <ele>2062.0040146051</ele>
        <time>2013-06-29T08:19:12.780Z</time>
      </trkpt>
      <trkpt lat="45.46974" lon="6.73537">
        <ele>2063.770854345</ele>
        <time>2013-06-29T08:19:23.760Z</time>
      </trkpt>
      <trkpt lat="45.46973" lon="6.7355">
        <ele>2065.9348476004</ele>
        <time>2013-06-29T08:19:35.840Z</time>
      </trkpt>
      <trkpt lat="45.46974" lon="6.73563">
        <ele>2068.1841841252</ele>
        <time>2013-06-29T08:19:46.970Z</time>
      </trkpt>
      <trkpt lat="45.46977" lon="6.73577">
        <ele>2071.92800256</ele>
        <time>2013-06-29T08:20:00.860Z</time>
      </trkpt>
      <trkpt lat="45.46978" lon="6.73589">
        <ele>2074.5788419456</ele>
        <time>2013-06-29T08:20:11.840Z</time>
      </trkpt>
      <trkpt lat="45.46977" lon="6.73603">
        <ele>2076.5335337259</ele>
        <time>2013-06-29T08:20:23.720Z</time>
      </trkpt>
      <trkpt lat="45.46975" lon="6.73614">
        <ele>2079.7307324186</ele>
        <time>2013-06-29T08:20:32.870Z</time>
      </trkpt>
      <trkpt lat="45.46975" lon="6.73625">
        <ele>2081.38300032</ele>
        <time>2013-06-29T08:20:39.870Z</time>
      </trkpt>
      <trkpt lat="45.46975" lon="6.7364">
        <ele>2084.28000256</ele>
        <time>2013-06-29T08:20:51.740Z</time>
      </trkpt>
      <trkpt lat="45.46978" lon="6.73654">
        <ele>2086.7890546592</ele>
        <time>2013-06-29T08:21:03.970Z</time>
      </trkpt>
      <trkpt lat="45.46982" lon="6.73643">
        <ele>2088.33400064</ele>
        <time>2013-06-29T08:21:12.760Z</time>
      </trkpt>
      <trkpt lat="45.46985" lon="6.73659">
        <ele>2091.544</ele>
        <time>2013-06-29T08:21:28.760Z</time>
      </trkpt>
      <trkpt lat="45.4699" lon="6.73673">
        <ele>2094.144</ele>
        <time>2013-06-29T08:21:41.760Z</time>
      </trkpt>
      <trkpt lat="45.46991" lon="6.73689">
        <ele>2096.74900096</ele>
        <time>2013-06-29T08:21:51.870Z</time>
      </trkpt>
      <trkpt lat="45.46997" lon="6.737">
        <ele>2099.9503974603</ele>
        <time>2013-06-29T08:22:05.870Z</time>
      </trkpt>
      <trkpt lat="45.47" lon="6.73711">
        <ele>2101.9381848253</ele>
        <time>2013-06-29T08:22:15.840Z</time>
      </trkpt>
      <trkpt lat="45.47002" lon="6.73722">
        <ele>2105.8877650597</ele>
        <time>2013-06-29T08:22:23.840Z</time>
      </trkpt>
      <trkpt lat="45.47009" lon="6.73736">
        <ele>2111.54900096</ele>
        <time>2013-06-29T08:22:37.870Z</time>
      </trkpt>
      <trkpt lat="45.47012" lon="6.73747">
        <ele>2115.16</ele>
        <time>2013-06-29T08:22:51.840Z</time>
      </trkpt>
      <trkpt lat="45.47012" lon="6.73761">
        <ele>2116.88300032</ele>
        <time>2013-06-29T08:23:04.870Z</time>
      </trkpt>
      <trkpt lat="45.47015" lon="6.73773">
        <ele>2118.7353239356</ele>
        <time>2013-06-29T08:23:14.760Z</time>
      </trkpt>
      <trkpt lat="45.47024" lon="6.7378">
        <ele>2123.29299968</ele>
        <time>2013-06-29T08:23:28.970Z</time>
      </trkpt>
      <trkpt lat="45.4703" lon="6.73779">
        <ele>2123.89299968</ele>
        <time>2013-06-29T08:23:34.970Z</time>
      </trkpt>
      <trkpt lat="45.47035" lon="6.73779">
        <ele>2124.78599936</ele>
        <time>2013-06-29T08:23:39.970Z</time>
      </trkpt>
      <trkpt lat="45.47041" lon="6.7378">
        <ele>2126.0925370245</ele>
        <time>2013-06-29T08:23:46.970Z</time>
      </trkpt>
      <trkpt lat="45.47044" lon="6.73785">
        <ele>2126.6796025248</ele>
        <time>2013-06-29T08:23:52.870Z</time>
      </trkpt>
      <trkpt lat="45.47045" lon="6.73796">
        <ele>2127.3668350177</ele>
        <time>2013-06-29T08:23:59.740Z</time>
      </trkpt>
      <trkpt lat="45.47042" lon="6.73807">
        <ele>2128</ele>
        <time>2013-06-29T08:24:06.840Z</time>
      </trkpt>
      <trkpt lat="45.4704" lon="6.7382">
        <ele>2128</ele>
        <time>2013-06-29T08:24:10.840Z</time>
      </trkpt>
      <trkpt lat="45.4704" lon="6.73845">
        <ele>2128.3664668273</ele>
        <time>2013-06-29T08:24:19.740Z</time>
      </trkpt>
      <trkpt lat="45.4704" lon="6.73864">
        <ele>2129</ele>
        <time>2013-06-29T08:24:26.840Z</time>
      </trkpt>
      <trkpt lat="45.47038" lon="6.73881">
        <ele>2129</ele>
        <time>2013-06-29T08:24:32.840Z</time>
      </trkpt>
      <trkpt lat="45.47032" lon="6.73898">
        <ele>2128.73000064</ele>
        <time>2013-06-29T08:24:38.740Z</time>
      </trkpt>
      <trkpt lat="45.47026" lon="6.73911">
        <ele>2128.12</ele>
        <time>2013-06-29T08:24:44.840Z</time>
      </trkpt>
      <trkpt lat="45.47018" lon="6.73918">
        <ele>2127.23399936</ele>
        <time>2013-06-29T08:24:49.870Z</time>
      </trkpt>
      <trkpt lat="45.47014" lon="6.73927">
        <ele>2126.25400064</ele>
        <time>2013-06-29T08:24:54.770Z</time>
      </trkpt>
      <trkpt lat="45.47011" lon="6.73937">
        <ele>2126</ele>
        <time>2013-06-29T08:25:00.970Z</time>
      </trkpt>
      <trkpt lat="45.47008" lon="6.73944">
        <ele>2126</ele>
        <time>2013-06-29T08:25:05.970Z</time>
      </trkpt>
      <trkpt lat="45.47004" lon="6.73958">
        <ele>2126.7877878558</ele>
        <time>2013-06-29T08:25:13.970Z</time>
      </trkpt>
      <trkpt lat="45.47003" lon="6.73972">
        <ele>2127</ele>
        <time>2013-06-29T08:25:21.760Z</time>
      </trkpt>
      <trkpt lat="45.47006" lon="6.73989">
        <ele>2127</ele>
        <time>2013-06-29T08:25:28.770Z</time>
      </trkpt>
      <trkpt lat="45.47011" lon="6.74003">
        <ele>2127</ele>
        <time>2013-06-29T08:25:33.770Z</time>
      </trkpt>
      <trkpt lat="45.4702" lon="6.74013">
        <ele>2127</ele>
        <time>2013-06-29T08:25:38.970Z</time>
      </trkpt>
      <trkpt lat="45.47028" lon="6.74024">
        <ele>2127</ele>
        <time>2013-06-29T08:25:43.970Z</time>
      </trkpt>
      <trkpt lat="45.47036" lon="6.74037">
        <ele>2127.58599936</ele>
        <time>2013-06-29T08:25:48.970Z</time>
      </trkpt>
      <trkpt lat="45.47042" lon="6.74049">
        <ele>2128.38599936</ele>
        <time>2013-06-29T08:25:52.970Z</time>
      </trkpt>
      <trkpt lat="45.47046" lon="6.74066">
        <ele>2128.83299968</ele>
        <time>2013-06-29T08:25:57.710Z</time>
      </trkpt>
      <trkpt lat="45.47047" lon="6.74082">
        <ele>2128.33299968</ele>
        <time>2013-06-29T08:26:02.710Z</time>
      </trkpt>
      <trkpt lat="45.47053" lon="6.74098">
        <ele>2128</ele>
        <time>2013-06-29T08:26:08.840Z</time>
      </trkpt>
      <trkpt lat="45.4706" lon="6.74112">
        <ele>2128</ele>
        <time>2013-06-29T08:26:13.840Z</time>
      </trkpt>
      <trkpt lat="45.47069" lon="6.74126">
        <ele>2128</ele>
        <time>2013-06-29T08:26:18.760Z</time>
      </trkpt>
      <trkpt lat="45.47079" lon="6.74145">
        <ele>2128</ele>
        <time>2013-06-29T08:26:25.760Z</time>
      </trkpt>
      <trkpt lat="45.47084" lon="6.7416">
        <ele>2128.9545011282</ele>
        <time>2013-06-29T08:26:30.970Z</time>
      </trkpt>
      <trkpt lat="45.47091" lon="6.74171">
        <ele>2129.9225556391</ele>
        <time>2013-06-29T08:26:35.970Z</time>
      </trkpt>
      <trkpt lat="45.47098" lon="6.74181">
        <ele>2130</ele>
        <time>2013-06-29T08:26:45.870Z</time>
      </trkpt>
      <trkpt lat="45.47108" lon="6.74183">
        <ele>2130</ele>
        <time>2013-06-29T08:26:51.870Z</time>
      </trkpt>
      <trkpt lat="45.47116" lon="6.74187">
        <ele>2130</ele>
        <time>2013-06-29T08:26:55.870Z</time>
      </trkpt>
      <trkpt lat="45.47127" lon="6.74192">
        <ele>2130</ele>
        <time>2013-06-29T08:27:00.970Z</time>
      </trkpt>
      <trkpt lat="45.47135" lon="6.74196">
        <ele>2130</ele>
        <time>2013-06-29T08:27:04.970Z</time>
      </trkpt>
      <trkpt lat="45.47144" lon="6.74201">
        <ele>2130</ele>
        <time>2013-06-29T08:27:08.740Z</time>
      </trkpt>
      <trkpt lat="45.47156" lon="6.74208">
        <ele>2130.9587955911</ele>
        <time>2013-06-29T08:27:20.860Z</time>
      </trkpt>
      <trkpt lat="45.47166" lon="6.74212">
        <ele>2132.12600064</ele>
        <time>2013-06-29T08:27:26.670Z</time>
      </trkpt>
      <trkpt lat="45.47174" lon="6.74213">
        <ele>2133.32600064</ele>
        <time>2013-06-29T08:27:32.670Z</time>
      </trkpt>
      <trkpt lat="45.47181" lon="6.74215">
        <ele>2134.87899904</ele>
        <time>2013-06-29T08:27:38.970Z</time>
      </trkpt>
      <trkpt lat="45.47189" lon="6.74216">
        <ele>2137</ele>
        <time>2013-06-29T08:27:46.740Z</time>
      </trkpt>
      <trkpt lat="45.47196" lon="6.74216">
        <ele>2137</ele>
        <time>2013-06-29T08:27:52.740Z</time>
      </trkpt>
      <trkpt lat="45.47204" lon="6.74217">
        <ele>2138.8649984</ele>
        <time>2013-06-29T08:27:59.770Z</time>
      </trkpt>
      <trkpt lat="45.47212" lon="6.74216">
        <ele>2140.8649984</ele>
        <time>2013-06-29T08:28:03.770Z</time>
      </trkpt>
      <trkpt lat="45.47222" lon="6.74217">
        <ele>2142.1920395437</ele>
        <time>2013-06-29T08:28:07.970Z</time>
      </trkpt>
      <trkpt lat="45.47232" lon="6.74218">
        <ele>2142.6905468467</ele>
        <time>2013-06-29T08:28:12.980Z</time>
      </trkpt>
      <trkpt lat="45.47241" lon="6.74221">
        <ele>2143</ele>
        <time>2013-06-29T08:28:24.760Z</time>
      </trkpt>
      <trkpt lat="45.47251" lon="6.74227">
        <ele>2143.78599936</ele>
        <time>2013-06-29T08:28:29.970Z</time>
      </trkpt>
      <trkpt lat="45.4726" lon="6.74232">
        <ele>2144.78599936</ele>
        <time>2013-06-29T08:28:34.970Z</time>
      </trkpt>
      <trkpt lat="45.4727" lon="6.74237">
        <ele>2145.39299968</ele>
        <time>2013-06-29T08:28:39.970Z</time>
      </trkpt>
      <trkpt lat="45.47279" lon="6.74243">
        <ele>2145.89299968</ele>
        <time>2013-06-29T08:28:44.970Z</time>
      </trkpt>
      <trkpt lat="45.47286" lon="6.74249">
        <ele>2146</ele>
        <time>2013-06-29T08:28:48.840Z</time>
      </trkpt>
      <trkpt lat="45.47295" lon="6.74258">
        <ele>2146</ele>
        <time>2013-06-29T08:28:53.740Z</time>
      </trkpt>
      <trkpt lat="45.47303" lon="6.74267">
        <ele>2146.28300032</ele>
        <time>2013-06-29T08:28:58.870Z</time>
      </trkpt>
      <trkpt lat="45.47309" lon="6.74274">
        <ele>2146.68300032</ele>
        <time>2013-06-29T08:29:02.870Z</time>
      </trkpt>
      <trkpt lat="45.47315" lon="6.74284">
        <ele>2147</ele>
        <time>2013-06-29T08:29:06.870Z</time>
      </trkpt>
      <trkpt lat="45.4732" lon="6.74292">
        <ele>2147</ele>
        <time>2013-06-29T08:29:10.870Z</time>
      </trkpt>
      <trkpt lat="45.47328" lon="6.74304">
        <ele>2147.1628133748</ele>
        <time>2013-06-29T08:29:16.900Z</time>
      </trkpt>
      <trkpt lat="45.47337" lon="6.74315">
        <ele>2148.3608055121</ele>
        <time>2013-06-29T08:29:22.860Z</time>
      </trkpt>
      <trkpt lat="45.47343" lon="6.74323">
        <ele>2149</ele>
        <time>2013-06-29T08:29:26.840Z</time>
      </trkpt>
      <trkpt lat="45.47351" lon="6.74333">
        <ele>2149</ele>
        <time>2013-06-29T08:29:31.840Z</time>
      </trkpt>
      <trkpt lat="45.47357" lon="6.74344">
        <ele>2149</ele>
        <time>2013-06-29T08:29:36.760Z</time>
      </trkpt>
      <trkpt lat="45.47363" lon="6.74353">
        <ele>2149</ele>
        <time>2013-06-29T08:29:40.760Z</time>
      </trkpt>
      <trkpt lat="45.47375" lon="6.74368">
        <ele>2149.1821827645</ele>
        <time>2013-06-29T08:29:47.870Z</time>
      </trkpt>
      <trkpt lat="45.4738" lon="6.74376">
        <ele>2149.5825830366</ele>
        <time>2013-06-29T08:29:51.870Z</time>
      </trkpt>
      <trkpt lat="45.47386" lon="6.74384">
        <ele>2149.9829833088</ele>
        <time>2013-06-29T08:29:55.870Z</time>
      </trkpt>
      <trkpt lat="45.47392" lon="6.74395">
        <ele>2150.48300032</ele>
        <time>2013-06-29T08:30:00.870Z</time>
      </trkpt>
      <trkpt lat="45.47398" lon="6.74406">
        <ele>2150.984</ele>
        <time>2013-06-29T08:30:05.880Z</time>
      </trkpt>
      <trkpt lat="45.47405" lon="6.74417">
        <ele>2151.4805974864</ele>
        <time>2013-06-29T08:30:10.870Z</time>
      </trkpt>
      <trkpt lat="45.47413" lon="6.74428">
        <ele>2151.9781100826</ele>
        <time>2013-06-29T08:30:15.870Z</time>
      </trkpt>
      <trkpt lat="45.47421" lon="6.74437">
        <ele>2152.4603020027</ele>
        <time>2013-06-29T08:30:20.670Z</time>
      </trkpt>
      <trkpt lat="45.4743" lon="6.74444">
        <ele>2152.9628144039</ele>
        <time>2013-06-29T08:30:25.670Z</time>
      </trkpt>
      <trkpt lat="45.47437" lon="6.74455">
        <ele>2153.48300032</ele>
        <time>2013-06-29T08:30:30.870Z</time>
      </trkpt>
      <trkpt lat="45.47445" lon="6.74467">
        <ele>2154.16</ele>
        <time>2013-06-29T08:30:36.840Z</time>
      </trkpt>
      <trkpt lat="45.47452" lon="6.74481">
        <ele>2155.36</ele>
        <time>2013-06-29T08:30:42.840Z</time>
      </trkpt>
      <trkpt lat="45.47457" lon="6.74495">
        <ele>2156.19299968</ele>
        <time>2013-06-29T08:30:47.970Z</time>
      </trkpt>
      <trkpt lat="45.47462" lon="6.7451">
        <ele>2156.79299968</ele>
        <time>2013-06-29T08:30:53.970Z</time>
      </trkpt>
      <trkpt lat="45.47468" lon="6.74526">
        <ele>2157.39299968</ele>
        <time>2013-06-29T08:30:59.970Z</time>
      </trkpt>
      <trkpt lat="45.47476" lon="6.74547">
        <ele>2158.1810939482</ele>
        <time>2013-06-29T08:31:07.860Z</time>
      </trkpt>
      <trkpt lat="45.47481" lon="6.74561">
        <ele>2158.7781090637</ele>
        <time>2013-06-29T08:31:13.860Z</time>
      </trkpt>
      <trkpt lat="45.4749" lon="6.74578">
        <ele>2159.4623114091</ele>
        <time>2013-06-29T08:31:20.690Z</time>
      </trkpt>
      <trkpt lat="45.47494" lon="6.74587">
        <ele>2160</ele>
        <time>2013-06-29T08:31:34.840Z</time>
      </trkpt>
      <trkpt lat="45.47499" lon="6.74594">
        <ele>2162.4518053012</ele>
        <time>2013-06-29T08:32:18.860Z</time>
      </trkpt>
      <trkpt lat="45.47503" lon="6.74612">
        <ele>2161</ele>
        <time>2013-06-29T08:32:27.760Z</time>
      </trkpt>
      <trkpt lat="45.47509" lon="6.74629">
        <ele>2161</ele>
        <time>2013-06-29T08:32:32.760Z</time>
      </trkpt>
      <trkpt lat="45.47514" lon="6.74647">
        <ele>2161.3534060224</ele>
        <time>2013-06-29T08:32:37.970Z</time>
      </trkpt>
      <trkpt lat="45.47517" lon="6.74658">
        <ele>2161.9457055598</ele>
        <time>2013-06-29T08:32:40.970Z</time>
      </trkpt>
      <trkpt lat="45.4752" lon="6.74669">
        <ele>2162.5380050972</ele>
        <time>2013-06-29T08:32:43.970Z</time>
      </trkpt>
      <trkpt lat="45.47521" lon="6.74684">
        <ele>2163</ele>
        <time>2013-06-29T08:32:47.870Z</time>
      </trkpt>
      <trkpt lat="45.47522" lon="6.74696">
        <ele>2163</ele>
        <time>2013-06-29T08:32:50.870Z</time>
      </trkpt>
      <trkpt lat="45.47523" lon="6.7471">
        <ele>2163</ele>
        <time>2013-06-29T08:32:54.880Z</time>
      </trkpt>
      <trkpt lat="45.47526" lon="6.74724">
        <ele>2163</ele>
        <time>2013-06-29T08:32:58.870Z</time>
      </trkpt>
      <trkpt lat="45.47527" lon="6.74738">
        <ele>2163</ele>
        <time>2013-06-29T08:33:02.970Z</time>
      </trkpt>
      <trkpt lat="45.47524" lon="6.74751">
        <ele>2162.9307622771</ele>
        <time>2013-06-29T08:33:06.740Z</time>
      </trkpt>
      <trkpt lat="45.47519" lon="6.74763">
        <ele>2162.535114529</ele>
        <time>2013-06-29T08:33:10.740Z</time>
      </trkpt>
      <trkpt lat="45.47508" lon="6.74782">
        <ele>2161.8270989936</ele>
        <time>2013-06-29T08:33:17.860Z</time>
      </trkpt>
      <trkpt lat="45.47503" lon="6.74805">
        <ele>2161.2204253898</ele>
        <time>2013-06-29T08:33:23.860Z</time>
      </trkpt>
      <trkpt lat="45.47501" lon="6.7483">
        <ele>2160.01400064</ele>
        <time>2013-06-29T08:33:30.970Z</time>
      </trkpt>
      <trkpt lat="45.47505" lon="6.74855">
        <ele>2158.81800064</ele>
        <time>2013-06-29T08:33:37.860Z</time>
      </trkpt>
      <trkpt lat="45.47508" lon="6.74881">
        <ele>2158.11799936</ele>
        <time>2013-06-29T08:33:44.860Z</time>
      </trkpt>
      <trkpt lat="45.47512" lon="6.74906">
        <ele>2155.70800128</ele>
        <time>2013-06-29T08:33:51.770Z</time>
      </trkpt>
      <trkpt lat="45.47519" lon="6.74929">
        <ele>2154</ele>
        <time>2013-06-29T08:33:58.980Z</time>
      </trkpt>
      <trkpt lat="45.47534" lon="6.74945">
        <ele>2154</ele>
        <time>2013-06-29T08:34:06.870Z</time>
      </trkpt>
      <trkpt lat="45.47546" lon="6.74966">
        <ele>2154</ele>
        <time>2013-06-29T08:34:15.870Z</time>
      </trkpt>
      <trkpt lat="45.47555" lon="6.74988">
        <ele>2153.2320880784</ele>
        <time>2013-06-29T08:34:23.740Z</time>
      </trkpt>
      <trkpt lat="45.47562" lon="6.75012">
        <ele>2152.42</ele>
        <time>2013-06-29T08:34:31.840Z</time>
      </trkpt>
      <trkpt lat="45.47567" lon="6.75036">
        <ele>2152</ele>
        <time>2013-06-29T08:34:39.740Z</time>
      </trkpt>
      <trkpt lat="45.47575" lon="6.75056">
        <ele>2152</ele>
        <time>2013-06-29T08:34:46.870Z</time>
      </trkpt>
      <trkpt lat="45.47581" lon="6.75078">
        <ele>2152</ele>
        <time>2013-06-29T08:34:55.870Z</time>
      </trkpt>
      <trkpt lat="45.47587" lon="6.75094">
        <ele>2152.88300032</ele>
        <time>2013-06-29T08:35:04.870Z</time>
      </trkpt>
      <trkpt lat="45.47593" lon="6.75111">
        <ele>2153.8339666544</ele>
        <time>2013-06-29T08:35:14.830Z</time>
      </trkpt>
      <trkpt lat="45.47597" lon="6.75122">
        <ele>2154.9281184419</ele>
        <time>2013-06-29T08:35:20.970Z</time>
      </trkpt>
      <trkpt lat="45.47601" lon="6.75133">
        <ele>2156.13799936</ele>
        <time>2013-06-29T08:35:26.730Z</time>
      </trkpt>
      <trkpt lat="45.47605" lon="6.75143">
        <ele>2157.53799936</ele>
        <time>2013-06-29T08:35:33.730Z</time>
      </trkpt>
      <trkpt lat="45.47608" lon="6.75153">
        <ele>2158.38300032</ele>
        <time>2013-06-29T08:35:39.870Z</time>
      </trkpt>
      <trkpt lat="45.47614" lon="6.75161">
        <ele>2159.91799808</ele>
        <time>2013-06-29T08:35:47.570Z</time>
      </trkpt>
      <trkpt lat="45.47619" lon="6.75168">
        <ele>2164.11799808</ele>
        <time>2013-06-29T08:35:54.570Z</time>
      </trkpt>
      <trkpt lat="45.47625" lon="6.75177">
        <ele>2166.5644367039</ele>
        <time>2013-06-29T08:36:03.870Z</time>
      </trkpt>
      <trkpt lat="45.47631" lon="6.75181">
        <ele>2167.2818728287</ele>
        <time>2013-06-29T08:36:08.880Z</time>
      </trkpt>
      <trkpt lat="45.47637" lon="6.75186">
        <ele>2167.96812749</ele>
        <time>2013-06-29T08:36:15.770Z</time>
      </trkpt>
      <trkpt lat="45.47642" lon="6.75192">
        <ele>2168.934672423</ele>
        <time>2013-06-29T08:36:20.740Z</time>
      </trkpt>
      <trkpt lat="45.47648" lon="6.75197">
        <ele>2170.072</ele>
        <time>2013-06-29T08:36:26.760Z</time>
      </trkpt>
      <trkpt lat="45.47654" lon="6.75202">
        <ele>2170.872</ele>
        <time>2013-06-29T08:36:34.760Z</time>
      </trkpt>
      <trkpt lat="45.47659" lon="6.75205">
        <ele>2171.76600064</ele>
        <time>2013-06-29T08:36:39.870Z</time>
      </trkpt>
      <trkpt lat="45.47664" lon="6.75208">
        <ele>2172.54599936</ele>
        <time>2013-06-29T08:36:43.770Z</time>
      </trkpt>
      <trkpt lat="45.4767" lon="6.75211">
        <ele>2173.74599936</ele>
        <time>2013-06-29T08:36:49.770Z</time>
      </trkpt>
      <trkpt lat="45.47676" lon="6.75217">
        <ele>2175.69199872</ele>
        <time>2013-06-29T08:36:57.770Z</time>
      </trkpt>
      <trkpt lat="45.47684" lon="6.75221">
        <ele>2178.89199872</ele>
        <time>2013-06-29T08:37:05.770Z</time>
      </trkpt>
      <trkpt lat="45.4769" lon="6.75222">
        <ele>2180.3632732211</ele>
        <time>2013-06-29T08:37:12.870Z</time>
      </trkpt>
      <trkpt lat="45.47698" lon="6.75227">
        <ele>2182.3226435736</ele>
        <time>2013-06-29T08:37:22.660Z</time>
      </trkpt>
      <trkpt lat="45.47704" lon="6.7523">
        <ele>2183.26899968</ele>
        <time>2013-06-29T08:37:28.730Z</time>
      </trkpt>
      <trkpt lat="45.4771" lon="6.75232">
        <ele>2183.96899968</ele>
        <time>2013-06-29T08:37:35.730Z</time>
      </trkpt>
      <trkpt lat="45.47715" lon="6.7524">
        <ele>2187.9150016</ele>
        <time>2013-06-29T08:37:43.870Z</time>
      </trkpt>
      <trkpt lat="45.4772" lon="6.75245">
        <ele>2189</ele>
        <time>2013-06-29T08:37:49.870Z</time>
      </trkpt>
      <trkpt lat="45.47725" lon="6.7525">
        <ele>2189</ele>
        <time>2013-06-29T08:37:55.870Z</time>
      </trkpt>
      <trkpt lat="45.4773" lon="6.75255">
        <ele>2189.957384486</ele>
        <time>2013-06-29T08:38:00.870Z</time>
      </trkpt>
      <trkpt lat="45.47735" lon="6.7526">
        <ele>2191.1224893173</ele>
        <time>2013-06-29T08:38:06.740Z</time>
      </trkpt>
      <trkpt lat="45.47743" lon="6.75267">
        <ele>2192.9297208032</ele>
        <time>2013-06-29T08:38:15.740Z</time>
      </trkpt>
      <trkpt lat="45.4775" lon="6.75272">
        <ele>2194.5175880948</ele>
        <time>2013-06-29T08:38:23.640Z</time>
      </trkpt>
      <trkpt lat="45.47755" lon="6.75278">
        <ele>2196.8649984</ele>
        <time>2013-06-29T08:38:29.770Z</time>
      </trkpt>
      <trkpt lat="45.4776" lon="6.75283">
        <ele>2200.18599808</ele>
        <time>2013-06-29T08:38:36.660Z</time>
      </trkpt>
      <trkpt lat="45.47765" lon="6.75288">
        <ele>2202.28600192</ele>
        <time>2013-06-29T08:38:43.660Z</time>
      </trkpt>
      <trkpt lat="45.47772" lon="6.75293">
        <ele>2203.94599936</ele>
        <time>2013-06-29T08:38:50.770Z</time>
      </trkpt>
      <trkpt lat="45.47778" lon="6.75302">
        <ele>2205</ele>
        <time>2013-06-29T08:38:59.770Z</time>
      </trkpt>
      <trkpt lat="45.47784" lon="6.75308">
        <ele>2205.6746489902</ele>
        <time>2013-06-29T08:39:07.730Z</time>
      </trkpt>
      <trkpt lat="45.47793" lon="6.75312">
        <ele>2210.0420797063</ele>
        <time>2013-06-29T08:39:18.660Z</time>
      </trkpt>
      <trkpt lat="45.47798" lon="6.75318">
        <ele>2212.8476978582</ele>
        <time>2013-06-29T08:39:25.660Z</time>
      </trkpt>
      <trkpt lat="45.47804" lon="6.75323">
        <ele>2213.94800128</ele>
        <time>2013-06-29T08:39:30.780Z</time>
      </trkpt>
      <trkpt lat="45.47813" lon="6.75327">
        <ele>2215.16300032</ele>
        <time>2013-06-29T08:39:37.670Z</time>
      </trkpt>
      <trkpt lat="45.4782" lon="6.7533">
        <ele>2215.96300032</ele>
        <time>2013-06-29T08:39:45.670Z</time>
      </trkpt>
      <trkpt lat="45.47829" lon="6.75333">
        <ele>2217.74599936</ele>
        <time>2013-06-29T08:39:54.770Z</time>
      </trkpt>
      <trkpt lat="45.47837" lon="6.75331">
        <ele>2218.96600064</ele>
        <time>2013-06-29T08:40:00.870Z</time>
      </trkpt>
      <trkpt lat="45.47842" lon="6.75328">
        <ele>2220.1432836277</ele>
        <time>2013-06-29T08:40:06.760Z</time>
      </trkpt>
      <trkpt lat="45.47848" lon="6.75322">
        <ele>2221.7353239356</ele>
        <time>2013-06-29T08:40:14.760Z</time>
      </trkpt>
      <trkpt lat="45.47858" lon="6.75315">
        <ele>2223.12199936</ele>
        <time>2013-06-29T08:40:26.650Z</time>
      </trkpt>
      <trkpt lat="45.47866" lon="6.75313">
        <ele>2224.52199936</ele>
        <time>2013-06-29T08:40:33.650Z</time>
      </trkpt>
      <trkpt lat="45.47874" lon="6.75308">
        <ele>2227.73200128</ele>
        <time>2013-06-29T08:40:42.870Z</time>
      </trkpt>
      <trkpt lat="45.47881" lon="6.75298">
        <ele>2229.2815924479</ele>
        <time>2013-06-29T08:40:48.870Z</time>
      </trkpt>
      <trkpt lat="45.47888" lon="6.75288">
        <ele>2229.7791050441</ele>
        <time>2013-06-29T08:40:53.870Z</time>
      </trkpt>
      <trkpt lat="45.47895" lon="6.75275">
        <ele>2230</ele>
        <time>2013-06-29T08:40:59.670Z</time>
      </trkpt>
      <trkpt lat="45.47903" lon="6.75259">
        <ele>2230.3084584465</ele>
        <time>2013-06-29T08:41:07.590Z</time>
      </trkpt>
      <trkpt lat="45.47908" lon="6.75246">
        <ele>2231.7014937159</ele>
        <time>2013-06-29T08:41:14.590Z</time>
      </trkpt>
      <trkpt lat="45.47915" lon="6.75234">
        <ele>2232.4668671486</ele>
        <time>2013-06-29T08:41:20.740Z</time>
      </trkpt>
      <trkpt lat="45.47926" lon="6.75227">
        <ele>2233.5045043429</ele>
        <time>2013-06-29T08:41:28.570Z</time>
      </trkpt>
      <trkpt lat="45.47934" lon="6.7522">
        <ele>2235.11800064</ele>
        <time>2013-06-29T08:41:36.630Z</time>
      </trkpt>
      <trkpt lat="45.47944" lon="6.75214">
        <ele>2236.51800064</ele>
        <time>2013-06-29T08:41:43.630Z</time>
      </trkpt>
      <trkpt lat="45.47952" lon="6.75206">
        <ele>2238.14599936</ele>
        <time>2013-06-29T08:41:51.770Z</time>
      </trkpt>
      <trkpt lat="45.4796" lon="6.75199">
        <ele>2239.288</ele>
        <time>2013-06-29T08:41:58.920Z</time>
      </trkpt>
      <trkpt lat="45.47969" lon="6.75193">
        <ele>2240.0716418139</ele>
        <time>2013-06-29T08:42:06.760Z</time>
      </trkpt>
      <trkpt lat="45.47977" lon="6.7519">
        <ele>2240.6686569293</ele>
        <time>2013-06-29T08:42:12.760Z</time>
      </trkpt>
      <trkpt lat="45.47986" lon="6.75185">
        <ele>2241.1577898588</ele>
        <time>2013-06-29T08:42:17.660Z</time>
      </trkpt>
      <trkpt lat="45.47999" lon="6.75179">
        <ele>2241.8613059341</ele>
        <time>2013-06-29T08:42:24.660Z</time>
      </trkpt>
      <trkpt lat="45.4801" lon="6.75173">
        <ele>2242.47299968</ele>
        <time>2013-06-29T08:42:30.770Z</time>
      </trkpt>
      <trkpt lat="45.48018" lon="6.75165">
        <ele>2243</ele>
        <time>2013-06-29T08:42:36.720Z</time>
      </trkpt>
      <trkpt lat="45.4803" lon="6.75159">
        <ele>2243</ele>
        <time>2013-06-29T08:42:43.720Z</time>
      </trkpt>
      <trkpt lat="45.4804" lon="6.75153">
        <ele>2243.38300032</ele>
        <time>2013-06-29T08:42:49.870Z</time>
      </trkpt>
      <trkpt lat="45.4805" lon="6.75144">
        <ele>2244.06999936</ele>
        <time>2013-06-29T08:42:56.740Z</time>
      </trkpt>
      <trkpt lat="45.4806" lon="6.75137">
        <ele>2244.86899968</ele>
        <time>2013-06-29T08:43:04.730Z</time>
      </trkpt>
      <trkpt lat="45.48068" lon="6.7513">
        <ele>2245.5778442617</ele>
        <time>2013-06-29T08:43:11.830Z</time>
      </trkpt>
      <trkpt lat="45.48076" lon="6.75124">
        <ele>2246.3637267262</ele>
        <time>2013-06-29T08:43:19.690Z</time>
      </trkpt>
      <trkpt lat="45.48082" lon="6.75118">
        <ele>2246.9649295166</ele>
        <time>2013-06-29T08:43:25.690Z</time>
      </trkpt>
      <trkpt lat="45.48087" lon="6.75112">
        <ele>2247</ele>
        <time>2013-06-29T08:43:35.870Z</time>
      </trkpt>
      <trkpt lat="45.48089" lon="6.75119">
        <ele>2248</ele>
        <time>2013-06-29T08:45:00.270Z</time>
      </trkpt>
      <trkpt lat="45.48093" lon="6.75113">
        <ele>2248</ele>
        <time>2013-06-29T08:45:37.000Z</time>
      </trkpt>
      <trkpt lat="45.48101" lon="6.75108">
        <ele>2248</ele>
        <time>2013-06-29T08:45:42.870Z</time>
      </trkpt>
      <trkpt lat="45.48111" lon="6.751">
        <ele>2248</ele>
        <time>2013-06-29T08:45:49.870Z</time>
      </trkpt>
      <trkpt lat="45.48117" lon="6.75094">
        <ele>2248</ele>
        <time>2013-06-29T08:45:54.870Z</time>
      </trkpt>
      <trkpt lat="45.48123" lon="6.75089">
        <ele>2248</ele>
        <time>2013-06-29T08:45:59.770Z</time>
      </trkpt>
      <trkpt lat="45.48129" lon="6.75084">
        <ele>2248</ele>
        <time>2013-06-29T08:46:05.770Z</time>
      </trkpt>
      <trkpt lat="45.48134" lon="6.75079">
        <ele>2248.914395642</ele>
        <time>2013-06-29T08:46:10.740Z</time>
      </trkpt>
      <trkpt lat="45.4814" lon="6.75075">
        <ele>2249.906614786</ele>
        <time>2013-06-29T08:46:15.840Z</time>
      </trkpt>
      <trkpt lat="45.48146" lon="6.7507">
        <ele>2250.4573482285</ele>
        <time>2013-06-29T08:46:20.770Z</time>
      </trkpt>
      <trkpt lat="45.48152" lon="6.75066">
        <ele>2251.1381374532</ele>
        <time>2013-06-29T08:46:26.740Z</time>
      </trkpt>
      <trkpt lat="45.48159" lon="6.75062">
        <ele>2252.3393382697</ele>
        <time>2013-06-29T08:46:32.740Z</time>
      </trkpt>
      <trkpt lat="45.48164" lon="6.75058">
        <ele>2253.16</ele>
        <time>2013-06-29T08:46:37.640Z</time>
      </trkpt>
      <trkpt lat="45.48169" lon="6.75055">
        <ele>2253.56</ele>
        <time>2013-06-29T08:46:41.640Z</time>
      </trkpt>
      <trkpt lat="45.48175" lon="6.75053">
        <ele>2254.06</ele>
        <time>2013-06-29T08:46:46.640Z</time>
      </trkpt>
      <trkpt lat="45.48182" lon="6.7505">
        <ele>2254.56</ele>
        <time>2013-06-29T08:46:51.640Z</time>
      </trkpt>
      <trkpt lat="45.48187" lon="6.75048">
        <ele>2255.0726365206</ele>
        <time>2013-06-29T08:46:56.770Z</time>
      </trkpt>
      <trkpt lat="45.48194" lon="6.75044">
        <ele>2255.4805974864</ele>
        <time>2013-06-29T08:47:00.870Z</time>
      </trkpt>
      <trkpt lat="45.482" lon="6.75041">
        <ele>2255.9781100826</ele>
        <time>2013-06-29T08:47:05.870Z</time>
      </trkpt>
      <trkpt lat="45.48206" lon="6.75036">
        <ele>2256</ele>
        <time>2013-06-29T08:47:10.640Z</time>
      </trkpt>
      <trkpt lat="45.48212" lon="6.75031">
        <ele>2256</ele>
        <time>2013-06-29T08:47:15.640Z</time>
      </trkpt>
      <trkpt lat="45.48218" lon="6.75028">
        <ele>2256.3668350177</ele>
        <time>2013-06-29T08:47:19.740Z</time>
      </trkpt>
      <trkpt lat="45.48223" lon="6.75024">
        <ele>2256.8592965277</ele>
        <time>2013-06-29T08:47:24.640Z</time>
      </trkpt>
      <trkpt lat="45.48237" lon="6.75019">
        <ele>2257.9781100826</ele>
        <time>2013-06-29T08:47:35.870Z</time>
      </trkpt>
      <trkpt lat="45.48246" lon="6.75015">
        <ele>2258.668341172</ele>
        <time>2013-06-29T08:47:42.740Z</time>
      </trkpt>
      <trkpt lat="45.48259" lon="6.75011">
        <ele>2259.78300032</ele>
        <time>2013-06-29T08:47:53.870Z</time>
      </trkpt>
      <trkpt lat="45.48265" lon="6.75011">
        <ele>2260.36600064</ele>
        <time>2013-06-29T08:47:57.870Z</time>
      </trkpt>
      <trkpt lat="45.48273" lon="6.75008">
        <ele>2261.56600064</ele>
        <time>2013-06-29T08:48:03.870Z</time>
      </trkpt>
      <trkpt lat="45.48279" lon="6.75006">
        <ele>2262.8905491393</ele>
        <time>2013-06-29T08:48:07.830Z</time>
      </trkpt>
      <trkpt lat="45.48288" lon="6.75003">
        <ele>2265.8258702729</ele>
        <time>2013-06-29T08:48:13.730Z</time>
      </trkpt>
      <trkpt lat="45.48298" lon="6.75">
        <ele>2267</ele>
        <time>2013-06-29T08:48:20.760Z</time>
      </trkpt>
      <trkpt lat="45.48306" lon="6.74999">
        <ele>2267</ele>
        <time>2013-06-29T08:48:26.770Z</time>
      </trkpt>
      <trkpt lat="45.48314" lon="6.74999">
        <ele>2267</ele>
        <time>2013-06-29T08:48:31.770Z</time>
      </trkpt>
      <trkpt lat="45.48323" lon="6.75">
        <ele>2267.32400128</ele>
        <time>2013-06-29T08:48:37.660Z</time>
      </trkpt>
      <trkpt lat="45.48331" lon="6.75002">
        <ele>2268.52400128</ele>
        <time>2013-06-29T08:48:43.660Z</time>
      </trkpt>
      <trkpt lat="45.4834" lon="6.75006">
        <ele>2269.74000128</ele>
        <time>2013-06-29T08:48:49.740Z</time>
      </trkpt>
      <trkpt lat="45.48348" lon="6.75008">
        <ele>2270.73999872</ele>
        <time>2013-06-29T08:48:54.740Z</time>
      </trkpt>
      <trkpt lat="45.48358" lon="6.75009">
        <ele>2271.58300032</ele>
        <time>2013-06-29T08:49:01.870Z</time>
      </trkpt>
      <trkpt lat="45.48367" lon="6.75011">
        <ele>2272.3641798572</ele>
        <time>2013-06-29T08:49:07.870Z</time>
      </trkpt>
      <trkpt lat="45.48376" lon="6.75011">
        <ele>2273.7572151267</ele>
        <time>2013-06-29T08:49:14.870Z</time>
      </trkpt>
      <trkpt lat="45.48387" lon="6.75011">
        <ele>2274.6703518648</ele>
        <time>2013-06-29T08:49:22.760Z</time>
      </trkpt>
      <trkpt lat="45.48397" lon="6.75011">
        <ele>2275.7172835859</ele>
        <time>2013-06-29T08:49:29.630Z</time>
      </trkpt>
      <trkpt lat="45.48406" lon="6.75011">
        <ele>2276.9360639156</ele>
        <time>2013-06-29T08:49:35.730Z</time>
      </trkpt>
      <trkpt lat="45.48415" lon="6.75015">
        <ele>2281.0960986279</ele>
        <time>2013-06-29T08:49:42.870Z</time>
      </trkpt>
      <trkpt lat="45.48426" lon="6.75023">
        <ele>2284.16600064</ele>
        <time>2013-06-29T08:49:51.870Z</time>
      </trkpt>
      <trkpt lat="45.48432" lon="6.75029">
        <ele>2285</ele>
        <time>2013-06-29T08:49:56.570Z</time>
      </trkpt>
      <trkpt lat="45.48438" lon="6.75035">
        <ele>2285</ele>
        <time>2013-06-29T08:50:02.770Z</time>
      </trkpt>
      <trkpt lat="45.48443" lon="6.75039">
        <ele>2285.185074049</ele>
        <time>2013-06-29T08:50:06.970Z</time>
      </trkpt>
      <trkpt lat="45.48448" lon="6.75043">
        <ele>2285.9810942029</ele>
        <time>2013-06-29T08:50:10.970Z</time>
      </trkpt>
      <trkpt lat="45.48456" lon="6.75051">
        <ele>2287.3234133333</ele>
        <time>2013-06-29T08:50:17.720Z</time>
      </trkpt>
      <trkpt lat="45.48462" lon="6.75055">
        <ele>2288.3154768254</ele>
        <time>2013-06-29T08:50:22.720Z</time>
      </trkpt>
      <trkpt lat="45.48469" lon="6.75052">
        <ele>2289.7811537893</ele>
        <time>2013-06-29T08:50:28.740Z</time>
      </trkpt>
      <trkpt lat="45.48475" lon="6.75048">
        <ele>2290.9969588662</ele>
        <time>2013-06-29T08:50:32.740Z</time>
      </trkpt>
      <trkpt lat="45.48479" lon="6.75042">
        <ele>2292.17900032</ele>
        <time>2013-06-29T08:50:37.830Z</time>
      </trkpt>
      <trkpt lat="45.48484" lon="6.75032">
        <ele>2292.85900032</ele>
        <time>2013-06-29T08:50:44.630Z</time>
      </trkpt>
      <trkpt lat="45.48487" lon="6.75024">
        <ele>2293.98799872</ele>
        <time>2013-06-29T08:50:50.980Z</time>
      </trkpt>
      <trkpt lat="45.4849" lon="6.75016">
        <ele>2295.33200128</ele>
        <time>2013-06-29T08:50:56.870Z</time>
      </trkpt>
      <trkpt lat="45.48495" lon="6.75009">
        <ele>2297.73200128</ele>
        <time>2013-06-29T08:51:02.870Z</time>
      </trkpt>
      <trkpt lat="45.485" lon="6.75001">
        <ele>2299.3810949671</ele>
        <time>2013-06-29T08:51:09.870Z</time>
      </trkpt>
      <trkpt lat="45.48499" lon="6.74985">
        <ele>2301.1396987691</ele>
        <time>2013-06-29T08:51:21.760Z</time>
      </trkpt>
      <trkpt lat="45.48498" lon="6.74972">
        <ele>2304.3</ele>
        <time>2013-06-29T08:51:30.640Z</time>
      </trkpt>
      <trkpt lat="45.48499" lon="6.74957">
        <ele>2308.36400128</ele>
        <time>2013-06-29T08:51:42.860Z</time>
      </trkpt>
      <trkpt lat="45.48494" lon="6.74946">
        <ele>2309</ele>
        <time>2013-06-29T08:51:50.730Z</time>
      </trkpt>
      <trkpt lat="45.48487" lon="6.74936">
        <ele>2309.72</ele>
        <time>2013-06-29T08:51:59.640Z</time>
      </trkpt>
      <trkpt lat="45.48481" lon="6.74926">
        <ele>2311.3442780798</ele>
        <time>2013-06-29T08:52:07.770Z</time>
      </trkpt>
      <trkpt lat="45.48474" lon="6.74917">
        <ele>2312.9562201652</ele>
        <time>2013-06-29T08:52:15.870Z</time>
      </trkpt>
      <trkpt lat="45.48468" lon="6.74909">
        <ele>2314.7246238474</ele>
        <time>2013-06-29T08:52:24.670Z</time>
      </trkpt>
      <trkpt lat="45.48462" lon="6.74901">
        <ele>2317.8</ele>
        <time>2013-06-29T08:52:31.640Z</time>
      </trkpt>
      <trkpt lat="45.48455" lon="6.74893">
        <ele>2320</ele>
        <time>2013-06-29T08:52:40.720Z</time>
      </trkpt>
      <trkpt lat="45.48449" lon="6.74886">
        <ele>2320.344</ele>
        <time>2013-06-29T08:52:47.760Z</time>
      </trkpt>
      <trkpt lat="45.48442" lon="6.74879">
        <ele>2322.14599936</ele>
        <time>2013-06-29T08:52:56.770Z</time>
      </trkpt>
      <trkpt lat="45.48435" lon="6.7487">
        <ele>2324.1645200125</ele>
        <time>2013-06-29T08:53:06.870Z</time>
      </trkpt>
      <trkpt lat="45.48429" lon="6.74863">
        <ele>2325.7502489594</ele>
        <time>2013-06-29T08:53:14.870Z</time>
      </trkpt>
      <trkpt lat="45.48422" lon="6.74856">
        <ele>2327.3178596754</ele>
        <time>2013-06-29T08:53:22.660Z</time>
      </trkpt>
      <trkpt lat="45.48414" lon="6.74849">
        <ele>2328.93999872</ele>
        <time>2013-06-29T08:53:30.740Z</time>
      </trkpt>
      <trkpt lat="45.48407" lon="6.74842">
        <ele>2330.744</ele>
        <time>2013-06-29T08:53:39.760Z</time>
      </trkpt>
      <trkpt lat="45.484" lon="6.74835">
        <ele>2332.8649984</ele>
        <time>2013-06-29T08:53:47.770Z</time>
      </trkpt>
      <trkpt lat="45.48393" lon="6.74828">
        <ele>2336.4150016</ele>
        <time>2013-06-29T08:53:54.870Z</time>
      </trkpt>
      <trkpt lat="45.48388" lon="6.74823">
        <ele>2337.67299968</ele>
        <time>2013-06-29T08:54:02.770Z</time>
      </trkpt>
      <trkpt lat="45.4838" lon="6.74816">
        <ele>2339.5383083107</ele>
        <time>2013-06-29T08:54:13.770Z</time>
      </trkpt>
      <trkpt lat="45.48374" lon="6.7481">
        <ele>2340.4623114091</ele>
        <time>2013-06-29T08:54:20.690Z</time>
      </trkpt>
      <trkpt lat="45.48366" lon="6.74802">
        <ele>2341.744</ele>
        <time>2013-06-29T08:54:29.760Z</time>
      </trkpt>
      <trkpt lat="45.48358" lon="6.74795">
        <ele>2343.86</ele>
        <time>2013-06-29T08:54:37.760Z</time>
      </trkpt>
      <trkpt lat="45.4835" lon="6.74787">
        <ele>2348</ele>
        <time>2013-06-29T08:54:47.760Z</time>
      </trkpt>
      <trkpt lat="45.48343" lon="6.74778">
        <ele>2348.29199872</ele>
        <time>2013-06-29T08:54:56.770Z</time>
      </trkpt>
      <trkpt lat="45.48334" lon="6.7477">
        <ele>2351.49199872</ele>
        <time>2013-06-29T08:55:04.770Z</time>
      </trkpt>
      <trkpt lat="45.48326" lon="6.74762">
        <ele>2352.8751244797</ele>
        <time>2013-06-29T08:55:14.870Z</time>
      </trkpt>
      <trkpt lat="45.48318" lon="6.74753">
        <ele>2354.5196785406</ele>
        <time>2013-06-29T08:55:23.660Z</time>
      </trkpt>
      <trkpt lat="45.48312" lon="6.74746">
        <ele>2355.74599936</ele>
        <time>2013-06-29T08:55:29.770Z</time>
      </trkpt>
      <trkpt lat="45.48308" lon="6.7474">
        <ele>2356.96600064</ele>
        <time>2013-06-29T08:55:35.870Z</time>
      </trkpt>
      <trkpt lat="45.48303" lon="6.74735">
        <ele>2358.16600064</ele>
        <time>2013-06-29T08:55:41.870Z</time>
      </trkpt>
      <trkpt lat="45.48298" lon="6.74729">
        <ele>2359.54900096</ele>
        <time>2013-06-29T08:55:47.870Z</time>
      </trkpt>
      <trkpt lat="45.48292" lon="6.74723">
        <ele>2361.64900096</ele>
        <time>2013-06-29T08:55:54.870Z</time>
      </trkpt>
      <trkpt lat="45.48286" lon="6.74719">
        <ele>2362.7621899342</ele>
        <time>2013-06-29T08:55:59.870Z</time>
      </trkpt>
      <trkpt lat="45.48279" lon="6.74712">
        <ele>2364.3081515336</ele>
        <time>2013-06-29T08:56:07.640Z</time>
      </trkpt>
      <trkpt lat="45.48273" lon="6.74708">
        <ele>2365.5009937171</ele>
        <time>2013-06-29T08:56:13.640Z</time>
      </trkpt>
      <trkpt lat="45.48264" lon="6.74702">
        <ele>2367.3104149842</ele>
        <time>2013-06-29T08:56:22.630Z</time>
      </trkpt>
      <trkpt lat="45.48254" lon="6.74695">
        <ele>2370.8100032</ele>
        <time>2013-06-29T08:56:31.660Z</time>
      </trkpt>
      <trkpt lat="45.48245" lon="6.74687">
        <ele>2373</ele>
        <time>2013-06-29T08:56:40.660Z</time>
      </trkpt>
      <trkpt lat="45.48238" lon="6.74681">
        <ele>2373.36600064</ele>
        <time>2013-06-29T08:56:47.870Z</time>
      </trkpt>
      <trkpt lat="45.48232" lon="6.74674">
        <ele>2374.56600064</ele>
        <time>2013-06-29T08:56:53.870Z</time>
      </trkpt>
      <trkpt lat="45.48229" lon="6.74662">
        <ele>2375.96600064</ele>
        <time>2013-06-29T08:57:00.870Z</time>
      </trkpt>
      <trkpt lat="45.48234" lon="6.74653">
        <ele>2377.1786429198</ele>
        <time>2013-06-29T08:57:07.830Z</time>
      </trkpt>
      <trkpt lat="45.48239" lon="6.74647">
        <ele>2377.6776445971</ele>
        <time>2013-06-29T08:57:12.830Z</time>
      </trkpt>
      <trkpt lat="45.48245" lon="6.74643">
        <ele>2378.3607191091</ele>
        <time>2013-06-29T08:57:17.860Z</time>
      </trkpt>
      <trkpt lat="45.48251" lon="6.74642">
        <ele>2379.3627263248</ele>
        <time>2013-06-29T08:57:22.860Z</time>
      </trkpt>
      <trkpt lat="45.48256" lon="6.74642">
        <ele>2380.13999872</ele>
        <time>2013-06-29T08:57:26.740Z</time>
      </trkpt>
      <trkpt lat="45.48263" lon="6.74641">
        <ele>2381.14000128</ele>
        <time>2013-06-29T08:57:31.740Z</time>
      </trkpt>
      <trkpt lat="45.4827" lon="6.74639">
        <ele>2382.18300032</ele>
        <time>2013-06-29T08:57:37.870Z</time>
      </trkpt>
      <trkpt lat="45.48277" lon="6.74636">
        <ele>2382.78300032</ele>
        <time>2013-06-29T08:57:43.870Z</time>
      </trkpt>
      <trkpt lat="45.48284" lon="6.74634">
        <ele>2383.78599936</ele>
        <time>2013-06-29T08:57:49.970Z</time>
      </trkpt>
      <trkpt lat="45.48291" lon="6.74632">
        <ele>2384.96600064</ele>
        <time>2013-06-29T08:57:55.870Z</time>
      </trkpt>
      <trkpt lat="45.48299" lon="6.74632">
        <ele>2386.74900096</ele>
        <time>2013-06-29T08:58:01.870Z</time>
      </trkpt>
      <trkpt lat="45.48308" lon="6.7463">
        <ele>2388.3582090693</ele>
        <time>2013-06-29T08:58:07.840Z</time>
      </trkpt>
      <trkpt lat="45.48315" lon="6.74632">
        <ele>2389.1542292232</ele>
        <time>2013-06-29T08:58:11.840Z</time>
      </trkpt>
      <trkpt lat="45.48325" lon="6.74634">
        <ele>2390.1507543636</ele>
        <time>2013-06-29T08:58:16.840Z</time>
      </trkpt>
      <trkpt lat="45.48335" lon="6.74635">
        <ele>2391.155779166</ele>
        <time>2013-06-29T08:58:21.840Z</time>
      </trkpt>
      <trkpt lat="45.48346" lon="6.74637">
        <ele>2392</ele>
        <time>2013-06-29T08:58:26.860Z</time>
      </trkpt>
      <trkpt lat="45.48358" lon="6.74641">
        <ele>2392</ele>
        <time>2013-06-29T08:58:32.860Z</time>
      </trkpt>
      <trkpt lat="45.48363" lon="6.74644">
        <ele>2392</ele>
        <time>2013-06-29T08:58:35.860Z</time>
      </trkpt>
      <trkpt lat="45.48369" lon="6.74646">
        <ele>2392.5717156019</ele>
        <time>2013-06-29T08:58:38.970Z</time>
      </trkpt>
      <trkpt lat="45.4838" lon="6.7465">
        <ele>2393.581817265</ele>
        <time>2013-06-29T08:58:43.970Z</time>
      </trkpt>
      <trkpt lat="45.48388" lon="6.74652">
        <ele>2394.5761186312</ele>
        <time>2013-06-29T08:58:47.970Z</time>
      </trkpt>
      <trkpt lat="45.48399" lon="6.74652">
        <ele>2396.0686564199</ele>
        <time>2013-06-29T08:58:52.970Z</time>
      </trkpt>
      <trkpt lat="45.48409" lon="6.74654">
        <ele>2397.1658300572</ele>
        <time>2013-06-29T08:58:57.740Z</time>
      </trkpt>
      <trkpt lat="45.48419" lon="6.74651">
        <ele>2397.7688449387</ele>
        <time>2013-06-29T08:59:03.740Z</time>
      </trkpt>
      <trkpt lat="45.48426" lon="6.74644">
        <ele>2398</ele>
        <time>2013-06-29T08:59:10.790Z</time>
      </trkpt>
      <trkpt lat="45.48432" lon="6.74637">
        <ele>2398.1703401493</ele>
        <time>2013-06-29T08:59:17.760Z</time>
      </trkpt>
      <trkpt lat="45.48438" lon="6.74629">
        <ele>2398.9719438698</ele>
        <time>2013-06-29T08:59:25.760Z</time>
      </trkpt>
      <trkpt lat="45.48443" lon="6.7462">
        <ele>2400.56600064</ele>
        <time>2013-06-29T08:59:33.870Z</time>
      </trkpt>
      <trkpt lat="45.48448" lon="6.74616">
        <ele>2401.56600064</ele>
        <time>2013-06-29T08:59:38.870Z</time>
      </trkpt>
      <trkpt lat="45.48453" lon="6.74612">
        <ele>2402.56600064</ele>
        <time>2013-06-29T08:59:43.870Z</time>
      </trkpt>
      <trkpt lat="45.48458" lon="6.7461">
        <ele>2403.19299968</ele>
        <time>2013-06-29T08:59:47.970Z</time>
      </trkpt>
      <trkpt lat="45.48464" lon="6.74613">
        <ele>2403.69299968</ele>
        <time>2013-06-29T08:59:52.970Z</time>
      </trkpt>
      <trkpt lat="45.48471" lon="6.7461">
        <ele>2404.58599936</ele>
        <time>2013-06-29T08:59:58.970Z</time>
      </trkpt>
      <trkpt lat="45.48477" lon="6.74606">
        <ele>2405.76600064</ele>
        <time>2013-06-29T09:00:04.870Z</time>
      </trkpt>
      <trkpt lat="45.48484" lon="6.74597">
        <ele>2406.9810942029</ele>
        <time>2013-06-29T09:00:10.970Z</time>
      </trkpt>
      <trkpt lat="45.4849" lon="6.74588">
        <ele>2408.7376888482</ele>
        <time>2013-06-29T09:00:19.760Z</time>
      </trkpt>
      <trkpt lat="45.48496" lon="6.74585">
        <ele>2410.16600064</ele>
        <time>2013-06-29T09:00:26.870Z</time>
      </trkpt>
      <trkpt lat="45.48502" lon="6.74588">
        <ele>2411.16600064</ele>
        <time>2013-06-29T09:00:31.870Z</time>
      </trkpt>
      <trkpt lat="45.48506" lon="6.74592">
        <ele>2412.1570583902</ele>
        <time>2013-06-29T09:00:36.830Z</time>
      </trkpt>
      <trkpt lat="45.48515" lon="6.74598">
        <ele>2413.946323942</ele>
        <time>2013-06-29T09:00:45.830Z</time>
      </trkpt>
      <trkpt lat="45.48523" lon="6.746">
        <ele>2417.1710292661</ele>
        <time>2013-06-29T09:00:53.980Z</time>
      </trkpt>
      <trkpt lat="45.4853" lon="6.746">
        <ele>2418</ele>
        <time>2013-06-29T09:01:00.740Z</time>
      </trkpt>
      <trkpt lat="45.48537" lon="6.746">
        <ele>2418.3522382813</ele>
        <time>2013-06-29T09:01:07.810Z</time>
      </trkpt>
      <trkpt lat="45.48542" lon="6.74599">
        <ele>2419.3472634738</ele>
        <time>2013-06-29T09:01:12.810Z</time>
      </trkpt>
      <trkpt lat="45.48548" lon="6.74598">
        <ele>2421.3417097193</ele>
        <time>2013-06-29T09:01:18.760Z</time>
      </trkpt>
      <trkpt lat="45.48555" lon="6.74594">
        <ele>2424.8592965277</ele>
        <time>2013-06-29T09:01:25.760Z</time>
      </trkpt>
      <trkpt lat="45.48558" lon="6.74586">
        <ele>2425</ele>
        <time>2013-06-29T09:01:31.870Z</time>
      </trkpt>
      <trkpt lat="45.48556" lon="6.74577">
        <ele>2425.1572146172</ele>
        <time>2013-06-29T09:01:36.830Z</time>
      </trkpt>
      <trkpt lat="45.48551" lon="6.74566">
        <ele>2426.5522393002</ele>
        <time>2013-06-29T09:01:43.840Z</time>
      </trkpt>
      <trkpt lat="45.48547" lon="6.74559">
        <ele>2427.753769245</ele>
        <time>2013-06-29T09:01:49.840Z</time>
      </trkpt>
      <trkpt lat="45.48543" lon="6.74551">
        <ele>2428.9396997983</ele>
        <time>2013-06-29T09:01:55.740Z</time>
      </trkpt>
      <trkpt lat="45.48539" lon="6.74545">
        <ele>2429.96600064</ele>
        <time>2013-06-29T09:02:00.870Z</time>
      </trkpt>
      <trkpt lat="45.48537" lon="6.74539">
        <ele>2430.76600064</ele>
        <time>2013-06-29T09:02:04.870Z</time>
      </trkpt>
      <trkpt lat="45.48535" lon="6.74534">
        <ele>2431</ele>
        <time>2013-06-29T09:02:07.870Z</time>
      </trkpt>
      <trkpt lat="45.48532" lon="6.7453">
        <ele>2431</ele>
        <time>2013-06-29T09:02:10.970Z</time>
      </trkpt>
      <trkpt lat="45.48529" lon="6.74525">
        <ele>2431</ele>
        <time>2013-06-29T09:02:14.970Z</time>
      </trkpt>
      <trkpt lat="45.48528" lon="6.74518">
        <ele>2431.7336700354</ele>
        <time>2013-06-29T09:02:19.740Z</time>
      </trkpt>
      <trkpt lat="45.48534" lon="6.74514">
        <ele>2433.144</ele>
        <time>2013-06-29T09:02:26.760Z</time>
      </trkpt>
      <trkpt lat="45.4854" lon="6.74515">
        <ele>2434.344</ele>
        <time>2013-06-29T09:02:32.760Z</time>
      </trkpt>
      <trkpt lat="45.48546" lon="6.74517">
        <ele>2435.55800064</ele>
        <time>2013-06-29T09:02:38.830Z</time>
      </trkpt>
      <trkpt lat="45.48551" lon="6.74519">
        <ele>2436.53799936</ele>
        <time>2013-06-29T09:02:43.730Z</time>
      </trkpt>
      <trkpt lat="45.48561" lon="6.74521">
        <ele>2437.48300032</ele>
        <time>2013-06-29T09:02:50.870Z</time>
      </trkpt>
      <trkpt lat="45.48567" lon="6.74522">
        <ele>2437.99299968</ele>
        <time>2013-06-29T09:02:55.970Z</time>
      </trkpt>
      <trkpt lat="45.48574" lon="6.74524">
        <ele>2439.77899904</ele>
        <time>2013-06-29T09:03:01.970Z</time>
      </trkpt>
      <trkpt lat="45.48582" lon="6.74525">
        <ele>2441.2601387109</ele>
        <time>2013-06-29T09:03:08.670Z</time>
      </trkpt>
      <trkpt lat="45.4859" lon="6.74527">
        <ele>2441.8536103332</ele>
        <time>2013-06-29T09:03:14.670Z</time>
      </trkpt>
      <trkpt lat="45.48597" lon="6.74527">
        <ele>2443.1284116088</ele>
        <time>2013-06-29T09:03:21.730Z</time>
      </trkpt>
      <trkpt lat="45.48605" lon="6.74528">
        <ele>2444.55800064</ele>
        <time>2013-06-29T09:03:28.830Z</time>
      </trkpt>
      <trkpt lat="45.48609" lon="6.74529">
        <ele>2445.35800064</ele>
        <time>2013-06-29T09:03:32.830Z</time>
      </trkpt>
      <trkpt lat="45.48616" lon="6.7453">
        <ele>2446</ele>
        <time>2013-06-29T09:03:38.770Z</time>
      </trkpt>
      <trkpt lat="45.4862" lon="6.7453">
        <ele>2446</ele>
        <time>2013-06-29T09:03:41.770Z</time>
      </trkpt>
      <trkpt lat="45.48627" lon="6.74531">
        <ele>2446.68000256</ele>
        <time>2013-06-29T09:03:47.740Z</time>
      </trkpt>
      <trkpt lat="45.48635" lon="6.74532">
        <ele>2449.47999744</ele>
        <time>2013-06-29T09:03:54.740Z</time>
      </trkpt>
      <trkpt lat="45.48642" lon="6.74533">
        <ele>2450.48300032</ele>
        <time>2013-06-29T09:04:00.870Z</time>
      </trkpt>
      <trkpt lat="45.48649" lon="6.74533">
        <ele>2451.185074049</ele>
        <time>2013-06-29T09:04:06.970Z</time>
      </trkpt>
      <trkpt lat="45.48653" lon="6.74533">
        <ele>2451.9810942029</ele>
        <time>2013-06-29T09:04:10.970Z</time>
      </trkpt>
      <trkpt lat="45.4866" lon="6.74533">
        <ele>2453</ele>
        <time>2013-06-29T09:04:16.760Z</time>
      </trkpt>
      <trkpt lat="45.48666" lon="6.74534">
        <ele>2453</ele>
        <time>2013-06-29T09:04:21.670Z</time>
      </trkpt>
      <trkpt lat="45.4867" lon="6.74535">
        <ele>2453</ele>
        <time>2013-06-29T09:04:25.860Z</time>
      </trkpt>
      <trkpt lat="45.48674" lon="6.74535">
        <ele>2453.2851405623</ele>
        <time>2013-06-29T09:04:28.970Z</time>
      </trkpt>
      <trkpt lat="45.48681" lon="6.74537">
        <ele>2453.8775106827</ele>
        <time>2013-06-29T09:04:34.870Z</time>
      </trkpt>
      <trkpt lat="45.48688" lon="6.74538">
        <ele>2454.753769245</ele>
        <time>2013-06-29T09:04:39.840Z</time>
      </trkpt>
      <trkpt lat="45.48694" lon="6.74539">
        <ele>2455.7587940474</ele>
        <time>2013-06-29T09:04:44.840Z</time>
      </trkpt>
      <trkpt lat="45.48701" lon="6.74539">
        <ele>2456</ele>
        <time>2013-06-29T09:04:49.970Z</time>
      </trkpt>
      <trkpt lat="45.48707" lon="6.7454">
        <ele>2456</ele>
        <time>2013-06-29T09:04:54.870Z</time>
      </trkpt>
      <trkpt lat="45.48715" lon="6.7454">
        <ele>2456.76600064</ele>
        <time>2013-06-29T09:04:59.870Z</time>
      </trkpt>
      <trkpt lat="45.48721" lon="6.74539">
        <ele>2457.76600064</ele>
        <time>2013-06-29T09:05:04.870Z</time>
      </trkpt>
      <trkpt lat="45.48728" lon="6.74539">
        <ele>2458</ele>
        <time>2013-06-29T09:05:09.870Z</time>
      </trkpt>
      <trkpt lat="45.48735" lon="6.7454">
        <ele>2458</ele>
        <time>2013-06-29T09:05:14.870Z</time>
      </trkpt>
      <trkpt lat="45.48741" lon="6.74541">
        <ele>2458.7376888482</ele>
        <time>2013-06-29T09:05:19.760Z</time>
      </trkpt>
      <trkpt lat="45.48748" lon="6.74544">
        <ele>2459.7427136506</ele>
        <time>2013-06-29T09:05:24.760Z</time>
      </trkpt>
      <trkpt lat="45.48755" lon="6.74543">
        <ele>2460.48300032</ele>
        <time>2013-06-29T09:05:30.870Z</time>
      </trkpt>
      <trkpt lat="45.48759" lon="6.74542">
        <ele>2460.78300032</ele>
        <time>2013-06-29T09:05:33.870Z</time>
      </trkpt>
      <trkpt lat="45.48767" lon="6.74542">
        <ele>2461.36600064</ele>
        <time>2013-06-29T09:05:37.870Z</time>
      </trkpt>
      <trkpt lat="45.48779" lon="6.7454">
        <ele>2462.56600064</ele>
        <time>2013-06-29T09:05:43.870Z</time>
      </trkpt>
      <trkpt lat="45.48789" lon="6.74537">
        <ele>2463</ele>
        <time>2013-06-29T09:05:48.840Z</time>
      </trkpt>
      <trkpt lat="45.48799" lon="6.74535">
        <ele>2463</ele>
        <time>2013-06-29T09:05:53.840Z</time>
      </trkpt>
      <trkpt lat="45.48809" lon="6.74532">
        <ele>2463.58599936</ele>
        <time>2013-06-29T09:05:58.970Z</time>
      </trkpt>
      <trkpt lat="45.48815" lon="6.74531">
        <ele>2464.36600064</ele>
        <time>2013-06-29T09:06:02.870Z</time>
      </trkpt>
      <trkpt lat="45.48827" lon="6.74527">
        <ele>2465</ele>
        <time>2013-06-29T09:06:10.050Z</time>
      </trkpt>
      <trkpt lat="45.48833" lon="6.74527">
        <ele>2465</ele>
        <time>2013-06-29T09:06:12.970Z</time>
      </trkpt>
      <trkpt lat="45.48841" lon="6.74525">
        <ele>2465.2020109501</ele>
        <time>2013-06-29T09:06:16.760Z</time>
      </trkpt>
      <trkpt lat="45.48849" lon="6.74524">
        <ele>2466.408040713</ele>
        <time>2013-06-29T09:06:20.760Z</time>
      </trkpt>
      <trkpt lat="45.48856" lon="6.74522">
        <ele>2467.6140704759</ele>
        <time>2013-06-29T09:06:24.760Z</time>
      </trkpt>
      <trkpt lat="45.48863" lon="6.7452">
        <ele>2468</ele>
        <time>2013-06-29T09:06:27.870Z</time>
      </trkpt>
      <trkpt lat="45.4887" lon="6.7452">
        <ele>2468</ele>
        <time>2013-06-29T09:06:31.870Z</time>
      </trkpt>
      <trkpt lat="45.48878" lon="6.74521">
        <ele>2468</ele>
        <time>2013-06-29T09:06:35.870Z</time>
      </trkpt>
      <trkpt lat="45.48885" lon="6.7452">
        <ele>2468.38300032</ele>
        <time>2013-06-29T09:06:39.870Z</time>
      </trkpt>
      <trkpt lat="45.48892" lon="6.74521">
        <ele>2468.68300032</ele>
        <time>2013-06-29T09:06:42.870Z</time>
      </trkpt>
      <trkpt lat="45.48898" lon="6.74521">
        <ele>2468.98300032</ele>
        <time>2013-06-29T09:06:45.870Z</time>
      </trkpt>
      <trkpt lat="45.48905" lon="6.74523">
        <ele>2469.76600064</ele>
        <time>2013-06-29T09:06:49.870Z</time>
      </trkpt>
      <trkpt lat="45.48913" lon="6.74524">
        <ele>2470.56600064</ele>
        <time>2013-06-29T09:06:53.870Z</time>
      </trkpt>
      <trkpt lat="45.48925" lon="6.74528">
        <ele>2471.38300032</ele>
        <time>2013-06-29T09:06:59.870Z</time>
      </trkpt>
      <trkpt lat="45.48933" lon="6.74533">
        <ele>2471.78300032</ele>
        <time>2013-06-29T09:07:03.870Z</time>
      </trkpt>
      <trkpt lat="45.48938" lon="6.74538">
        <ele>2472.4728533774</ele>
        <time>2013-06-29T09:07:10.830Z</time>
      </trkpt>
      <trkpt lat="45.48943" lon="6.74541">
        <ele>2472.9664369489</ele>
        <time>2013-06-29T09:07:15.830Z</time>
      </trkpt>
      <trkpt lat="45.48949" lon="6.74545">
        <ele>2473.3689522581</ele>
        <time>2013-06-29T09:07:19.830Z</time>
      </trkpt>
      <trkpt lat="45.48954" lon="6.74548">
        <ele>2473.7731858064</ele>
        <time>2013-06-29T09:07:23.840Z</time>
      </trkpt>
      <trkpt lat="45.4896" lon="6.74551">
        <ele>2474.1688441668</ele>
        <time>2013-06-29T09:07:27.770Z</time>
      </trkpt>
      <trkpt lat="45.48965" lon="6.74554">
        <ele>2474.671356568</ele>
        <time>2013-06-29T09:07:32.770Z</time>
      </trkpt>
      <trkpt lat="45.48973" lon="6.74557">
        <ele>2475.55800064</ele>
        <time>2013-06-29T09:07:38.830Z</time>
      </trkpt>
      <trkpt lat="45.48981" lon="6.74559">
        <ele>2476.75800064</ele>
        <time>2013-06-29T09:07:44.830Z</time>
      </trkpt>
      <trkpt lat="45.48989" lon="6.7456">
        <ele>2477.98599936</ele>
        <time>2013-06-29T09:07:50.970Z</time>
      </trkpt>
      <trkpt lat="45.48997" lon="6.74562">
        <ele>2479.18599936</ele>
        <time>2013-06-29T09:07:56.970Z</time>
      </trkpt>
      <trkpt lat="45.49003" lon="6.74564">
        <ele>2480.16600064</ele>
        <time>2013-06-29T09:08:01.870Z</time>
      </trkpt>
      <trkpt lat="45.49009" lon="6.74568">
        <ele>2480.96600064</ele>
        <time>2013-06-29T09:08:05.870Z</time>
      </trkpt>
      <trkpt lat="45.49013" lon="6.74572">
        <ele>2481.7576660708</ele>
        <time>2013-06-29T09:08:09.870Z</time>
      </trkpt>
      <trkpt lat="45.49021" lon="6.74578">
        <ele>2482.9446093153</ele>
        <time>2013-06-29T09:08:15.870Z</time>
      </trkpt>
      <trkpt lat="45.49028" lon="6.74583">
        <ele>2483.5642058044</ele>
        <time>2013-06-29T09:08:21.730Z</time>
      </trkpt>
      <trkpt lat="45.49034" lon="6.74586">
        <ele>2484.34599936</ele>
        <time>2013-06-29T09:08:27.770Z</time>
      </trkpt>
      <trkpt lat="45.49042" lon="6.74589">
        <ele>2485.52600064</ele>
        <time>2013-06-29T09:08:33.670Z</time>
      </trkpt>
      <trkpt lat="45.49049" lon="6.74591">
        <ele>2486.52199936</ele>
        <time>2013-06-29T09:08:38.650Z</time>
      </trkpt>
      <trkpt lat="45.49054" lon="6.74593">
        <ele>2487.36</ele>
        <time>2013-06-29T09:08:42.840Z</time>
      </trkpt>
      <trkpt lat="45.49062" lon="6.74595">
        <ele>2488</ele>
        <time>2013-06-29T09:08:48.970Z</time>
      </trkpt>
      <trkpt lat="45.49067" lon="6.74597">
        <ele>2488</ele>
        <time>2013-06-29T09:08:52.970Z</time>
      </trkpt>
      <trkpt lat="45.49072" lon="6.74599">
        <ele>2488.09299968</ele>
        <time>2013-06-29T09:08:56.970Z</time>
      </trkpt>
      <trkpt lat="45.49079" lon="6.74604">
        <ele>2488.59299968</ele>
        <time>2013-06-29T09:09:01.970Z</time>
      </trkpt>
      <trkpt lat="45.49085" lon="6.74607">
        <ele>2489.2794383844</ele>
        <time>2013-06-29T09:09:06.740Z</time>
      </trkpt>
      <trkpt lat="45.49092" lon="6.74611">
        <ele>2491.2754502033</ele>
        <time>2013-06-29T09:09:11.740Z</time>
      </trkpt>
      <trkpt lat="45.49099" lon="6.74615">
        <ele>2493</ele>
        <time>2013-06-29T09:09:16.730Z</time>
      </trkpt>
      <trkpt lat="45.49107" lon="6.74619">
        <ele>2493</ele>
        <time>2013-06-29T09:09:21.730Z</time>
      </trkpt>
      <trkpt lat="45.49111" lon="6.74621">
        <ele>2493</ele>
        <time>2013-06-29T09:09:24.730Z</time>
      </trkpt>
      <trkpt lat="45.49116" lon="6.74624">
        <ele>2493.25299968</ele>
        <time>2013-06-29T09:09:28.570Z</time>
      </trkpt>
      <trkpt lat="45.49121" lon="6.74628">
        <ele>2493.75299968</ele>
        <time>2013-06-29T09:09:33.570Z</time>
      </trkpt>
      <trkpt lat="45.49125" lon="6.74632">
        <ele>2494.18599936</ele>
        <time>2013-06-29T09:09:36.970Z</time>
      </trkpt>
      <trkpt lat="45.49128" lon="6.74637">
        <ele>2494.98599936</ele>
        <time>2013-06-29T09:09:40.970Z</time>
      </trkpt>
      <trkpt lat="45.49134" lon="6.74641">
        <ele>2496.3833160252</ele>
        <time>2013-06-29T09:09:47.970Z</time>
      </trkpt>
      <trkpt lat="45.49142" lon="6.74645">
        <ele>2497.9721933753</ele>
        <time>2013-06-29T09:09:55.970Z</time>
      </trkpt>
      <trkpt lat="45.49151" lon="6.74648">
        <ele>2498.6908354291</ele>
        <time>2013-06-29T09:10:02.970Z</time>
      </trkpt>
      <trkpt lat="45.49158" lon="6.74648">
        <ele>2498.8087217629</ele>
        <time>2013-06-29T09:10:07.970Z</time>
      </trkpt>
      <trkpt lat="45.49165" lon="6.74644">
        <ele>2498.4122895262</ele>
        <time>2013-06-29T09:10:11.970Z</time>
      </trkpt>
      <trkpt lat="45.4917" lon="6.7464">
        <ele>2498.1149653487</ele>
        <time>2013-06-29T09:10:14.970Z</time>
      </trkpt>
      <trkpt lat="45.49176" lon="6.74637">
        <ele>2497.0141109677</ele>
        <time>2013-06-29T09:10:17.760Z</time>
      </trkpt>
      <trkpt lat="45.49182" lon="6.74634">
        <ele>2495.1995948387</ele>
        <time>2013-06-29T09:10:20.760Z</time>
      </trkpt>
      <trkpt lat="45.49189" lon="6.74625">
        <ele>2492.78024</ele>
        <time>2013-06-29T09:10:24.760Z</time>
      </trkpt>
      <trkpt lat="45.49194" lon="6.74614">
        <ele>2489.84767625</ele>
        <time>2013-06-29T09:10:28.770Z</time>
      </trkpt>
      <trkpt lat="45.49201" lon="6.74603">
        <ele>2486.6824942647</ele>
        <time>2013-06-29T09:10:32.770Z</time>
      </trkpt>
      <trkpt lat="45.49208" lon="6.74593">
        <ele>2483.8269240486</ele>
        <time>2013-06-29T09:10:36.730Z</time>
      </trkpt>
      <trkpt lat="45.49212" lon="6.74583">
        <ele>2482.6123491498</ele>
        <time>2013-06-29T09:10:40.730Z</time>
      </trkpt>
      <trkpt lat="45.49215" lon="6.74574">
        <ele>2481.6376537652</ele>
        <time>2013-06-29T09:10:43.940Z</time>
      </trkpt>
      <trkpt lat="45.49219" lon="6.74565">
        <ele>2480.62800128</ele>
        <time>2013-06-29T09:10:46.970Z</time>
      </trkpt>
      <trkpt lat="45.49223" lon="6.74553">
        <ele>2479.02800128</ele>
        <time>2013-06-29T09:10:50.970Z</time>
      </trkpt>
      <trkpt lat="45.49229" lon="6.74542">
        <ele>2477.46799872</ele>
        <time>2013-06-29T09:10:54.870Z</time>
      </trkpt>
      <trkpt lat="45.49235" lon="6.74533">
        <ele>2475.30199808</ele>
        <time>2013-06-29T09:10:58.870Z</time>
      </trkpt>
      <trkpt lat="45.49242" lon="6.74524">
        <ele>2472.90199808</ele>
        <time>2013-06-29T09:11:02.870Z</time>
      </trkpt>
      <trkpt lat="45.49256" lon="6.74507">
        <ele>2467.6019873758</ele>
        <time>2013-06-29T09:11:12.870Z</time>
      </trkpt>
      <trkpt lat="45.49268" lon="6.74489">
        <ele>2463.7296499362</ele>
        <time>2013-06-29T09:11:23.620Z</time>
      </trkpt>
      <trkpt lat="45.49282" lon="6.7447">
        <ele>2460.72</ele>
        <time>2013-06-29T09:11:33.640Z</time>
      </trkpt>
      <trkpt lat="45.49297" lon="6.74451">
        <ele>2458.65400064</ele>
        <time>2013-06-29T09:11:42.770Z</time>
      </trkpt>
      <trkpt lat="45.49312" lon="6.74435">
        <ele>2456.25099904</ele>
        <time>2013-06-29T09:11:51.870Z</time>
      </trkpt>
      <trkpt lat="45.49329" lon="6.7442">
        <ele>2452.70800128</ele>
        <time>2013-06-29T09:12:01.770Z</time>
      </trkpt>
      <trkpt lat="45.49343" lon="6.74404">
        <ele>2449.1117789306</ele>
        <time>2013-06-29T09:12:10.770Z</time>
      </trkpt>
      <trkpt lat="45.49358" lon="6.74387">
        <ele>2446.2725465475</ele>
        <time>2013-06-29T09:12:19.690Z</time>
      </trkpt>
      <trkpt lat="45.49376" lon="6.74374">
        <ele>2444.28199936</ele>
        <time>2013-06-29T09:12:29.630Z</time>
      </trkpt>
      <trkpt lat="45.49393" lon="6.74359">
        <ele>2441.6952223108</ele>
        <time>2013-06-29T09:12:38.660Z</time>
      </trkpt>
      <trkpt lat="45.49408" lon="6.74346">
        <ele>2437.6405616064</ele>
        <time>2013-06-29T09:12:47.870Z</time>
      </trkpt>
      <trkpt lat="45.49424" lon="6.7433">
        <ele>2435.5283599692</ele>
        <time>2013-06-29T09:12:57.620Z</time>
      </trkpt>
      <trkpt lat="45.49442" lon="6.74323">
        <ele>2432.26599936</ele>
        <time>2013-06-29T09:13:09.760Z</time>
      </trkpt>
      <trkpt lat="45.49459" lon="6.74311">
        <ele>2427.663317656</ele>
        <time>2013-06-29T09:13:22.730Z</time>
      </trkpt>
      <trkpt lat="45.49473" lon="6.74297">
        <ele>2422.512</ele>
        <time>2013-06-29T09:13:34.760Z</time>
      </trkpt>
      <trkpt lat="45.49488" lon="6.74286">
        <ele>2418.8711265922</ele>
        <time>2013-06-29T09:13:43.870Z</time>
      </trkpt>
      <trkpt lat="45.49505" lon="6.74286">
        <ele>2415.651650482</ele>
        <time>2013-06-29T09:13:53.870Z</time>
      </trkpt>
      <trkpt lat="45.49514" lon="6.74269">
        <ele>2411.4417899118</ele>
        <time>2013-06-29T09:14:13.870Z</time>
      </trkpt>
      <trkpt lat="45.49521" lon="6.74251">
        <ele>2404.55199744</ele>
        <time>2013-06-29T09:14:39.660Z</time>
      </trkpt>
      <trkpt lat="45.49531" lon="6.74233">
        <ele>2396.996</ele>
        <time>2013-06-29T09:15:01.760Z</time>
      </trkpt>
      <trkpt lat="45.49537" lon="6.7421">
        <ele>2389.3417071464</ele>
        <time>2013-06-29T09:15:21.590Z</time>
      </trkpt>
      <trkpt lat="45.49549" lon="6.74195">
        <ele>2381.1550016</ele>
        <time>2013-06-29T09:15:39.730Z</time>
      </trkpt>
      <trkpt lat="45.49564" lon="6.74185">
        <ele>2377.2015973164</ele>
        <time>2013-06-29T09:15:47.640Z</time>
      </trkpt>
      <trkpt lat="45.49579" lon="6.74179">
        <ele>2371.4569141207</ele>
        <time>2013-06-29T09:16:03.760Z</time>
      </trkpt>
      <trkpt lat="45.49586" lon="6.74175">
        <ele>2369</ele>
        <time>2013-06-29T09:16:39.630Z</time>
      </trkpt>
      <trkpt lat="45.496" lon="6.7417">
        <ele>2365.56399872</ele>
        <time>2013-06-29T09:17:04.630Z</time>
      </trkpt>
      <trkpt lat="45.49617" lon="6.74166">
        <ele>2362.6864322617</ele>
        <time>2013-06-29T09:17:17.650Z</time>
      </trkpt>
      <trkpt lat="45.49635" lon="6.74164">
        <ele>2358.712</ele>
        <time>2013-06-29T09:17:31.760Z</time>
      </trkpt>
      <trkpt lat="45.49652" lon="6.74159">
        <ele>2354.384</ele>
        <time>2013-06-29T09:17:44.760Z</time>
      </trkpt>
      <trkpt lat="45.49665" lon="6.7416">
        <ele>2353.03187251</ele>
        <time>2013-06-29T09:19:45.760Z</time>
      </trkpt>
      <trkpt lat="45.4968" lon="6.74156">
        <ele>2350.796</ele>
        <time>2013-06-29T09:19:56.720Z</time>
      </trkpt>
      <trkpt lat="45.49692" lon="6.74152">
        <ele>2348.12600192</ele>
        <time>2013-06-29T09:20:05.620Z</time>
      </trkpt>
      <trkpt lat="45.49708" lon="6.74149">
        <ele>2346.8598610065</ele>
        <time>2013-06-29T09:20:16.760Z</time>
      </trkpt>
      <trkpt lat="45.49722" lon="6.7415">
        <ele>2345.0580574732</ele>
        <time>2013-06-29T09:20:25.760Z</time>
      </trkpt>
      <trkpt lat="45.49735" lon="6.74154">
        <ele>2341.5085096269</ele>
        <time>2013-06-29T09:20:34.770Z</time>
      </trkpt>
      <trkpt lat="45.49747" lon="6.7416">
        <ele>2338.38100096</ele>
        <time>2013-06-29T09:20:44.770Z</time>
      </trkpt>
      <trkpt lat="45.49761" lon="6.74167">
        <ele>2337.03799936</ele>
        <time>2013-06-29T09:21:05.660Z</time>
      </trkpt>
      <trkpt lat="45.49777" lon="6.74175">
        <ele>2334.6710388146</ele>
        <time>2013-06-29T09:21:17.760Z</time>
      </trkpt>
      <trkpt lat="45.4979" lon="6.74182">
        <ele>2331.1786454747</ele>
        <time>2013-06-29T09:21:29.690Z</time>
      </trkpt>
      <trkpt lat="45.49804" lon="6.74188">
        <ele>2324.6933910659</ele>
        <time>2013-06-29T09:21:42.660Z</time>
      </trkpt>
      <trkpt lat="45.49821" lon="6.7419">
        <ele>2317.70199808</ele>
        <time>2013-06-29T09:21:54.870Z</time>
      </trkpt>
      <trkpt lat="45.49838" lon="6.74195">
        <ele>2312.1213924367</ele>
        <time>2013-06-29T09:22:10.760Z</time>
      </trkpt>
      <trkpt lat="45.49851" lon="6.74201">
        <ele>2307.3185925408</ele>
        <time>2013-06-29T09:22:22.760Z</time>
      </trkpt>
      <trkpt lat="45.4987" lon="6.742">
        <ele>2299.35399808</ele>
        <time>2013-06-29T09:22:44.860Z</time>
      </trkpt>
      <trkpt lat="45.49884" lon="6.74185">
        <ele>2297.6900032</ele>
        <time>2013-06-29T09:22:56.660Z</time>
      </trkpt>
      <trkpt lat="45.49898" lon="6.7417">
        <ele>2292.6368161232</ele>
        <time>2013-06-29T09:23:09.690Z</time>
      </trkpt>
      <trkpt lat="45.49906" lon="6.74157">
        <ele>2291.5407039869</ele>
        <time>2013-06-29T09:23:20.660Z</time>
      </trkpt>
      <trkpt lat="45.49913" lon="6.74138">
        <ele>2287.91999744</ele>
        <time>2013-06-29T09:23:33.740Z</time>
      </trkpt>
      <trkpt lat="45.49922" lon="6.74118">
        <ele>2285.8336696774</ele>
        <time>2013-06-29T09:23:47.770Z</time>
      </trkpt>
      <trkpt lat="45.49937" lon="6.74113">
        <ele>2285</ele>
        <time>2013-06-29T09:23:58.660Z</time>
      </trkpt>
      <trkpt lat="45.49946" lon="6.74109">
        <ele>2285</ele>
        <time>2013-06-29T09:24:04.660Z</time>
      </trkpt>
      <trkpt lat="45.49959" lon="6.74101">
        <ele>2285</ele>
        <time>2013-06-29T09:24:13.770Z</time>
      </trkpt>
      <trkpt lat="45.49972" lon="6.74091">
        <ele>2285</ele>
        <time>2013-06-29T09:24:22.760Z</time>
      </trkpt>
      <trkpt lat="45.49988" lon="6.74083">
        <ele>2281.956781039</ele>
        <time>2013-06-29T09:24:33.660Z</time>
      </trkpt>
      <trkpt lat="45.50001" lon="6.74074">
        <ele>2281</ele>
        <time>2013-06-29T09:24:43.770Z</time>
      </trkpt>
      <trkpt lat="45.50016" lon="6.7406">
        <ele>2278.1849984</ele>
        <time>2013-06-29T09:24:51.670Z</time>
      </trkpt>
      <trkpt lat="45.50023" lon="6.74042">
        <ele>2274</ele>
        <time>2013-06-29T09:25:08.690Z</time>
      </trkpt>
      <trkpt lat="45.50039" lon="6.74042">
        <ele>2273.6412051807</ele>
        <time>2013-06-29T09:25:19.660Z</time>
      </trkpt>
      <trkpt lat="45.50055" lon="6.74044">
        <ele>2271.83399936</ele>
        <time>2013-06-29T09:25:31.870Z</time>
      </trkpt>
      <trkpt lat="45.50071" lon="6.74039">
        <ele>2269.69799936</ele>
        <time>2013-06-29T09:25:42.550Z</time>
      </trkpt>
      <trkpt lat="45.50088" lon="6.74037">
        <ele>2265.0350016</ele>
        <time>2013-06-29T09:25:53.970Z</time>
      </trkpt>
      <trkpt lat="45.50101" lon="6.74027">
        <ele>2259.6844202824</ele>
        <time>2013-06-29T09:26:17.660Z</time>
      </trkpt>
      <trkpt lat="45.50116" lon="6.74021">
        <ele>2253.93500032</ele>
        <time>2013-06-29T09:26:36.690Z</time>
      </trkpt>
      <trkpt lat="45.50129" lon="6.7401">
        <ele>2252.51699968</ele>
        <time>2013-06-29T09:26:50.870Z</time>
      </trkpt>
      <trkpt lat="45.5014" lon="6.73999">
        <ele>2249.5849984</ele>
        <time>2013-06-29T09:27:00.870Z</time>
      </trkpt>
      <trkpt lat="45.50151" lon="6.73982">
        <ele>2246.2363461414</ele>
        <time>2013-06-29T09:27:13.730Z</time>
      </trkpt>
      <trkpt lat="45.50167" lon="6.7397">
        <ele>2238.49300096</ele>
        <time>2013-06-29T09:27:27.730Z</time>
      </trkpt>
      <trkpt lat="45.50183" lon="6.73963">
        <ele>2234.88100096</ele>
        <time>2013-06-29T09:27:39.770Z</time>
      </trkpt>
      <trkpt lat="45.50199" lon="6.73961">
        <ele>2231.59000192</ele>
        <time>2013-06-29T09:27:50.740Z</time>
      </trkpt>
      <trkpt lat="45.50212" lon="6.73962">
        <ele>2228.55099904</ele>
        <time>2013-06-29T09:28:00.870Z</time>
      </trkpt>
      <trkpt lat="45.50225" lon="6.73965">
        <ele>2226.1343287194</ele>
        <time>2013-06-29T09:28:14.740Z</time>
      </trkpt>
      <trkpt lat="45.50242" lon="6.73969">
        <ele>2216.6350016</ele>
        <time>2013-06-29T09:28:32.770Z</time>
      </trkpt>
      <trkpt lat="45.50257" lon="6.73975">
        <ele>2211.03399936</ele>
        <time>2013-06-29T09:28:50.870Z</time>
      </trkpt>
      <trkpt lat="45.5027" lon="6.73975">
        <ele>2208.25099904</ele>
        <time>2013-06-29T09:29:01.870Z</time>
      </trkpt>
      <trkpt lat="45.50283" lon="6.73967">
        <ele>2205.31044786</ele>
        <time>2013-06-29T09:29:14.530Z</time>
      </trkpt>
      <trkpt lat="45.50298" lon="6.73954">
        <ele>2198.96</ele>
        <time>2013-06-29T09:29:28.640Z</time>
      </trkpt>
      <trkpt lat="45.5031" lon="6.73944">
        <ele>2194.656</ele>
        <time>2013-06-29T09:29:42.760Z</time>
      </trkpt>
      <trkpt lat="45.50318" lon="6.73936">
        <ele>2193.41699968</ele>
        <time>2013-06-29T09:29:51.870Z</time>
      </trkpt>
      <trkpt lat="45.50326" lon="6.73928">
        <ele>2189.1552201091</ele>
        <time>2013-06-29T09:30:00.870Z</time>
      </trkpt>
      <trkpt lat="45.50329" lon="6.73921">
        <ele>2184.79899904</ele>
        <time>2013-06-29T09:30:06.760Z</time>
      </trkpt>
      <trkpt lat="45.50331" lon="6.73915">
        <ele>2183.29899904</ele>
        <time>2013-06-29T09:30:11.760Z</time>
      </trkpt>
      <trkpt lat="45.50333" lon="6.7391">
        <ele>2181.7722289781</ele>
        <time>2013-06-29T09:30:16.660Z</time>
      </trkpt>
      <trkpt lat="45.50334" lon="6.73904">
        <ele>2180.1738268688</ele>
        <time>2013-06-29T09:30:20.660Z</time>
      </trkpt>
      <trkpt lat="45.50334" lon="6.73897">
        <ele>2178.0959041266</ele>
        <time>2013-06-29T09:30:25.860Z</time>
      </trkpt>
      <trkpt lat="45.50335" lon="6.73891">
        <ele>2176.8923538721</ele>
        <time>2013-06-29T09:30:29.770Z</time>
      </trkpt>
      <trkpt lat="45.50336" lon="6.73884">
        <ele>2175.0814898469</ele>
        <time>2013-06-29T09:30:35.770Z</time>
      </trkpt>
      <trkpt lat="45.50338" lon="6.73877">
        <ele>2173.58100096</ele>
        <time>2013-06-29T09:30:40.770Z</time>
      </trkpt>
      <trkpt lat="45.50341" lon="6.73871">
        <ele>2171.78100096</ele>
        <time>2013-06-29T09:30:46.770Z</time>
      </trkpt>
      <trkpt lat="45.50345" lon="6.73867">
        <ele>2170.58100096</ele>
        <time>2013-06-29T09:30:50.770Z</time>
      </trkpt>
      <trkpt lat="45.5035" lon="6.73866">
        <ele>2169.38100096</ele>
        <time>2013-06-29T09:30:54.770Z</time>
      </trkpt>
      <trkpt lat="45.50356" lon="6.73864">
        <ele>2167.88100096</ele>
        <time>2013-06-29T09:30:59.770Z</time>
      </trkpt>
      <trkpt lat="45.50363" lon="6.73865">
        <ele>2166.08100096</ele>
        <time>2013-06-29T09:31:05.770Z</time>
      </trkpt>
      <trkpt lat="45.5037" lon="6.73868">
        <ele>2164.1174136095</ele>
        <time>2013-06-29T09:31:10.770Z</time>
      </trkpt>
      <trkpt lat="45.50378" lon="6.7387">
        <ele>2162.1273632246</ele>
        <time>2013-06-29T09:31:15.770Z</time>
      </trkpt>
      <trkpt lat="45.50385" lon="6.7387">
        <ele>2161.5336684917</ele>
        <time>2013-06-29T09:31:20.730Z</time>
      </trkpt>
      <trkpt lat="45.50395" lon="6.73871">
        <ele>2160.74099968</ele>
        <time>2013-06-29T09:31:28.630Z</time>
      </trkpt>
      <trkpt lat="45.50413" lon="6.73869">
        <ele>2158.87599872</ele>
        <time>2013-06-29T09:31:41.660Z</time>
      </trkpt>
      <trkpt lat="45.50427" lon="6.7386">
        <ele>2153.84099968</ele>
        <time>2013-06-29T09:31:57.630Z</time>
      </trkpt>
      <trkpt lat="45.50439" lon="6.73843">
        <ele>2149.9929632183</ele>
        <time>2013-06-29T09:32:17.760Z</time>
      </trkpt>
      <trkpt lat="45.50454" lon="6.73837">
        <ele>2143.03399936</ele>
        <time>2013-06-29T09:32:35.870Z</time>
      </trkpt>
      <trkpt lat="45.50468" lon="6.7383">
        <ele>2136.4855697467</ele>
        <time>2013-06-29T09:32:54.870Z</time>
      </trkpt>
      <trkpt lat="45.50484" lon="6.73824">
        <ele>2131.174872386</ele>
        <time>2013-06-29T09:33:20.630Z</time>
      </trkpt>
      <trkpt lat="45.50487" lon="6.73838">
        <ele>2127.4894890124</ele>
        <time>2013-06-29T09:33:38.600Z</time>
      </trkpt>
      <trkpt lat="45.50501" lon="6.73824">
        <ele>2120.56399872</ele>
        <time>2013-06-29T09:34:04.630Z</time>
      </trkpt>
      <trkpt lat="45.50516" lon="6.73823">
        <ele>2115.86799872</ele>
        <time>2013-06-29T09:34:28.870Z</time>
      </trkpt>
      <trkpt lat="45.50528" lon="6.73826">
        <ele>2112.6299968</ele>
        <time>2013-06-29T09:34:46.780Z</time>
      </trkpt>
      <trkpt lat="45.50544" lon="6.73828">
        <ele>2106.30500096</ele>
        <time>2013-06-29T09:35:01.690Z</time>
      </trkpt>
      <trkpt lat="45.50557" lon="6.73819">
        <ele>2102.6573150508</ele>
        <time>2013-06-29T09:35:22.760Z</time>
      </trkpt>
      <trkpt lat="45.50568" lon="6.73832">
        <ele>2097.1552226564</ele>
        <time>2013-06-29T09:35:38.870Z</time>
      </trkpt>
      <trkpt lat="45.50575" lon="6.73846">
        <ele>2092.6874369648</ele>
        <time>2013-06-29T09:35:53.760Z</time>
      </trkpt>
      <trkpt lat="45.50589" lon="6.73837">
        <ele>2084.956781039</ele>
        <time>2013-06-29T09:36:23.660Z</time>
      </trkpt>
      <trkpt lat="45.50598" lon="6.73822">
        <ele>2079.15199744</ele>
        <time>2013-06-29T09:36:45.660Z</time>
      </trkpt>
      <trkpt lat="45.50605" lon="6.73839">
        <ele>2077.15399808</ele>
        <time>2013-06-29T09:36:58.860Z</time>
      </trkpt>
      <trkpt lat="45.50616" lon="6.73837">
        <ele>2073.0716418139</ele>
        <time>2013-06-29T09:37:15.730Z</time>
      </trkpt>
      <trkpt lat="45.5062" lon="6.73814">
        <ele>2068.34499968</ele>
        <time>2013-06-29T09:37:32.590Z</time>
      </trkpt>
      <trkpt lat="45.50634" lon="6.73822">
        <ele>2064.112</ele>
        <time>2013-06-29T09:37:50.760Z</time>
      </trkpt>
      <trkpt lat="45.50647" lon="6.73822">
        <ele>2057.0328355129</ele>
        <time>2013-06-29T09:38:15.760Z</time>
      </trkpt>
      <trkpt lat="45.50641" lon="6.73806">
        <ele>2052.1955881768</ele>
        <time>2013-06-29T09:38:25.670Z</time>
      </trkpt>
      <trkpt lat="45.50646" lon="6.73785">
        <ele>2050.0961975767</ele>
        <time>2013-06-29T09:38:39.860Z</time>
      </trkpt>
      <trkpt lat="45.50641" lon="6.7377">
        <ele>2046.6342915788</ele>
        <time>2013-06-29T09:39:09.730Z</time>
      </trkpt>
      <trkpt lat="45.50635" lon="6.73763">
        <ele>2044.5751731745</ele>
        <time>2013-06-29T09:39:19.660Z</time>
      </trkpt>
      <trkpt lat="45.50629" lon="6.73756">
        <ele>2042.5570155215</ele>
        <time>2013-06-29T09:39:24.660Z</time>
      </trkpt>
      <trkpt lat="45.50625" lon="6.73736">
        <ele>2042</ele>
        <time>2013-06-29T09:39:36.660Z</time>
      </trkpt>
      <trkpt lat="45.50613" lon="6.73728">
        <ele>2040.87000064</ele>
        <time>2013-06-29T09:39:51.690Z</time>
      </trkpt>
      <trkpt lat="45.50607" lon="6.73713">
        <ele>2035.0849984</ele>
        <time>2013-06-29T09:40:05.870Z</time>
      </trkpt>
      <trkpt lat="45.50621" lon="6.73696">
        <ele>2029.6253801008</ele>
        <time>2013-06-29T09:40:20.660Z</time>
      </trkpt>
      <trkpt lat="45.50631" lon="6.73681">
        <ele>2026.14</ele>
        <time>2013-06-29T09:40:37.760Z</time>
      </trkpt>
      <trkpt lat="45.50643" lon="6.73695">
        <ele>2021.82</ele>
        <time>2013-06-29T09:40:46.640Z</time>
      </trkpt>
      <trkpt lat="45.50656" lon="6.73708">
        <ele>2018.456</ele>
        <time>2013-06-29T09:40:58.760Z</time>
      </trkpt>
      <trkpt lat="45.50671" lon="6.73716">
        <ele>2014.4718869076</ele>
        <time>2013-06-29T09:41:18.760Z</time>
      </trkpt>
      <trkpt lat="45.5068" lon="6.73724">
        <ele>2010.326635312</ele>
        <time>2013-06-29T09:41:32.740Z</time>
      </trkpt>
      <trkpt lat="45.50694" lon="6.73735">
        <ele>2006.39300096</ele>
        <time>2013-06-29T09:41:44.730Z</time>
      </trkpt>
      <trkpt lat="45.50698" lon="6.73723">
        <ele>1999.912</ele>
        <time>2013-06-29T09:42:03.760Z</time>
      </trkpt>
      <trkpt lat="45.50706" lon="6.73719">
        <ele>1995.744723057</ele>
        <time>2013-06-29T09:42:18.630Z</time>
      </trkpt>
      <trkpt lat="45.50713" lon="6.73728">
        <ele>1993.651351417</ele>
        <time>2013-06-29T09:42:28.740Z</time>
      </trkpt>
      <trkpt lat="45.50718" lon="6.73738">
        <ele>1988.9159133803</ele>
        <time>2013-06-29T09:42:39.660Z</time>
      </trkpt>
      <trkpt lat="45.50726" lon="6.73746">
        <ele>1986.09400064</ele>
        <time>2013-06-29T09:42:50.570Z</time>
      </trkpt>
      <trkpt lat="45.50726" lon="6.73734">
        <ele>1981.1499968</ele>
        <time>2013-06-29T09:43:03.740Z</time>
      </trkpt>
      <trkpt lat="45.50725" lon="6.73722">
        <ele>1978.489551121</ele>
        <time>2013-06-29T09:43:13.630Z</time>
      </trkpt>
      <trkpt lat="45.50727" lon="6.7371">
        <ele>1978</ele>
        <time>2013-06-29T09:43:21.660Z</time>
      </trkpt>
      <trkpt lat="45.50729" lon="6.73699">
        <ele>1973.91899776</ele>
        <time>2013-06-29T09:43:31.870Z</time>
      </trkpt>
      <trkpt lat="45.5073" lon="6.73689">
        <ele>1970.08</ele>
        <time>2013-06-29T09:43:40.640Z</time>
      </trkpt>
      <trkpt lat="45.50739" lon="6.73692">
        <ele>1967.88100096</ele>
        <time>2013-06-29T09:43:49.770Z</time>
      </trkpt>
      <trkpt lat="45.50745" lon="6.73696">
        <ele>1966.38100096</ele>
        <time>2013-06-29T09:43:54.770Z</time>
      </trkpt>
      <trkpt lat="45.50752" lon="6.73703">
        <ele>1964.25099904</ele>
        <time>2013-06-29T09:44:01.870Z</time>
      </trkpt>
      <trkpt lat="45.50757" lon="6.73709">
        <ele>1962.7447868934</ele>
        <time>2013-06-29T09:44:08.610Z</time>
      </trkpt>
      <trkpt lat="45.50763" lon="6.73686">
        <ele>1952.87600128</ele>
        <time>2013-06-29T09:44:36.660Z</time>
      </trkpt>
      <trkpt lat="45.50774" lon="6.73691">
        <ele>1946.7350016</ele>
        <time>2013-06-29T09:44:54.570Z</time>
      </trkpt>
      <trkpt lat="45.5078" lon="6.73701">
        <ele>1943.98100096</ele>
        <time>2013-06-29T09:45:02.770Z</time>
      </trkpt>
      <trkpt lat="45.5079" lon="6.73709">
        <ele>1941.5313440896</ele>
        <time>2013-06-29T09:45:09.730Z</time>
      </trkpt>
      <trkpt lat="45.50795" lon="6.73702">
        <ele>1938.4964816092</ele>
        <time>2013-06-29T09:45:17.760Z</time>
      </trkpt>
      <trkpt lat="45.50793" lon="6.73681">
        <ele>1935.256</ele>
        <time>2013-06-29T09:45:29.760Z</time>
      </trkpt>
      <trkpt lat="45.50802" lon="6.73674">
        <ele>1932.6550016</ele>
        <time>2013-06-29T09:45:46.730Z</time>
      </trkpt>
      <trkpt lat="45.5081" lon="6.73677">
        <ele>1928.6550016</ele>
        <time>2013-06-29T09:45:54.730Z</time>
      </trkpt>
      <trkpt lat="45.50814" lon="6.73678">
        <ele>1926.90800128</ele>
        <time>2013-06-29T09:45:58.770Z</time>
      </trkpt>
      <trkpt lat="45.50832" lon="6.73675">
        <ele>1922.6593197014</ele>
        <time>2013-06-29T09:46:17.760Z</time>
      </trkpt>
      <trkpt lat="45.50838" lon="6.73675">
        <ele>1921.6573150508</ele>
        <time>2013-06-29T09:46:22.760Z</time>
      </trkpt>
      <trkpt lat="45.50842" lon="6.73675">
        <ele>1921.0561122604</ele>
        <time>2013-06-29T09:46:25.760Z</time>
      </trkpt>
      <trkpt lat="45.50848" lon="6.73675">
        <ele>1920.61699968</ele>
        <time>2013-06-29T09:46:29.870Z</time>
      </trkpt>
      <trkpt lat="45.50851" lon="6.73672">
        <ele>1920.21699968</ele>
        <time>2013-06-29T09:46:33.870Z</time>
      </trkpt>
      <trkpt lat="45.50856" lon="6.7367">
        <ele>1919.82099968</ele>
        <time>2013-06-29T09:46:37.830Z</time>
      </trkpt>
      <trkpt lat="45.50869" lon="6.73652">
        <ele>1917.68199936</ele>
        <time>2013-06-29T09:46:52.630Z</time>
      </trkpt>
      <trkpt lat="45.50886" lon="6.73655">
        <ele>1912.8363450602</ele>
        <time>2013-06-29T09:47:07.760Z</time>
      </trkpt>
      <trkpt lat="45.50896" lon="6.73636">
        <ele>1910.87600128</ele>
        <time>2013-06-29T09:47:26.660Z</time>
      </trkpt>
      <trkpt lat="45.50911" lon="6.73638">
        <ele>1908.83500032</ele>
        <time>2013-06-29T09:47:37.690Z</time>
      </trkpt>
      <trkpt lat="45.50926" lon="6.7364">
        <ele>1904.5849984</ele>
        <time>2013-06-29T09:47:52.870Z</time>
      </trkpt>
      <trkpt lat="45.50938" lon="6.73646">
        <ele>1903</ele>
        <time>2013-06-29T09:48:04.870Z</time>
      </trkpt>
      <trkpt lat="45.50953" lon="6.73651">
        <ele>1903</ele>
        <time>2013-06-29T09:48:23.760Z</time>
      </trkpt>
      <trkpt lat="45.50966" lon="6.73647">
        <ele>1903</ele>
        <time>2013-06-29T09:48:34.830Z</time>
      </trkpt>
      <trkpt lat="45.50981" lon="6.73653">
        <ele>1900.6571990866</ele>
        <time>2013-06-29T09:48:47.870Z</time>
      </trkpt>
      <trkpt lat="45.50985" lon="6.73668">
        <ele>1894.6874356784</ele>
        <time>2013-06-29T09:49:22.620Z</time>
      </trkpt>
      <trkpt lat="45.50979" lon="6.73673">
        <ele>1894.5384612472</ele>
        <time>2013-06-29T09:49:28.770Z</time>
      </trkpt>
      <trkpt lat="45.50973" lon="6.73676">
        <ele>1895.9585804867</ele>
        <time>2013-06-29T09:49:35.970Z</time>
      </trkpt>
      <trkpt lat="45.50977" lon="6.73683">
        <ele>1896.3316431113</ele>
        <time>2013-06-29T09:50:02.770Z</time>
      </trkpt>
      <trkpt lat="45.50988" lon="6.7368">
        <ele>1896.4690609379</ele>
        <time>2013-06-29T09:50:10.740Z</time>
      </trkpt>
      <trkpt lat="45.50992" lon="6.73673">
        <ele>1896.9398810035</ele>
        <time>2013-06-29T09:50:16.660Z</time>
      </trkpt>
      <trkpt lat="45.50999" lon="6.73664">
        <ele>1896.0380755354</ele>
        <time>2013-06-29T09:50:25.660Z</time>
      </trkpt>
      <trkpt lat="45.51008" lon="6.73648">
        <ele>1894.9382594332</ele>
        <time>2013-06-29T09:50:36.770Z</time>
      </trkpt>
      <trkpt lat="45.51023" lon="6.73634">
        <ele>1894.128542834</ele>
        <time>2013-06-29T09:50:44.770Z</time>
      </trkpt>
      <trkpt lat="45.51033" lon="6.7363">
        <ele>1892.90800128</ele>
        <time>2013-06-29T09:50:48.770Z</time>
      </trkpt>
      <trkpt lat="45.51049" lon="6.73626">
        <ele>1890.50800128</ele>
        <time>2013-06-29T09:50:54.770Z</time>
      </trkpt>
      <trkpt lat="45.51058" lon="6.73622">
        <ele>1889.18100096</ele>
        <time>2013-06-29T09:50:58.770Z</time>
      </trkpt>
      <trkpt lat="45.51068" lon="6.73619">
        <ele>1887.98100096</ele>
        <time>2013-06-29T09:51:02.770Z</time>
      </trkpt>
      <trkpt lat="45.51076" lon="6.73616">
        <ele>1887.05099904</ele>
        <time>2013-06-29T09:51:05.870Z</time>
      </trkpt>
      <trkpt lat="45.51086" lon="6.73613">
        <ele>1886.2378100658</ele>
        <time>2013-06-29T09:51:09.870Z</time>
      </trkpt>
      <trkpt lat="45.51097" lon="6.7361">
        <ele>1885.0437798348</ele>
        <time>2013-06-29T09:51:15.870Z</time>
      </trkpt>
      <trkpt lat="45.51104" lon="6.73607">
        <ele>1883.2211028837</ele>
        <time>2013-06-29T09:51:19.630Z</time>
      </trkpt>
      <trkpt lat="45.51112" lon="6.73604">
        <ele>1880.7085408777</ele>
        <time>2013-06-29T09:51:24.630Z</time>
      </trkpt>
      <trkpt lat="45.51118" lon="6.73598">
        <ele>1879.45199872</ele>
        <time>2013-06-29T09:51:28.780Z</time>
      </trkpt>
      <trkpt lat="45.51125" lon="6.73592">
        <ele>1878.65400064</ele>
        <time>2013-06-29T09:51:32.770Z</time>
      </trkpt>
      <trkpt lat="45.51143" lon="6.73582">
        <ele>1876.8541464469</ele>
        <time>2013-06-29T09:51:46.770Z</time>
      </trkpt>
      <trkpt lat="45.51159" lon="6.73577">
        <ele>1874.8318318857</ele>
        <time>2013-06-29T09:51:57.730Z</time>
      </trkpt>
      <trkpt lat="45.51165" lon="6.73576">
        <ele>1874.5315316816</ele>
        <time>2013-06-29T09:52:00.730Z</time>
      </trkpt>
      <trkpt lat="45.51176" lon="6.73569">
        <ele>1874</ele>
        <time>2013-06-29T09:52:10.630Z</time>
      </trkpt>
      <trkpt lat="45.5118" lon="6.73567">
        <ele>1874</ele>
        <time>2013-06-29T09:52:13.670Z</time>
      </trkpt>
      <trkpt lat="45.51184" lon="6.73565">
        <ele>1873.9356784127</ele>
        <time>2013-06-29T09:52:16.730Z</time>
      </trkpt>
      <trkpt lat="45.51187" lon="6.73564">
        <ele>1873.7346734522</ele>
        <time>2013-06-29T09:52:18.730Z</time>
      </trkpt>
      <trkpt lat="45.51192" lon="6.73564">
        <ele>1873.4331660114</ele>
        <time>2013-06-29T09:52:21.730Z</time>
      </trkpt>
      <trkpt lat="45.51196" lon="6.73563">
        <ele>1873.0311560905</ele>
        <time>2013-06-29T09:52:25.730Z</time>
      </trkpt>
      <trkpt lat="45.512" lon="6.73562">
        <ele>1872.23399936</ele>
        <time>2013-06-29T09:52:29.870Z</time>
      </trkpt>
      <trkpt lat="45.5121" lon="6.73561">
        <ele>1870.9313435801</ele>
        <time>2013-06-29T09:52:36.730Z</time>
      </trkpt>
      <trkpt lat="45.51223" lon="6.73561">
        <ele>1870.1353234262</ele>
        <time>2013-06-29T09:52:44.730Z</time>
      </trkpt>
      <trkpt lat="45.51236" lon="6.73566">
        <ele>1869.0854267866</ele>
        <time>2013-06-29T09:52:50.640Z</time>
      </trkpt>
      <trkpt lat="45.51248" lon="6.73572">
        <ele>1867.78100096</ele>
        <time>2013-06-29T09:52:56.770Z</time>
      </trkpt>
      <trkpt lat="45.51258" lon="6.73577">
        <ele>1865.35399808</ele>
        <time>2013-06-29T09:53:04.860Z</time>
      </trkpt>
      <trkpt lat="45.51265" lon="6.73578">
        <ele>1863.4616916893</ele>
        <time>2013-06-29T09:53:13.770Z</time>
      </trkpt>
      <trkpt lat="45.51273" lon="6.7358">
        <ele>1863</ele>
        <time>2013-06-29T09:53:20.730Z</time>
      </trkpt>
      <trkpt lat="45.51283" lon="6.73584">
        <ele>1862.43399936</ele>
        <time>2013-06-29T09:53:28.870Z</time>
      </trkpt>
      <trkpt lat="45.51292" lon="6.73586">
        <ele>1860.928</ele>
        <time>2013-06-29T09:53:36.760Z</time>
      </trkpt>
      <trkpt lat="45.51302" lon="6.73589">
        <ele>1860</ele>
        <time>2013-06-29T09:53:47.870Z</time>
      </trkpt>
      <trkpt lat="45.51312" lon="6.7359">
        <ele>1860</ele>
        <time>2013-06-29T09:53:54.870Z</time>
      </trkpt>
      <trkpt lat="45.51322" lon="6.7359">
        <ele>1860</ele>
        <time>2013-06-29T09:54:02.570Z</time>
      </trkpt>
      <trkpt lat="45.51326" lon="6.7359">
        <ele>1860.0696511267</ele>
        <time>2013-06-29T09:54:06.740Z</time>
      </trkpt>
      <trkpt lat="45.51335" lon="6.73588">
        <ele>1860.766170035</ele>
        <time>2013-06-29T09:54:13.740Z</time>
      </trkpt>
      <trkpt lat="45.51341" lon="6.73588">
        <ele>1860.8452255372</ele>
        <time>2013-06-29T09:54:17.630Z</time>
      </trkpt>
      <trkpt lat="45.51346" lon="6.73586">
        <ele>1860.342713136</ele>
        <time>2013-06-29T09:54:22.630Z</time>
      </trkpt>
      <trkpt lat="45.51352" lon="6.73586">
        <ele>1859.9270732234</ele>
        <time>2013-06-29T09:54:26.770Z</time>
      </trkpt>
      <trkpt lat="45.51365" lon="6.73585">
        <ele>1859.0279720369</ele>
        <time>2013-06-29T09:54:35.770Z</time>
      </trkpt>
      <trkpt lat="45.51371" lon="6.73584">
        <ele>1858.7314905371</ele>
        <time>2013-06-29T09:54:38.770Z</time>
      </trkpt>
      <trkpt lat="45.51384" lon="6.73583">
        <ele>1858.1391902513</ele>
        <time>2013-06-29T09:54:44.770Z</time>
      </trkpt>
      <trkpt lat="45.51395" lon="6.73582">
        <ele>1858</ele>
        <time>2013-06-29T09:54:52.870Z</time>
      </trkpt>
      <trkpt lat="45.51405" lon="6.73588">
        <ele>1857.74700032</ele>
        <time>2013-06-29T09:54:58.570Z</time>
      </trkpt>
      <trkpt lat="45.51413" lon="6.73599">
        <ele>1857.34700032</ele>
        <time>2013-06-29T09:55:02.570Z</time>
      </trkpt>
      <trkpt lat="45.5142" lon="6.7361">
        <ele>1857</ele>
        <time>2013-06-29T09:55:09.770Z</time>
      </trkpt>
      <trkpt lat="45.51429" lon="6.73619">
        <ele>1856.9537682159</ele>
        <time>2013-06-29T09:55:16.550Z</time>
      </trkpt>
      <trkpt lat="45.51438" lon="6.73628">
        <ele>1856.0391962889</ele>
        <time>2013-06-29T09:55:25.650Z</time>
      </trkpt>
      <trkpt lat="45.51445" lon="6.73633">
        <ele>1856</ele>
        <time>2013-06-29T09:55:32.870Z</time>
      </trkpt>
      <trkpt lat="45.51455" lon="6.73634">
        <ele>1855.6341709719</ele>
        <time>2013-06-29T09:55:39.730Z</time>
      </trkpt>
      <trkpt lat="45.51465" lon="6.73637">
        <ele>1855</ele>
        <time>2013-06-29T09:55:47.870Z</time>
      </trkpt>
      <trkpt lat="45.51475" lon="6.73645">
        <ele>1855</ele>
        <time>2013-06-29T09:55:55.770Z</time>
      </trkpt>
      <trkpt lat="45.51481" lon="6.73657">
        <ele>1854.435434335</ele>
        <time>2013-06-29T09:55:58.870Z</time>
      </trkpt>
      <trkpt lat="45.51489" lon="6.73664">
        <ele>1853.0340333825</ele>
        <time>2013-06-29T09:56:05.870Z</time>
      </trkpt>
      <trkpt lat="45.51497" lon="6.73668">
        <ele>1853</ele>
        <time>2013-06-29T09:56:12.830Z</time>
      </trkpt>
      <trkpt lat="45.51507" lon="6.73668">
        <ele>1853</ele>
        <time>2013-06-29T09:56:20.630Z</time>
      </trkpt>
      <trkpt lat="45.51515" lon="6.73669">
        <ele>1852.83100032</ele>
        <time>2013-06-29T09:56:27.730Z</time>
      </trkpt>
      <trkpt lat="45.51524" lon="6.73669">
        <ele>1852.14099968</ele>
        <time>2013-06-29T09:56:34.630Z</time>
      </trkpt>
      <trkpt lat="45.51533" lon="6.73673">
        <ele>1851.52700032</ele>
        <time>2013-06-29T09:56:40.770Z</time>
      </trkpt>
      <trkpt lat="45.51541" lon="6.73673">
        <ele>1850.93100032</ele>
        <time>2013-06-29T09:56:46.730Z</time>
      </trkpt>
      <trkpt lat="45.51549" lon="6.73678">
        <ele>1850.43100032</ele>
        <time>2013-06-29T09:56:51.730Z</time>
      </trkpt>
      <trkpt lat="45.51557" lon="6.7368">
        <ele>1849.832</ele>
        <time>2013-06-29T09:56:56.880Z</time>
      </trkpt>
      <trkpt lat="45.51565" lon="6.73682">
        <ele>1848.63399936</ele>
        <time>2013-06-29T09:57:02.870Z</time>
      </trkpt>
      <trkpt lat="45.51573" lon="6.73684">
        <ele>1848</ele>
        <time>2013-06-29T09:57:08.630Z</time>
      </trkpt>
      <trkpt lat="45.51582" lon="6.73685">
        <ele>1848</ele>
        <time>2013-06-29T09:57:14.630Z</time>
      </trkpt>
      <trkpt lat="45.5159" lon="6.73688">
        <ele>1847.5336684917</ele>
        <time>2013-06-29T09:57:20.730Z</time>
      </trkpt>
      <trkpt lat="45.51599" lon="6.73691">
        <ele>1846.94700032</ele>
        <time>2013-06-29T09:57:26.570Z</time>
      </trkpt>
      <trkpt lat="45.51606" lon="6.73695">
        <ele>1846.44700032</ele>
        <time>2013-06-29T09:57:31.570Z</time>
      </trkpt>
      <trkpt lat="45.51612" lon="6.737">
        <ele>1845.93800064</ele>
        <time>2013-06-29T09:57:36.660Z</time>
      </trkpt>
      <trkpt lat="45.5162" lon="6.73705">
        <ele>1845.33800064</ele>
        <time>2013-06-29T09:57:42.660Z</time>
      </trkpt>
      <trkpt lat="45.51626" lon="6.73708">
        <ele>1844.82600064</ele>
        <time>2013-06-29T09:57:47.780Z</time>
      </trkpt>
      <trkpt lat="45.51633" lon="6.73713">
        <ele>1844.22700032</ele>
        <time>2013-06-29T09:57:53.770Z</time>
      </trkpt>
      <trkpt lat="45.51643" lon="6.73717">
        <ele>1843.04199936</ele>
        <time>2013-06-29T09:58:00.830Z</time>
      </trkpt>
      <trkpt lat="45.51652" lon="6.7372">
        <ele>1842</ele>
        <time>2013-06-29T09:58:07.630Z</time>
      </trkpt>
      <trkpt lat="45.5166" lon="6.73722">
        <ele>1842</ele>
        <time>2013-06-29T09:58:13.630Z</time>
      </trkpt>
      <trkpt lat="45.51669" lon="6.73724">
        <ele>1842</ele>
        <time>2013-06-29T09:58:19.630Z</time>
      </trkpt>
      <trkpt lat="45.51677" lon="6.73726">
        <ele>1842</ele>
        <time>2013-06-29T09:58:25.630Z</time>
      </trkpt>
      <trkpt lat="45.51686" lon="6.73728">
        <ele>1841.4422109131</ele>
        <time>2013-06-29T09:58:31.640Z</time>
      </trkpt>
      <trkpt lat="45.51694" lon="6.7373">
        <ele>1840.83100032</ele>
        <time>2013-06-29T09:58:37.730Z</time>
      </trkpt>
      <trkpt lat="45.51701" lon="6.73732">
        <ele>1840.33100032</ele>
        <time>2013-06-29T09:58:42.730Z</time>
      </trkpt>
      <trkpt lat="45.5171" lon="6.73734">
        <ele>1840</ele>
        <time>2013-06-29T09:58:49.630Z</time>
      </trkpt>
      <trkpt lat="45.5172" lon="6.73737">
        <ele>1840.05299968</ele>
        <time>2013-06-29T09:58:56.570Z</time>
      </trkpt>
      <trkpt lat="45.5173" lon="6.7374">
        <ele>1840.75299968</ele>
        <time>2013-06-29T09:59:03.570Z</time>
      </trkpt>
      <trkpt lat="45.5174" lon="6.73746">
        <ele>1841.5545802389</ele>
        <time>2013-06-29T09:59:11.730Z</time>
      </trkpt>
      <trkpt lat="45.51751" lon="6.73751">
        <ele>1842</ele>
        <time>2013-06-29T09:59:21.870Z</time>
      </trkpt>
      <trkpt lat="45.5176" lon="6.73757">
        <ele>1841.73100032</ele>
        <time>2013-06-29T09:59:28.730Z</time>
      </trkpt>
      <trkpt lat="45.51767" lon="6.73761">
        <ele>1841.33100032</ele>
        <time>2013-06-29T09:59:32.730Z</time>
      </trkpt>
      <trkpt lat="45.51775" lon="6.73768">
        <ele>1841.744</ele>
        <time>2013-06-29T09:59:39.760Z</time>
      </trkpt>
      <trkpt lat="45.51783" lon="6.73772">
        <ele>1842.944</ele>
        <time>2013-06-29T09:59:45.760Z</time>
      </trkpt>
      <trkpt lat="45.51792" lon="6.73771">
        <ele>1842.03399936</ele>
        <time>2013-06-29T09:59:50.870Z</time>
      </trkpt>
      <trkpt lat="45.51802" lon="6.7377">
        <ele>1841.03399936</ele>
        <time>2013-06-29T09:59:55.870Z</time>
      </trkpt>
      <trkpt lat="45.51812" lon="6.7377">
        <ele>1840.5301553307</ele>
        <time>2013-06-29T10:00:00.870Z</time>
      </trkpt>
      <trkpt lat="45.51821" lon="6.73771">
        <ele>1839.8426973344</ele>
        <time>2013-06-29T10:00:07.860Z</time>
      </trkpt>
      <trkpt lat="45.5183" lon="6.73772">
        <ele>1839.1276809389</ele>
        <time>2013-06-29T10:00:14.860Z</time>
      </trkpt>
      <trkpt lat="45.51838" lon="6.73772">
        <ele>1838.4431018548</ele>
        <time>2013-06-29T10:00:21.640Z</time>
      </trkpt>
      <trkpt lat="45.51846" lon="6.73772">
        <ele>1837.83799936</ele>
        <time>2013-06-29T10:00:27.660Z</time>
      </trkpt>
      <trkpt lat="45.51853" lon="6.7377">
        <ele>1837.33800064</ele>
        <time>2013-06-29T10:00:32.660Z</time>
      </trkpt>
      <trkpt lat="45.5186" lon="6.73769">
        <ele>1836.83100032</ele>
        <time>2013-06-29T10:00:37.730Z</time>
      </trkpt>
      <trkpt lat="45.51866" lon="6.73767">
        <ele>1836.33100032</ele>
        <time>2013-06-29T10:00:42.730Z</time>
      </trkpt>
      <trkpt lat="45.51872" lon="6.73766">
        <ele>1835.66799872</ele>
        <time>2013-06-29T10:00:46.870Z</time>
      </trkpt>
      <trkpt lat="45.51879" lon="6.73764">
        <ele>1833.66799872</ele>
        <time>2013-06-29T10:00:51.870Z</time>
      </trkpt>
      <trkpt lat="45.51886" lon="6.73761">
        <ele>1831.82700032</ele>
        <time>2013-06-29T10:00:57.770Z</time>
      </trkpt>
      <trkpt lat="45.51895" lon="6.73759">
        <ele>1831.22600064</ele>
        <time>2013-06-29T10:01:03.780Z</time>
      </trkpt>
      <trkpt lat="45.51906" lon="6.73755">
        <ele>1829.6937551457</ele>
        <time>2013-06-29T10:01:12.630Z</time>
      </trkpt>
      <trkpt lat="45.5192" lon="6.73752">
        <ele>1827.6962655269</ele>
        <time>2013-06-29T10:01:22.590Z</time>
      </trkpt>
      <trkpt lat="45.51931" lon="6.73746">
        <ele>1825.85400064</ele>
        <time>2013-06-29T10:01:31.770Z</time>
      </trkpt>
      <trkpt lat="45.51941" lon="6.73744">
        <ele>1824.73800064</ele>
        <time>2013-06-29T10:01:38.660Z</time>
      </trkpt>
      <trkpt lat="45.51952" lon="6.73746">
        <ele>1824.03799936</ele>
        <time>2013-06-29T10:01:45.660Z</time>
      </trkpt>
      <trkpt lat="45.5196" lon="6.73745">
        <ele>1824.57299968</ele>
        <time>2013-06-29T10:01:51.770Z</time>
      </trkpt>
      <trkpt lat="45.51968" lon="6.7374">
        <ele>1825.26899968</ele>
        <time>2013-06-29T10:01:58.730Z</time>
      </trkpt>
      <trkpt lat="45.51978" lon="6.73736">
        <ele>1825.96899968</ele>
        <time>2013-06-29T10:02:05.730Z</time>
      </trkpt>
      <trkpt lat="45.51987" lon="6.73735">
        <ele>1825.3323557123</ele>
        <time>2013-06-29T10:02:12.870Z</time>
      </trkpt>
      <trkpt lat="45.51998" lon="6.73732">
        <ele>1824.641761029</ele>
        <time>2013-06-29T10:02:19.770Z</time>
      </trkpt>
      <trkpt lat="45.52007" lon="6.73732">
        <ele>1824.0276359558</ele>
        <time>2013-06-29T10:02:25.770Z</time>
      </trkpt>
      <trkpt lat="45.52017" lon="6.73736">
        <ele>1823.3541273833</ele>
        <time>2013-06-29T10:02:32.770Z</time>
      </trkpt>
      <trkpt lat="45.52027" lon="6.7374">
        <ele>1822.6440502006</ele>
        <time>2013-06-29T10:02:39.870Z</time>
      </trkpt>
      <trkpt lat="45.52033" lon="6.73738">
        <ele>1822.1221291839</ele>
        <time>2013-06-29T10:02:44.870Z</time>
      </trkpt>
      <trkpt lat="45.52039" lon="6.73734">
        <ele>1821.61699968</ele>
        <time>2013-06-29T10:02:49.870Z</time>
      </trkpt>
      <trkpt lat="45.52045" lon="6.73726">
        <ele>1820.52299904</ele>
        <time>2013-06-29T10:02:57.630Z</time>
      </trkpt>
      <trkpt lat="45.52051" lon="6.73715">
        <ele>1818.72299904</ele>
        <time>2013-06-29T10:03:03.630Z</time>
      </trkpt>
      <trkpt lat="45.52057" lon="6.73706">
        <ele>1817.8325076971</ele>
        <time>2013-06-29T10:03:07.730Z</time>
      </trkpt>
      <trkpt lat="45.52066" lon="6.73698">
        <ele>1817.237859342</ele>
        <time>2013-06-29T10:03:13.730Z</time>
      </trkpt>
      <trkpt lat="45.52075" lon="6.73695">
        <ele>1816.0837527883</ele>
        <time>2013-06-29T10:03:20.670Z</time>
      </trkpt>
      <trkpt lat="45.52085" lon="6.73695">
        <ele>1814.83100032</ele>
        <time>2013-06-29T10:03:27.730Z</time>
      </trkpt>
      <trkpt lat="45.52095" lon="6.73697">
        <ele>1814.13100032</ele>
        <time>2013-06-29T10:03:34.730Z</time>
      </trkpt>
      <trkpt lat="45.52101" lon="6.73699">
        <ele>1813.60700032</ele>
        <time>2013-06-29T10:03:39.970Z</time>
      </trkpt>
      <trkpt lat="45.52108" lon="6.73703">
        <ele>1813.12700032</ele>
        <time>2013-06-29T10:03:44.770Z</time>
      </trkpt>
      <trkpt lat="45.52114" lon="6.73708">
        <ele>1811.5094913117</ele>
        <time>2013-06-29T10:03:49.770Z</time>
      </trkpt>
      <trkpt lat="45.52121" lon="6.73719">
        <ele>1808.8326693227</ele>
        <time>2013-06-29T10:03:57.730Z</time>
      </trkpt>
      <trkpt lat="45.52127" lon="6.73733">
        <ele>1808.0358565737</ele>
        <time>2013-06-29T10:04:05.730Z</time>
      </trkpt>
      <trkpt lat="45.52134" lon="6.73746">
        <ele>1808</ele>
        <time>2013-06-29T10:04:13.640Z</time>
      </trkpt>
      <trkpt lat="45.5214" lon="6.73756">
        <ele>1807.1104411245</ele>
        <time>2013-06-29T10:04:20.520Z</time>
      </trkpt>
      <trkpt lat="45.52147" lon="6.73768">
        <ele>1805.7387391428</ele>
        <time>2013-06-29T10:04:28.660Z</time>
      </trkpt>
      <trkpt lat="45.52154" lon="6.73781">
        <ele>1804.87600128</ele>
        <time>2013-06-29T10:04:36.660Z</time>
      </trkpt>
      <trkpt lat="45.52161" lon="6.7379">
        <ele>1803.47599872</ele>
        <time>2013-06-29T10:04:43.660Z</time>
      </trkpt>
      <trkpt lat="45.52166" lon="6.73796">
        <ele>1802.72700032</ele>
        <time>2013-06-29T10:04:48.770Z</time>
      </trkpt>
      <trkpt lat="45.52175" lon="6.73805">
        <ele>1801.94099968</ele>
        <time>2013-06-29T10:04:56.630Z</time>
      </trkpt>
      <trkpt lat="45.52184" lon="6.73814">
        <ele>1801.14099968</ele>
        <time>2013-06-29T10:05:04.630Z</time>
      </trkpt>
      <trkpt lat="45.52193" lon="6.73821">
        <ele>1801</ele>
        <time>2013-06-29T10:05:12.670Z</time>
      </trkpt>
      <trkpt lat="45.52204" lon="6.73828">
        <ele>1800.5336684917</ele>
        <time>2013-06-29T10:05:20.730Z</time>
      </trkpt>
      <trkpt lat="45.52213" lon="6.73833">
        <ele>1799.84099968</ele>
        <time>2013-06-29T10:05:27.630Z</time>
      </trkpt>
      <trkpt lat="45.52222" lon="6.73837">
        <ele>1799.14099968</ele>
        <time>2013-06-29T10:05:34.630Z</time>
      </trkpt>
      <trkpt lat="45.52231" lon="6.73842">
        <ele>1798.42700032</ele>
        <time>2013-06-29T10:05:41.770Z</time>
      </trkpt>
      <trkpt lat="45.5224" lon="6.73846">
        <ele>1797.45400064</ele>
        <time>2013-06-29T10:05:48.770Z</time>
      </trkpt>
      <trkpt lat="45.52249" lon="6.7385">
        <ele>1796.03399936</ele>
        <time>2013-06-29T10:05:55.870Z</time>
      </trkpt>
      <trkpt lat="45.52257" lon="6.73855">
        <ele>1794.63399936</ele>
        <time>2013-06-29T10:06:02.870Z</time>
      </trkpt>
      <trkpt lat="45.52265" lon="6.73862">
        <ele>1793.6324110672</ele>
        <time>2013-06-29T10:06:09.760Z</time>
      </trkpt>
      <trkpt lat="45.52273" lon="6.73868">
        <ele>1792.9493933603</ele>
        <time>2013-06-29T10:06:16.660Z</time>
      </trkpt>
      <trkpt lat="45.52281" lon="6.73875">
        <ele>1792.2408900405</ele>
        <time>2013-06-29T10:06:23.660Z</time>
      </trkpt>
      <trkpt lat="45.52287" lon="6.73884">
        <ele>1791.52700032</ele>
        <time>2013-06-29T10:06:30.770Z</time>
      </trkpt>
      <trkpt lat="45.52293" lon="6.7389">
        <ele>1790.87600128</ele>
        <time>2013-06-29T10:06:36.660Z</time>
      </trkpt>
      <trkpt lat="45.52299" lon="6.73897">
        <ele>1789.67600128</ele>
        <time>2013-06-29T10:06:42.660Z</time>
      </trkpt>
      <trkpt lat="45.52305" lon="6.73905">
        <ele>1788.4567168817</ele>
        <time>2013-06-29T10:06:48.770Z</time>
      </trkpt>
      <trkpt lat="45.52311" lon="6.73914">
        <ele>1787.0437798348</ele>
        <time>2013-06-29T10:06:55.870Z</time>
      </trkpt>
      <trkpt lat="45.52316" lon="6.73922">
        <ele>1785.8864312325</ele>
        <time>2013-06-29T10:07:01.630Z</time>
      </trkpt>
      <trkpt lat="45.52322" lon="6.73931">
        <ele>1785</ele>
        <time>2013-06-29T10:07:07.670Z</time>
      </trkpt>
      <trkpt lat="45.52327" lon="6.73939">
        <ele>1785</ele>
        <time>2013-06-29T10:07:13.670Z</time>
      </trkpt>
      <trkpt lat="45.52332" lon="6.73948">
        <ele>1784.6412051807</ele>
        <time>2013-06-29T10:07:19.660Z</time>
      </trkpt>
      <trkpt lat="45.52339" lon="6.73955">
        <ele>1784.0381902993</ele>
        <time>2013-06-29T10:07:25.660Z</time>
      </trkpt>
      <trkpt lat="45.52345" lon="6.73962">
        <ele>1783.41699968</ele>
        <time>2013-06-29T10:07:31.870Z</time>
      </trkpt>
      <trkpt lat="45.52353" lon="6.73968">
        <ele>1782.84300032</ele>
        <time>2013-06-29T10:07:37.610Z</time>
      </trkpt>
      <trkpt lat="45.52362" lon="6.73972">
        <ele>1782.14300032</ele>
        <time>2013-06-29T10:07:44.610Z</time>
      </trkpt>
      <trkpt lat="45.52369" lon="6.73976">
        <ele>1781.03399936</ele>
        <time>2013-06-29T10:07:50.870Z</time>
      </trkpt>
      <trkpt lat="45.52376" lon="6.73978">
        <ele>1780.03399936</ele>
        <time>2013-06-29T10:07:55.870Z</time>
      </trkpt>
      <trkpt lat="45.52382" lon="6.7398">
        <ele>1778.5553335018</ele>
        <time>2013-06-29T10:08:00.870Z</time>
      </trkpt>
      <trkpt lat="45.52389" lon="6.73981">
        <ele>1777.0598205193</ele>
        <time>2013-06-29T10:08:05.870Z</time>
      </trkpt>
      <trkpt lat="45.52396" lon="6.73983">
        <ele>1777</ele>
        <time>2013-06-29T10:08:10.870Z</time>
      </trkpt>
      <trkpt lat="45.524" lon="6.73991">
        <ele>1776.9427139079</ele>
        <time>2013-06-29T10:08:16.660Z</time>
      </trkpt>
      <trkpt lat="45.52402" lon="6.74002">
        <ele>1776.3396990264</ele>
        <time>2013-06-29T10:08:22.660Z</time>
      </trkpt>
      <trkpt lat="45.52409" lon="6.74006">
        <ele>1776.27299968</ele>
        <time>2013-06-29T10:08:28.770Z</time>
      </trkpt>
      <trkpt lat="45.52415" lon="6.74006">
        <ele>1776.67299968</ele>
        <time>2013-06-29T10:08:32.770Z</time>
      </trkpt>
      <trkpt lat="45.52421" lon="6.74009">
        <ele>1777.1640774612</ele>
        <time>2013-06-29T10:08:37.730Z</time>
      </trkpt>
      <trkpt lat="45.52429" lon="6.74016">
        <ele>1777.8436895339</ele>
        <time>2013-06-29T10:08:44.730Z</time>
      </trkpt>
      <trkpt lat="45.52436" lon="6.74025">
        <ele>1778</ele>
        <time>2013-06-29T10:08:51.870Z</time>
      </trkpt>
      <trkpt lat="45.52443" lon="6.74034">
        <ele>1777.74099968</ele>
        <time>2013-06-29T10:08:58.630Z</time>
      </trkpt>
      <trkpt lat="45.52449" lon="6.74038">
        <ele>1777.228</ele>
        <time>2013-06-29T10:09:03.760Z</time>
      </trkpt>
      <trkpt lat="45.52457" lon="6.7404">
        <ele>1777</ele>
        <time>2013-06-29T10:09:09.570Z</time>
      </trkpt>
      <trkpt lat="45.52464" lon="6.74043">
        <ele>1777</ele>
        <time>2013-06-29T10:09:15.570Z</time>
      </trkpt>
      <trkpt lat="45.52471" lon="6.74046">
        <ele>1776.5326637885</ele>
        <time>2013-06-29T10:09:20.740Z</time>
      </trkpt>
      <trkpt lat="45.52476" lon="6.74052">
        <ele>1776.0311560905</ele>
        <time>2013-06-29T10:09:25.730Z</time>
      </trkpt>
      <trkpt lat="45.5248" lon="6.74058">
        <ele>1776</ele>
        <time>2013-06-29T10:09:29.870Z</time>
      </trkpt>
      <trkpt lat="45.52483" lon="6.74064">
        <ele>1776</ele>
        <time>2013-06-29T10:09:33.870Z</time>
      </trkpt>
      <trkpt lat="45.52486" lon="6.7407">
        <ele>1776</ele>
        <time>2013-06-29T10:09:37.870Z</time>
      </trkpt>
      <trkpt lat="45.52489" lon="6.74078">
        <ele>1776</ele>
        <time>2013-06-29T10:09:42.770Z</time>
      </trkpt>
      <trkpt lat="45.52493" lon="6.74087">
        <ele>1776</ele>
        <time>2013-06-29T10:09:47.740Z</time>
      </trkpt>
      <trkpt lat="45.52496" lon="6.74096">
        <ele>1776</ele>
        <time>2013-06-29T10:09:52.740Z</time>
      </trkpt>
      <trkpt lat="45.52499" lon="6.74105">
        <ele>1776</ele>
        <time>2013-06-29T10:09:57.870Z</time>
      </trkpt>
      <trkpt lat="45.52503" lon="6.74115">
        <ele>1776</ele>
        <time>2013-06-29T10:10:03.770Z</time>
      </trkpt>
      <trkpt lat="45.52507" lon="6.74123">
        <ele>1776</ele>
        <time>2013-06-29T10:10:08.770Z</time>
      </trkpt>
      <trkpt lat="45.52511" lon="6.74135">
        <ele>1776</ele>
        <time>2013-06-29T10:10:15.770Z</time>
      </trkpt>
      <trkpt lat="45.52517" lon="6.74149">
        <ele>1776</ele>
        <time>2013-06-29T10:10:23.730Z</time>
      </trkpt>
      <trkpt lat="45.52522" lon="6.74162">
        <ele>1775.41699968</ele>
        <time>2013-06-29T10:10:31.870Z</time>
      </trkpt>
      <trkpt lat="45.52526" lon="6.74174">
        <ele>1775</ele>
        <time>2013-06-29T10:10:39.570Z</time>
      </trkpt>
      <trkpt lat="45.52531" lon="6.74186">
        <ele>1775</ele>
        <time>2013-06-29T10:10:46.870Z</time>
      </trkpt>
      <trkpt lat="45.52537" lon="6.74197">
        <ele>1775</ele>
        <time>2013-06-29T10:10:53.870Z</time>
      </trkpt>
      <trkpt lat="45.52541" lon="6.74207">
        <ele>1774.52700032</ele>
        <time>2013-06-29T10:11:00.770Z</time>
      </trkpt>
      <trkpt lat="45.52547" lon="6.74219">
        <ele>1774</ele>
        <time>2013-06-29T10:11:07.630Z</time>
      </trkpt>
      <trkpt lat="45.52551" lon="6.7423">
        <ele>1774</ele>
        <time>2013-06-29T10:11:14.730Z</time>
      </trkpt>
      <trkpt lat="45.52557" lon="6.74241">
        <ele>1774</ele>
        <time>2013-06-29T10:11:21.630Z</time>
      </trkpt>
      <trkpt lat="45.52561" lon="6.74255">
        <ele>1774</ele>
        <time>2013-06-29T10:11:29.730Z</time>
      </trkpt>
      <trkpt lat="45.52565" lon="6.74265">
        <ele>1774</ele>
        <time>2013-06-29T10:11:35.630Z</time>
      </trkpt>
      <trkpt lat="45.52568" lon="6.74274">
        <ele>1773.5335305932</ele>
        <time>2013-06-29T10:11:40.770Z</time>
      </trkpt>
      <trkpt lat="45.52571" lon="6.7428">
        <ele>1773.1390530266</ele>
        <time>2013-06-29T10:11:44.770Z</time>
      </trkpt>
      <trkpt lat="45.52573" lon="6.74285">
        <ele>1772.8285995433</ele>
        <time>2013-06-29T10:11:47.870Z</time>
      </trkpt>
      <trkpt lat="45.52575" lon="6.7429">
        <ele>1772.5243401059</ele>
        <time>2013-06-29T10:11:50.870Z</time>
      </trkpt>
      <trkpt lat="45.52576" lon="6.74295">
        <ele>1772.2200806685</ele>
        <time>2013-06-29T10:11:53.870Z</time>
      </trkpt>
      <trkpt lat="45.52578" lon="6.743">
        <ele>1771.91699968</ele>
        <time>2013-06-29T10:11:56.870Z</time>
      </trkpt>
      <trkpt lat="45.5258" lon="6.74302">
        <ele>1771.71699968</ele>
        <time>2013-06-29T10:11:58.870Z</time>
      </trkpt>
      <trkpt lat="45.52582" lon="6.74307">
        <ele>1771.41699968</ele>
        <time>2013-06-29T10:12:01.870Z</time>
      </trkpt>
      <trkpt lat="45.52584" lon="6.74311">
        <ele>1771.11699968</ele>
        <time>2013-06-29T10:12:04.870Z</time>
      </trkpt>
      <trkpt lat="45.52586" lon="6.74315">
        <ele>1770.9273634794</ele>
        <time>2013-06-29T10:12:06.770Z</time>
      </trkpt>
      <trkpt lat="45.52587" lon="6.7432">
        <ele>1770.6288559216</ele>
        <time>2013-06-29T10:12:09.770Z</time>
      </trkpt>
      <trkpt lat="45.52589" lon="6.74326">
        <ele>1770.3303483639</ele>
        <time>2013-06-29T10:12:12.770Z</time>
      </trkpt>
      <trkpt lat="45.5259" lon="6.7433">
        <ele>1770.0318408062</ele>
        <time>2013-06-29T10:12:15.770Z</time>
      </trkpt>
      <trkpt lat="45.52592" lon="6.74335">
        <ele>1769.7346734522</ele>
        <time>2013-06-29T10:12:18.730Z</time>
      </trkpt>
      <trkpt lat="45.52593" lon="6.74341">
        <ele>1769.4331660114</ele>
        <time>2013-06-29T10:12:21.730Z</time>
      </trkpt>
      <trkpt lat="45.526" lon="6.74356">
        <ele>1768.4460931526</ele>
        <time>2013-06-29T10:12:31.640Z</time>
      </trkpt>
      <trkpt lat="45.52606" lon="6.74367">
        <ele>1767.3316482367</ele>
        <time>2013-06-29T10:12:42.760Z</time>
      </trkpt>
      <trkpt lat="45.52612" lon="6.74376">
        <ele>1766.61699968</ele>
        <time>2013-06-29T10:12:49.870Z</time>
      </trkpt>
      <trkpt lat="45.52617" lon="6.74387">
        <ele>1765.7842157152</ele>
        <time>2013-06-29T10:12:56.760Z</time>
      </trkpt>
      <trkpt lat="45.52624" lon="6.74397">
        <ele>1763.0839161107</ele>
        <time>2013-06-29T10:13:05.770Z</time>
      </trkpt>
      <trkpt lat="45.52631" lon="6.74403">
        <ele>1762.1215133068</ele>
        <time>2013-06-29T10:13:14.870Z</time>
      </trkpt>
      <trkpt lat="45.52639" lon="6.74408">
        <ele>1762</ele>
        <time>2013-06-29T10:13:22.630Z</time>
      </trkpt>
      <trkpt lat="45.52649" lon="6.74411">
        <ele>1760.66200064</ele>
        <time>2013-06-29T10:13:32.730Z</time>
      </trkpt>
      <trkpt lat="45.5266" lon="6.7441">
        <ele>1759.53100032</ele>
        <time>2013-06-29T10:13:40.730Z</time>
      </trkpt>
      <trkpt lat="45.52674" lon="6.74413">
        <ele>1758.54</ele>
        <time>2013-06-29T10:13:50.640Z</time>
      </trkpt>
      <trkpt lat="45.52682" lon="6.74415">
        <ele>1757.48100096</ele>
        <time>2013-06-29T10:13:57.770Z</time>
      </trkpt>
      <trkpt lat="45.52689" lon="6.74411">
        <ele>1755.08100096</ele>
        <time>2013-06-29T10:14:05.770Z</time>
      </trkpt>
      <trkpt lat="45.52681" lon="6.74409">
        <ele>1754.0218899174</ele>
        <time>2013-06-29T10:14:15.870Z</time>
      </trkpt>
      <trkpt lat="45.52664" lon="6.74403">
        <ele>1752.93800064</ele>
        <time>2013-06-29T10:14:26.660Z</time>
      </trkpt>
      <trkpt lat="45.52648" lon="6.74387">
        <ele>1751.53800064</ele>
        <time>2013-06-29T10:14:40.660Z</time>
      </trkpt>
      <trkpt lat="45.52635" lon="6.7438">
        <ele>1749.85400064</ele>
        <time>2013-06-29T10:14:51.770Z</time>
      </trkpt>
      <trkpt lat="45.52631" lon="6.74369">
        <ele>1748.82999936</ele>
        <time>2013-06-29T10:14:57.740Z</time>
      </trkpt>
      <trkpt lat="45.52628" lon="6.74363">
        <ele>1748.44</ele>
        <time>2013-06-29T10:15:01.640Z</time>
      </trkpt>
      <trkpt lat="45.52631" lon="6.74348">
        <ele>1748</ele>
        <time>2013-06-29T10:15:07.730Z</time>
      </trkpt>
      <trkpt lat="45.52631" lon="6.74347">
        <ele>1748</ele>
        <time>2013-06-29T10:15:09.270Z</time>
      </trkpt>
    </trkseg>
  </trk>
</gpx>